<?xml version='1.0' encoding='UTF-8'?><gpx version="1.1" creator="JPX - https://github.com/jenetics/jpx" xmlns="http://www.topografix.com/GPX/1/1"><trk><trkseg><trkpt lat="43.6433419" lon="11.4502066"><ele>126.0</ele><time>2026-03-22T08:19:29.803Z</time></trkpt><trkpt lat="43.6433372" lon="11.4503132"><ele>126.0</ele><time>2026-03-22T08:19:30.804Z</time></trkpt><trkpt lat="43.6433394" lon="11.4504312"><ele>126.0</ele><time>2026-03-22T08:19:31.804Z</time></trkpt><trkpt lat="43.6433554" lon="11.450557"><ele>126.0</ele><time>2026-03-22T08:19:32.804Z</time></trkpt><trkpt lat="43.6433549" lon="11.4506969"><ele>126.0</ele><time>2026-03-22T08:19:33.804Z</time></trkpt><trkpt lat="43.6433599" lon="11.45083"><ele>125.8</ele><time>2026-03-22T08:19:34.803Z</time></trkpt><trkpt lat="43.6433676" lon="11.450973"><ele>125.6</ele><time>2026-03-22T08:19:35.804Z</time></trkpt><trkpt lat="43.6433757" lon="11.4511127"><ele>125.4</ele><time>2026-03-22T08:19:36.804Z</time></trkpt><trkpt lat="43.6433749" lon="11.4512409"><ele>125.2</ele><time>2026-03-22T08:19:37.804Z</time></trkpt><trkpt lat="43.6433827" lon="11.4513587"><ele>125.0</ele><time>2026-03-22T08:19:38.804Z</time></trkpt><trkpt lat="43.6433897" lon="11.4514642"><ele>124.83333333333333</ele><time>2026-03-22T08:19:39.803Z</time></trkpt><trkpt lat="43.6433924" lon="11.4515611"><ele>124.66666666666666</ele><time>2026-03-22T08:19:40.804Z</time></trkpt><trkpt lat="43.6433916" lon="11.4517068"><ele>124.5</ele><time>2026-03-22T08:19:42.803Z</time></trkpt><trkpt lat="43.6434354" lon="11.4517981"><ele>124.33333333333334</ele><time>2026-03-22T08:19:45.803Z</time></trkpt><trkpt lat="43.6435035" lon="11.4517801"><ele>124.16666666666667</ele><time>2026-03-22T08:19:46.803Z</time></trkpt><trkpt lat="43.6435904" lon="11.451736"><ele>124.0</ele><time>2026-03-22T08:19:47.804Z</time></trkpt><trkpt lat="43.6436853" lon="11.4516944"><ele>123.75</ele><time>2026-03-22T08:19:48.804Z</time></trkpt><trkpt lat="43.6437938" lon="11.4516547"><ele>123.5</ele><time>2026-03-22T08:19:49.804Z</time></trkpt><trkpt lat="43.6439107" lon="11.4516183"><ele>123.25</ele><time>2026-03-22T08:19:50.803Z</time></trkpt><trkpt lat="43.6440227" lon="11.4515887"><ele>123.0</ele><time>2026-03-22T08:19:51.804Z</time></trkpt><trkpt lat="43.6441244" lon="11.451559"><ele>123.0</ele><time>2026-03-22T08:19:52.804Z</time></trkpt><trkpt lat="43.6442173" lon="11.4515394"><ele>123.0</ele><time>2026-03-22T08:19:53.804Z</time></trkpt><trkpt lat="43.6442965" lon="11.4515271"><ele>123.0</ele><time>2026-03-22T08:19:54.804Z</time></trkpt><trkpt lat="43.6443703" lon="11.4515352"><ele>123.0</ele><time>2026-03-22T08:19:55.804Z</time></trkpt><trkpt lat="43.6444283" lon="11.4516058"><ele>123.0</ele><time>2026-03-22T08:19:56.804Z</time></trkpt><trkpt lat="43.6444473" lon="11.4517224"><ele>123.0</ele><time>2026-03-22T08:19:58.804Z</time></trkpt><trkpt lat="43.6444999" lon="11.4517726"><ele>122.60000000000001</ele><time>2026-03-22T08:20:01.804Z</time></trkpt><trkpt lat="43.6446031" lon="11.4517494"><ele>122.20000000000002</ele><time>2026-03-22T08:20:03.804Z</time></trkpt><trkpt lat="43.6446836" lon="11.4517226"><ele>121.8</ele><time>2026-03-22T08:20:04.804Z</time></trkpt><trkpt lat="43.6447787" lon="11.4516954"><ele>121.4</ele><time>2026-03-22T08:20:05.804Z</time></trkpt><trkpt lat="43.6448848" lon="11.4516487"><ele>121.0</ele><time>2026-03-22T08:20:06.803Z</time></trkpt><trkpt lat="43.6449998" lon="11.4515849"><ele>121.0</ele><time>2026-03-22T08:20:07.804Z</time></trkpt><trkpt lat="43.6451207" lon="11.4515177"><ele>121.0</ele><time>2026-03-22T08:20:08.804Z</time></trkpt><trkpt lat="43.6452502" lon="11.451459"><ele>121.0</ele><time>2026-03-22T08:20:09.804Z</time></trkpt><trkpt lat="43.645391" lon="11.4514069"><ele>121.0</ele><time>2026-03-22T08:20:10.803Z</time></trkpt><trkpt lat="43.6455366" lon="11.4513631"><ele>120.33333333333334</ele><time>2026-03-22T08:20:11.804Z</time></trkpt><trkpt lat="43.6456875" lon="11.4513258"><ele>119.66666666666666</ele><time>2026-03-22T08:20:12.804Z</time></trkpt><trkpt lat="43.6458406" lon="11.4512864"><ele>119.0</ele><time>2026-03-22T08:20:13.803Z</time></trkpt><trkpt lat="43.6459925" lon="11.4512483"><ele>120.0</ele><time>2026-03-22T08:20:14.803Z</time></trkpt><trkpt lat="43.6461465" lon="11.4512099"><ele>121.0</ele><time>2026-03-22T08:20:15.804Z</time></trkpt><trkpt lat="43.6462949" lon="11.4511659"><ele>122.0</ele><time>2026-03-22T08:20:16.803Z</time></trkpt><trkpt lat="43.6464451" lon="11.4511246"><ele>122.0</ele><time>2026-03-22T08:20:17.804Z</time></trkpt><trkpt lat="43.6466006" lon="11.4510857"><ele>122.0</ele><time>2026-03-22T08:20:18.803Z</time></trkpt><trkpt lat="43.646758" lon="11.4510477"><ele>122.0</ele><time>2026-03-22T08:20:19.804Z</time></trkpt><trkpt lat="43.6469203" lon="11.451007"><ele>122.0</ele><time>2026-03-22T08:20:20.803Z</time></trkpt><trkpt lat="43.6470814" lon="11.4509624"><ele>122.0</ele><time>2026-03-22T08:20:21.804Z</time></trkpt><trkpt lat="43.6472401" lon="11.4509257"><ele>122.0</ele><time>2026-03-22T08:20:22.804Z</time></trkpt><trkpt lat="43.647401" lon="11.4509029"><ele>122.0</ele><time>2026-03-22T08:20:23.804Z</time></trkpt><trkpt lat="43.6475588" lon="11.450891"><ele>122.0</ele><time>2026-03-22T08:20:24.804Z</time></trkpt><trkpt lat="43.6477176" lon="11.4508784"><ele>122.0</ele><time>2026-03-22T08:20:25.803Z</time></trkpt><trkpt lat="43.6478734" lon="11.4508681"><ele>122.0</ele><time>2026-03-22T08:20:26.804Z</time></trkpt><trkpt lat="43.6480305" lon="11.4508592"><ele>122.0</ele><time>2026-03-22T08:20:27.804Z</time></trkpt><trkpt lat="43.6481864" lon="11.4508559"><ele>122.0</ele><time>2026-03-22T08:20:28.804Z</time></trkpt><trkpt lat="43.6483445" lon="11.4508606"><ele>122.0</ele><time>2026-03-22T08:20:29.803Z</time></trkpt><trkpt lat="43.6485037" lon="11.4508874"><ele>122.0</ele><time>2026-03-22T08:20:30.803Z</time></trkpt><trkpt lat="43.6486608" lon="11.450926"><ele>122.0</ele><time>2026-03-22T08:20:31.803Z</time></trkpt><trkpt lat="43.6488193" lon="11.4509705"><ele>121.66666666666666</ele><time>2026-03-22T08:20:32.804Z</time></trkpt><trkpt lat="43.6489807" lon="11.4510136"><ele>121.33333333333334</ele><time>2026-03-22T08:20:33.804Z</time></trkpt><trkpt lat="43.6491402" lon="11.4510538"><ele>121.0</ele><time>2026-03-22T08:20:34.804Z</time></trkpt><trkpt lat="43.6493" lon="11.4510901"><ele>121.33333333333334</ele><time>2026-03-22T08:20:35.804Z</time></trkpt><trkpt lat="43.6494618" lon="11.4511248"><ele>121.66666666666666</ele><time>2026-03-22T08:20:36.803Z</time></trkpt><trkpt lat="43.6496254" lon="11.4511439"><ele>122.0</ele><time>2026-03-22T08:20:37.804Z</time></trkpt><trkpt lat="43.6497858" lon="11.4511453"><ele>122.0</ele><time>2026-03-22T08:20:38.804Z</time></trkpt><trkpt lat="43.6499423" lon="11.4511344"><ele>122.0</ele><time>2026-03-22T08:20:39.804Z</time></trkpt><trkpt lat="43.6500983" lon="11.45112"><ele>122.0</ele><time>2026-03-22T08:20:40.804Z</time></trkpt><trkpt lat="43.6502515" lon="11.451103"><ele>123.0</ele><time>2026-03-22T08:20:41.803Z</time></trkpt><trkpt lat="43.6504042" lon="11.4510966"><ele>124.0</ele><time>2026-03-22T08:20:42.804Z</time></trkpt><trkpt lat="43.6505534" lon="11.451097"><ele>125.0</ele><time>2026-03-22T08:20:43.804Z</time></trkpt><trkpt lat="43.6507036" lon="11.4510998"><ele>125.0</ele><time>2026-03-22T08:20:44.803Z</time></trkpt><trkpt lat="43.6508508" lon="11.4511189"><ele>125.0</ele><time>2026-03-22T08:20:45.804Z</time></trkpt><trkpt lat="43.6509866" lon="11.4511741"><ele>125.0</ele><time>2026-03-22T08:20:46.804Z</time></trkpt><trkpt lat="43.6511189" lon="11.4512472"><ele>125.0</ele><time>2026-03-22T08:20:47.804Z</time></trkpt><trkpt lat="43.6512527" lon="11.451327"><ele>124.5</ele><time>2026-03-22T08:20:48.804Z</time></trkpt><trkpt lat="43.6513749" lon="11.4513969"><ele>124.0</ele><time>2026-03-22T08:20:49.804Z</time></trkpt><trkpt lat="43.6514993" lon="11.4514429"><ele>123.5</ele><time>2026-03-22T08:20:50.804Z</time></trkpt><trkpt lat="43.6516199" lon="11.4514657"><ele>123.0</ele><time>2026-03-22T08:20:51.804Z</time></trkpt><trkpt lat="43.6517421" lon="11.4514748"><ele>123.0</ele><time>2026-03-22T08:20:52.804Z</time></trkpt><trkpt lat="43.6518686" lon="11.45148"><ele>123.0</ele><time>2026-03-22T08:20:53.804Z</time></trkpt><trkpt lat="43.6519966" lon="11.4514751"><ele>123.0</ele><time>2026-03-22T08:20:54.804Z</time></trkpt><trkpt lat="43.6521152" lon="11.4514663"><ele>123.0</ele><time>2026-03-22T08:20:55.804Z</time></trkpt><trkpt lat="43.6522245" lon="11.4514529"><ele>122.66666666666667</ele><time>2026-03-22T08:20:56.804Z</time></trkpt><trkpt lat="43.6523287" lon="11.4514347"><ele>122.33333333333334</ele><time>2026-03-22T08:20:57.804Z</time></trkpt><trkpt lat="43.6524233" lon="11.4514161"><ele>122.0</ele><time>2026-03-22T08:20:58.804Z</time></trkpt><trkpt lat="43.6525005" lon="11.4514015"><ele>121.66666666666667</ele><time>2026-03-22T08:20:59.803Z</time></trkpt><trkpt lat="43.6525785" lon="11.4513867"><ele>121.33333333333334</ele><time>2026-03-22T08:21:00.804Z</time></trkpt><trkpt lat="43.6526576" lon="11.4513801"><ele>121.0</ele><time>2026-03-22T08:21:01.804Z</time></trkpt><trkpt lat="43.652739" lon="11.4513691"><ele>121.16666666666667</ele><time>2026-03-22T08:21:02.804Z</time></trkpt><trkpt lat="43.6528209" lon="11.4513502"><ele>121.33333333333334</ele><time>2026-03-22T08:21:03.803Z</time></trkpt><trkpt lat="43.6529028" lon="11.4513254"><ele>121.5</ele><time>2026-03-22T08:21:04.804Z</time></trkpt><trkpt lat="43.6529771" lon="11.4512962"><ele>121.66666666666666</ele><time>2026-03-22T08:21:05.803Z</time></trkpt><trkpt lat="43.6530484" lon="11.4512689"><ele>121.83333333333333</ele><time>2026-03-22T08:21:06.803Z</time></trkpt><trkpt lat="43.6531213" lon="11.4512395"><ele>122.0</ele><time>2026-03-22T08:21:07.804Z</time></trkpt><trkpt lat="43.6531933" lon="11.4512104"><ele>122.16666666666666</ele><time>2026-03-22T08:21:08.804Z</time></trkpt><trkpt lat="43.6532613" lon="11.4511782"><ele>122.33333333333333</ele><time>2026-03-22T08:21:09.804Z</time></trkpt><trkpt lat="43.6533261" lon="11.4511559"><ele>122.5</ele><time>2026-03-22T08:21:10.804Z</time></trkpt><trkpt lat="43.65344" lon="11.4511021"><ele>122.66666666666666</ele><time>2026-03-22T08:21:12.803Z</time></trkpt><trkpt lat="43.6535521" lon="11.4510682"><ele>122.83333333333333</ele><time>2026-03-22T08:21:14.804Z</time></trkpt><trkpt lat="43.6536176" lon="11.4510684"><ele>123.0</ele><time>2026-03-22T08:21:15.804Z</time></trkpt><trkpt lat="43.65368" lon="11.4510462"><ele>123.0</ele><time>2026-03-22T08:21:16.803Z</time></trkpt><trkpt lat="43.6537356" lon="11.4509921"><ele>123.0</ele><time>2026-03-22T08:21:17.803Z</time></trkpt><trkpt lat="43.6538263" lon="11.4508827"><ele>123.0</ele><time>2026-03-22T08:21:19.804Z</time></trkpt><trkpt lat="43.6538858" lon="11.4508322"><ele>123.0</ele><time>2026-03-22T08:21:20.804Z</time></trkpt><trkpt lat="43.6539606" lon="11.4507814"><ele>123.0</ele><time>2026-03-22T08:21:21.804Z</time></trkpt><trkpt lat="43.6540366" lon="11.4507285"><ele>123.0</ele><time>2026-03-22T08:21:22.804Z</time></trkpt><trkpt lat="43.6541253" lon="11.4506688"><ele>123.0</ele><time>2026-03-22T08:21:23.804Z</time></trkpt><trkpt lat="43.6542202" lon="11.450602"><ele>123.0</ele><time>2026-03-22T08:21:24.804Z</time></trkpt><trkpt lat="43.6543251" lon="11.4505199"><ele>123.0</ele><time>2026-03-22T08:21:25.804Z</time></trkpt><trkpt lat="43.6544381" lon="11.4504354"><ele>123.0</ele><time>2026-03-22T08:21:26.804Z</time></trkpt><trkpt lat="43.6545451" lon="11.4503535"><ele>123.0</ele><time>2026-03-22T08:21:27.804Z</time></trkpt><trkpt lat="43.6546604" lon="11.4502659"><ele>123.0</ele><time>2026-03-22T08:21:28.804Z</time></trkpt><trkpt lat="43.6547702" lon="11.4501855"><ele>123.0</ele><time>2026-03-22T08:21:29.804Z</time></trkpt><trkpt lat="43.6548772" lon="11.4500925"><ele>123.0</ele><time>2026-03-22T08:21:30.804Z</time></trkpt><trkpt lat="43.6549894" lon="11.4500133"><ele>123.0</ele><time>2026-03-22T08:21:31.804Z</time></trkpt><trkpt lat="43.6551024" lon="11.4499429"><ele>123.00000000000001</ele><time>2026-03-22T08:21:32.804Z</time></trkpt><trkpt lat="43.6552069" lon="11.4498904"><ele>123.00000000000001</ele><time>2026-03-22T08:21:33.804Z</time></trkpt><trkpt lat="43.6553111" lon="11.4498512"><ele>123.0</ele><time>2026-03-22T08:21:34.804Z</time></trkpt><trkpt lat="43.6554022" lon="11.4498164"><ele>123.0</ele><time>2026-03-22T08:21:35.804Z</time></trkpt><trkpt lat="43.6554846" lon="11.4497896"><ele>123.16666666666667</ele><time>2026-03-22T08:21:36.804Z</time></trkpt><trkpt lat="43.6555495" lon="11.4497392"><ele>123.33333333333334</ele><time>2026-03-22T08:21:37.803Z</time></trkpt><trkpt lat="43.6555908" lon="11.4496432"><ele>123.5</ele><time>2026-03-22T08:21:38.804Z</time></trkpt><trkpt lat="43.6556114" lon="11.4495316"><ele>123.66666666666667</ele><time>2026-03-22T08:21:39.804Z</time></trkpt><trkpt lat="43.6556135" lon="11.4494072"><ele>123.83333333333334</ele><time>2026-03-22T08:21:40.803Z</time></trkpt><trkpt lat="43.6556048" lon="11.4492836"><ele>124.0</ele><time>2026-03-22T08:21:41.803Z</time></trkpt><trkpt lat="43.6555955" lon="11.4491635"><ele>124.00000000000001</ele><time>2026-03-22T08:21:42.804Z</time></trkpt><trkpt lat="43.655587" lon="11.4490451"><ele>124.0</ele><time>2026-03-22T08:21:43.803Z</time></trkpt><trkpt lat="43.6555756" lon="11.4489251"><ele>124.0</ele><time>2026-03-22T08:21:44.804Z</time></trkpt><trkpt lat="43.6555729" lon="11.4488078"><ele>124.0</ele><time>2026-03-22T08:21:45.803Z</time></trkpt><trkpt lat="43.6555638" lon="11.4486853"><ele>124.00000000000001</ele><time>2026-03-22T08:21:46.804Z</time></trkpt><trkpt lat="43.6555644" lon="11.4485593"><ele>124.0</ele><time>2026-03-22T08:21:47.804Z</time></trkpt><trkpt lat="43.6555834" lon="11.4484409"><ele>124.33333333333334</ele><time>2026-03-22T08:21:48.804Z</time></trkpt><trkpt lat="43.6556249" lon="11.4483376"><ele>124.66666666666667</ele><time>2026-03-22T08:21:49.803Z</time></trkpt><trkpt lat="43.6556731" lon="11.4482466"><ele>125.0</ele><time>2026-03-22T08:21:50.803Z</time></trkpt><trkpt lat="43.6557537" lon="11.4482062"><ele>125.33333333333334</ele><time>2026-03-22T08:21:51.804Z</time></trkpt><trkpt lat="43.6558428" lon="11.4481723"><ele>125.66666666666667</ele><time>2026-03-22T08:21:53.804Z</time></trkpt><trkpt lat="43.655878" lon="11.4480455"><ele>126.0</ele><time>2026-03-22T08:21:55.804Z</time></trkpt><trkpt lat="43.6558713" lon="11.44794"><ele>127.6</ele><time>2026-03-22T08:21:56.804Z</time></trkpt><trkpt lat="43.6558632" lon="11.4478205"><ele>129.2</ele><time>2026-03-22T08:21:57.804Z</time></trkpt><trkpt lat="43.655856" lon="11.4476936"><ele>130.8</ele><time>2026-03-22T08:21:58.804Z</time></trkpt><trkpt lat="43.6558537" lon="11.4475571"><ele>132.4</ele><time>2026-03-22T08:21:59.804Z</time></trkpt><trkpt lat="43.6558597" lon="11.4474315"><ele>134.0</ele><time>2026-03-22T08:22:00.803Z</time></trkpt><trkpt lat="43.6558553" lon="11.4473127"><ele>134.0</ele><time>2026-03-22T08:22:01.803Z</time></trkpt><trkpt lat="43.6558223" lon="11.4472081"><ele>134.0</ele><time>2026-03-22T08:22:02.804Z</time></trkpt><trkpt lat="43.6557509" lon="11.4471614"><ele>134.0</ele><time>2026-03-22T08:22:03.804Z</time></trkpt><trkpt lat="43.6556734" lon="11.4471393"><ele>134.0</ele><time>2026-03-22T08:22:04.803Z</time></trkpt><trkpt lat="43.6556009" lon="11.4471238"><ele>134.0</ele><time>2026-03-22T08:22:05.803Z</time></trkpt><trkpt lat="43.6554793" lon="11.447031"><ele>135.4</ele><time>2026-03-22T08:22:07.804Z</time></trkpt><trkpt lat="43.6554054" lon="11.4469637"><ele>136.8</ele><time>2026-03-22T08:22:08.804Z</time></trkpt><trkpt lat="43.6553351" lon="11.4468886"><ele>138.2</ele><time>2026-03-22T08:22:09.804Z</time></trkpt><trkpt lat="43.6552595" lon="11.446797"><ele>139.6</ele><time>2026-03-22T08:22:10.804Z</time></trkpt><trkpt lat="43.6551905" lon="11.446707"><ele>141.0</ele><time>2026-03-22T08:22:11.803Z</time></trkpt><trkpt lat="43.655115" lon="11.446604"><ele>141.0</ele><time>2026-03-22T08:22:12.803Z</time></trkpt><trkpt lat="43.6550393" lon="11.4464953"><ele>141.0</ele><time>2026-03-22T08:22:13.803Z</time></trkpt><trkpt lat="43.6549648" lon="11.4463878"><ele>141.0</ele><time>2026-03-22T08:22:14.804Z</time></trkpt><trkpt lat="43.6548834" lon="11.4462885"><ele>141.0</ele><time>2026-03-22T08:22:15.803Z</time></trkpt><trkpt lat="43.6547932" lon="11.4461936"><ele>141.0</ele><time>2026-03-22T08:22:16.804Z</time></trkpt><trkpt lat="43.654694" lon="11.4461116"><ele>141.0</ele><time>2026-03-22T08:22:17.804Z</time></trkpt><trkpt lat="43.6545948" lon="11.4460161"><ele>141.0</ele><time>2026-03-22T08:22:18.804Z</time></trkpt><trkpt lat="43.6544971" lon="11.4459108"><ele>141.0</ele><time>2026-03-22T08:22:19.804Z</time></trkpt><trkpt lat="43.6544168" lon="11.4457921"><ele>141.0</ele><time>2026-03-22T08:22:20.804Z</time></trkpt><trkpt lat="43.6543606" lon="11.4456329"><ele>141.0</ele><time>2026-03-22T08:22:21.804Z</time></trkpt><trkpt lat="43.6543284" lon="11.4454639"><ele>141.0</ele><time>2026-03-22T08:22:22.804Z</time></trkpt><trkpt lat="43.6542973" lon="11.4452811"><ele>141.0</ele><time>2026-03-22T08:22:23.804Z</time></trkpt><trkpt lat="43.6542565" lon="11.4451195"><ele>141.0</ele><time>2026-03-22T08:22:24.803Z</time></trkpt><trkpt lat="43.6542071" lon="11.4449818"><ele>143.0</ele><time>2026-03-22T08:22:25.804Z</time></trkpt><trkpt lat="43.6541787" lon="11.4448437"><ele>145.0</ele><time>2026-03-22T08:22:26.804Z</time></trkpt><trkpt lat="43.6541599" lon="11.4447207"><ele>147.0</ele><time>2026-03-22T08:22:27.803Z</time></trkpt><trkpt lat="43.6541467" lon="11.4445983"><ele>149.0</ele><time>2026-03-22T08:22:28.804Z</time></trkpt><trkpt lat="43.6541176" lon="11.4444741"><ele>151.0</ele><time>2026-03-22T08:22:29.804Z</time></trkpt><trkpt lat="43.6540967" lon="11.4443519"><ele>153.83333333333334</ele><time>2026-03-22T08:22:30.804Z</time></trkpt><trkpt lat="43.6540841" lon="11.4442379"><ele>156.66666666666669</ele><time>2026-03-22T08:22:31.804Z</time></trkpt><trkpt lat="43.6540822" lon="11.444119"><ele>159.5</ele><time>2026-03-22T08:22:32.804Z</time></trkpt><trkpt lat="43.6540754" lon="11.4440032"><ele>162.33333333333334</ele><time>2026-03-22T08:22:33.804Z</time></trkpt><trkpt lat="43.6540629" lon="11.4438821"><ele>165.16666666666666</ele><time>2026-03-22T08:22:34.804Z</time></trkpt><trkpt lat="43.6540497" lon="11.443764"><ele>168.0</ele><time>2026-03-22T08:22:35.804Z</time></trkpt><trkpt lat="43.6540427" lon="11.4436447"><ele>170.4</ele><time>2026-03-22T08:22:36.804Z</time></trkpt><trkpt lat="43.6540376" lon="11.4435225"><ele>172.8</ele><time>2026-03-22T08:22:37.803Z</time></trkpt><trkpt lat="43.6540326" lon="11.4434011"><ele>175.2</ele><time>2026-03-22T08:22:38.804Z</time></trkpt><trkpt lat="43.6540394" lon="11.4432732"><ele>177.6</ele><time>2026-03-22T08:22:39.803Z</time></trkpt><trkpt lat="43.6540464" lon="11.4431487"><ele>180.0</ele><time>2026-03-22T08:22:40.804Z</time></trkpt><trkpt lat="43.6540629" lon="11.4430209"><ele>180.6</ele><time>2026-03-22T08:22:41.803Z</time></trkpt><trkpt lat="43.6540944" lon="11.4428972"><ele>181.2</ele><time>2026-03-22T08:22:42.804Z</time></trkpt><trkpt lat="43.6541276" lon="11.4427704"><ele>181.8</ele><time>2026-03-22T08:22:43.804Z</time></trkpt><trkpt lat="43.6541772" lon="11.4426399"><ele>182.4</ele><time>2026-03-22T08:22:44.804Z</time></trkpt><trkpt lat="43.6542356" lon="11.4425177"><ele>183.0</ele><time>2026-03-22T08:22:45.804Z</time></trkpt><trkpt lat="43.6543112" lon="11.4423845"><ele>183.0</ele><time>2026-03-22T08:22:46.804Z</time></trkpt><trkpt lat="43.6543873" lon="11.4422218"><ele>183.0</ele><time>2026-03-22T08:22:47.804Z</time></trkpt><trkpt lat="43.6544434" lon="11.4420417"><ele>183.0</ele><time>2026-03-22T08:22:48.804Z</time></trkpt><trkpt lat="43.6544863" lon="11.4418723"><ele>183.0</ele><time>2026-03-22T08:22:49.804Z</time></trkpt><trkpt lat="43.6545243" lon="11.4417038"><ele>186.2</ele><time>2026-03-22T08:22:50.803Z</time></trkpt><trkpt lat="43.6545555" lon="11.4415412"><ele>189.4</ele><time>2026-03-22T08:22:51.804Z</time></trkpt><trkpt lat="43.6545843" lon="11.4413904"><ele>192.6</ele><time>2026-03-22T08:22:52.804Z</time></trkpt><trkpt lat="43.6546003" lon="11.4412508"><ele>195.79999999999998</ele><time>2026-03-22T08:22:53.804Z</time></trkpt><trkpt lat="43.6546047" lon="11.4411076"><ele>199.0</ele><time>2026-03-22T08:22:54.803Z</time></trkpt><trkpt lat="43.6545918" lon="11.4409528"><ele>200.0</ele><time>2026-03-22T08:22:55.804Z</time></trkpt><trkpt lat="43.6545669" lon="11.4408027"><ele>201.0</ele><time>2026-03-22T08:22:56.803Z</time></trkpt><trkpt lat="43.6545371" lon="11.4406549"><ele>202.0</ele><time>2026-03-22T08:22:57.804Z</time></trkpt><trkpt lat="43.6545104" lon="11.4405047"><ele>203.0</ele><time>2026-03-22T08:22:58.803Z</time></trkpt><trkpt lat="43.6544833" lon="11.4403629"><ele>204.0</ele><time>2026-03-22T08:22:59.804Z</time></trkpt><trkpt lat="43.654452" lon="11.4402217"><ele>205.0</ele><time>2026-03-22T08:23:00.804Z</time></trkpt><trkpt lat="43.6544203" lon="11.4400933"><ele>206.0</ele><time>2026-03-22T08:23:01.804Z</time></trkpt><trkpt lat="43.6543846" lon="11.4399561"><ele>207.0</ele><time>2026-03-22T08:23:02.804Z</time></trkpt><trkpt lat="43.6543611" lon="11.4398224"><ele>208.0</ele><time>2026-03-22T08:23:03.804Z</time></trkpt><trkpt lat="43.6543637" lon="11.4396811"><ele>209.0</ele><time>2026-03-22T08:23:04.803Z</time></trkpt><trkpt lat="43.6544121" lon="11.4395355"><ele>211.2</ele><time>2026-03-22T08:23:05.804Z</time></trkpt><trkpt lat="43.6544793" lon="11.4394164"><ele>213.39999999999998</ele><time>2026-03-22T08:23:06.803Z</time></trkpt><trkpt lat="43.6545397" lon="11.439295"><ele>215.6</ele><time>2026-03-22T08:23:07.804Z</time></trkpt><trkpt lat="43.6545978" lon="11.4391807"><ele>217.8</ele><time>2026-03-22T08:23:08.804Z</time></trkpt><trkpt lat="43.6546526" lon="11.4390748"><ele>220.0</ele><time>2026-03-22T08:23:09.804Z</time></trkpt><trkpt lat="43.6546938" lon="11.4389602"><ele>220.0</ele><time>2026-03-22T08:23:10.804Z</time></trkpt><trkpt lat="43.6547252" lon="11.4388386"><ele>220.0</ele><time>2026-03-22T08:23:11.804Z</time></trkpt><trkpt lat="43.6547647" lon="11.4387227"><ele>220.0</ele><time>2026-03-22T08:23:12.804Z</time></trkpt><trkpt lat="43.6547479" lon="11.438603"><ele>220.0</ele><time>2026-03-22T08:23:13.804Z</time></trkpt><trkpt lat="43.6546821" lon="11.4384806"><ele>220.0</ele><time>2026-03-22T08:23:14.804Z</time></trkpt><trkpt lat="43.6546152" lon="11.4383691"><ele>220.33333333333331</ele><time>2026-03-22T08:23:15.804Z</time></trkpt><trkpt lat="43.6545568" lon="11.4382642"><ele>220.66666666666666</ele><time>2026-03-22T08:23:16.804Z</time></trkpt><trkpt lat="43.6545048" lon="11.4381707"><ele>221.0</ele><time>2026-03-22T08:23:17.803Z</time></trkpt><trkpt lat="43.6544595" lon="11.4380739"><ele>221.33333333333331</ele><time>2026-03-22T08:23:18.804Z</time></trkpt><trkpt lat="43.6544296" lon="11.4379809"><ele>221.66666666666666</ele><time>2026-03-22T08:23:19.803Z</time></trkpt><trkpt lat="43.6544086" lon="11.4378726"><ele>222.0</ele><time>2026-03-22T08:23:20.804Z</time></trkpt><trkpt lat="43.6544069" lon="11.4377559"><ele>222.0</ele><time>2026-03-22T08:23:21.803Z</time></trkpt><trkpt lat="43.6544198" lon="11.4376475"><ele>222.0</ele><time>2026-03-22T08:23:22.804Z</time></trkpt><trkpt lat="43.6544581" lon="11.4375496"><ele>222.0</ele><time>2026-03-22T08:23:23.804Z</time></trkpt><trkpt lat="43.6545077" lon="11.4374758"><ele>222.0</ele><time>2026-03-22T08:23:24.804Z</time></trkpt><trkpt lat="43.6545674" lon="11.4374043"><ele>222.0</ele><time>2026-03-22T08:23:25.804Z</time></trkpt><trkpt lat="43.6546392" lon="11.4373286"><ele>222.0</ele><time>2026-03-22T08:23:26.804Z</time></trkpt><trkpt lat="43.6547081" lon="11.4372483"><ele>224.0</ele><time>2026-03-22T08:23:27.804Z</time></trkpt><trkpt lat="43.6547786" lon="11.4371586"><ele>226.0</ele><time>2026-03-22T08:23:28.803Z</time></trkpt><trkpt lat="43.6548433" lon="11.4370662"><ele>228.0</ele><time>2026-03-22T08:23:29.804Z</time></trkpt><trkpt lat="43.6549027" lon="11.4369564"><ele>230.0</ele><time>2026-03-22T08:23:30.804Z</time></trkpt><trkpt lat="43.6549621" lon="11.4368277"><ele>232.0</ele><time>2026-03-22T08:23:31.804Z</time></trkpt><trkpt lat="43.6550116" lon="11.4366656"><ele>234.25</ele><time>2026-03-22T08:23:32.804Z</time></trkpt><trkpt lat="43.6550632" lon="11.4364973"><ele>236.5</ele><time>2026-03-22T08:23:33.804Z</time></trkpt><trkpt lat="43.6551029" lon="11.4363526"><ele>238.75</ele><time>2026-03-22T08:23:34.804Z</time></trkpt><trkpt lat="43.6551288" lon="11.4362102"><ele>241.0</ele><time>2026-03-22T08:23:35.804Z</time></trkpt><trkpt lat="43.6551468" lon="11.4360745"><ele>242.60000000000002</ele><time>2026-03-22T08:23:36.804Z</time></trkpt><trkpt lat="43.6551586" lon="11.4359731"><ele>244.20000000000002</ele><time>2026-03-22T08:23:37.803Z</time></trkpt><trkpt lat="43.6551752" lon="11.4358358"><ele>245.79999999999998</ele><time>2026-03-22T08:23:39.804Z</time></trkpt><trkpt lat="43.6552009" lon="11.4356986"><ele>247.39999999999998</ele><time>2026-03-22T08:23:42.804Z</time></trkpt><trkpt lat="43.6552043" lon="11.4355338"><ele>249.0</ele><time>2026-03-22T08:23:44.804Z</time></trkpt><trkpt lat="43.6551636" lon="11.4354116"><ele>249.75</ele><time>2026-03-22T08:23:45.804Z</time></trkpt><trkpt lat="43.6551216" lon="11.4352635"><ele>250.5</ele><time>2026-03-22T08:23:46.803Z</time></trkpt><trkpt lat="43.6550883" lon="11.4350833"><ele>251.25</ele><time>2026-03-22T08:23:47.804Z</time></trkpt><trkpt lat="43.6550865" lon="11.434878"><ele>252.0</ele><time>2026-03-22T08:23:48.803Z</time></trkpt><trkpt lat="43.6550933" lon="11.4347245"><ele>252.0</ele><time>2026-03-22T08:23:49.804Z</time></trkpt><trkpt lat="43.6550865" lon="11.4345815"><ele>252.0</ele><time>2026-03-22T08:23:50.804Z</time></trkpt><trkpt lat="43.6550246" lon="11.4344294"><ele>252.0</ele><time>2026-03-22T08:23:51.804Z</time></trkpt><trkpt lat="43.654925" lon="11.4343054"><ele>252.0</ele><time>2026-03-22T08:23:52.804Z</time></trkpt><trkpt lat="43.6548047" lon="11.4342282"><ele>252.0</ele><time>2026-03-22T08:23:53.804Z</time></trkpt><trkpt lat="43.6546537" lon="11.4341611"><ele>252.0</ele><time>2026-03-22T08:23:54.804Z</time></trkpt><trkpt lat="43.6545038" lon="11.4341082"><ele>252.0</ele><time>2026-03-22T08:23:55.803Z</time></trkpt><trkpt lat="43.6543648" lon="11.434047"><ele>251.75</ele><time>2026-03-22T08:23:56.804Z</time></trkpt><trkpt lat="43.6542444" lon="11.4339453"><ele>251.5</ele><time>2026-03-22T08:23:57.804Z</time></trkpt><trkpt lat="43.6541291" lon="11.4338181"><ele>251.25</ele><time>2026-03-22T08:23:58.804Z</time></trkpt><trkpt lat="43.6540215" lon="11.4336738"><ele>251.0</ele><time>2026-03-22T08:23:59.803Z</time></trkpt><trkpt lat="43.6539204" lon="11.4335006"><ele>251.0</ele><time>2026-03-22T08:24:00.804Z</time></trkpt><trkpt lat="43.6538568" lon="11.4332977"><ele>251.0</ele><time>2026-03-22T08:24:01.804Z</time></trkpt><trkpt lat="43.6538012" lon="11.4330721"><ele>251.0</ele><time>2026-03-22T08:24:02.804Z</time></trkpt><trkpt lat="43.6537642" lon="11.4328478"><ele>252.0</ele><time>2026-03-22T08:24:03.804Z</time></trkpt><trkpt lat="43.6537553" lon="11.4326234"><ele>253.0</ele><time>2026-03-22T08:24:04.804Z</time></trkpt><trkpt lat="43.6537796" lon="11.432406"><ele>254.0</ele><time>2026-03-22T08:24:05.804Z</time></trkpt><trkpt lat="43.6538118" lon="11.4321986"><ele>254.75</ele><time>2026-03-22T08:24:06.804Z</time></trkpt><trkpt lat="43.653835" lon="11.4320015"><ele>255.5</ele><time>2026-03-22T08:24:07.804Z</time></trkpt><trkpt lat="43.6538466" lon="11.4318145"><ele>256.25</ele><time>2026-03-22T08:24:08.804Z</time></trkpt><trkpt lat="43.6538286" lon="11.4316322"><ele>257.0</ele><time>2026-03-22T08:24:09.803Z</time></trkpt><trkpt lat="43.6537907" lon="11.4314373"><ele>257.5</ele><time>2026-03-22T08:24:10.804Z</time></trkpt><trkpt lat="43.6537382" lon="11.4312449"><ele>258.0</ele><time>2026-03-22T08:24:11.804Z</time></trkpt><trkpt lat="43.653673" lon="11.4310489"><ele>258.5</ele><time>2026-03-22T08:24:12.804Z</time></trkpt><trkpt lat="43.6536032" lon="11.4308767"><ele>259.0</ele><time>2026-03-22T08:24:13.804Z</time></trkpt><trkpt lat="43.6535327" lon="11.4307243"><ele>259.75</ele><time>2026-03-22T08:24:14.804Z</time></trkpt><trkpt lat="43.653449" lon="11.4306341"><ele>260.5</ele><time>2026-03-22T08:24:15.804Z</time></trkpt><trkpt lat="43.6533302" lon="11.4305966"><ele>261.25</ele><time>2026-03-22T08:24:16.804Z</time></trkpt><trkpt lat="43.653207" lon="11.43057"><ele>262.0</ele><time>2026-03-22T08:24:17.804Z</time></trkpt><trkpt lat="43.6530732" lon="11.4305368"><ele>262.0</ele><time>2026-03-22T08:24:18.804Z</time></trkpt><trkpt lat="43.6529396" lon="11.4305046"><ele>262.0</ele><time>2026-03-22T08:24:19.804Z</time></trkpt><trkpt lat="43.6527974" lon="11.4304684"><ele>262.0</ele><time>2026-03-22T08:24:20.804Z</time></trkpt><trkpt lat="43.6526603" lon="11.4304312"><ele>262.0</ele><time>2026-03-22T08:24:21.804Z</time></trkpt><trkpt lat="43.6525291" lon="11.4303952"><ele>265.25</ele><time>2026-03-22T08:24:22.804Z</time></trkpt><trkpt lat="43.652401" lon="11.4303443"><ele>268.5</ele><time>2026-03-22T08:24:23.803Z</time></trkpt><trkpt lat="43.6522851" lon="11.4302823"><ele>271.75</ele><time>2026-03-22T08:24:24.804Z</time></trkpt><trkpt lat="43.6521686" lon="11.430195"><ele>275.0</ele><time>2026-03-22T08:24:25.804Z</time></trkpt><trkpt lat="43.6520452" lon="11.4300922"><ele>271.6666666666667</ele><time>2026-03-22T08:24:26.804Z</time></trkpt><trkpt lat="43.6519266" lon="11.4299701"><ele>268.3333333333333</ele><time>2026-03-22T08:24:27.804Z</time></trkpt><trkpt lat="43.6518117" lon="11.4298305"><ele>265.0</ele><time>2026-03-22T08:24:28.804Z</time></trkpt><trkpt lat="43.6517068" lon="11.4296791"><ele>270.0</ele><time>2026-03-22T08:24:29.804Z</time></trkpt><trkpt lat="43.6516143" lon="11.4295085"><ele>275.0</ele><time>2026-03-22T08:24:30.804Z</time></trkpt><trkpt lat="43.6515134" lon="11.4293452"><ele>280.0</ele><time>2026-03-22T08:24:31.803Z</time></trkpt><trkpt lat="43.6514136" lon="11.4291975"><ele>280.0</ele><time>2026-03-22T08:24:32.804Z</time></trkpt><trkpt lat="43.6513249" lon="11.4290585"><ele>280.0</ele><time>2026-03-22T08:24:33.804Z</time></trkpt><trkpt lat="43.6512556" lon="11.4289167"><ele>280.0</ele><time>2026-03-22T08:24:34.804Z</time></trkpt><trkpt lat="43.651204" lon="11.4287419"><ele>280.0</ele><time>2026-03-22T08:24:35.804Z</time></trkpt><trkpt lat="43.6511415" lon="11.428582"><ele>278.5</ele><time>2026-03-22T08:24:36.804Z</time></trkpt><trkpt lat="43.651051" lon="11.4284355"><ele>277.0</ele><time>2026-03-22T08:24:37.803Z</time></trkpt><trkpt lat="43.6509642" lon="11.4282843"><ele>275.5</ele><time>2026-03-22T08:24:38.804Z</time></trkpt><trkpt lat="43.6508798" lon="11.4281561"><ele>274.0</ele><time>2026-03-22T08:24:39.804Z</time></trkpt><trkpt lat="43.6507823" lon="11.4280377"><ele>275.75</ele><time>2026-03-22T08:24:40.804Z</time></trkpt><trkpt lat="43.6506852" lon="11.4279154"><ele>277.5</ele><time>2026-03-22T08:24:41.803Z</time></trkpt><trkpt lat="43.6505863" lon="11.4277847"><ele>279.25</ele><time>2026-03-22T08:24:42.803Z</time></trkpt><trkpt lat="43.6505052" lon="11.4276359"><ele>281.0</ele><time>2026-03-22T08:24:43.804Z</time></trkpt><trkpt lat="43.6504436" lon="11.4274977"><ele>281.0</ele><time>2026-03-22T08:24:44.803Z</time></trkpt><trkpt lat="43.6503742" lon="11.4273793"><ele>281.0</ele><time>2026-03-22T08:24:45.804Z</time></trkpt><trkpt lat="43.6503008" lon="11.4272843"><ele>281.0</ele><time>2026-03-22T08:24:46.803Z</time></trkpt><trkpt lat="43.6502353" lon="11.4271861"><ele>281.0</ele><time>2026-03-22T08:24:47.804Z</time></trkpt><trkpt lat="43.6502042" lon="11.4270829"><ele>281.0</ele><time>2026-03-22T08:24:48.803Z</time></trkpt><trkpt lat="43.6502027" lon="11.426987"><ele>277.0</ele><time>2026-03-22T08:24:49.804Z</time></trkpt><trkpt lat="43.6502214" lon="11.426858"><ele>273.0</ele><time>2026-03-22T08:24:50.804Z</time></trkpt><trkpt lat="43.6502423" lon="11.4267012"><ele>269.0</ele><time>2026-03-22T08:24:51.804Z</time></trkpt><trkpt lat="43.6502483" lon="11.4265391"><ele>265.0</ele><time>2026-03-22T08:24:52.804Z</time></trkpt><trkpt lat="43.650231" lon="11.4263505"><ele>265.5</ele><time>2026-03-22T08:24:53.804Z</time></trkpt><trkpt lat="43.6502076" lon="11.4261698"><ele>266.0</ele><time>2026-03-22T08:24:54.803Z</time></trkpt><trkpt lat="43.6501949" lon="11.4259958"><ele>266.5</ele><time>2026-03-22T08:24:55.804Z</time></trkpt><trkpt lat="43.6501892" lon="11.4258254"><ele>267.0</ele><time>2026-03-22T08:24:56.804Z</time></trkpt><trkpt lat="43.6501768" lon="11.4256596"><ele>267.0</ele><time>2026-03-22T08:24:57.804Z</time></trkpt><trkpt lat="43.650146" lon="11.4254912"><ele>267.0</ele><time>2026-03-22T08:24:58.803Z</time></trkpt><trkpt lat="43.6501298" lon="11.4253416"><ele>267.0</ele><time>2026-03-22T08:24:59.804Z</time></trkpt><trkpt lat="43.6501049" lon="11.4252213"><ele>267.0</ele><time>2026-03-22T08:25:00.804Z</time></trkpt><trkpt lat="43.6500465" lon="11.4251578"><ele>267.0</ele><time>2026-03-22T08:25:01.804Z</time></trkpt><trkpt lat="43.6499752" lon="11.4251519"><ele>268.2</ele><time>2026-03-22T08:25:02.804Z</time></trkpt><trkpt lat="43.649884" lon="11.4251503"><ele>269.4</ele><time>2026-03-22T08:25:03.804Z</time></trkpt><trkpt lat="43.6497925" lon="11.4251508"><ele>270.6</ele><time>2026-03-22T08:25:04.803Z</time></trkpt><trkpt lat="43.6497096" lon="11.425116"><ele>271.8</ele><time>2026-03-22T08:25:05.804Z</time></trkpt><trkpt lat="43.6496459" lon="11.4250055"><ele>273.0</ele><time>2026-03-22T08:25:06.803Z</time></trkpt><trkpt lat="43.6496195" lon="11.4248464"><ele>273.0</ele><time>2026-03-22T08:25:07.804Z</time></trkpt><trkpt lat="43.6495889" lon="11.4247225"><ele>273.0</ele><time>2026-03-22T08:25:08.804Z</time></trkpt><trkpt lat="43.6495323" lon="11.4246184"><ele>273.0</ele><time>2026-03-22T08:25:09.804Z</time></trkpt><trkpt lat="43.6494471" lon="11.4245412"><ele>273.0</ele><time>2026-03-22T08:25:10.804Z</time></trkpt><trkpt lat="43.6493485" lon="11.4244545"><ele>273.0</ele><time>2026-03-22T08:25:11.804Z</time></trkpt><trkpt lat="43.6492532" lon="11.4243523"><ele>276.5</ele><time>2026-03-22T08:25:12.804Z</time></trkpt><trkpt lat="43.6491663" lon="11.4242243"><ele>280.0</ele><time>2026-03-22T08:25:13.804Z</time></trkpt><trkpt lat="43.6490898" lon="11.4240833"><ele>283.5</ele><time>2026-03-22T08:25:14.804Z</time></trkpt><trkpt lat="43.6490309" lon="11.4239351"><ele>287.0</ele><time>2026-03-22T08:25:15.804Z</time></trkpt><trkpt lat="43.6489768" lon="11.4238009"><ele>289.6666666666667</ele><time>2026-03-22T08:25:16.804Z</time></trkpt><trkpt lat="43.6489194" lon="11.4236906"><ele>292.33333333333337</ele><time>2026-03-22T08:25:17.804Z</time></trkpt><trkpt lat="43.6488496" lon="11.4235933"><ele>295.0</ele><time>2026-03-22T08:25:18.804Z</time></trkpt><trkpt lat="43.6487872" lon="11.4235442"><ele>297.6666666666667</ele><time>2026-03-22T08:25:19.803Z</time></trkpt><trkpt lat="43.6487167" lon="11.4235648"><ele>300.3333333333333</ele><time>2026-03-22T08:25:20.804Z</time></trkpt><trkpt lat="43.6486408" lon="11.4236253"><ele>303.0</ele><time>2026-03-22T08:25:21.804Z</time></trkpt><trkpt lat="43.6485843" lon="11.4237263"><ele>303.0</ele><time>2026-03-22T08:25:22.804Z</time></trkpt><trkpt lat="43.64852" lon="11.4237745"><ele>303.0</ele><time>2026-03-22T08:25:23.804Z</time></trkpt><trkpt lat="43.6484529" lon="11.423765"><ele>303.0</ele><time>2026-03-22T08:25:24.804Z</time></trkpt><trkpt lat="43.6484039" lon="11.4237078"><ele>303.0</ele><time>2026-03-22T08:25:25.804Z</time></trkpt><trkpt lat="43.6483944" lon="11.4235131"><ele>303.0</ele><time>2026-03-22T08:25:27.804Z</time></trkpt><trkpt lat="43.6483876" lon="11.4234038"><ele>303.0</ele><time>2026-03-22T08:25:28.803Z</time></trkpt><trkpt lat="43.648343" lon="11.4233194"><ele>303.0</ele><time>2026-03-22T08:25:29.804Z</time></trkpt><trkpt lat="43.6482662" lon="11.4232831"><ele>303.0</ele><time>2026-03-22T08:25:30.803Z</time></trkpt><trkpt lat="43.6481829" lon="11.4232762"><ele>303.0</ele><time>2026-03-22T08:25:32.804Z</time></trkpt><trkpt lat="43.6481068" lon="11.4232599"><ele>303.0</ele><time>2026-03-22T08:25:42.805Z</time></trkpt><trkpt lat="43.6480437" lon="11.4232502"><ele>303.0</ele><time>2026-03-22T08:25:44.805Z</time></trkpt><trkpt lat="43.6479427" lon="11.4232223"><ele>303.0</ele><time>2026-03-22T08:25:46.804Z</time></trkpt><trkpt lat="43.647848" lon="11.4231916"><ele>302.6</ele><time>2026-03-22T08:25:48.805Z</time></trkpt><trkpt lat="43.6477532" lon="11.4231441"><ele>302.20000000000005</ele><time>2026-03-22T08:25:50.805Z</time></trkpt><trkpt lat="43.6476694" lon="11.423071"><ele>301.8</ele><time>2026-03-22T08:25:52.805Z</time></trkpt><trkpt lat="43.6476531" lon="11.4229681"><ele>301.40000000000003</ele><time>2026-03-22T08:25:54.805Z</time></trkpt><trkpt lat="43.6476702" lon="11.4228099"><ele>301.0</ele><time>2026-03-22T08:25:56.805Z</time></trkpt><trkpt lat="43.6477067" lon="11.4226533"><ele>302.16666666666663</ele><time>2026-03-22T08:25:58.805Z</time></trkpt><trkpt lat="43.6477537" lon="11.4225204"><ele>303.3333333333333</ele><time>2026-03-22T08:26:00.805Z</time></trkpt><trkpt lat="43.6478001" lon="11.4224063"><ele>304.5</ele><time>2026-03-22T08:26:02.804Z</time></trkpt><trkpt lat="43.6478423" lon="11.4223011"><ele>305.6666666666667</ele><time>2026-03-22T08:26:04.805Z</time></trkpt><trkpt lat="43.6478353" lon="11.4222101"><ele>306.83333333333337</ele><time>2026-03-22T08:26:06.804Z</time></trkpt><trkpt lat="43.6477554" lon="11.4221531"><ele>308.0</ele><time>2026-03-22T08:26:08.804Z</time></trkpt><trkpt lat="43.6476616" lon="11.4220884"><ele>304.5</ele><time>2026-03-22T08:26:10.805Z</time></trkpt><trkpt lat="43.6476007" lon="11.4220308"><ele>301.0</ele><time>2026-03-22T08:26:12.805Z</time></trkpt><trkpt lat="43.6475448" lon="11.4219777"><ele>297.5</ele><time>2026-03-22T08:26:14.805Z</time></trkpt><trkpt lat="43.6475069" lon="11.4218993"><ele>294.0</ele><time>2026-03-22T08:26:16.805Z</time></trkpt><trkpt lat="43.647459" lon="11.4217941"><ele>290.5</ele><time>2026-03-22T08:26:19.805Z</time></trkpt><trkpt lat="43.6474189" lon="11.4216902"><ele>287.0</ele><time>2026-03-22T08:26:22.805Z</time></trkpt><trkpt lat="43.6473871" lon="11.4216063"><ele>287.0</ele><time>2026-03-22T08:26:24.804Z</time></trkpt><trkpt lat="43.6473293" lon="11.4214664"><ele>287.0</ele><time>2026-03-22T08:26:26.805Z</time></trkpt><trkpt lat="43.6473179" lon="11.421368"><ele>287.0</ele><time>2026-03-22T08:26:27.805Z</time></trkpt><trkpt lat="43.6473189" lon="11.4212561"><ele>287.0</ele><time>2026-03-22T08:26:28.805Z</time></trkpt><trkpt lat="43.6473389" lon="11.4211373"><ele>287.0</ele><time>2026-03-22T08:26:29.805Z</time></trkpt><trkpt lat="43.647363" lon="11.4210252"><ele>287.0</ele><time>2026-03-22T08:26:30.804Z</time></trkpt><trkpt lat="43.6474008" lon="11.4209122"><ele>286.33333333333337</ele><time>2026-03-22T08:26:31.805Z</time></trkpt><trkpt lat="43.6474432" lon="11.4208186"><ele>285.6666666666667</ele><time>2026-03-22T08:26:32.805Z</time></trkpt><trkpt lat="43.6475053" lon="11.4206999"><ele>285.0</ele><time>2026-03-22T08:26:34.805Z</time></trkpt><trkpt lat="43.6475414" lon="11.4206261"><ele>284.3333333333333</ele><time>2026-03-22T08:26:35.805Z</time></trkpt><trkpt lat="43.6475795" lon="11.420543"><ele>283.66666666666663</ele><time>2026-03-22T08:26:36.804Z</time></trkpt><trkpt lat="43.6476212" lon="11.420468"><ele>283.0</ele><time>2026-03-22T08:26:37.805Z</time></trkpt><trkpt lat="43.6476738" lon="11.4203987"><ele>282.2</ele><time>2026-03-22T08:26:38.805Z</time></trkpt><trkpt lat="43.6477228" lon="11.4203347"><ele>281.4</ele><time>2026-03-22T08:26:39.804Z</time></trkpt><trkpt lat="43.6478084" lon="11.4202098"><ele>280.59999999999997</ele><time>2026-03-22T08:26:41.804Z</time></trkpt><trkpt lat="43.6478921" lon="11.4200502"><ele>279.8</ele><time>2026-03-22T08:26:43.804Z</time></trkpt><trkpt lat="43.6479333" lon="11.4199461"><ele>279.0</ele><time>2026-03-22T08:26:44.805Z</time></trkpt><trkpt lat="43.6479768" lon="11.4198266"><ele>280.1666666666667</ele><time>2026-03-22T08:26:45.805Z</time></trkpt><trkpt lat="43.6480233" lon="11.4197094"><ele>281.3333333333333</ele><time>2026-03-22T08:26:46.805Z</time></trkpt><trkpt lat="43.6480687" lon="11.4196174"><ele>282.5</ele><time>2026-03-22T08:26:47.805Z</time></trkpt><trkpt lat="43.6480984" lon="11.4195111"><ele>283.66666666666663</ele><time>2026-03-22T08:26:48.804Z</time></trkpt><trkpt lat="43.6481221" lon="11.4194035"><ele>284.8333333333333</ele><time>2026-03-22T08:26:49.805Z</time></trkpt><trkpt lat="43.6481477" lon="11.4193014"><ele>286.0</ele><time>2026-03-22T08:26:50.805Z</time></trkpt><trkpt lat="43.6481778" lon="11.4192221"><ele>286.0</ele><time>2026-03-22T08:26:51.805Z</time></trkpt><trkpt lat="43.648211" lon="11.4191386"><ele>286.0</ele><time>2026-03-22T08:26:52.805Z</time></trkpt><trkpt lat="43.648232" lon="11.4190449"><ele>286.0</ele><time>2026-03-22T08:26:53.805Z</time></trkpt><trkpt lat="43.6482436" lon="11.4189316"><ele>286.0</ele><time>2026-03-22T08:26:54.805Z</time></trkpt><trkpt lat="43.6482523" lon="11.4188168"><ele>286.0</ele><time>2026-03-22T08:26:55.805Z</time></trkpt><trkpt lat="43.6482521" lon="11.4187014"><ele>286.0</ele><time>2026-03-22T08:26:56.805Z</time></trkpt><trkpt lat="43.6482328" lon="11.4185656"><ele>286.0</ele><time>2026-03-22T08:26:57.805Z</time></trkpt><trkpt lat="43.6482042" lon="11.4184323"><ele>286.0</ele><time>2026-03-22T08:26:58.805Z</time></trkpt><trkpt lat="43.6481805" lon="11.4183127"><ele>286.0</ele><time>2026-03-22T08:26:59.805Z</time></trkpt><trkpt lat="43.6481607" lon="11.4182099"><ele>286.0</ele><time>2026-03-22T08:27:00.804Z</time></trkpt><trkpt lat="43.6481687" lon="11.4180558"><ele>286.0</ele><time>2026-03-22T08:27:02.804Z</time></trkpt><trkpt lat="43.6481806" lon="11.4179526"><ele>285.8333333333333</ele><time>2026-03-22T08:27:03.805Z</time></trkpt><trkpt lat="43.6481963" lon="11.4178251"><ele>285.66666666666663</ele><time>2026-03-22T08:27:04.804Z</time></trkpt><trkpt lat="43.6482036" lon="11.4176965"><ele>285.5</ele><time>2026-03-22T08:27:05.805Z</time></trkpt><trkpt lat="43.6482234" lon="11.4176024"><ele>285.3333333333333</ele><time>2026-03-22T08:27:06.804Z</time></trkpt><trkpt lat="43.6482548" lon="11.4175096"><ele>285.1666666666667</ele><time>2026-03-22T08:27:07.804Z</time></trkpt><trkpt lat="43.6482886" lon="11.4174153"><ele>285.0</ele><time>2026-03-22T08:27:08.805Z</time></trkpt><trkpt lat="43.6483159" lon="11.4173241"><ele>285.0</ele><time>2026-03-22T08:27:09.805Z</time></trkpt><trkpt lat="43.6483535" lon="11.4172447"><ele>285.0</ele><time>2026-03-22T08:27:10.804Z</time></trkpt><trkpt lat="43.6483936" lon="11.4171178"><ele>285.0</ele><time>2026-03-22T08:27:12.804Z</time></trkpt><trkpt lat="43.6484187" lon="11.4169985"><ele>285.0</ele><time>2026-03-22T08:27:14.804Z</time></trkpt><trkpt lat="43.6483744" lon="11.4168926"><ele>285.0</ele><time>2026-03-22T08:27:16.804Z</time></trkpt><trkpt lat="43.6483141" lon="11.4167415"><ele>285.1666666666667</ele><time>2026-03-22T08:27:18.804Z</time></trkpt><trkpt lat="43.6482711" lon="11.4166137"><ele>285.3333333333333</ele><time>2026-03-22T08:27:20.805Z</time></trkpt><trkpt lat="43.6482348" lon="11.4165113"><ele>285.5</ele><time>2026-03-22T08:27:22.805Z</time></trkpt><trkpt lat="43.6481882" lon="11.4164406"><ele>285.66666666666663</ele><time>2026-03-22T08:27:25.805Z</time></trkpt><trkpt lat="43.6481348" lon="11.4163596"><ele>285.8333333333333</ele><time>2026-03-22T08:27:29.805Z</time></trkpt><trkpt lat="43.6480931" lon="11.4162932"><ele>286.0</ele><time>2026-03-22T08:27:31.804Z</time></trkpt><trkpt lat="43.6479716" lon="11.416168"><ele>286.6</ele><time>2026-03-22T08:27:33.804Z</time></trkpt><trkpt lat="43.6478998" lon="11.4161033"><ele>287.20000000000005</ele><time>2026-03-22T08:27:34.805Z</time></trkpt><trkpt lat="43.6478152" lon="11.4160576"><ele>287.79999999999995</ele><time>2026-03-22T08:27:35.804Z</time></trkpt><trkpt lat="43.6477228" lon="11.4159977"><ele>288.4</ele><time>2026-03-22T08:27:36.805Z</time></trkpt><trkpt lat="43.6476166" lon="11.4159317"><ele>289.0</ele><time>2026-03-22T08:27:37.804Z</time></trkpt><trkpt lat="43.6475261" lon="11.4158804"><ele>289.2</ele><time>2026-03-22T08:27:38.805Z</time></trkpt><trkpt lat="43.647448" lon="11.4158336"><ele>289.4</ele><time>2026-03-22T08:27:39.805Z</time></trkpt><trkpt lat="43.6473859" lon="11.4157682"><ele>289.6</ele><time>2026-03-22T08:27:40.804Z</time></trkpt><trkpt lat="43.647345" lon="11.4156613"><ele>289.8</ele><time>2026-03-22T08:27:41.805Z</time></trkpt><trkpt lat="43.6472848" lon="11.415531"><ele>290.0</ele><time>2026-03-22T08:27:42.805Z</time></trkpt><trkpt lat="43.6472293" lon="11.4153758"><ele>289.75</ele><time>2026-03-22T08:27:43.805Z</time></trkpt><trkpt lat="43.6471788" lon="11.4152402"><ele>289.5</ele><time>2026-03-22T08:27:44.805Z</time></trkpt><trkpt lat="43.6471151" lon="11.4150857"><ele>289.25</ele><time>2026-03-22T08:27:45.804Z</time></trkpt><trkpt lat="43.6470366" lon="11.4149481"><ele>289.0</ele><time>2026-03-22T08:27:46.805Z</time></trkpt><trkpt lat="43.6469472" lon="11.4147917"><ele>289.75</ele><time>2026-03-22T08:27:47.804Z</time></trkpt><trkpt lat="43.6468628" lon="11.4146179"><ele>290.5</ele><time>2026-03-22T08:27:48.805Z</time></trkpt><trkpt lat="43.646776" lon="11.4144441"><ele>291.25</ele><time>2026-03-22T08:27:49.805Z</time></trkpt><trkpt lat="43.6466986" lon="11.4142777"><ele>292.0</ele><time>2026-03-22T08:27:50.805Z</time></trkpt><trkpt lat="43.6466217" lon="11.4141281"><ele>292.0</ele><time>2026-03-22T08:27:51.805Z</time></trkpt><trkpt lat="43.6465513" lon="11.413983"><ele>292.0</ele><time>2026-03-22T08:27:52.805Z</time></trkpt><trkpt lat="43.6464876" lon="11.4138423"><ele>292.0</ele><time>2026-03-22T08:27:53.805Z</time></trkpt><trkpt lat="43.64642" lon="11.4136945"><ele>292.0</ele><time>2026-03-22T08:27:54.805Z</time></trkpt><trkpt lat="43.6463573" lon="11.4135505"><ele>294.0</ele><time>2026-03-22T08:27:55.805Z</time></trkpt><trkpt lat="43.6462999" lon="11.4133967"><ele>296.0</ele><time>2026-03-22T08:27:56.805Z</time></trkpt><trkpt lat="43.6462462" lon="11.4132602"><ele>298.0</ele><time>2026-03-22T08:27:57.805Z</time></trkpt><trkpt lat="43.6461946" lon="11.4131428"><ele>300.0</ele><time>2026-03-22T08:27:58.804Z</time></trkpt><trkpt lat="43.6461379" lon="11.4130486"><ele>302.0</ele><time>2026-03-22T08:27:59.805Z</time></trkpt><trkpt lat="43.6460786" lon="11.4129834"><ele>303.83333333333337</ele><time>2026-03-22T08:28:00.805Z</time></trkpt><trkpt lat="43.6460076" lon="11.4129393"><ele>305.6666666666667</ele><time>2026-03-22T08:28:01.805Z</time></trkpt><trkpt lat="43.6459288" lon="11.4129059"><ele>307.5</ele><time>2026-03-22T08:28:02.804Z</time></trkpt><trkpt lat="43.6458387" lon="11.4128788"><ele>309.3333333333333</ele><time>2026-03-22T08:28:03.805Z</time></trkpt><trkpt lat="43.6457516" lon="11.41286"><ele>311.16666666666663</ele><time>2026-03-22T08:28:04.805Z</time></trkpt><trkpt lat="43.6456788" lon="11.4128678"><ele>313.0</ele><time>2026-03-22T08:28:05.804Z</time></trkpt><trkpt lat="43.6456255" lon="11.4129335"><ele>312.0</ele><time>2026-03-22T08:28:06.805Z</time></trkpt><trkpt lat="43.645583" lon="11.413023"><ele>311.0</ele><time>2026-03-22T08:28:07.805Z</time></trkpt><trkpt lat="43.6455464" lon="11.4131589"><ele>310.0</ele><time>2026-03-22T08:28:08.805Z</time></trkpt><trkpt lat="43.6455251" lon="11.4132994"><ele>309.0</ele><time>2026-03-22T08:28:09.805Z</time></trkpt><trkpt lat="43.6454937" lon="11.4134561"><ele>308.0</ele><time>2026-03-22T08:28:10.805Z</time></trkpt><trkpt lat="43.6454578" lon="11.4136304"><ele>307.5</ele><time>2026-03-22T08:28:11.805Z</time></trkpt><trkpt lat="43.6454221" lon="11.4138328"><ele>307.0</ele><time>2026-03-22T08:28:12.805Z</time></trkpt><trkpt lat="43.6453994" lon="11.414"><ele>306.5</ele><time>2026-03-22T08:28:13.805Z</time></trkpt><trkpt lat="43.6453565" lon="11.4141318"><ele>306.0</ele><time>2026-03-22T08:28:14.805Z</time></trkpt><trkpt lat="43.6452968" lon="11.4142203"><ele>310.0</ele><time>2026-03-22T08:28:15.804Z</time></trkpt><trkpt lat="43.6452137" lon="11.4142292"><ele>314.0</ele><time>2026-03-22T08:28:16.805Z</time></trkpt><trkpt lat="43.6451175" lon="11.4142224"><ele>318.0</ele><time>2026-03-22T08:28:17.805Z</time></trkpt><trkpt lat="43.6450172" lon="11.4141954"><ele>322.0</ele><time>2026-03-22T08:28:18.805Z</time></trkpt><trkpt lat="43.6449116" lon="11.4141531"><ele>326.0</ele><time>2026-03-22T08:28:19.805Z</time></trkpt><trkpt lat="43.6448064" lon="11.4141132"><ele>326.0</ele><time>2026-03-22T08:28:20.805Z</time></trkpt><trkpt lat="43.6447131" lon="11.4140742"><ele>326.0</ele><time>2026-03-22T08:28:21.805Z</time></trkpt><trkpt lat="43.6446502" lon="11.4140236"><ele>326.0</ele><time>2026-03-22T08:28:22.805Z</time></trkpt><trkpt lat="43.6445994" lon="11.4139407"><ele>326.0</ele><time>2026-03-22T08:28:23.804Z</time></trkpt><trkpt lat="43.6445585" lon="11.4138225"><ele>326.0</ele><time>2026-03-22T08:28:24.805Z</time></trkpt><trkpt lat="43.644528" lon="11.413686"><ele>326.0</ele><time>2026-03-22T08:28:25.804Z</time></trkpt><trkpt lat="43.6445038" lon="11.4135244"><ele>326.20000000000005</ele><time>2026-03-22T08:28:26.805Z</time></trkpt><trkpt lat="43.644475" lon="11.4133537"><ele>326.40000000000003</ele><time>2026-03-22T08:28:27.804Z</time></trkpt><trkpt lat="43.6444533" lon="11.4131967"><ele>326.6</ele><time>2026-03-22T08:28:28.804Z</time></trkpt><trkpt lat="43.6444252" lon="11.4130552"><ele>326.8</ele><time>2026-03-22T08:28:29.804Z</time></trkpt><trkpt lat="43.6443916" lon="11.4129279"><ele>327.0</ele><time>2026-03-22T08:28:30.805Z</time></trkpt><trkpt lat="43.6443518" lon="11.4128054"><ele>328.3333333333333</ele><time>2026-03-22T08:28:31.805Z</time></trkpt><trkpt lat="43.6443003" lon="11.4126935"><ele>329.6666666666667</ele><time>2026-03-22T08:28:32.805Z</time></trkpt><trkpt lat="43.6442296" lon="11.4126021"><ele>331.0</ele><time>2026-03-22T08:28:33.805Z</time></trkpt><trkpt lat="43.6441578" lon="11.412528"><ele>332.33333333333337</ele><time>2026-03-22T08:28:34.805Z</time></trkpt><trkpt lat="43.6441005" lon="11.4124677"><ele>333.6666666666667</ele><time>2026-03-22T08:28:35.805Z</time></trkpt><trkpt lat="43.6440532" lon="11.4124021"><ele>335.0</ele><time>2026-03-22T08:28:36.804Z</time></trkpt><trkpt lat="43.6440156" lon="11.4123251"><ele>335.0</ele><time>2026-03-22T08:28:37.804Z</time></trkpt><trkpt lat="43.6440048" lon="11.4122243"><ele>335.0</ele><time>2026-03-22T08:28:38.804Z</time></trkpt><trkpt lat="43.6439975" lon="11.4120954"><ele>335.0</ele><time>2026-03-22T08:28:39.805Z</time></trkpt><trkpt lat="43.6440083" lon="11.4119317"><ele>335.0</ele><time>2026-03-22T08:28:40.805Z</time></trkpt><trkpt lat="43.6440065" lon="11.4117601"><ele>335.0</ele><time>2026-03-22T08:28:41.805Z</time></trkpt><trkpt lat="43.6439917" lon="11.411579"><ele>335.5</ele><time>2026-03-22T08:28:42.805Z</time></trkpt><trkpt lat="43.6439627" lon="11.4113983"><ele>336.0</ele><time>2026-03-22T08:28:43.805Z</time></trkpt><trkpt lat="43.6439341" lon="11.4112027"><ele>336.5</ele><time>2026-03-22T08:28:44.805Z</time></trkpt><trkpt lat="43.6438973" lon="11.4110028"><ele>337.0</ele><time>2026-03-22T08:28:45.805Z</time></trkpt><trkpt lat="43.6438434" lon="11.4108073"><ele>337.66666666666663</ele><time>2026-03-22T08:28:46.805Z</time></trkpt><trkpt lat="43.643765" lon="11.4106169"><ele>338.3333333333333</ele><time>2026-03-22T08:28:47.805Z</time></trkpt><trkpt lat="43.6436569" lon="11.4104587"><ele>339.0</ele><time>2026-03-22T08:28:48.804Z</time></trkpt><trkpt lat="43.6435269" lon="11.4103111"><ele>345.3333333333333</ele><time>2026-03-22T08:28:49.805Z</time></trkpt><trkpt lat="43.6434088" lon="11.4101572"><ele>351.66666666666663</ele><time>2026-03-22T08:28:50.805Z</time></trkpt><trkpt lat="43.6433066" lon="11.4100011"><ele>358.0</ele><time>2026-03-22T08:28:51.805Z</time></trkpt><trkpt lat="43.6432392" lon="11.4098198"><ele>357.25</ele><time>2026-03-22T08:28:52.804Z</time></trkpt><trkpt lat="43.6432141" lon="11.4096308"><ele>356.5</ele><time>2026-03-22T08:28:53.804Z</time></trkpt><trkpt lat="43.6432417" lon="11.4094297"><ele>355.75</ele><time>2026-03-22T08:28:54.804Z</time></trkpt><trkpt lat="43.6432953" lon="11.4092346"><ele>355.0</ele><time>2026-03-22T08:28:55.804Z</time></trkpt><trkpt lat="43.6433235" lon="11.409047"><ele>355.0</ele><time>2026-03-22T08:28:56.805Z</time></trkpt><trkpt lat="43.643294" lon="11.408872"><ele>355.0</ele><time>2026-03-22T08:28:57.805Z</time></trkpt><trkpt lat="43.6432124" lon="11.4087238"><ele>355.0</ele><time>2026-03-22T08:28:58.805Z</time></trkpt><trkpt lat="43.6431026" lon="11.4085762"><ele>355.0</ele><time>2026-03-22T08:28:59.805Z</time></trkpt><trkpt lat="43.6430008" lon="11.4084403"><ele>354.3333333333333</ele><time>2026-03-22T08:29:00.805Z</time></trkpt><trkpt lat="43.6429137" lon="11.4082699"><ele>353.6666666666667</ele><time>2026-03-22T08:29:01.805Z</time></trkpt><trkpt lat="43.6428662" lon="11.4080684"><ele>353.0</ele><time>2026-03-22T08:29:02.805Z</time></trkpt><trkpt lat="43.6428709" lon="11.4078399"><ele>354.6666666666667</ele><time>2026-03-22T08:29:03.804Z</time></trkpt><trkpt lat="43.6429033" lon="11.4076139"><ele>356.3333333333333</ele><time>2026-03-22T08:29:04.805Z</time></trkpt><trkpt lat="43.6429599" lon="11.4073939"><ele>358.0</ele><time>2026-03-22T08:29:05.805Z</time></trkpt><trkpt lat="43.6430226" lon="11.4071651"><ele>362.0</ele><time>2026-03-22T08:29:06.805Z</time></trkpt><trkpt lat="43.6430684" lon="11.4069217"><ele>366.0</ele><time>2026-03-22T08:29:07.804Z</time></trkpt><trkpt lat="43.6431145" lon="11.4066752"><ele>370.0</ele><time>2026-03-22T08:29:08.805Z</time></trkpt><trkpt lat="43.6431555" lon="11.406417"><ele>374.66666666666663</ele><time>2026-03-22T08:29:09.804Z</time></trkpt><trkpt lat="43.6431958" lon="11.4061637"><ele>379.3333333333333</ele><time>2026-03-22T08:29:10.805Z</time></trkpt><trkpt lat="43.6432179" lon="11.4059213"><ele>384.0</ele><time>2026-03-22T08:29:11.805Z</time></trkpt><trkpt lat="43.6432393" lon="11.4057045"><ele>384.0</ele><time>2026-03-22T08:29:12.805Z</time></trkpt><trkpt lat="43.6432733" lon="11.4055237"><ele>384.0</ele><time>2026-03-22T08:29:13.805Z</time></trkpt><trkpt lat="43.6433261" lon="11.4053629"><ele>384.0</ele><time>2026-03-22T08:29:14.805Z</time></trkpt><trkpt lat="43.6434246" lon="11.4052508"><ele>384.0</ele><time>2026-03-22T08:29:15.804Z</time></trkpt><trkpt lat="43.6435569" lon="11.4052094"><ele>387.33333333333337</ele><time>2026-03-22T08:29:16.805Z</time></trkpt><trkpt lat="43.6437001" lon="11.4052649"><ele>390.6666666666667</ele><time>2026-03-22T08:29:17.805Z</time></trkpt><trkpt lat="43.6438277" lon="11.4053712"><ele>394.0</ele><time>2026-03-22T08:29:18.804Z</time></trkpt><trkpt lat="43.6439937" lon="11.4054513"><ele>394.0</ele><time>2026-03-22T08:29:19.805Z</time></trkpt><trkpt lat="43.6441492" lon="11.4054675"><ele>394.0</ele><time>2026-03-22T08:29:20.804Z</time></trkpt><trkpt lat="43.6443052" lon="11.4053987"><ele>394.0</ele><time>2026-03-22T08:29:21.805Z</time></trkpt><trkpt lat="43.6444344" lon="11.405259"><ele>390.33333333333337</ele><time>2026-03-22T08:29:22.805Z</time></trkpt><trkpt lat="43.6445393" lon="11.4050568"><ele>386.6666666666667</ele><time>2026-03-22T08:29:23.805Z</time></trkpt><trkpt lat="43.6446257" lon="11.404853"><ele>383.0</ele><time>2026-03-22T08:29:24.805Z</time></trkpt><trkpt lat="43.6447075" lon="11.4046489"><ele>391.0</ele><time>2026-03-22T08:29:25.804Z</time></trkpt><trkpt lat="43.6448268" lon="11.4044813"><ele>399.0</ele><time>2026-03-22T08:29:26.805Z</time></trkpt><trkpt lat="43.6449802" lon="11.4043672"><ele>407.0</ele><time>2026-03-22T08:29:27.804Z</time></trkpt><trkpt lat="43.6451461" lon="11.4043154"><ele>407.0</ele><time>2026-03-22T08:29:28.804Z</time></trkpt><trkpt lat="43.645281" lon="11.4042905"><ele>407.0</ele><time>2026-03-22T08:29:29.804Z</time></trkpt><trkpt lat="43.6453956" lon="11.4041923"><ele>407.0</ele><time>2026-03-22T08:29:30.805Z</time></trkpt><trkpt lat="43.6454624" lon="11.4040147"><ele>407.0</ele><time>2026-03-22T08:29:31.805Z</time></trkpt><trkpt lat="43.6455269" lon="11.4038192"><ele>405.66666666666663</ele><time>2026-03-22T08:29:32.804Z</time></trkpt><trkpt lat="43.6455854" lon="11.4035975"><ele>404.33333333333337</ele><time>2026-03-22T08:29:33.805Z</time></trkpt><trkpt lat="43.6456474" lon="11.4033906"><ele>403.0</ele><time>2026-03-22T08:29:34.805Z</time></trkpt><trkpt lat="43.6457128" lon="11.4031662"><ele>405.0</ele><time>2026-03-22T08:29:35.805Z</time></trkpt><trkpt lat="43.6457485" lon="11.4029243"><ele>407.0</ele><time>2026-03-22T08:29:36.805Z</time></trkpt><trkpt lat="43.6457526" lon="11.402671"><ele>409.0</ele><time>2026-03-22T08:29:37.804Z</time></trkpt><trkpt lat="43.6457449" lon="11.4024141"><ele>413.0</ele><time>2026-03-22T08:29:38.805Z</time></trkpt><trkpt lat="43.645765" lon="11.4021445"><ele>417.0</ele><time>2026-03-22T08:29:39.804Z</time></trkpt><trkpt lat="43.6458051" lon="11.4018793"><ele>421.0</ele><time>2026-03-22T08:29:40.805Z</time></trkpt><trkpt lat="43.6458893" lon="11.4016233"><ele>421.0</ele><time>2026-03-22T08:29:41.804Z</time></trkpt><trkpt lat="43.6460141" lon="11.4013991"><ele>421.0</ele><time>2026-03-22T08:29:42.805Z</time></trkpt><trkpt lat="43.6461335" lon="11.4011758"><ele>421.0</ele><time>2026-03-22T08:29:43.805Z</time></trkpt><trkpt lat="43.6462218" lon="11.4009229"><ele>422.0</ele><time>2026-03-22T08:29:44.804Z</time></trkpt><trkpt lat="43.6462778" lon="11.4006755"><ele>423.0</ele><time>2026-03-22T08:29:45.804Z</time></trkpt><trkpt lat="43.6463349" lon="11.4004581"><ele>424.0</ele><time>2026-03-22T08:29:46.805Z</time></trkpt><trkpt lat="43.6464421" lon="11.4002683"><ele>424.0</ele><time>2026-03-22T08:29:47.805Z</time></trkpt><trkpt lat="43.6465806" lon="11.4001092"><ele>424.0</ele><time>2026-03-22T08:29:48.805Z</time></trkpt><trkpt lat="43.6467114" lon="11.3999455"><ele>424.0</ele><time>2026-03-22T08:29:49.805Z</time></trkpt><trkpt lat="43.6468148" lon="11.3997518"><ele>428.6666666666667</ele><time>2026-03-22T08:29:50.805Z</time></trkpt><trkpt lat="43.6468566" lon="11.3995399"><ele>433.33333333333337</ele><time>2026-03-22T08:29:51.805Z</time></trkpt><trkpt lat="43.646842" lon="11.3993125"><ele>438.0</ele><time>2026-03-22T08:29:52.804Z</time></trkpt><trkpt lat="43.6468124" lon="11.3990847"><ele>442.33333333333337</ele><time>2026-03-22T08:29:53.805Z</time></trkpt><trkpt lat="43.646816" lon="11.3988307"><ele>446.6666666666667</ele><time>2026-03-22T08:29:54.804Z</time></trkpt><trkpt lat="43.6468632" lon="11.3985621"><ele>451.0</ele><time>2026-03-22T08:29:55.805Z</time></trkpt><trkpt lat="43.6469641" lon="11.3983231"><ele>445.33333333333337</ele><time>2026-03-22T08:29:56.805Z</time></trkpt><trkpt lat="43.6470624" lon="11.3980713"><ele>439.66666666666663</ele><time>2026-03-22T08:29:57.804Z</time></trkpt><trkpt lat="43.647163" lon="11.397802"><ele>434.0</ele><time>2026-03-22T08:29:58.804Z</time></trkpt><trkpt lat="43.6472597" lon="11.3975255"><ele>434.0</ele><time>2026-03-22T08:29:59.805Z</time></trkpt><trkpt lat="43.6473465" lon="11.3972379"><ele>434.0</ele><time>2026-03-22T08:30:00.805Z</time></trkpt><trkpt lat="43.6474342" lon="11.3969523"><ele>438.66666666666663</ele><time>2026-03-22T08:30:01.805Z</time></trkpt><trkpt lat="43.6475168" lon="11.3966647"><ele>443.33333333333337</ele><time>2026-03-22T08:30:02.804Z</time></trkpt><trkpt lat="43.6475795" lon="11.3963676"><ele>448.0</ele><time>2026-03-22T08:30:03.804Z</time></trkpt><trkpt lat="43.6476271" lon="11.396074"><ele>453.6666666666667</ele><time>2026-03-22T08:30:04.805Z</time></trkpt><trkpt lat="43.6476686" lon="11.395776"><ele>459.33333333333337</ele><time>2026-03-22T08:30:05.805Z</time></trkpt><trkpt lat="43.6477033" lon="11.3954824"><ele>465.0</ele><time>2026-03-22T08:30:06.804Z</time></trkpt><trkpt lat="43.6477316" lon="11.3951868"><ele>468.33333333333337</ele><time>2026-03-22T08:30:07.804Z</time></trkpt><trkpt lat="43.647749" lon="11.3948913"><ele>471.6666666666667</ele><time>2026-03-22T08:30:08.805Z</time></trkpt><trkpt lat="43.6477529" lon="11.3946079"><ele>475.0</ele><time>2026-03-22T08:30:09.805Z</time></trkpt><trkpt lat="43.6477467" lon="11.3943191"><ele>477.0</ele><time>2026-03-22T08:30:10.805Z</time></trkpt><trkpt lat="43.6477281" lon="11.394027"><ele>479.0</ele><time>2026-03-22T08:30:11.804Z</time></trkpt><trkpt lat="43.647696" lon="11.393739"><ele>481.0</ele><time>2026-03-22T08:30:12.805Z</time></trkpt><trkpt lat="43.6476722" lon="11.393468"><ele>483.0</ele><time>2026-03-22T08:30:13.805Z</time></trkpt><trkpt lat="43.6476697" lon="11.3932181"><ele>485.0</ele><time>2026-03-22T08:30:14.805Z</time></trkpt><trkpt lat="43.6477" lon="11.3929887"><ele>487.0</ele><time>2026-03-22T08:30:15.805Z</time></trkpt><trkpt lat="43.647759" lon="11.3927923"><ele>486.6666666666667</ele><time>2026-03-22T08:30:16.805Z</time></trkpt><trkpt lat="43.6478432" lon="11.392617"><ele>486.33333333333337</ele><time>2026-03-22T08:30:17.805Z</time></trkpt><trkpt lat="43.6479535" lon="11.392468"><ele>486.0</ele><time>2026-03-22T08:30:18.805Z</time></trkpt><trkpt lat="43.6480873" lon="11.3923285"><ele>486.0</ele><time>2026-03-22T08:30:19.805Z</time></trkpt><trkpt lat="43.6482479" lon="11.3922354"><ele>486.0</ele><time>2026-03-22T08:30:20.805Z</time></trkpt><trkpt lat="43.6484215" lon="11.3921887"><ele>486.0</ele><time>2026-03-22T08:30:21.804Z</time></trkpt><trkpt lat="43.6486021" lon="11.3922016"><ele>488.0</ele><time>2026-03-22T08:30:22.805Z</time></trkpt><trkpt lat="43.6487829" lon="11.3922365"><ele>490.0</ele><time>2026-03-22T08:30:23.805Z</time></trkpt><trkpt lat="43.6489457" lon="11.3922839"><ele>492.0</ele><time>2026-03-22T08:30:24.805Z</time></trkpt><trkpt lat="43.649103" lon="11.3923203"><ele>492.0</ele><time>2026-03-22T08:30:25.805Z</time></trkpt><trkpt lat="43.6492631" lon="11.3923508"><ele>492.0</ele><time>2026-03-22T08:30:26.805Z</time></trkpt><trkpt lat="43.6494102" lon="11.3923779"><ele>492.0</ele><time>2026-03-22T08:30:27.805Z</time></trkpt><trkpt lat="43.6495409" lon="11.3924029"><ele>492.0</ele><time>2026-03-22T08:30:28.804Z</time></trkpt><trkpt lat="43.6496621" lon="11.3924191"><ele>493.5</ele><time>2026-03-22T08:30:29.805Z</time></trkpt><trkpt lat="43.6497808" lon="11.3924338"><ele>495.0</ele><time>2026-03-22T08:30:30.805Z</time></trkpt><trkpt lat="43.6498936" lon="11.392451"><ele>496.5</ele><time>2026-03-22T08:30:31.805Z</time></trkpt><trkpt lat="43.6500151" lon="11.392468"><ele>498.0</ele><time>2026-03-22T08:30:32.805Z</time></trkpt><trkpt lat="43.6501374" lon="11.3924938"><ele>498.0</ele><time>2026-03-22T08:30:33.805Z</time></trkpt><trkpt lat="43.6502408" lon="11.3925325"><ele>498.0</ele><time>2026-03-22T08:30:34.805Z</time></trkpt><trkpt lat="43.6503034" lon="11.3925642"><ele>498.0</ele><time>2026-03-22T08:30:35.805Z</time></trkpt><trkpt lat="43.6504078" lon="11.3925659"><ele>498.0</ele><time>2026-03-22T08:30:37.805Z</time></trkpt><trkpt lat="43.6504346" lon="11.3924333"><ele>498.0</ele><time>2026-03-22T08:30:39.804Z</time></trkpt><trkpt lat="43.6503775" lon="11.3923746"><ele>498.0</ele><time>2026-03-22T08:30:40.805Z</time></trkpt><trkpt lat="43.6503019" lon="11.3923187"><ele>498.0</ele><time>2026-03-22T08:30:41.804Z</time></trkpt><trkpt lat="43.6502245" lon="11.3922805"><ele>497.99999999999994</ele><time>2026-03-22T08:30:42.805Z</time></trkpt><trkpt lat="43.650138" lon="11.3922391"><ele>497.99999999999994</ele><time>2026-03-22T08:30:43.805Z</time></trkpt><trkpt lat="43.6500424" lon="11.3922098"><ele>498.0</ele><time>2026-03-22T08:30:44.805Z</time></trkpt><trkpt lat="43.6499488" lon="11.3922"><ele>498.0</ele><time>2026-03-22T08:30:45.805Z</time></trkpt><trkpt lat="43.6498504" lon="11.3921826"><ele>498.4</ele><time>2026-03-22T08:30:46.805Z</time></trkpt><trkpt lat="43.6497511" lon="11.3921579"><ele>498.79999999999995</ele><time>2026-03-22T08:30:47.804Z</time></trkpt><trkpt lat="43.6496487" lon="11.3921212"><ele>499.2</ele><time>2026-03-22T08:30:48.804Z</time></trkpt><trkpt lat="43.649549" lon="11.3920708"><ele>499.6</ele><time>2026-03-22T08:30:49.805Z</time></trkpt><trkpt lat="43.6494506" lon="11.3920146"><ele>500.0</ele><time>2026-03-22T08:30:50.805Z</time></trkpt><trkpt lat="43.6493647" lon="11.3919634"><ele>500.8333333333333</ele><time>2026-03-22T08:30:51.805Z</time></trkpt><trkpt lat="43.649274" lon="11.39191"><ele>501.66666666666663</ele><time>2026-03-22T08:30:52.805Z</time></trkpt><trkpt lat="43.6491895" lon="11.3918612"><ele>502.5</ele><time>2026-03-22T08:30:53.805Z</time></trkpt><trkpt lat="43.6491079" lon="11.3918166"><ele>503.33333333333337</ele><time>2026-03-22T08:30:54.805Z</time></trkpt><trkpt lat="43.6490345" lon="11.3917637"><ele>504.1666666666667</ele><time>2026-03-22T08:30:55.805Z</time></trkpt><trkpt lat="43.6489733" lon="11.3917174"><ele>505.0</ele><time>2026-03-22T08:30:56.804Z</time></trkpt><trkpt lat="43.6488647" lon="11.3916366"><ele>505.00000000000006</ele><time>2026-03-22T08:30:58.804Z</time></trkpt><trkpt lat="43.6487829" lon="11.3915589"><ele>505.0</ele><time>2026-03-22T08:31:00.805Z</time></trkpt><trkpt lat="43.6487273" lon="11.3914977"><ele>505.0</ele><time>2026-03-22T08:31:02.805Z</time></trkpt><trkpt lat="43.6486632" lon="11.3914512"><ele>505.0</ele><time>2026-03-22T08:31:04.805Z</time></trkpt><trkpt lat="43.6485844" lon="11.3913938"><ele>505.00000000000006</ele><time>2026-03-22T08:31:06.805Z</time></trkpt><trkpt lat="43.6485078" lon="11.3913497"><ele>505.0</ele><time>2026-03-22T08:31:08.805Z</time></trkpt><trkpt lat="43.6484428" lon="11.3913087"><ele>506.00000000000006</ele><time>2026-03-22T08:31:10.805Z</time></trkpt><trkpt lat="43.6483507" lon="11.3912605"><ele>507.0</ele><time>2026-03-22T08:31:12.804Z</time></trkpt><trkpt lat="43.6482321" lon="11.3911711"><ele>508.0</ele><time>2026-03-22T08:31:14.804Z</time></trkpt><trkpt lat="43.6481702" lon="11.3911191"><ele>509.0</ele><time>2026-03-22T08:31:15.805Z</time></trkpt><trkpt lat="43.6481142" lon="11.3910661"><ele>510.00000000000006</ele><time>2026-03-22T08:31:16.805Z</time></trkpt><trkpt lat="43.6480635" lon="11.3910018"><ele>511.0</ele><time>2026-03-22T08:31:17.805Z</time></trkpt><trkpt lat="43.6479909" lon="11.390892"><ele>511.00000000000006</ele><time>2026-03-22T08:31:19.805Z</time></trkpt><trkpt lat="43.6479281" lon="11.3908732"><ele>511.0</ele><time>2026-03-22T08:31:21.804Z</time></trkpt><trkpt lat="43.6478587" lon="11.3909172"><ele>511.0</ele><time>2026-03-22T08:31:23.805Z</time></trkpt><trkpt lat="43.6477943" lon="11.3909901"><ele>511.0</ele><time>2026-03-22T08:31:25.805Z</time></trkpt><trkpt lat="43.6476911" lon="11.391046"><ele>511.00000000000006</ele><time>2026-03-22T08:31:27.805Z</time></trkpt><trkpt lat="43.6476079" lon="11.3910614"><ele>511.0</ele><time>2026-03-22T08:31:29.804Z</time></trkpt><trkpt lat="43.6475914" lon="11.3909573"><ele>517.6</ele><time>2026-03-22T08:31:31.804Z</time></trkpt><trkpt lat="43.6476466" lon="11.390838"><ele>524.2</ele><time>2026-03-22T08:31:33.805Z</time></trkpt><trkpt lat="43.6476935" lon="11.3907441"><ele>530.8</ele><time>2026-03-22T08:31:35.805Z</time></trkpt><trkpt lat="43.6477185" lon="11.3906342"><ele>537.4</ele><time>2026-03-22T08:31:37.805Z</time></trkpt><trkpt lat="43.6477308" lon="11.3904843"><ele>544.0</ele><time>2026-03-22T08:31:39.804Z</time></trkpt><trkpt lat="43.64773" lon="11.3903458"><ele>546.1666666666667</ele><time>2026-03-22T08:31:41.805Z</time></trkpt><trkpt lat="43.6477149" lon="11.3902162"><ele>548.3333333333334</ele><time>2026-03-22T08:31:43.804Z</time></trkpt><trkpt lat="43.6476943" lon="11.3901031"><ele>550.5</ele><time>2026-03-22T08:31:45.805Z</time></trkpt><trkpt lat="43.6476756" lon="11.3899914"><ele>552.6666666666666</ele><time>2026-03-22T08:31:47.805Z</time></trkpt><trkpt lat="43.6476217" lon="11.3898778"><ele>554.8333333333333</ele><time>2026-03-22T08:31:49.805Z</time></trkpt><trkpt lat="43.6475823" lon="11.3897846"><ele>557.0</ele><time>2026-03-22T08:31:51.805Z</time></trkpt><trkpt lat="43.647525" lon="11.3896952"><ele>555.8000000000001</ele><time>2026-03-22T08:31:53.805Z</time></trkpt><trkpt lat="43.6474583" lon="11.3896412"><ele>554.6</ele><time>2026-03-22T08:31:55.805Z</time></trkpt><trkpt lat="43.6473675" lon="11.3895494"><ele>553.4000000000001</ele><time>2026-03-22T08:31:57.805Z</time></trkpt><trkpt lat="43.647287" lon="11.389451"><ele>552.2</ele><time>2026-03-22T08:31:59.804Z</time></trkpt><trkpt lat="43.647221" lon="11.3893714"><ele>551.0</ele><time>2026-03-22T08:32:01.805Z</time></trkpt><trkpt lat="43.6471511" lon="11.3892925"><ele>551.0</ele><time>2026-03-22T08:32:03.804Z</time></trkpt><trkpt lat="43.6470778" lon="11.38924"><ele>551.0</ele><time>2026-03-22T08:32:05.805Z</time></trkpt><trkpt lat="43.6469912" lon="11.3892094"><ele>551.0</ele><time>2026-03-22T08:32:07.805Z</time></trkpt><trkpt lat="43.6469115" lon="11.3891912"><ele>551.0</ele><time>2026-03-22T08:32:09.805Z</time></trkpt><trkpt lat="43.6468188" lon="11.389173"><ele>551.0</ele><time>2026-03-22T08:32:11.805Z</time></trkpt><trkpt lat="43.6467189" lon="11.3891438"><ele>551.0</ele><time>2026-03-22T08:32:13.805Z</time></trkpt><trkpt lat="43.6466564" lon="11.3891004"><ele>558.2</ele><time>2026-03-22T08:32:15.804Z</time></trkpt><trkpt lat="43.6466432" lon="11.3889706"><ele>565.4000000000001</ele><time>2026-03-22T08:32:17.805Z</time></trkpt><trkpt lat="43.6466382" lon="11.3888133"><ele>572.6</ele><time>2026-03-22T08:32:19.805Z</time></trkpt><trkpt lat="43.6466159" lon="11.3886769"><ele>579.8000000000001</ele><time>2026-03-22T08:32:21.805Z</time></trkpt><trkpt lat="43.6465632" lon="11.3885899"><ele>587.0</ele><time>2026-03-22T08:32:23.805Z</time></trkpt><trkpt lat="43.6464857" lon="11.3885193"><ele>587.0</ele><time>2026-03-22T08:32:25.804Z</time></trkpt><trkpt lat="43.6463846" lon="11.3884763"><ele>587.0</ele><time>2026-03-22T08:32:27.805Z</time></trkpt><trkpt lat="43.646307" lon="11.388445"><ele>587.0</ele><time>2026-03-22T08:32:29.805Z</time></trkpt><trkpt lat="43.6462424" lon="11.3883838"><ele>587.0</ele><time>2026-03-22T08:32:32.805Z</time></trkpt><trkpt lat="43.6461817" lon="11.3883171"><ele>587.0</ele><time>2026-03-22T08:32:35.805Z</time></trkpt><trkpt lat="43.6461572" lon="11.3882297"><ele>587.0</ele><time>2026-03-22T08:32:39.805Z</time></trkpt><trkpt lat="43.6462186" lon="11.3881941"><ele>587.0</ele><time>2026-03-22T08:32:42.804Z</time></trkpt><trkpt lat="43.6462917" lon="11.3881828"><ele>587.0</ele><time>2026-03-22T08:32:44.806Z</time></trkpt><trkpt lat="43.6463887" lon="11.3881426"><ele>587.0</ele><time>2026-03-22T08:32:46.805Z</time></trkpt><trkpt lat="43.646499" lon="11.3880807"><ele>587.0</ele><time>2026-03-22T08:32:48.806Z</time></trkpt><trkpt lat="43.6465824" lon="11.3879905"><ele>587.0</ele><time>2026-03-22T08:32:50.806Z</time></trkpt><trkpt lat="43.646656" lon="11.3879189"><ele>586.5</ele><time>2026-03-22T08:32:52.805Z</time></trkpt><trkpt lat="43.6467769" lon="11.3878463"><ele>586.0</ele><time>2026-03-22T08:32:54.806Z</time></trkpt><trkpt lat="43.6468404" lon="11.3878318"><ele>585.5</ele><time>2026-03-22T08:32:55.806Z</time></trkpt><trkpt lat="43.6469081" lon="11.3878291"><ele>585.0</ele><time>2026-03-22T08:32:56.806Z</time></trkpt><trkpt lat="43.6470078" lon="11.3878619"><ele>584.5</ele><time>2026-03-22T08:32:58.806Z</time></trkpt><trkpt lat="43.6470736" lon="11.3878588"><ele>584.0</ele><time>2026-03-22T08:32:59.806Z</time></trkpt><trkpt lat="43.6471952" lon="11.3878241"><ele>584.0</ele><time>2026-03-22T08:33:01.806Z</time></trkpt><trkpt lat="43.6472943" lon="11.3877668"><ele>584.0</ele><time>2026-03-22T08:33:03.806Z</time></trkpt><trkpt lat="43.6473371" lon="11.3876562"><ele>584.0</ele><time>2026-03-22T08:33:05.806Z</time></trkpt><trkpt lat="43.6472655" lon="11.3875329"><ele>584.0</ele><time>2026-03-22T08:33:07.806Z</time></trkpt><trkpt lat="43.6472019" lon="11.387434"><ele>584.0</ele><time>2026-03-22T08:33:09.806Z</time></trkpt><trkpt lat="43.647169" lon="11.38729"><ele>584.8</ele><time>2026-03-22T08:33:11.806Z</time></trkpt><trkpt lat="43.6471383" lon="11.387152"><ele>585.5999999999999</ele><time>2026-03-22T08:33:13.806Z</time></trkpt><trkpt lat="43.6471072" lon="11.3869911"><ele>586.4</ele><time>2026-03-22T08:33:15.806Z</time></trkpt><trkpt lat="43.6471006" lon="11.3869035"><ele>587.1999999999999</ele><time>2026-03-22T08:33:16.806Z</time></trkpt><trkpt lat="43.6471003" lon="11.3868108"><ele>588.0</ele><time>2026-03-22T08:33:17.806Z</time></trkpt><trkpt lat="43.6470496" lon="11.3866705"><ele>588.0</ele><time>2026-03-22T08:33:19.805Z</time></trkpt><trkpt lat="43.6470428" lon="11.3865739"><ele>588.0</ele><time>2026-03-22T08:33:20.806Z</time></trkpt><trkpt lat="43.6470475" lon="11.3864793"><ele>588.0</ele><time>2026-03-22T08:33:21.806Z</time></trkpt><trkpt lat="43.6470614" lon="11.3863812"><ele>588.0</ele><time>2026-03-22T08:33:22.806Z</time></trkpt><trkpt lat="43.6470651" lon="11.3862276"><ele>588.0</ele><time>2026-03-22T08:33:24.806Z</time></trkpt><trkpt lat="43.6470978" lon="11.3861227"><ele>588.0</ele><time>2026-03-22T08:33:26.805Z</time></trkpt><trkpt lat="43.6471548" lon="11.3860366"><ele>590.0</ele><time>2026-03-22T08:33:28.806Z</time></trkpt><trkpt lat="43.6472177" lon="11.3859749"><ele>592.0</ele><time>2026-03-22T08:33:30.806Z</time></trkpt><trkpt lat="43.6472623" lon="11.385892"><ele>594.0</ele><time>2026-03-22T08:33:32.805Z</time></trkpt><trkpt lat="43.6472858" lon="11.3857684"><ele>596.0</ele><time>2026-03-22T08:33:34.806Z</time></trkpt><trkpt lat="43.6472787" lon="11.3856247"><ele>598.0</ele><time>2026-03-22T08:33:36.806Z</time></trkpt><trkpt lat="43.6472514" lon="11.3854656"><ele>600.75</ele><time>2026-03-22T08:33:38.806Z</time></trkpt><trkpt lat="43.6472167" lon="11.385317"><ele>603.5</ele><time>2026-03-22T08:33:40.806Z</time></trkpt><trkpt lat="43.6471888" lon="11.3851407"><ele>606.25</ele><time>2026-03-22T08:33:42.806Z</time></trkpt><trkpt lat="43.6471815" lon="11.3849597"><ele>609.0</ele><time>2026-03-22T08:33:44.806Z</time></trkpt><trkpt lat="43.6471738" lon="11.3848282"><ele>609.0</ele><time>2026-03-22T08:33:45.806Z</time></trkpt><trkpt lat="43.6471629" lon="11.3847238"><ele>609.0</ele><time>2026-03-22T08:33:46.806Z</time></trkpt><trkpt lat="43.6471416" lon="11.3845519"><ele>609.0</ele><time>2026-03-22T08:33:48.806Z</time></trkpt><trkpt lat="43.6471651" lon="11.3843897"><ele>609.0</ele><time>2026-03-22T08:33:50.806Z</time></trkpt><trkpt lat="43.6472577" lon="11.3842842"><ele>609.0</ele><time>2026-03-22T08:33:52.806Z</time></trkpt><trkpt lat="43.6473625" lon="11.3841998"><ele>611.8333333333334</ele><time>2026-03-22T08:33:54.805Z</time></trkpt><trkpt lat="43.6474324" lon="11.3841502"><ele>614.6666666666666</ele><time>2026-03-22T08:33:55.806Z</time></trkpt><trkpt lat="43.6475015" lon="11.3840937"><ele>617.5</ele><time>2026-03-22T08:33:56.806Z</time></trkpt><trkpt lat="43.6475438" lon="11.3840271"><ele>620.3333333333333</ele><time>2026-03-22T08:33:57.806Z</time></trkpt><trkpt lat="43.6475719" lon="11.3839464"><ele>623.1666666666666</ele><time>2026-03-22T08:33:58.805Z</time></trkpt><trkpt lat="43.6475904" lon="11.3838533"><ele>626.0</ele><time>2026-03-22T08:33:59.806Z</time></trkpt><trkpt lat="43.6476153" lon="11.3837055"><ele>627.4</ele><time>2026-03-22T08:34:01.806Z</time></trkpt><trkpt lat="43.6475839" lon="11.383569"><ele>628.8</ele><time>2026-03-22T08:34:03.805Z</time></trkpt><trkpt lat="43.6475147" lon="11.3834785"><ele>630.1999999999999</ele><time>2026-03-22T08:34:05.806Z</time></trkpt><trkpt lat="43.6474154" lon="11.3834075"><ele>631.6</ele><time>2026-03-22T08:34:07.806Z</time></trkpt><trkpt lat="43.6472897" lon="11.3833639"><ele>633.0</ele><time>2026-03-22T08:34:09.806Z</time></trkpt><trkpt lat="43.647226" lon="11.3833539"><ele>633.0</ele><time>2026-03-22T08:34:10.805Z</time></trkpt><trkpt lat="43.6471424" lon="11.3833243"><ele>633.0</ele><time>2026-03-22T08:34:12.805Z</time></trkpt><trkpt lat="43.6470681" lon="11.3832739"><ele>633.0</ele><time>2026-03-22T08:34:14.805Z</time></trkpt><trkpt lat="43.6470086" lon="11.3831788"><ele>633.0</ele><time>2026-03-22T08:34:16.805Z</time></trkpt><trkpt lat="43.6469579" lon="11.3830532"><ele>633.0</ele><time>2026-03-22T08:34:18.806Z</time></trkpt><trkpt lat="43.6468874" lon="11.3829521"><ele>635.3333333333334</ele><time>2026-03-22T08:34:20.805Z</time></trkpt><trkpt lat="43.6468224" lon="11.3829386"><ele>637.6666666666666</ele><time>2026-03-22T08:34:21.806Z</time></trkpt><trkpt lat="43.6467613" lon="11.3829669"><ele>640.0</ele><time>2026-03-22T08:34:22.806Z</time></trkpt><trkpt lat="43.646701" lon="11.3829983"><ele>642.3333333333333</ele><time>2026-03-22T08:34:23.806Z</time></trkpt><trkpt lat="43.6465976" lon="11.3830051"><ele>644.6666666666666</ele><time>2026-03-22T08:34:25.806Z</time></trkpt><trkpt lat="43.646563" lon="11.382922"><ele>647.0</ele><time>2026-03-22T08:34:34.806Z</time></trkpt><trkpt lat="43.6465031" lon="11.382813"><ele>647.0</ele><time>2026-03-22T08:34:37.806Z</time></trkpt><trkpt lat="43.6464436" lon="11.3827507"><ele>647.0</ele><time>2026-03-22T08:34:39.806Z</time></trkpt><trkpt lat="43.6463725" lon="11.382736"><ele>647.0</ele><time>2026-03-22T08:34:41.806Z</time></trkpt><trkpt lat="43.6462755" lon="11.3827325"><ele>647.0</ele><time>2026-03-22T08:34:43.806Z</time></trkpt><trkpt lat="43.6461968" lon="11.3827152"><ele>647.0</ele><time>2026-03-22T08:34:45.805Z</time></trkpt><trkpt lat="43.6461351" lon="11.3826768"><ele>647.0</ele><time>2026-03-22T08:34:47.806Z</time></trkpt><trkpt lat="43.6461413" lon="11.3825782"><ele>647.0</ele><time>2026-03-22T08:34:50.806Z</time></trkpt><trkpt lat="43.646185" lon="11.3824768"><ele>647.0</ele><time>2026-03-22T08:34:52.806Z</time></trkpt><trkpt lat="43.646233" lon="11.382374"><ele>647.0</ele><time>2026-03-22T08:34:54.806Z</time></trkpt><trkpt lat="43.6462721" lon="11.3822866"><ele>647.0</ele><time>2026-03-22T08:34:56.806Z</time></trkpt><trkpt lat="43.6462875" lon="11.3821657"><ele>647.0</ele><time>2026-03-22T08:34:58.806Z</time></trkpt><trkpt lat="43.6462869" lon="11.38204"><ele>647.0</ele><time>2026-03-22T08:35:00.805Z</time></trkpt><trkpt lat="43.6462759" lon="11.3819198"><ele>646.4000000000001</ele><time>2026-03-22T08:35:02.806Z</time></trkpt><trkpt lat="43.6462041" lon="11.381822"><ele>645.8000000000001</ele><time>2026-03-22T08:35:04.806Z</time></trkpt><trkpt lat="43.6461552" lon="11.3816955"><ele>645.2</ele><time>2026-03-22T08:35:06.806Z</time></trkpt><trkpt lat="43.6461188" lon="11.3816222"><ele>644.6</ele><time>2026-03-22T08:35:07.805Z</time></trkpt><trkpt lat="43.64603" lon="11.3814831"><ele>644.0</ele><time>2026-03-22T08:35:09.806Z</time></trkpt><trkpt lat="43.6459979" lon="11.3813673"><ele>648.2</ele><time>2026-03-22T08:35:11.805Z</time></trkpt><trkpt lat="43.6459734" lon="11.3812438"><ele>652.4000000000001</ele><time>2026-03-22T08:35:13.806Z</time></trkpt><trkpt lat="43.6459395" lon="11.3811359"><ele>656.6</ele><time>2026-03-22T08:35:15.806Z</time></trkpt><trkpt lat="43.6458676" lon="11.3810195"><ele>660.8</ele><time>2026-03-22T08:35:17.806Z</time></trkpt><trkpt lat="43.6457885" lon="11.3809349"><ele>665.0</ele><time>2026-03-22T08:35:19.806Z</time></trkpt><trkpt lat="43.6457175" lon="11.3808589"><ele>665.0</ele><time>2026-03-22T08:35:21.806Z</time></trkpt><trkpt lat="43.6456701" lon="11.3807979"><ele>665.0</ele><time>2026-03-22T08:35:23.806Z</time></trkpt><trkpt lat="43.645647" lon="11.380701"><ele>665.0</ele><time>2026-03-22T08:35:26.806Z</time></trkpt><trkpt lat="43.6456262" lon="11.3806124"><ele>665.0</ele><time>2026-03-22T08:35:28.806Z</time></trkpt><trkpt lat="43.6456239" lon="11.380471"><ele>665.0</ele><time>2026-03-22T08:35:30.805Z</time></trkpt><trkpt lat="43.64562" lon="11.3803133"><ele>665.0</ele><time>2026-03-22T08:35:32.806Z</time></trkpt><trkpt lat="43.6455977" lon="11.3801893"><ele>664.2</ele><time>2026-03-22T08:35:34.806Z</time></trkpt><trkpt lat="43.6455274" lon="11.3800562"><ele>663.4</ele><time>2026-03-22T08:35:36.806Z</time></trkpt><trkpt lat="43.6454782" lon="11.3799803"><ele>662.5999999999999</ele><time>2026-03-22T08:35:37.806Z</time></trkpt><trkpt lat="43.6454123" lon="11.3798441"><ele>661.8</ele><time>2026-03-22T08:35:39.805Z</time></trkpt><trkpt lat="43.6453505" lon="11.3797626"><ele>661.0</ele><time>2026-03-22T08:35:40.805Z</time></trkpt><trkpt lat="43.6452706" lon="11.3796759"><ele>662.5</ele><time>2026-03-22T08:35:41.806Z</time></trkpt><trkpt lat="43.6452118" lon="11.3796074"><ele>664.0</ele><time>2026-03-22T08:35:42.806Z</time></trkpt><trkpt lat="43.6451464" lon="11.3795495"><ele>665.5</ele><time>2026-03-22T08:35:43.805Z</time></trkpt><trkpt lat="43.6450873" lon="11.3794933"><ele>667.0</ele><time>2026-03-22T08:35:44.805Z</time></trkpt><trkpt lat="43.6450117" lon="11.3794409"><ele>668.5</ele><time>2026-03-22T08:35:46.806Z</time></trkpt><trkpt lat="43.6449479" lon="11.3794035"><ele>670.0</ele><time>2026-03-22T08:35:53.805Z</time></trkpt><trkpt lat="43.6448948" lon="11.3793404"><ele>670.0</ele><time>2026-03-22T08:35:58.806Z</time></trkpt><trkpt lat="43.6448536" lon="11.3792698"><ele>670.0</ele><time>2026-03-22T08:36:01.805Z</time></trkpt><trkpt lat="43.6448078" lon="11.3791956"><ele>670.0</ele><time>2026-03-22T08:36:03.806Z</time></trkpt><trkpt lat="43.6447504" lon="11.3791272"><ele>670.0</ele><time>2026-03-22T08:36:05.805Z</time></trkpt><trkpt lat="43.6446741" lon="11.3790678"><ele>670.0</ele><time>2026-03-22T08:36:07.806Z</time></trkpt><trkpt lat="43.6445931" lon="11.378992"><ele>670.0</ele><time>2026-03-22T08:36:09.805Z</time></trkpt><trkpt lat="43.6445171" lon="11.3789378"><ele>672.1666666666667</ele><time>2026-03-22T08:36:11.805Z</time></trkpt><trkpt lat="43.644441" lon="11.3788692"><ele>674.3333333333334</ele><time>2026-03-22T08:36:13.806Z</time></trkpt><trkpt lat="43.6443643" lon="11.3788003"><ele>676.5</ele><time>2026-03-22T08:36:15.805Z</time></trkpt><trkpt lat="43.6442673" lon="11.3787035"><ele>678.6666666666666</ele><time>2026-03-22T08:36:17.806Z</time></trkpt><trkpt lat="43.6442117" lon="11.378655"><ele>680.8333333333333</ele><time>2026-03-22T08:36:18.806Z</time></trkpt><trkpt lat="43.6441594" lon="11.3785879"><ele>683.0</ele><time>2026-03-22T08:36:19.806Z</time></trkpt><trkpt lat="43.644079" lon="11.378481"><ele>683.0</ele><time>2026-03-22T08:36:21.806Z</time></trkpt><trkpt lat="43.6440172" lon="11.3783748"><ele>683.0</ele><time>2026-03-22T08:36:23.806Z</time></trkpt><trkpt lat="43.6439752" lon="11.3783087"><ele>683.0</ele><time>2026-03-22T08:36:25.806Z</time></trkpt><trkpt lat="43.6439303" lon="11.3782469"><ele>683.0</ele><time>2026-03-22T08:36:27.806Z</time></trkpt><trkpt lat="43.6438648" lon="11.3781901"><ele>683.0</ele><time>2026-03-22T08:36:29.806Z</time></trkpt><trkpt lat="43.6437927" lon="11.3781317"><ele>683.0</ele><time>2026-03-22T08:36:31.806Z</time></trkpt><trkpt lat="43.6437221" lon="11.3780684"><ele>685.0</ele><time>2026-03-22T08:36:33.806Z</time></trkpt><trkpt lat="43.6436399" lon="11.3780036"><ele>687.0</ele><time>2026-03-22T08:36:35.806Z</time></trkpt><trkpt lat="43.6435428" lon="11.3779171"><ele>689.0</ele><time>2026-03-22T08:36:37.806Z</time></trkpt><trkpt lat="43.643484" lon="11.3778703"><ele>691.0</ele><time>2026-03-22T08:36:38.806Z</time></trkpt><trkpt lat="43.6433882" lon="11.3777804"><ele>693.0</ele><time>2026-03-22T08:36:40.805Z</time></trkpt><trkpt lat="43.6432925" lon="11.37772"><ele>693.0</ele><time>2026-03-22T08:36:42.806Z</time></trkpt><trkpt lat="43.6431936" lon="11.3776874"><ele>693.0</ele><time>2026-03-22T08:36:44.806Z</time></trkpt><trkpt lat="43.6430976" lon="11.3776566"><ele>693.0</ele><time>2026-03-22T08:36:46.805Z</time></trkpt><trkpt lat="43.6430076" lon="11.3776226"><ele>693.0</ele><time>2026-03-22T08:36:48.806Z</time></trkpt><trkpt lat="43.6429107" lon="11.3775357"><ele>693.0</ele><time>2026-03-22T08:36:50.806Z</time></trkpt><trkpt lat="43.6428531" lon="11.3774952"><ele>694.2857142857143</ele><time>2026-03-22T08:36:51.806Z</time></trkpt><trkpt lat="43.6427906" lon="11.3774573"><ele>695.5714285714286</ele><time>2026-03-22T08:36:52.806Z</time></trkpt><trkpt lat="43.6427223" lon="11.3774255"><ele>696.8571428571429</ele><time>2026-03-22T08:36:53.806Z</time></trkpt><trkpt lat="43.6426529" lon="11.3773877"><ele>698.1428571428571</ele><time>2026-03-22T08:36:54.806Z</time></trkpt><trkpt lat="43.6425812" lon="11.377351"><ele>699.4285714285714</ele><time>2026-03-22T08:36:55.806Z</time></trkpt><trkpt lat="43.642514" lon="11.3773089"><ele>700.7142857142858</ele><time>2026-03-22T08:36:56.806Z</time></trkpt><trkpt lat="43.6424561" lon="11.3772728"><ele>702.0</ele><time>2026-03-22T08:36:57.806Z</time></trkpt><trkpt lat="43.6423712" lon="11.3772262"><ele>702.4000000000001</ele><time>2026-03-22T08:36:59.806Z</time></trkpt><trkpt lat="43.6423454" lon="11.377137"><ele>702.8000000000001</ele><time>2026-03-22T08:39:12.807Z</time></trkpt><trkpt lat="43.6422569" lon="11.3770526"><ele>703.2</ele><time>2026-03-22T08:39:16.807Z</time></trkpt><trkpt lat="43.6421679" lon="11.3769693"><ele>703.6</ele><time>2026-03-22T08:39:18.807Z</time></trkpt><trkpt lat="43.6420972" lon="11.3768589"><ele>704.0</ele><time>2026-03-22T08:39:20.806Z</time></trkpt><trkpt lat="43.6420565" lon="11.376758"><ele>704.0</ele><time>2026-03-22T08:39:22.807Z</time></trkpt><trkpt lat="43.6420097" lon="11.3766346"><ele>704.0</ele><time>2026-03-22T08:39:24.807Z</time></trkpt><trkpt lat="43.6419264" lon="11.3765136"><ele>704.0</ele><time>2026-03-22T08:39:26.807Z</time></trkpt><trkpt lat="43.6418846" lon="11.3764442"><ele>704.0</ele><time>2026-03-22T08:39:27.807Z</time></trkpt><trkpt lat="43.6418413" lon="11.376364"><ele>704.0</ele><time>2026-03-22T08:39:28.806Z</time></trkpt><trkpt lat="43.6418097" lon="11.3762713"><ele>704.0</ele><time>2026-03-22T08:39:29.807Z</time></trkpt><trkpt lat="43.6417758" lon="11.3761911"><ele>704.4000000000001</ele><time>2026-03-22T08:39:30.806Z</time></trkpt><trkpt lat="43.6417208" lon="11.3760445"><ele>704.8</ele><time>2026-03-22T08:39:32.807Z</time></trkpt><trkpt lat="43.6416605" lon="11.3759564"><ele>705.2</ele><time>2026-03-22T08:39:34.806Z</time></trkpt><trkpt lat="43.6415844" lon="11.3758976"><ele>705.5999999999999</ele><time>2026-03-22T08:39:38.807Z</time></trkpt><trkpt lat="43.6415095" lon="11.3758427"><ele>706.0</ele><time>2026-03-22T08:39:41.806Z</time></trkpt><trkpt lat="43.6414284" lon="11.3758332"><ele>706.0</ele><time>2026-03-22T08:39:43.807Z</time></trkpt><trkpt lat="43.6413367" lon="11.3758689"><ele>706.0</ele><time>2026-03-22T08:39:45.806Z</time></trkpt><trkpt lat="43.6412556" lon="11.3759019"><ele>706.0</ele><time>2026-03-22T08:39:47.807Z</time></trkpt><trkpt lat="43.64119" lon="11.375919"><ele>706.0</ele><time>2026-03-22T08:39:49.807Z</time></trkpt><trkpt lat="43.6411403" lon="11.3758406"><ele>706.0</ele><time>2026-03-22T08:44:26.806Z</time></trkpt><trkpt lat="43.6412099" lon="11.375756"><ele>706.0</ele><time>2026-03-22T08:45:56.807Z</time></trkpt><trkpt lat="43.6412363" lon="11.375598"><ele>705.8</ele><time>2026-03-22T08:45:58.807Z</time></trkpt><trkpt lat="43.6412159" lon="11.375432"><ele>705.5999999999999</ele><time>2026-03-22T08:46:00.807Z</time></trkpt><trkpt lat="43.6411875" lon="11.375268"><ele>705.4</ele><time>2026-03-22T08:46:02.807Z</time></trkpt><trkpt lat="43.641164" lon="11.3751644"><ele>705.2</ele><time>2026-03-22T08:46:04.807Z</time></trkpt><trkpt lat="43.6411498" lon="11.3750437"><ele>705.0</ele><time>2026-03-22T08:46:06.807Z</time></trkpt><trkpt lat="43.641165" lon="11.3749074"><ele>705.0</ele><time>2026-03-22T08:46:08.807Z</time></trkpt><trkpt lat="43.6411962" lon="11.3748288"><ele>705.0</ele><time>2026-03-22T08:46:09.807Z</time></trkpt><trkpt lat="43.6412554" lon="11.3746684"><ele>705.0</ele><time>2026-03-22T08:46:11.805Z</time></trkpt><trkpt lat="43.6412802" lon="11.3745838"><ele>705.0</ele><time>2026-03-22T08:46:12.807Z</time></trkpt><trkpt lat="43.6413127" lon="11.3745027"><ele>705.0</ele><time>2026-03-22T08:46:13.806Z</time></trkpt><trkpt lat="43.6414043" lon="11.3743796"><ele>704.4</ele><time>2026-03-22T08:46:15.807Z</time></trkpt><trkpt lat="43.6415125" lon="11.3742706"><ele>703.8</ele><time>2026-03-22T08:46:17.806Z</time></trkpt><trkpt lat="43.6415709" lon="11.3741993"><ele>703.2</ele><time>2026-03-22T08:46:18.807Z</time></trkpt><trkpt lat="43.6416286" lon="11.3741228"><ele>702.6</ele><time>2026-03-22T08:46:19.807Z</time></trkpt><trkpt lat="43.6416773" lon="11.374044"><ele>702.0</ele><time>2026-03-22T08:46:20.807Z</time></trkpt><trkpt lat="43.6417609" lon="11.3739587"><ele>702.0</ele><time>2026-03-22T08:46:22.807Z</time></trkpt><trkpt lat="43.6418481" lon="11.3739595"><ele>702.0</ele><time>2026-03-22T08:46:24.807Z</time></trkpt><trkpt lat="43.6419299" lon="11.3739538"><ele>702.0</ele><time>2026-03-22T08:46:26.807Z</time></trkpt><trkpt lat="43.6420272" lon="11.3739561"><ele>702.0</ele><time>2026-03-22T08:46:28.807Z</time></trkpt><trkpt lat="43.6421209" lon="11.3739834"><ele>702.0</ele><time>2026-03-22T08:46:30.807Z</time></trkpt><trkpt lat="43.6421852" lon="11.3740301"><ele>702.0</ele><time>2026-03-22T08:46:32.807Z</time></trkpt><trkpt lat="43.6423001" lon="11.3740855"><ele>702.3333333333334</ele><time>2026-03-22T08:46:34.807Z</time></trkpt><trkpt lat="43.6423676" lon="11.3741098"><ele>702.6666666666666</ele><time>2026-03-22T08:46:35.806Z</time></trkpt><trkpt lat="43.6424761" lon="11.3741246"><ele>703.0</ele><time>2026-03-22T08:46:37.807Z</time></trkpt><trkpt lat="43.6425512" lon="11.3741072"><ele>703.3333333333333</ele><time>2026-03-22T08:46:38.807Z</time></trkpt><trkpt lat="43.6426193" lon="11.3740623"><ele>703.6666666666666</ele><time>2026-03-22T08:46:39.807Z</time></trkpt><trkpt lat="43.6426746" lon="11.3740129"><ele>704.0</ele><time>2026-03-22T08:46:40.807Z</time></trkpt><trkpt lat="43.6427289" lon="11.3739634"><ele>705.4000000000001</ele><time>2026-03-22T08:46:41.807Z</time></trkpt><trkpt lat="43.6428178" lon="11.3738593"><ele>706.8</ele><time>2026-03-22T08:46:43.807Z</time></trkpt><trkpt lat="43.6428843" lon="11.3737228"><ele>708.2</ele><time>2026-03-22T08:46:45.807Z</time></trkpt><trkpt lat="43.6429047" lon="11.3736352"><ele>709.5999999999999</ele><time>2026-03-22T08:46:46.807Z</time></trkpt><trkpt lat="43.6429245" lon="11.3735503"><ele>711.0</ele><time>2026-03-22T08:46:47.807Z</time></trkpt><trkpt lat="43.6429345" lon="11.3734229"><ele>708.3333333333334</ele><time>2026-03-22T08:46:49.807Z</time></trkpt><trkpt lat="43.6429332" lon="11.3733189"><ele>705.6666666666666</ele><time>2026-03-22T08:46:51.806Z</time></trkpt><trkpt lat="43.6429454" lon="11.3732155"><ele>703.0</ele><time>2026-03-22T08:46:53.807Z</time></trkpt><trkpt lat="43.6430078" lon="11.3731281"><ele>700.3333333333333</ele><time>2026-03-22T08:46:55.807Z</time></trkpt><trkpt lat="43.6431101" lon="11.3731179"><ele>697.6666666666666</ele><time>2026-03-22T08:46:57.807Z</time></trkpt><trkpt lat="43.6432003" lon="11.3730648"><ele>695.0</ele><time>2026-03-22T08:46:59.807Z</time></trkpt><trkpt lat="43.6432583" lon="11.3730276"><ele>695.0</ele><time>2026-03-22T08:47:00.807Z</time></trkpt><trkpt lat="43.6433143" lon="11.3729878"><ele>695.0</ele><time>2026-03-22T08:47:01.807Z</time></trkpt><trkpt lat="43.6433758" lon="11.3729594"><ele>695.0</ele><time>2026-03-22T08:47:02.807Z</time></trkpt><trkpt lat="43.6434887" lon="11.3729416"><ele>695.0</ele><time>2026-03-22T08:47:04.807Z</time></trkpt><trkpt lat="43.6435425" lon="11.3730343"><ele>695.0</ele><time>2026-03-22T08:47:06.806Z</time></trkpt><trkpt lat="43.6435701" lon="11.3731807"><ele>695.0</ele><time>2026-03-22T08:47:08.807Z</time></trkpt><trkpt lat="43.6436075" lon="11.3732529"><ele>694.8</ele><time>2026-03-22T08:47:09.807Z</time></trkpt><trkpt lat="43.6437243" lon="11.3732835"><ele>694.6</ele><time>2026-03-22T08:47:11.807Z</time></trkpt><trkpt lat="43.6438457" lon="11.3732872"><ele>694.4000000000001</ele><time>2026-03-22T08:47:13.807Z</time></trkpt><trkpt lat="43.6439646" lon="11.3732757"><ele>694.2</ele><time>2026-03-22T08:47:15.807Z</time></trkpt><trkpt lat="43.6440309" lon="11.3733079"><ele>694.0</ele><time>2026-03-22T08:47:18.807Z</time></trkpt><trkpt lat="43.6439394" lon="11.3732859"><ele>694.0</ele><time>2026-03-22T08:47:52.807Z</time></trkpt><trkpt lat="43.6438359" lon="11.3733148"><ele>694.0</ele><time>2026-03-22T08:47:54.808Z</time></trkpt><trkpt lat="43.6437238" lon="11.3733137"><ele>694.0</ele><time>2026-03-22T08:47:56.807Z</time></trkpt><trkpt lat="43.6436535" lon="11.3733031"><ele>694.0</ele><time>2026-03-22T08:47:57.808Z</time></trkpt><trkpt lat="43.6435642" lon="11.3732191"><ele>694.0</ele><time>2026-03-22T08:47:59.808Z</time></trkpt><trkpt lat="43.64354" lon="11.3730809"><ele>694.1666666666667</ele><time>2026-03-22T08:48:01.808Z</time></trkpt><trkpt lat="43.6434917" lon="11.3729732"><ele>694.3333333333334</ele><time>2026-03-22T08:48:03.807Z</time></trkpt><trkpt lat="43.6434276" lon="11.3729727"><ele>694.5</ele><time>2026-03-22T08:48:04.807Z</time></trkpt><trkpt lat="43.6433567" lon="11.372992"><ele>694.6666666666666</ele><time>2026-03-22T08:48:05.808Z</time></trkpt><trkpt lat="43.643286" lon="11.3730167"><ele>694.8333333333333</ele><time>2026-03-22T08:48:06.808Z</time></trkpt><trkpt lat="43.6432172" lon="11.3730394"><ele>695.0</ele><time>2026-03-22T08:48:07.807Z</time></trkpt><trkpt lat="43.643113" lon="11.3731"><ele>695.0</ele><time>2026-03-22T08:48:09.808Z</time></trkpt><trkpt lat="43.6430081" lon="11.3731488"><ele>695.0</ele><time>2026-03-22T08:48:11.807Z</time></trkpt><trkpt lat="43.6429256" lon="11.3732743"><ele>695.0</ele><time>2026-03-22T08:48:13.808Z</time></trkpt><trkpt lat="43.6429314" lon="11.3733831"><ele>695.0</ele><time>2026-03-22T08:48:14.808Z</time></trkpt><trkpt lat="43.6429154" lon="11.3734917"><ele>695.0</ele><time>2026-03-22T08:48:16.808Z</time></trkpt><trkpt lat="43.6428864" lon="11.3736432"><ele>695.0</ele><time>2026-03-22T08:48:18.808Z</time></trkpt><trkpt lat="43.642875" lon="11.3737326"><ele>695.0</ele><time>2026-03-22T08:48:19.807Z</time></trkpt><trkpt lat="43.6428239" lon="11.3738782"><ele>695.0</ele><time>2026-03-22T08:48:21.807Z</time></trkpt><trkpt lat="43.6427342" lon="11.373975"><ele>695.0</ele><time>2026-03-22T08:48:23.807Z</time></trkpt><trkpt lat="43.6426708" lon="11.3740312"><ele>695.0</ele><time>2026-03-22T08:48:24.808Z</time></trkpt><trkpt lat="43.6426046" lon="11.3740939"><ele>696.8</ele><time>2026-03-22T08:48:25.808Z</time></trkpt><trkpt lat="43.6425424" lon="11.3741371"><ele>698.6</ele><time>2026-03-22T08:48:26.808Z</time></trkpt><trkpt lat="43.6424329" lon="11.3741624"><ele>700.4000000000001</ele><time>2026-03-22T08:48:28.807Z</time></trkpt><trkpt lat="43.6423136" lon="11.3741022"><ele>702.2</ele><time>2026-03-22T08:48:30.807Z</time></trkpt><trkpt lat="43.6422453" lon="11.3740539"><ele>704.0</ele><time>2026-03-22T08:48:31.808Z</time></trkpt><trkpt lat="43.6421808" lon="11.3739997"><ele>704.0</ele><time>2026-03-22T08:48:32.808Z</time></trkpt><trkpt lat="43.6421257" lon="11.3739576"><ele>704.0</ele><time>2026-03-22T08:48:33.807Z</time></trkpt><trkpt lat="43.6420107" lon="11.373945"><ele>704.0</ele><time>2026-03-22T08:48:35.808Z</time></trkpt><trkpt lat="43.6419403" lon="11.3739694"><ele>704.0</ele><time>2026-03-22T08:48:36.808Z</time></trkpt><trkpt lat="43.6418402" lon="11.3739735"><ele>704.0</ele><time>2026-03-22T08:48:38.808Z</time></trkpt><trkpt lat="43.6417377" lon="11.3739844"><ele>703.6666666666666</ele><time>2026-03-22T08:48:40.807Z</time></trkpt><trkpt lat="43.6416877" lon="11.3740445"><ele>703.3333333333333</ele><time>2026-03-22T08:48:41.808Z</time></trkpt><trkpt lat="43.6416407" lon="11.3741221"><ele>703.0</ele><time>2026-03-22T08:48:42.807Z</time></trkpt><trkpt lat="43.6415881" lon="11.3741952"><ele>702.6666666666666</ele><time>2026-03-22T08:48:43.808Z</time></trkpt><trkpt lat="43.6415196" lon="11.3742839"><ele>702.3333333333334</ele><time>2026-03-22T08:48:44.808Z</time></trkpt><trkpt lat="43.6414603" lon="11.3743457"><ele>702.0</ele><time>2026-03-22T08:48:45.808Z</time></trkpt><trkpt lat="43.6413671" lon="11.3744453"><ele>702.0</ele><time>2026-03-22T08:48:47.808Z</time></trkpt><trkpt lat="43.6412774" lon="11.3745598"><ele>702.0</ele><time>2026-03-22T08:48:49.807Z</time></trkpt><trkpt lat="43.6412318" lon="11.3746717"><ele>702.0</ele><time>2026-03-22T08:48:50.808Z</time></trkpt><trkpt lat="43.6412088" lon="11.3747909"><ele>702.0</ele><time>2026-03-22T08:48:51.808Z</time></trkpt><trkpt lat="43.6411872" lon="11.3748866"><ele>702.0</ele><time>2026-03-22T08:48:52.808Z</time></trkpt><trkpt lat="43.6411568" lon="11.3750353"><ele>702.5</ele><time>2026-03-22T08:48:54.808Z</time></trkpt><trkpt lat="43.6411588" lon="11.3751657"><ele>703.0</ele><time>2026-03-22T08:48:56.808Z</time></trkpt><trkpt lat="43.641163" lon="11.3752526"><ele>703.5</ele><time>2026-03-22T08:48:57.808Z</time></trkpt><trkpt lat="43.6411938" lon="11.3753666"><ele>704.0</ele><time>2026-03-22T08:48:58.808Z</time></trkpt><trkpt lat="43.641218" lon="11.3754768"><ele>704.5</ele><time>2026-03-22T08:48:59.808Z</time></trkpt><trkpt lat="43.6412311" lon="11.3755739"><ele>705.0</ele><time>2026-03-22T08:49:00.808Z</time></trkpt><trkpt lat="43.6412215" lon="11.3756643"><ele>705.0</ele><time>2026-03-22T08:49:01.808Z</time></trkpt><trkpt lat="43.6411844" lon="11.3758166"><ele>705.0</ele><time>2026-03-22T08:49:03.808Z</time></trkpt><trkpt lat="43.641143" lon="11.3759451"><ele>705.0</ele><time>2026-03-22T08:49:05.808Z</time></trkpt><trkpt lat="43.641075" lon="11.3759798"><ele>705.0</ele><time>2026-03-22T08:49:07.808Z</time></trkpt><trkpt lat="43.6410099" lon="11.3760062"><ele>705.0</ele><time>2026-03-22T08:49:10.807Z</time></trkpt><trkpt lat="43.6409346" lon="11.3759935"><ele>705.0</ele><time>2026-03-22T08:49:14.81Z</time></trkpt><trkpt lat="43.6408828" lon="11.3759315"><ele>704.9999999999999</ele><time>2026-03-22T08:49:18.81Z</time></trkpt><trkpt lat="43.6408353" lon="11.3758742"><ele>705.0</ele><time>2026-03-22T08:49:20.81Z</time></trkpt><trkpt lat="43.6407868" lon="11.375816"><ele>705.0</ele><time>2026-03-22T08:49:22.81Z</time></trkpt><trkpt lat="43.6407375" lon="11.3757548"><ele>705.0</ele><time>2026-03-22T08:49:25.81Z</time></trkpt><trkpt lat="43.6406831" lon="11.3757048"><ele>705.0</ele><time>2026-03-22T08:49:27.809Z</time></trkpt><trkpt lat="43.6406266" lon="11.3756383"><ele>704.9999999999999</ele><time>2026-03-22T08:49:29.81Z</time></trkpt><trkpt lat="43.6405662" lon="11.3755661"><ele>705.0</ele><time>2026-03-22T08:49:32.809Z</time></trkpt><trkpt lat="43.6405043" lon="11.3755097"><ele>704.6</ele><time>2026-03-22T08:49:34.81Z</time></trkpt><trkpt lat="43.6404214" lon="11.3754607"><ele>704.2</ele><time>2026-03-22T08:49:36.81Z</time></trkpt><trkpt lat="43.640319" lon="11.3754136"><ele>703.8</ele><time>2026-03-22T08:49:38.81Z</time></trkpt><trkpt lat="43.6402274" lon="11.3753645"><ele>703.4</ele><time>2026-03-22T08:49:40.81Z</time></trkpt><trkpt lat="43.6401495" lon="11.3753311"><ele>703.0</ele><time>2026-03-22T08:49:42.81Z</time></trkpt><trkpt lat="43.6400785" lon="11.3752884"><ele>703.0</ele><time>2026-03-22T08:49:44.81Z</time></trkpt><trkpt lat="43.6399798" lon="11.3752667"><ele>703.0</ele><time>2026-03-22T08:49:46.81Z</time></trkpt><trkpt lat="43.6398822" lon="11.3752344"><ele>703.0</ele><time>2026-03-22T08:49:48.81Z</time></trkpt><trkpt lat="43.6397714" lon="11.3752034"><ele>703.0</ele><time>2026-03-22T08:49:50.81Z</time></trkpt><trkpt lat="43.639677" lon="11.3751847"><ele>703.0</ele><time>2026-03-22T08:49:52.81Z</time></trkpt><trkpt lat="43.6395993" lon="11.3751857"><ele>703.0</ele><time>2026-03-22T08:49:54.81Z</time></trkpt><trkpt lat="43.6395248" lon="11.3751752"><ele>703.0</ele><time>2026-03-22T08:49:57.81Z</time></trkpt><trkpt lat="43.6394426" lon="11.3751775"><ele>703.0</ele><time>2026-03-22T08:50:01.81Z</time></trkpt><trkpt lat="43.6393503" lon="11.3751492"><ele>703.0</ele><time>2026-03-22T08:50:03.809Z</time></trkpt><trkpt lat="43.6392393" lon="11.3751379"><ele>703.0</ele><time>2026-03-22T08:50:05.81Z</time></trkpt><trkpt lat="43.6391264" lon="11.3751204"><ele>703.0</ele><time>2026-03-22T08:50:07.809Z</time></trkpt><trkpt lat="43.6390214" lon="11.3751216"><ele>703.0</ele><time>2026-03-22T08:50:09.809Z</time></trkpt><trkpt lat="43.6389205" lon="11.3751367"><ele>703.0</ele><time>2026-03-22T08:50:11.809Z</time></trkpt><trkpt lat="43.6388335" lon="11.3751435"><ele>703.0</ele><time>2026-03-22T08:50:13.81Z</time></trkpt><trkpt lat="43.638762" lon="11.3751594"><ele>703.0</ele><time>2026-03-22T08:50:15.81Z</time></trkpt><trkpt lat="43.6386858" lon="11.3751636"><ele>703.0</ele><time>2026-03-22T08:50:17.81Z</time></trkpt><trkpt lat="43.6386084" lon="11.3751588"><ele>701.5</ele><time>2026-03-22T08:50:21.81Z</time></trkpt><trkpt lat="43.6385443" lon="11.375168"><ele>700.0</ele><time>2026-03-22T08:50:23.81Z</time></trkpt><trkpt lat="43.6384644" lon="11.3751469"><ele>698.5</ele><time>2026-03-22T08:50:25.81Z</time></trkpt><trkpt lat="43.638386" lon="11.3750778"><ele>697.0</ele><time>2026-03-22T08:50:27.809Z</time></trkpt><trkpt lat="43.6383149" lon="11.375006"><ele>695.5</ele><time>2026-03-22T08:50:29.81Z</time></trkpt><trkpt lat="43.6382365" lon="11.3749549"><ele>694.0</ele><time>2026-03-22T08:50:31.81Z</time></trkpt><trkpt lat="43.6381238" lon="11.3749552"><ele>694.0</ele><time>2026-03-22T08:50:33.81Z</time></trkpt><trkpt lat="43.6380052" lon="11.3749944"><ele>694.0</ele><time>2026-03-22T08:50:35.81Z</time></trkpt><trkpt lat="43.6379401" lon="11.3750197"><ele>694.0</ele><time>2026-03-22T08:50:36.81Z</time></trkpt><trkpt lat="43.637869" lon="11.3750364"><ele>694.0</ele><time>2026-03-22T08:50:37.81Z</time></trkpt><trkpt lat="43.6378009" lon="11.375043"><ele>694.0</ele><time>2026-03-22T08:50:38.81Z</time></trkpt><trkpt lat="43.6377219" lon="11.3750101"><ele>694.0</ele><time>2026-03-22T08:50:39.81Z</time></trkpt><trkpt lat="43.6376464" lon="11.3749547"><ele>693.2857142857143</ele><time>2026-03-22T08:50:40.809Z</time></trkpt><trkpt lat="43.6375777" lon="11.3749108"><ele>692.5714285714286</ele><time>2026-03-22T08:50:41.809Z</time></trkpt><trkpt lat="43.6375069" lon="11.3748715"><ele>691.8571428571429</ele><time>2026-03-22T08:50:42.81Z</time></trkpt><trkpt lat="43.6374359" lon="11.3748331"><ele>691.1428571428571</ele><time>2026-03-22T08:50:43.81Z</time></trkpt><trkpt lat="43.6373701" lon="11.3748143"><ele>690.4285714285714</ele><time>2026-03-22T08:50:44.809Z</time></trkpt><trkpt lat="43.6373069" lon="11.3748445"><ele>689.7142857142857</ele><time>2026-03-22T08:50:45.809Z</time></trkpt><trkpt lat="43.6372395" lon="11.3749004"><ele>689.0</ele><time>2026-03-22T08:50:46.81Z</time></trkpt><trkpt lat="43.6371726" lon="11.3749332"><ele>689.0</ele><time>2026-03-22T08:50:47.81Z</time></trkpt><trkpt lat="43.6371023" lon="11.3749645"><ele>689.0</ele><time>2026-03-22T08:50:48.81Z</time></trkpt><trkpt lat="43.6370267" lon="11.3749627"><ele>689.0</ele><time>2026-03-22T08:50:49.809Z</time></trkpt><trkpt lat="43.6369541" lon="11.3748987"><ele>689.0</ele><time>2026-03-22T08:50:50.81Z</time></trkpt><trkpt lat="43.6368682" lon="11.3748247"><ele>689.0</ele><time>2026-03-22T08:50:51.81Z</time></trkpt><trkpt lat="43.6367953" lon="11.3747694"><ele>689.0</ele><time>2026-03-22T08:50:52.81Z</time></trkpt><trkpt lat="43.6367061" lon="11.3747025"><ele>686.5714285714286</ele><time>2026-03-22T08:50:54.81Z</time></trkpt><trkpt lat="43.6366687" lon="11.3746159"><ele>684.1428571428571</ele><time>2026-03-22T08:50:58.809Z</time></trkpt><trkpt lat="43.6366151" lon="11.3745623"><ele>681.7142857142858</ele><time>2026-03-22T08:51:04.81Z</time></trkpt><trkpt lat="43.636537" lon="11.3745626"><ele>679.2857142857142</ele><time>2026-03-22T08:51:09.81Z</time></trkpt><trkpt lat="43.6364619" lon="11.3745513"><ele>676.8571428571429</ele><time>2026-03-22T08:51:12.81Z</time></trkpt><trkpt lat="43.6364032" lon="11.3745188"><ele>674.4285714285714</ele><time>2026-03-22T08:51:16.809Z</time></trkpt><trkpt lat="43.6363151" lon="11.3744889"><ele>672.0</ele><time>2026-03-22T08:51:19.81Z</time></trkpt><trkpt lat="43.6362281" lon="11.3744181"><ele>673.8</ele><time>2026-03-22T08:51:21.81Z</time></trkpt><trkpt lat="43.6361315" lon="11.3743313"><ele>675.6</ele><time>2026-03-22T08:51:23.81Z</time></trkpt><trkpt lat="43.6360348" lon="11.3742248"><ele>677.4</ele><time>2026-03-22T08:51:25.809Z</time></trkpt><trkpt lat="43.6359842" lon="11.3741563"><ele>679.1999999999999</ele><time>2026-03-22T08:51:26.81Z</time></trkpt><trkpt lat="43.6358904" lon="11.3740526"><ele>681.0</ele><time>2026-03-22T08:51:28.81Z</time></trkpt><trkpt lat="43.6358403" lon="11.3739935"><ele>681.0</ele><time>2026-03-22T08:51:29.81Z</time></trkpt><trkpt lat="43.635707" lon="11.373942"><ele>681.0</ele><time>2026-03-22T08:51:31.81Z</time></trkpt><trkpt lat="43.6356225" lon="11.3739238"><ele>681.0</ele><time>2026-03-22T08:51:32.809Z</time></trkpt><trkpt lat="43.6355498" lon="11.3739024"><ele>681.0</ele><time>2026-03-22T08:51:33.809Z</time></trkpt><trkpt lat="43.6354369" lon="11.3738531"><ele>681.0</ele><time>2026-03-22T08:51:35.81Z</time></trkpt><trkpt lat="43.635354" lon="11.3738208"><ele>680.8333333333334</ele><time>2026-03-22T08:51:37.809Z</time></trkpt><trkpt lat="43.6352822" lon="11.3738051"><ele>680.6666666666666</ele><time>2026-03-22T08:51:39.809Z</time></trkpt><trkpt lat="43.6352155" lon="11.3737834"><ele>680.5</ele><time>2026-03-22T08:51:41.81Z</time></trkpt><trkpt lat="43.6351506" lon="11.3737532"><ele>680.3333333333333</ele><time>2026-03-22T08:54:56.811Z</time></trkpt><trkpt lat="43.6350464" lon="11.3736415"><ele>680.1666666666666</ele><time>2026-03-22T08:54:58.811Z</time></trkpt><trkpt lat="43.6349722" lon="11.373551"><ele>680.0</ele><time>2026-03-22T08:54:59.811Z</time></trkpt><trkpt lat="43.6349085" lon="11.3734627"><ele>680.0</ele><time>2026-03-22T08:55:00.811Z</time></trkpt><trkpt lat="43.634838" lon="11.3733918"><ele>680.0</ele><time>2026-03-22T08:55:01.811Z</time></trkpt><trkpt lat="43.6347661" lon="11.3733191"><ele>680.0</ele><time>2026-03-22T08:55:02.811Z</time></trkpt><trkpt lat="43.6347005" lon="11.3732493"><ele>680.0</ele><time>2026-03-22T08:55:03.811Z</time></trkpt><trkpt lat="43.6346516" lon="11.3731763"><ele>680.0</ele><time>2026-03-22T08:55:04.81Z</time></trkpt><trkpt lat="43.6346137" lon="11.3730933"><ele>680.0</ele><time>2026-03-22T08:55:05.81Z</time></trkpt><trkpt lat="43.6345606" lon="11.3730218"><ele>680.5</ele><time>2026-03-22T08:55:06.811Z</time></trkpt><trkpt lat="43.6344946" lon="11.3729665"><ele>681.0</ele><time>2026-03-22T08:55:07.811Z</time></trkpt><trkpt lat="43.6344393" lon="11.3729111"><ele>681.5</ele><time>2026-03-22T08:55:08.811Z</time></trkpt><trkpt lat="43.6344011" lon="11.3728286"><ele>682.0</ele><time>2026-03-22T08:55:09.811Z</time></trkpt><trkpt lat="43.6343685" lon="11.3727288"><ele>682.5</ele><time>2026-03-22T08:55:10.811Z</time></trkpt><trkpt lat="43.6343344" lon="11.3726182"><ele>683.0</ele><time>2026-03-22T08:55:11.811Z</time></trkpt><trkpt lat="43.6343034" lon="11.372506"><ele>687.0</ele><time>2026-03-22T08:55:12.81Z</time></trkpt><trkpt lat="43.6342765" lon="11.3723858"><ele>691.0</ele><time>2026-03-22T08:55:13.811Z</time></trkpt><trkpt lat="43.6342525" lon="11.3722597"><ele>695.0</ele><time>2026-03-22T08:55:14.811Z</time></trkpt><trkpt lat="43.6342428" lon="11.3721364"><ele>699.0</ele><time>2026-03-22T08:55:15.811Z</time></trkpt><trkpt lat="43.6342326" lon="11.3720472"><ele>703.0</ele><time>2026-03-22T08:55:16.811Z</time></trkpt><trkpt lat="43.6341796" lon="11.3719109"><ele>703.0</ele><time>2026-03-22T08:55:18.811Z</time></trkpt><trkpt lat="43.634135" lon="11.3718393"><ele>703.0</ele><time>2026-03-22T08:55:19.811Z</time></trkpt><trkpt lat="43.6340764" lon="11.3717518"><ele>703.0</ele><time>2026-03-22T08:55:20.811Z</time></trkpt><trkpt lat="43.6340268" lon="11.3716675"><ele>703.0</ele><time>2026-03-22T08:55:21.811Z</time></trkpt><trkpt lat="43.6339541" lon="11.3715983"><ele>703.0</ele><time>2026-03-22T08:55:22.811Z</time></trkpt><trkpt lat="43.6338902" lon="11.3715562"><ele>703.0</ele><time>2026-03-22T08:55:23.811Z</time></trkpt><trkpt lat="43.6338085" lon="11.371507"><ele>703.0</ele><time>2026-03-22T08:55:24.811Z</time></trkpt><trkpt lat="43.6337098" lon="11.3714615"><ele>703.0</ele><time>2026-03-22T08:55:25.811Z</time></trkpt><trkpt lat="43.6335819" lon="11.3714145"><ele>703.0</ele><time>2026-03-22T08:55:26.811Z</time></trkpt><trkpt lat="43.6334804" lon="11.3713739"><ele>703.0</ele><time>2026-03-22T08:55:27.81Z</time></trkpt><trkpt lat="43.6334006" lon="11.3713343"><ele>703.0</ele><time>2026-03-22T08:55:28.811Z</time></trkpt><trkpt lat="43.6333345" lon="11.3712645"><ele>703.2</ele><time>2026-03-22T08:55:29.811Z</time></trkpt><trkpt lat="43.6332721" lon="11.3711924"><ele>703.4</ele><time>2026-03-22T08:55:30.81Z</time></trkpt><trkpt lat="43.6332217" lon="11.3711276"><ele>703.6</ele><time>2026-03-22T08:55:31.811Z</time></trkpt><trkpt lat="43.6331908" lon="11.3709727"><ele>703.8000000000001</ele><time>2026-03-22T08:55:33.811Z</time></trkpt><trkpt lat="43.6331995" lon="11.3708175"><ele>704.0</ele><time>2026-03-22T08:55:35.811Z</time></trkpt><trkpt lat="43.6332122" lon="11.3706617"><ele>704.2</ele><time>2026-03-22T08:55:37.811Z</time></trkpt><trkpt lat="43.6332287" lon="11.3704989"><ele>704.4000000000001</ele><time>2026-03-22T08:55:39.811Z</time></trkpt><trkpt lat="43.6332081" lon="11.3703718"><ele>704.6</ele><time>2026-03-22T08:55:41.81Z</time></trkpt><trkpt lat="43.6332067" lon="11.3702488"><ele>704.8</ele><time>2026-03-22T08:55:43.811Z</time></trkpt><trkpt lat="43.6331798" lon="11.3701009"><ele>705.0</ele><time>2026-03-22T08:55:45.811Z</time></trkpt><trkpt lat="43.6331843" lon="11.3699295"><ele>704.9999999999999</ele><time>2026-03-22T08:55:47.811Z</time></trkpt><trkpt lat="43.6332075" lon="11.3698351"><ele>705.0</ele><time>2026-03-22T08:55:48.81Z</time></trkpt><trkpt lat="43.6332371" lon="11.3697566"><ele>705.0</ele><time>2026-03-22T08:55:49.81Z</time></trkpt><trkpt lat="43.6332511" lon="11.3696118"><ele>705.0</ele><time>2026-03-22T08:55:51.811Z</time></trkpt><trkpt lat="43.6332116" lon="11.3695385"><ele>705.0</ele><time>2026-03-22T08:55:52.811Z</time></trkpt><trkpt lat="43.6331626" lon="11.3694787"><ele>704.9999999999999</ele><time>2026-03-22T08:55:53.811Z</time></trkpt><trkpt lat="43.6331168" lon="11.3694139"><ele>705.0</ele><time>2026-03-22T08:55:54.811Z</time></trkpt><trkpt lat="43.6330683" lon="11.3693456"><ele>705.2</ele><time>2026-03-22T08:55:55.811Z</time></trkpt><trkpt lat="43.6329943" lon="11.3691984"><ele>705.4</ele><time>2026-03-22T08:55:57.811Z</time></trkpt><trkpt lat="43.6329351" lon="11.369139"><ele>705.5999999999999</ele><time>2026-03-22T08:55:58.81Z</time></trkpt><trkpt lat="43.6328636" lon="11.3691202"><ele>705.8</ele><time>2026-03-22T08:55:59.811Z</time></trkpt><trkpt lat="43.6327655" lon="11.3690405"><ele>706.0</ele><time>2026-03-22T08:56:01.811Z</time></trkpt><trkpt lat="43.6327066" lon="11.3689105"><ele>705.6666666666667</ele><time>2026-03-22T08:56:03.811Z</time></trkpt><trkpt lat="43.632722" lon="11.3688075"><ele>705.3333333333334</ele><time>2026-03-22T08:56:04.811Z</time></trkpt><trkpt lat="43.6327393" lon="11.3686939"><ele>705.0</ele><time>2026-03-22T08:56:05.811Z</time></trkpt><trkpt lat="43.6327537" lon="11.3685736"><ele>704.6666666666666</ele><time>2026-03-22T08:56:06.811Z</time></trkpt><trkpt lat="43.632779" lon="11.3684391"><ele>704.3333333333333</ele><time>2026-03-22T08:56:07.81Z</time></trkpt><trkpt lat="43.6328005" lon="11.3683219"><ele>704.0</ele><time>2026-03-22T08:56:08.811Z</time></trkpt><trkpt lat="43.6328144" lon="11.3682002"><ele>704.0</ele><time>2026-03-22T08:56:09.81Z</time></trkpt><trkpt lat="43.6327974" lon="11.3680856"><ele>704.0</ele><time>2026-03-22T08:56:10.811Z</time></trkpt><trkpt lat="43.6327499" lon="11.3679785"><ele>704.0</ele><time>2026-03-22T08:56:11.811Z</time></trkpt><trkpt lat="43.6326787" lon="11.3678987"><ele>704.0</ele><time>2026-03-22T08:56:12.811Z</time></trkpt><trkpt lat="43.6325871" lon="11.3678196"><ele>704.0</ele><time>2026-03-22T08:56:13.81Z</time></trkpt><trkpt lat="43.6325061" lon="11.3677299"><ele>705.5</ele><time>2026-03-22T08:56:14.811Z</time></trkpt><trkpt lat="43.6324394" lon="11.3675888"><ele>707.0</ele><time>2026-03-22T08:56:15.811Z</time></trkpt><trkpt lat="43.6323907" lon="11.3674409"><ele>708.5</ele><time>2026-03-22T08:56:16.81Z</time></trkpt><trkpt lat="43.632335" lon="11.3673062"><ele>710.0</ele><time>2026-03-22T08:56:17.811Z</time></trkpt><trkpt lat="43.6322612" lon="11.3672071"><ele>709.5</ele><time>2026-03-22T08:56:18.811Z</time></trkpt><trkpt lat="43.6321773" lon="11.3671391"><ele>709.0</ele><time>2026-03-22T08:56:19.811Z</time></trkpt><trkpt lat="43.6320709" lon="11.3671083"><ele>708.5</ele><time>2026-03-22T08:56:20.81Z</time></trkpt><trkpt lat="43.6319454" lon="11.3671045"><ele>708.0</ele><time>2026-03-22T08:56:21.811Z</time></trkpt><trkpt lat="43.6318087" lon="11.3670944"><ele>708.0</ele><time>2026-03-22T08:56:22.81Z</time></trkpt><trkpt lat="43.6316721" lon="11.3671089"><ele>708.0</ele><time>2026-03-22T08:56:23.811Z</time></trkpt><trkpt lat="43.6315333" lon="11.3671513"><ele>708.0</ele><time>2026-03-22T08:56:24.811Z</time></trkpt><trkpt lat="43.631391" lon="11.3672013"><ele>708.0</ele><time>2026-03-22T08:56:25.811Z</time></trkpt><trkpt lat="43.6312506" lon="11.3672486"><ele>708.75</ele><time>2026-03-22T08:56:26.811Z</time></trkpt><trkpt lat="43.6311223" lon="11.3672851"><ele>709.5</ele><time>2026-03-22T08:56:27.811Z</time></trkpt><trkpt lat="43.6309973" lon="11.3672363"><ele>710.25</ele><time>2026-03-22T08:56:28.81Z</time></trkpt><trkpt lat="43.6308962" lon="11.3671398"><ele>711.0</ele><time>2026-03-22T08:56:29.811Z</time></trkpt><trkpt lat="43.6307993" lon="11.3670425"><ele>711.0</ele><time>2026-03-22T08:56:30.811Z</time></trkpt><trkpt lat="43.6307107" lon="11.3669405"><ele>711.0</ele><time>2026-03-22T08:56:31.811Z</time></trkpt><trkpt lat="43.6306345" lon="11.3668587"><ele>711.0</ele><time>2026-03-22T08:56:32.811Z</time></trkpt><trkpt lat="43.6305427" lon="11.3668025"><ele>711.0</ele><time>2026-03-22T08:56:33.811Z</time></trkpt><trkpt lat="43.6304404" lon="11.3667735"><ele>711.0</ele><time>2026-03-22T08:56:34.811Z</time></trkpt><trkpt lat="43.6303358" lon="11.3667864"><ele>713.0</ele><time>2026-03-22T08:56:35.811Z</time></trkpt><trkpt lat="43.6302442" lon="11.3668229"><ele>715.0</ele><time>2026-03-22T08:56:36.811Z</time></trkpt><trkpt lat="43.6301448" lon="11.3668322"><ele>717.0</ele><time>2026-03-22T08:56:37.811Z</time></trkpt><trkpt lat="43.6300416" lon="11.3667902"><ele>719.0</ele><time>2026-03-22T08:56:38.811Z</time></trkpt><trkpt lat="43.6299328" lon="11.3667212"><ele>721.0</ele><time>2026-03-22T08:56:39.81Z</time></trkpt><trkpt lat="43.6298385" lon="11.3666324"><ele>721.0</ele><time>2026-03-22T08:56:40.811Z</time></trkpt><trkpt lat="43.6297513" lon="11.3665541"><ele>721.0</ele><time>2026-03-22T08:56:41.811Z</time></trkpt><trkpt lat="43.6296711" lon="11.3664682"><ele>721.0</ele><time>2026-03-22T08:56:42.811Z</time></trkpt><trkpt lat="43.6296017" lon="11.3663897"><ele>721.0</ele><time>2026-03-22T08:56:43.811Z</time></trkpt><trkpt lat="43.6295182" lon="11.3663271"><ele>721.0</ele><time>2026-03-22T08:56:44.811Z</time></trkpt><trkpt lat="43.6294292" lon="11.3662694"><ele>720.5</ele><time>2026-03-22T08:56:45.811Z</time></trkpt><trkpt lat="43.6293522" lon="11.3662057"><ele>720.0</ele><time>2026-03-22T08:56:46.81Z</time></trkpt><trkpt lat="43.6292857" lon="11.3661261"><ele>719.5</ele><time>2026-03-22T08:56:47.811Z</time></trkpt><trkpt lat="43.6292251" lon="11.3660278"><ele>719.0</ele><time>2026-03-22T08:56:48.811Z</time></trkpt><trkpt lat="43.6291693" lon="11.365938"><ele>718.5</ele><time>2026-03-22T08:56:49.811Z</time></trkpt><trkpt lat="43.6291031" lon="11.3658516"><ele>718.0</ele><time>2026-03-22T08:56:50.811Z</time></trkpt><trkpt lat="43.6290286" lon="11.3657662"><ele>718.0</ele><time>2026-03-22T08:56:51.811Z</time></trkpt><trkpt lat="43.6289467" lon="11.3656802"><ele>718.0</ele><time>2026-03-22T08:56:52.811Z</time></trkpt><trkpt lat="43.628866" lon="11.3655958"><ele>718.0</ele><time>2026-03-22T08:56:53.81Z</time></trkpt><trkpt lat="43.6287913" lon="11.3655248"><ele>718.0</ele><time>2026-03-22T08:56:54.811Z</time></trkpt><trkpt lat="43.6287083" lon="11.3654504"><ele>718.0</ele><time>2026-03-22T08:56:55.811Z</time></trkpt><trkpt lat="43.6286313" lon="11.3653734"><ele>714.5999999999999</ele><time>2026-03-22T08:56:56.81Z</time></trkpt><trkpt lat="43.6285547" lon="11.3652964"><ele>711.1999999999999</ele><time>2026-03-22T08:56:57.811Z</time></trkpt><trkpt lat="43.6284779" lon="11.3652212"><ele>707.8</ele><time>2026-03-22T08:56:58.811Z</time></trkpt><trkpt lat="43.6284168" lon="11.3651585"><ele>704.4</ele><time>2026-03-22T08:56:59.81Z</time></trkpt><trkpt lat="43.6283148" lon="11.3651065"><ele>701.0</ele><time>2026-03-22T08:57:01.811Z</time></trkpt><trkpt lat="43.6282109" lon="11.3651499"><ele>701.0</ele><time>2026-03-22T08:57:03.811Z</time></trkpt><trkpt lat="43.6281451" lon="11.3651474"><ele>701.0</ele><time>2026-03-22T08:57:05.81Z</time></trkpt><trkpt lat="43.6280888" lon="11.3650337"><ele>701.0</ele><time>2026-03-22T08:57:07.811Z</time></trkpt><trkpt lat="43.6281166" lon="11.3649077"><ele>701.0</ele><time>2026-03-22T08:57:09.811Z</time></trkpt><trkpt lat="43.6281514" lon="11.3647541"><ele>701.0</ele><time>2026-03-22T08:57:11.811Z</time></trkpt><trkpt lat="43.628165" lon="11.3646576"><ele>701.0</ele><time>2026-03-22T08:57:12.811Z</time></trkpt><trkpt lat="43.6281706" lon="11.3645499"><ele>699.8333333333333</ele><time>2026-03-22T08:57:13.811Z</time></trkpt><trkpt lat="43.6281625" lon="11.3644309"><ele>698.6666666666666</ele><time>2026-03-22T08:57:14.811Z</time></trkpt><trkpt lat="43.628125" lon="11.3643041"><ele>697.5</ele><time>2026-03-22T08:57:15.811Z</time></trkpt><trkpt lat="43.6280889" lon="11.3642026"><ele>696.3333333333334</ele><time>2026-03-22T08:57:16.811Z</time></trkpt><trkpt lat="43.6280412" lon="11.3640985"><ele>695.1666666666667</ele><time>2026-03-22T08:57:17.81Z</time></trkpt><trkpt lat="43.6279956" lon="11.3640089"><ele>694.0</ele><time>2026-03-22T08:57:18.811Z</time></trkpt><trkpt lat="43.6279402" lon="11.3639464"><ele>694.0</ele><time>2026-03-22T08:57:19.811Z</time></trkpt><trkpt lat="43.6278863" lon="11.3638946"><ele>694.0</ele><time>2026-03-22T08:57:20.811Z</time></trkpt><trkpt lat="43.6278244" lon="11.363863"><ele>694.0</ele><time>2026-03-22T08:57:21.811Z</time></trkpt><trkpt lat="43.6277534" lon="11.363858"><ele>694.0</ele><time>2026-03-22T08:57:22.81Z</time></trkpt><trkpt lat="43.6276804" lon="11.3638593"><ele>694.0</ele><time>2026-03-22T08:57:23.811Z</time></trkpt><trkpt lat="43.6276109" lon="11.363862"><ele>694.0</ele><time>2026-03-22T08:57:24.811Z</time></trkpt><trkpt lat="43.6275339" lon="11.363852"><ele>694.0</ele><time>2026-03-22T08:57:25.81Z</time></trkpt><trkpt lat="43.6274527" lon="11.3638346"><ele>691.0</ele><time>2026-03-22T08:57:26.811Z</time></trkpt><trkpt lat="43.6273737" lon="11.3638143"><ele>688.0</ele><time>2026-03-22T08:57:27.81Z</time></trkpt><trkpt lat="43.6273022" lon="11.3637963"><ele>685.0</ele><time>2026-03-22T08:57:28.811Z</time></trkpt><trkpt lat="43.6272378" lon="11.3637744"><ele>682.0</ele><time>2026-03-22T08:57:29.811Z</time></trkpt><trkpt lat="43.6271706" lon="11.3637426"><ele>679.0</ele><time>2026-03-22T08:57:30.811Z</time></trkpt><trkpt lat="43.6271135" lon="11.3636952"><ele>676.0</ele><time>2026-03-22T08:57:31.811Z</time></trkpt><trkpt lat="43.6270548" lon="11.3636479"><ele>673.0</ele><time>2026-03-22T08:57:32.81Z</time></trkpt><trkpt lat="43.6270048" lon="11.3635854"><ele>669.4285714285714</ele><time>2026-03-22T08:57:33.811Z</time></trkpt><trkpt lat="43.6269658" lon="11.3635081"><ele>665.8571428571428</ele><time>2026-03-22T08:57:34.811Z</time></trkpt><trkpt lat="43.6269304" lon="11.3634227"><ele>662.2857142857142</ele><time>2026-03-22T08:57:35.811Z</time></trkpt><trkpt lat="43.6269004" lon="11.3633335"><ele>658.7142857142858</ele><time>2026-03-22T08:57:36.811Z</time></trkpt><trkpt lat="43.6268694" lon="11.36324"><ele>655.1428571428571</ele><time>2026-03-22T08:57:37.811Z</time></trkpt><trkpt lat="43.62684" lon="11.3631476"><ele>651.5714285714286</ele><time>2026-03-22T08:57:38.811Z</time></trkpt><trkpt lat="43.6268129" lon="11.363065"><ele>648.0</ele><time>2026-03-22T08:57:39.811Z</time></trkpt><trkpt lat="43.6267739" lon="11.362913"><ele>647.3333333333334</ele><time>2026-03-22T08:57:41.811Z</time></trkpt><trkpt lat="43.6267656" lon="11.362734"><ele>646.6666666666666</ele><time>2026-03-22T08:57:43.811Z</time></trkpt><trkpt lat="43.6267747" lon="11.3626277"><ele>646.0</ele><time>2026-03-22T08:57:44.811Z</time></trkpt><trkpt lat="43.6267765" lon="11.3625227"><ele>645.3333333333333</ele><time>2026-03-22T08:57:45.811Z</time></trkpt><trkpt lat="43.626748" lon="11.3624156"><ele>644.6666666666666</ele><time>2026-03-22T08:57:46.811Z</time></trkpt><trkpt lat="43.6267163" lon="11.362314"><ele>644.0</ele><time>2026-03-22T08:57:47.81Z</time></trkpt><trkpt lat="43.626683" lon="11.3622245"><ele>642.4000000000001</ele><time>2026-03-22T08:57:48.811Z</time></trkpt><trkpt lat="43.6266504" lon="11.3621475"><ele>640.8000000000001</ele><time>2026-03-22T08:57:49.811Z</time></trkpt><trkpt lat="43.6266299" lon="11.3620057"><ele>639.2</ele><time>2026-03-22T08:57:51.811Z</time></trkpt><trkpt lat="43.6266682" lon="11.3618475"><ele>637.6</ele><time>2026-03-22T08:57:53.81Z</time></trkpt><trkpt lat="43.6267337" lon="11.3617051"><ele>636.0</ele><time>2026-03-22T08:57:55.81Z</time></trkpt><trkpt lat="43.6267754" lon="11.3615837"><ele>636.0</ele><time>2026-03-22T08:57:57.811Z</time></trkpt><trkpt lat="43.62678" lon="11.3614786"><ele>636.0</ele><time>2026-03-22T08:57:59.811Z</time></trkpt><trkpt lat="43.6267368" lon="11.3613945"><ele>636.0</ele><time>2026-03-22T08:58:01.81Z</time></trkpt><trkpt lat="43.6266745" lon="11.3613809"><ele>636.0</ele><time>2026-03-22T08:58:02.811Z</time></trkpt><trkpt lat="43.626595" lon="11.3613856"><ele>636.0</ele><time>2026-03-22T08:58:03.811Z</time></trkpt><trkpt lat="43.6265292" lon="11.361412"><ele>636.0</ele><time>2026-03-22T08:58:04.81Z</time></trkpt><trkpt lat="43.6264675" lon="11.3614438"><ele>636.0</ele><time>2026-03-22T08:58:05.811Z</time></trkpt><trkpt lat="43.6263783" lon="11.3615644"><ele>636.0</ele><time>2026-03-22T08:58:07.81Z</time></trkpt><trkpt lat="43.6263424" lon="11.3616434"><ele>636.0</ele><time>2026-03-22T08:58:08.811Z</time></trkpt><trkpt lat="43.626314" lon="11.3617415"><ele>636.0</ele><time>2026-03-22T08:58:09.81Z</time></trkpt><trkpt lat="43.626296" lon="11.3618608"><ele>636.0</ele><time>2026-03-22T08:58:10.81Z</time></trkpt><trkpt lat="43.6262898" lon="11.3619698"><ele>636.0</ele><time>2026-03-22T08:58:11.81Z</time></trkpt><trkpt lat="43.6262871" lon="11.3620776"><ele>636.0</ele><time>2026-03-22T08:58:12.81Z</time></trkpt><trkpt lat="43.6262912" lon="11.3621768"><ele>637.6</ele><time>2026-03-22T08:58:13.811Z</time></trkpt><trkpt lat="43.6262849" lon="11.3623213"><ele>639.2</ele><time>2026-03-22T08:58:15.811Z</time></trkpt><trkpt lat="43.6262672" lon="11.3624459"><ele>640.8000000000001</ele><time>2026-03-22T08:58:17.811Z</time></trkpt><trkpt lat="43.6262026" lon="11.3625098"><ele>642.4000000000001</ele><time>2026-03-22T08:58:19.811Z</time></trkpt><trkpt lat="43.6261085" lon="11.3624323"><ele>644.0</ele><time>2026-03-22T08:58:21.811Z</time></trkpt><trkpt lat="43.6260894" lon="11.3622841"><ele>638.3333333333333</ele><time>2026-03-22T08:58:23.811Z</time></trkpt><trkpt lat="43.6261097" lon="11.3621066"><ele>632.6666666666666</ele><time>2026-03-22T08:58:25.81Z</time></trkpt><trkpt lat="43.6261152" lon="11.3620163"><ele>627.0</ele><time>2026-03-22T08:58:26.81Z</time></trkpt><trkpt lat="43.626108" lon="11.3619243"><ele>621.3333333333334</ele><time>2026-03-22T08:58:27.811Z</time></trkpt><trkpt lat="43.626079" lon="11.3618267"><ele>615.6666666666667</ele><time>2026-03-22T08:58:28.811Z</time></trkpt><trkpt lat="43.6260376" lon="11.3617298"><ele>610.0</ele><time>2026-03-22T08:58:29.81Z</time></trkpt><trkpt lat="43.6259799" lon="11.3616347"><ele>610.0</ele><time>2026-03-22T08:58:30.811Z</time></trkpt><trkpt lat="43.6259099" lon="11.3615367"><ele>610.0</ele><time>2026-03-22T08:58:31.81Z</time></trkpt><trkpt lat="43.6258409" lon="11.3614456"><ele>610.0</ele><time>2026-03-22T08:58:32.81Z</time></trkpt><trkpt lat="43.6257641" lon="11.3613646"><ele>610.0</ele><time>2026-03-22T08:58:33.811Z</time></trkpt><trkpt lat="43.6256901" lon="11.3612855"><ele>610.0</ele><time>2026-03-22T08:58:34.811Z</time></trkpt><trkpt lat="43.6256139" lon="11.361187"><ele>608.8333333333334</ele><time>2026-03-22T08:58:35.81Z</time></trkpt><trkpt lat="43.6255351" lon="11.3611066"><ele>607.6666666666667</ele><time>2026-03-22T08:58:36.81Z</time></trkpt><trkpt lat="43.6254612" lon="11.3610348"><ele>606.5</ele><time>2026-03-22T08:58:37.811Z</time></trkpt><trkpt lat="43.6253865" lon="11.3609538"><ele>605.3333333333334</ele><time>2026-03-22T08:58:38.811Z</time></trkpt><trkpt lat="43.6253203" lon="11.3608818"><ele>604.1666666666666</ele><time>2026-03-22T08:58:39.811Z</time></trkpt><trkpt lat="43.6252581" lon="11.360816"><ele>603.0</ele><time>2026-03-22T08:58:40.811Z</time></trkpt><trkpt lat="43.6251894" lon="11.3607516"><ele>600.0</ele><time>2026-03-22T08:58:41.81Z</time></trkpt><trkpt lat="43.6251323" lon="11.3607015"><ele>597.0</ele><time>2026-03-22T08:58:42.811Z</time></trkpt><trkpt lat="43.6250224" lon="11.3606159"><ele>594.0</ele><time>2026-03-22T08:58:44.811Z</time></trkpt><trkpt lat="43.624964" lon="11.3605645"><ele>591.0</ele><time>2026-03-22T08:58:45.81Z</time></trkpt><trkpt lat="43.6249018" lon="11.3605008"><ele>588.0</ele><time>2026-03-22T08:58:46.811Z</time></trkpt><trkpt lat="43.6248402" lon="11.3604359"><ele>585.0</ele><time>2026-03-22T08:58:47.81Z</time></trkpt><trkpt lat="43.624765" lon="11.3603831"><ele>584.6666666666666</ele><time>2026-03-22T08:58:48.81Z</time></trkpt><trkpt lat="43.6246866" lon="11.360333"><ele>584.3333333333334</ele><time>2026-03-22T08:58:49.81Z</time></trkpt><trkpt lat="43.6246032" lon="11.3602858"><ele>584.0</ele><time>2026-03-22T08:58:50.811Z</time></trkpt><trkpt lat="43.6245149" lon="11.3602395"><ele>583.6666666666667</ele><time>2026-03-22T08:58:51.811Z</time></trkpt><trkpt lat="43.6244353" lon="11.360209"><ele>583.3333333333334</ele><time>2026-03-22T08:58:52.811Z</time></trkpt><trkpt lat="43.624367" lon="11.3601845"><ele>583.0</ele><time>2026-03-22T08:58:53.811Z</time></trkpt><trkpt lat="43.6242565" lon="11.3601463"><ele>581.0</ele><time>2026-03-22T08:58:55.811Z</time></trkpt><trkpt lat="43.6241634" lon="11.3600935"><ele>579.0</ele><time>2026-03-22T08:58:57.811Z</time></trkpt><trkpt lat="43.6240891" lon="11.359975"><ele>577.0</ele><time>2026-03-22T08:58:59.81Z</time></trkpt><trkpt lat="43.6240621" lon="11.359807"><ele>575.0</ele><time>2026-03-22T08:59:01.81Z</time></trkpt><trkpt lat="43.6240567" lon="11.3597164"><ele>573.0</ele><time>2026-03-22T08:59:02.811Z</time></trkpt><trkpt lat="43.6240651" lon="11.3595941"><ele>571.0</ele><time>2026-03-22T08:59:04.811Z</time></trkpt><trkpt lat="43.6240308" lon="11.3594855"><ele>569.0</ele><time>2026-03-22T08:59:06.811Z</time></trkpt><trkpt lat="43.6239335" lon="11.3594405"><ele>567.0</ele><time>2026-03-22T08:59:08.811Z</time></trkpt><trkpt lat="43.6238153" lon="11.3594929"><ele>565.0</ele><time>2026-03-22T08:59:10.811Z</time></trkpt><trkpt lat="43.6237591" lon="11.3595399"><ele>563.0</ele><time>2026-03-22T08:59:11.811Z</time></trkpt><trkpt lat="43.6236924" lon="11.3595956"><ele>561.6666666666666</ele><time>2026-03-22T08:59:12.811Z</time></trkpt><trkpt lat="43.6236244" lon="11.359635"><ele>560.3333333333333</ele><time>2026-03-22T08:59:13.811Z</time></trkpt><trkpt lat="43.623555" lon="11.3596813"><ele>559.0</ele><time>2026-03-22T08:59:14.811Z</time></trkpt><trkpt lat="43.623486" lon="11.359729"><ele>557.6666666666666</ele><time>2026-03-22T08:59:15.811Z</time></trkpt><trkpt lat="43.6234118" lon="11.3597868"><ele>556.3333333333334</ele><time>2026-03-22T08:59:16.811Z</time></trkpt><trkpt lat="43.6233321" lon="11.3598256"><ele>555.0</ele><time>2026-03-22T08:59:17.811Z</time></trkpt><trkpt lat="43.6232495" lon="11.3598491"><ele>555.0</ele><time>2026-03-22T08:59:18.811Z</time></trkpt><trkpt lat="43.6231712" lon="11.3598546"><ele>555.0</ele><time>2026-03-22T08:59:19.811Z</time></trkpt><trkpt lat="43.6230896" lon="11.3598537"><ele>555.0</ele><time>2026-03-22T08:59:20.811Z</time></trkpt><trkpt lat="43.6230049" lon="11.3598626"><ele>555.0</ele><time>2026-03-22T08:59:21.811Z</time></trkpt><trkpt lat="43.6229258" lon="11.3598635"><ele>555.0</ele><time>2026-03-22T08:59:22.81Z</time></trkpt><trkpt lat="43.6228556" lon="11.3598702"><ele>555.0</ele><time>2026-03-22T08:59:23.811Z</time></trkpt><trkpt lat="43.6227909" lon="11.3599053"><ele>552.8333333333334</ele><time>2026-03-22T08:59:24.811Z</time></trkpt><trkpt lat="43.6227338" lon="11.3599607"><ele>550.6666666666666</ele><time>2026-03-22T08:59:25.811Z</time></trkpt><trkpt lat="43.6226652" lon="11.3600336"><ele>548.5</ele><time>2026-03-22T08:59:26.811Z</time></trkpt><trkpt lat="43.6225986" lon="11.3601053"><ele>546.3333333333333</ele><time>2026-03-22T08:59:27.811Z</time></trkpt><trkpt lat="43.6225333" lon="11.3601805"><ele>544.1666666666666</ele><time>2026-03-22T08:59:28.81Z</time></trkpt><trkpt lat="43.6224509" lon="11.3602494"><ele>542.0</ele><time>2026-03-22T08:59:29.811Z</time></trkpt><trkpt lat="43.6223659" lon="11.360328"><ele>542.0</ele><time>2026-03-22T08:59:30.81Z</time></trkpt><trkpt lat="43.6222794" lon="11.3604122"><ele>542.0</ele><time>2026-03-22T08:59:31.811Z</time></trkpt><trkpt lat="43.6221959" lon="11.3604892"><ele>542.0</ele><time>2026-03-22T08:59:32.811Z</time></trkpt><trkpt lat="43.6221092" lon="11.3605669"><ele>542.0</ele><time>2026-03-22T08:59:33.81Z</time></trkpt><trkpt lat="43.6220175" lon="11.3606436"><ele>542.0</ele><time>2026-03-22T08:59:34.81Z</time></trkpt><trkpt lat="43.6219248" lon="11.3607332"><ele>539.8000000000001</ele><time>2026-03-22T08:59:35.811Z</time></trkpt><trkpt lat="43.6218358" lon="11.3608174"><ele>537.6</ele><time>2026-03-22T08:59:36.81Z</time></trkpt><trkpt lat="43.6217472" lon="11.3608961"><ele>535.4000000000001</ele><time>2026-03-22T08:59:37.81Z</time></trkpt><trkpt lat="43.6216625" lon="11.3609642"><ele>533.2</ele><time>2026-03-22T08:59:38.811Z</time></trkpt><trkpt lat="43.6215819" lon="11.3610015"><ele>531.0</ele><time>2026-03-22T08:59:39.81Z</time></trkpt><trkpt lat="43.6214957" lon="11.3610171"><ele>531.0</ele><time>2026-03-22T08:59:40.81Z</time></trkpt><trkpt lat="43.6214068" lon="11.3610006"><ele>531.0</ele><time>2026-03-22T08:59:41.811Z</time></trkpt><trkpt lat="43.6213276" lon="11.3609852"><ele>531.0</ele><time>2026-03-22T08:59:42.811Z</time></trkpt><trkpt lat="43.6212493" lon="11.360963"><ele>531.0</ele><time>2026-03-22T08:59:43.81Z</time></trkpt><trkpt lat="43.62117" lon="11.3609357"><ele>531.0</ele><time>2026-03-22T08:59:44.811Z</time></trkpt><trkpt lat="43.621088" lon="11.3609035"><ele>531.0</ele><time>2026-03-22T08:59:45.81Z</time></trkpt><trkpt lat="43.6210046" lon="11.3608665"><ele>530.4</ele><time>2026-03-22T08:59:46.811Z</time></trkpt><trkpt lat="43.620915" lon="11.3608578"><ele>529.8</ele><time>2026-03-22T08:59:47.81Z</time></trkpt><trkpt lat="43.6208196" lon="11.3608352"><ele>529.1999999999999</ele><time>2026-03-22T08:59:48.811Z</time></trkpt><trkpt lat="43.6207145" lon="11.3608268"><ele>528.6</ele><time>2026-03-22T08:59:49.811Z</time></trkpt><trkpt lat="43.6206" lon="11.3608214"><ele>528.0</ele><time>2026-03-22T08:59:50.81Z</time></trkpt><trkpt lat="43.6204699" lon="11.3607953"><ele>528.0</ele><time>2026-03-22T08:59:51.811Z</time></trkpt><trkpt lat="43.6203673" lon="11.3607653"><ele>528.0</ele><time>2026-03-22T08:59:52.811Z</time></trkpt><trkpt lat="43.6202726" lon="11.3607571"><ele>528.0</ele><time>2026-03-22T08:59:53.811Z</time></trkpt><trkpt lat="43.6201826" lon="11.3607554"><ele>528.0</ele><time>2026-03-22T08:59:54.81Z</time></trkpt><trkpt lat="43.6200823" lon="11.3607592"><ele>528.0</ele><time>2026-03-22T08:59:55.811Z</time></trkpt><trkpt lat="43.6199842" lon="11.3607461"><ele>528.1999999999999</ele><time>2026-03-22T08:59:56.81Z</time></trkpt><trkpt lat="43.6198816" lon="11.3606972"><ele>528.4</ele><time>2026-03-22T08:59:57.811Z</time></trkpt><trkpt lat="43.6197797" lon="11.3605976"><ele>528.5999999999999</ele><time>2026-03-22T08:59:58.811Z</time></trkpt><trkpt lat="43.6197077" lon="11.3605303"><ele>528.8</ele><time>2026-03-22T08:59:59.811Z</time></trkpt><trkpt lat="43.6196335" lon="11.3604711"><ele>529.0</ele><time>2026-03-22T09:00:00.811Z</time></trkpt><trkpt lat="43.6195541" lon="11.3604084"><ele>524.2</ele><time>2026-03-22T09:00:01.811Z</time></trkpt><trkpt lat="43.6194646" lon="11.3603556"><ele>519.4</ele><time>2026-03-22T09:00:02.811Z</time></trkpt><trkpt lat="43.6193592" lon="11.3603152"><ele>514.6</ele><time>2026-03-22T09:00:03.811Z</time></trkpt><trkpt lat="43.6192542" lon="11.360282"><ele>509.8</ele><time>2026-03-22T09:00:04.811Z</time></trkpt><trkpt lat="43.6191574" lon="11.3602397"><ele>505.0</ele><time>2026-03-22T09:00:05.811Z</time></trkpt><trkpt lat="43.6190582" lon="11.3601829"><ele>505.0</ele><time>2026-03-22T09:00:06.811Z</time></trkpt><trkpt lat="43.6189636" lon="11.3601263"><ele>505.0</ele><time>2026-03-22T09:00:07.811Z</time></trkpt><trkpt lat="43.6188746" lon="11.3600642"><ele>505.0</ele><time>2026-03-22T09:00:08.81Z</time></trkpt><trkpt lat="43.618791" lon="11.3600013"><ele>505.0</ele><time>2026-03-22T09:00:09.811Z</time></trkpt><trkpt lat="43.6187088" lon="11.3599415"><ele>505.0</ele><time>2026-03-22T09:00:10.811Z</time></trkpt><trkpt lat="43.6186294" lon="11.3598885"><ele>505.4</ele><time>2026-03-22T09:00:11.811Z</time></trkpt><trkpt lat="43.6185464" lon="11.3598234"><ele>505.8</ele><time>2026-03-22T09:00:12.811Z</time></trkpt><trkpt lat="43.6184705" lon="11.3597433"><ele>506.20000000000005</ele><time>2026-03-22T09:00:13.811Z</time></trkpt><trkpt lat="43.6183979" lon="11.3596588"><ele>506.6</ele><time>2026-03-22T09:00:14.81Z</time></trkpt><trkpt lat="43.6183297" lon="11.3595785"><ele>507.0</ele><time>2026-03-22T09:00:15.81Z</time></trkpt><trkpt lat="43.6182676" lon="11.3594961"><ele>503.6666666666667</ele><time>2026-03-22T09:00:16.81Z</time></trkpt><trkpt lat="43.6182045" lon="11.3594112"><ele>500.33333333333337</ele><time>2026-03-22T09:00:17.811Z</time></trkpt><trkpt lat="43.6181445" lon="11.3593313"><ele>497.0</ele><time>2026-03-22T09:00:18.81Z</time></trkpt><trkpt lat="43.6180819" lon="11.3592641"><ele>493.6666666666667</ele><time>2026-03-22T09:00:19.811Z</time></trkpt><trkpt lat="43.6180017" lon="11.3591631"><ele>490.33333333333337</ele><time>2026-03-22T09:00:21.811Z</time></trkpt><trkpt lat="43.6179399" lon="11.3591294"><ele>487.0</ele><time>2026-03-22T09:00:23.811Z</time></trkpt><trkpt lat="43.6178403" lon="11.3590912"><ele>487.50000000000006</ele><time>2026-03-22T09:00:25.81Z</time></trkpt><trkpt lat="43.6177728" lon="11.3590335"><ele>488.0</ele><time>2026-03-22T09:00:26.811Z</time></trkpt><trkpt lat="43.6177032" lon="11.3589297"><ele>488.5</ele><time>2026-03-22T09:00:27.811Z</time></trkpt><trkpt lat="43.6176539" lon="11.3588415"><ele>489.0</ele><time>2026-03-22T09:00:28.811Z</time></trkpt><trkpt lat="43.6176226" lon="11.3587466"><ele>489.50000000000006</ele><time>2026-03-22T09:00:29.811Z</time></trkpt><trkpt lat="43.6175967" lon="11.3586273"><ele>490.0</ele><time>2026-03-22T09:00:30.811Z</time></trkpt><trkpt lat="43.6175801" lon="11.3584986"><ele>490.2</ele><time>2026-03-22T09:00:31.81Z</time></trkpt><trkpt lat="43.6175534" lon="11.3583746"><ele>490.4</ele><time>2026-03-22T09:00:32.811Z</time></trkpt><trkpt lat="43.6175287" lon="11.3582425"><ele>490.6</ele><time>2026-03-22T09:00:33.811Z</time></trkpt><trkpt lat="43.6175166" lon="11.3581281"><ele>490.8</ele><time>2026-03-22T09:00:34.811Z</time></trkpt><trkpt lat="43.6175071" lon="11.3580057"><ele>491.0</ele><time>2026-03-22T09:00:35.811Z</time></trkpt><trkpt lat="43.6174793" lon="11.3578783"><ele>491.8</ele><time>2026-03-22T09:00:36.811Z</time></trkpt><trkpt lat="43.6174557" lon="11.3577391"><ele>492.6</ele><time>2026-03-22T09:00:37.811Z</time></trkpt><trkpt lat="43.6174455" lon="11.3575901"><ele>493.4</ele><time>2026-03-22T09:00:38.811Z</time></trkpt><trkpt lat="43.6174326" lon="11.3574461"><ele>494.2</ele><time>2026-03-22T09:00:39.811Z</time></trkpt><trkpt lat="43.6174109" lon="11.3573182"><ele>495.0</ele><time>2026-03-22T09:00:40.811Z</time></trkpt><trkpt lat="43.6173938" lon="11.3572102"><ele>495.8333333333333</ele><time>2026-03-22T09:00:41.811Z</time></trkpt><trkpt lat="43.6173834" lon="11.3571021"><ele>496.66666666666663</ele><time>2026-03-22T09:00:42.811Z</time></trkpt><trkpt lat="43.6173683" lon="11.3570017"><ele>497.5</ele><time>2026-03-22T09:00:43.811Z</time></trkpt><trkpt lat="43.61731" lon="11.3568566"><ele>498.3333333333333</ele><time>2026-03-22T09:00:45.811Z</time></trkpt><trkpt lat="43.6172469" lon="11.3567861"><ele>499.16666666666663</ele><time>2026-03-22T09:00:46.81Z</time></trkpt><trkpt lat="43.6171956" lon="11.356715"><ele>500.0</ele><time>2026-03-22T09:00:47.811Z</time></trkpt><trkpt lat="43.617133" lon="11.3565926"><ele>499.99999999999994</ele><time>2026-03-22T09:00:49.811Z</time></trkpt><trkpt lat="43.6171425" lon="11.3565021"><ele>500.0</ele><time>2026-03-22T09:00:52.811Z</time></trkpt><trkpt lat="43.6171614" lon="11.3564073"><ele>500.0</ele><time>2026-03-22T09:00:54.81Z</time></trkpt><trkpt lat="43.6171908" lon="11.3562431"><ele>500.0</ele><time>2026-03-22T09:00:56.811Z</time></trkpt><trkpt lat="43.6172168" lon="11.356133"><ele>499.99999999999994</ele><time>2026-03-22T09:00:57.81Z</time></trkpt><trkpt lat="43.617257" lon="11.3560177"><ele>500.0</ele><time>2026-03-22T09:00:58.811Z</time></trkpt><trkpt lat="43.6172947" lon="11.3559015"><ele>501.66666666666663</ele><time>2026-03-22T09:00:59.811Z</time></trkpt><trkpt lat="43.6173411" lon="11.3557832"><ele>503.3333333333333</ele><time>2026-03-22T09:01:00.811Z</time></trkpt><trkpt lat="43.6173908" lon="11.3556811"><ele>505.0</ele><time>2026-03-22T09:01:01.811Z</time></trkpt><trkpt lat="43.6174333" lon="11.3555769"><ele>506.66666666666663</ele><time>2026-03-22T09:01:02.811Z</time></trkpt><trkpt lat="43.6174461" lon="11.3554562"><ele>508.3333333333333</ele><time>2026-03-22T09:01:03.81Z</time></trkpt><trkpt lat="43.6174473" lon="11.3553482"><ele>510.0</ele><time>2026-03-22T09:01:04.811Z</time></trkpt><trkpt lat="43.6174249" lon="11.3552413"><ele>511.3333333333333</ele><time>2026-03-22T09:01:05.811Z</time></trkpt><trkpt lat="43.6173852" lon="11.355127"><ele>512.6666666666666</ele><time>2026-03-22T09:01:06.811Z</time></trkpt><trkpt lat="43.6173469" lon="11.3550164"><ele>514.0</ele><time>2026-03-22T09:01:07.81Z</time></trkpt><trkpt lat="43.6173292" lon="11.3549124"><ele>515.3333333333333</ele><time>2026-03-22T09:01:08.811Z</time></trkpt><trkpt lat="43.6173472" lon="11.3548074"><ele>516.6666666666666</ele><time>2026-03-22T09:01:09.811Z</time></trkpt><trkpt lat="43.6173834" lon="11.3547074"><ele>518.0</ele><time>2026-03-22T09:01:10.811Z</time></trkpt><trkpt lat="43.6174461" lon="11.3546002"><ele>520.8</ele><time>2026-03-22T09:01:11.81Z</time></trkpt><trkpt lat="43.61753" lon="11.3545237"><ele>523.5999999999999</ele><time>2026-03-22T09:01:12.811Z</time></trkpt><trkpt lat="43.6175832" lon="11.354424"><ele>526.4000000000001</ele><time>2026-03-22T09:01:13.81Z</time></trkpt><trkpt lat="43.6176236" lon="11.3543301"><ele>529.2</ele><time>2026-03-22T09:01:14.811Z</time></trkpt><trkpt lat="43.6176504" lon="11.3542146"><ele>532.0</ele><time>2026-03-22T09:01:15.811Z</time></trkpt><trkpt lat="43.6176406" lon="11.35407"><ele>532.0</ele><time>2026-03-22T09:01:16.811Z</time></trkpt><trkpt lat="43.6176424" lon="11.3539055"><ele>532.0</ele><time>2026-03-22T09:01:17.81Z</time></trkpt><trkpt lat="43.6176396" lon="11.3537266"><ele>532.0</ele><time>2026-03-22T09:01:18.811Z</time></trkpt><trkpt lat="43.6176353" lon="11.3535753"><ele>532.0</ele><time>2026-03-22T09:01:19.811Z</time></trkpt><trkpt lat="43.6176439" lon="11.3534469"><ele>534.3333333333334</ele><time>2026-03-22T09:01:20.811Z</time></trkpt><trkpt lat="43.6176634" lon="11.3533256"><ele>536.6666666666667</ele><time>2026-03-22T09:01:21.811Z</time></trkpt><trkpt lat="43.6176745" lon="11.3531986"><ele>539.0</ele><time>2026-03-22T09:01:22.81Z</time></trkpt><trkpt lat="43.6176603" lon="11.3530811"><ele>541.3333333333334</ele><time>2026-03-22T09:01:23.811Z</time></trkpt><trkpt lat="43.6176459" lon="11.3529651"><ele>543.6666666666666</ele><time>2026-03-22T09:01:24.811Z</time></trkpt><trkpt lat="43.6176303" lon="11.3528556"><ele>546.0</ele><time>2026-03-22T09:01:25.81Z</time></trkpt><trkpt lat="43.6176171" lon="11.3527616"><ele>546.3333333333334</ele><time>2026-03-22T09:01:26.811Z</time></trkpt><trkpt lat="43.6176014" lon="11.3526768"><ele>546.6666666666666</ele><time>2026-03-22T09:01:27.811Z</time></trkpt><trkpt lat="43.6175855" lon="11.3525616"><ele>547.0</ele><time>2026-03-22T09:01:29.811Z</time></trkpt><trkpt lat="43.6175693" lon="11.3523898"><ele>547.3333333333333</ele><time>2026-03-22T09:01:31.811Z</time></trkpt><trkpt lat="43.6175593" lon="11.3522976"><ele>547.6666666666666</ele><time>2026-03-22T09:01:32.811Z</time></trkpt><trkpt lat="43.6175237" lon="11.3522161"><ele>548.0</ele><time>2026-03-22T09:01:33.81Z</time></trkpt><trkpt lat="43.6174598" lon="11.352142"><ele>546.6666666666666</ele><time>2026-03-22T09:01:34.811Z</time></trkpt><trkpt lat="43.6173842" lon="11.3520654"><ele>545.3333333333333</ele><time>2026-03-22T09:01:35.811Z</time></trkpt><trkpt lat="43.6173097" lon="11.3519914"><ele>544.0</ele><time>2026-03-22T09:01:36.811Z</time></trkpt><trkpt lat="43.6172393" lon="11.3519188"><ele>542.6666666666666</ele><time>2026-03-22T09:01:37.81Z</time></trkpt><trkpt lat="43.6171817" lon="11.3518441"><ele>541.3333333333334</ele><time>2026-03-22T09:01:38.811Z</time></trkpt><trkpt lat="43.6171469" lon="11.3517622"><ele>540.0</ele><time>2026-03-22T09:01:39.811Z</time></trkpt><trkpt lat="43.6171284" lon="11.3516506"><ele>540.0</ele><time>2026-03-22T09:01:40.811Z</time></trkpt><trkpt lat="43.6171226" lon="11.3515437"><ele>540.0</ele><time>2026-03-22T09:01:41.811Z</time></trkpt><trkpt lat="43.6170951" lon="11.3514028"><ele>540.0</ele><time>2026-03-22T09:01:43.811Z</time></trkpt><trkpt lat="43.617002" lon="11.3513398"><ele>540.0</ele><time>2026-03-22T09:01:45.811Z</time></trkpt><trkpt lat="43.6169392" lon="11.351294"><ele>540.0</ele><time>2026-03-22T09:01:46.811Z</time></trkpt><trkpt lat="43.6168768" lon="11.3512477"><ele>540.0</ele><time>2026-03-22T09:01:47.811Z</time></trkpt><trkpt lat="43.6168051" lon="11.3511992"><ele>542.6</ele><time>2026-03-22T09:01:48.81Z</time></trkpt><trkpt lat="43.616766" lon="11.351108"><ele>545.2</ele><time>2026-03-22T09:01:49.81Z</time></trkpt><trkpt lat="43.6167378" lon="11.3509818"><ele>547.8</ele><time>2026-03-22T09:01:50.811Z</time></trkpt><trkpt lat="43.6167233" lon="11.3508657"><ele>550.4</ele><time>2026-03-22T09:01:51.81Z</time></trkpt><trkpt lat="43.6167155" lon="11.3507278"><ele>553.0</ele><time>2026-03-22T09:01:52.811Z</time></trkpt><trkpt lat="43.616707" lon="11.3505719"><ele>554.0</ele><time>2026-03-22T09:01:53.81Z</time></trkpt><trkpt lat="43.6167022" lon="11.3504238"><ele>555.0</ele><time>2026-03-22T09:01:54.811Z</time></trkpt><trkpt lat="43.6167025" lon="11.3502827"><ele>556.0</ele><time>2026-03-22T09:01:55.81Z</time></trkpt><trkpt lat="43.616698" lon="11.3501385"><ele>557.0</ele><time>2026-03-22T09:01:56.811Z</time></trkpt><trkpt lat="43.616694" lon="11.3500026"><ele>558.0</ele><time>2026-03-22T09:01:57.811Z</time></trkpt><trkpt lat="43.6166948" lon="11.3498681"><ele>558.0</ele><time>2026-03-22T09:01:58.811Z</time></trkpt><trkpt lat="43.6166892" lon="11.3497381"><ele>558.0</ele><time>2026-03-22T09:01:59.811Z</time></trkpt><trkpt lat="43.6166864" lon="11.3496281"><ele>558.0</ele><time>2026-03-22T09:02:00.811Z</time></trkpt><trkpt lat="43.6166796" lon="11.3495172"><ele>558.0</ele><time>2026-03-22T09:02:01.81Z</time></trkpt><trkpt lat="43.6166679" lon="11.3494009"><ele>558.0</ele><time>2026-03-22T09:02:02.811Z</time></trkpt><trkpt lat="43.6166523" lon="11.3492675"><ele>558.0</ele><time>2026-03-22T09:02:03.811Z</time></trkpt><trkpt lat="43.6166277" lon="11.3491318"><ele>559.3333333333334</ele><time>2026-03-22T09:02:04.811Z</time></trkpt><trkpt lat="43.6166097" lon="11.3490137"><ele>560.6666666666666</ele><time>2026-03-22T09:02:05.811Z</time></trkpt><trkpt lat="43.6165877" lon="11.3489018"><ele>562.0</ele><time>2026-03-22T09:02:06.811Z</time></trkpt><trkpt lat="43.6165738" lon="11.3488132"><ele>563.3333333333333</ele><time>2026-03-22T09:02:07.811Z</time></trkpt><trkpt lat="43.6166009" lon="11.3487062"><ele>564.6666666666666</ele><time>2026-03-22T09:02:09.811Z</time></trkpt><trkpt lat="43.6166341" lon="11.3486309"><ele>566.0</ele><time>2026-03-22T09:02:11.811Z</time></trkpt><trkpt lat="43.6167225" lon="11.3486278"><ele>567.0</ele><time>2026-03-22T09:02:13.811Z</time></trkpt><trkpt lat="43.6167891" lon="11.3486448"><ele>568.0</ele><time>2026-03-22T09:02:14.811Z</time></trkpt><trkpt lat="43.6168592" lon="11.3486472"><ele>569.0</ele><time>2026-03-22T09:02:15.811Z</time></trkpt><trkpt lat="43.6169319" lon="11.3486008"><ele>570.0</ele><time>2026-03-22T09:02:16.81Z</time></trkpt><trkpt lat="43.6169996" lon="11.3485277"><ele>571.0</ele><time>2026-03-22T09:02:17.811Z</time></trkpt><trkpt lat="43.6170461" lon="11.3484554"><ele>572.0</ele><time>2026-03-22T09:02:18.81Z</time></trkpt><trkpt lat="43.6170994" lon="11.3483658"><ele>572.0</ele><time>2026-03-22T09:02:19.81Z</time></trkpt><trkpt lat="43.6171587" lon="11.3482588"><ele>572.0</ele><time>2026-03-22T09:02:20.811Z</time></trkpt><trkpt lat="43.6172215" lon="11.348178"><ele>572.0</ele><time>2026-03-22T09:02:21.811Z</time></trkpt><trkpt lat="43.6172776" lon="11.348102"><ele>572.0</ele><time>2026-03-22T09:02:22.811Z</time></trkpt><trkpt lat="43.6173361" lon="11.3480202"><ele>572.0</ele><time>2026-03-22T09:02:23.811Z</time></trkpt><trkpt lat="43.6173908" lon="11.347937"><ele>572.0</ele><time>2026-03-22T09:02:24.811Z</time></trkpt><trkpt lat="43.6174347" lon="11.3478498"><ele>573.8333333333333</ele><time>2026-03-22T09:02:25.812Z</time></trkpt><trkpt lat="43.617471" lon="11.3477613"><ele>575.6666666666666</ele><time>2026-03-22T09:02:26.812Z</time></trkpt><trkpt lat="43.6174965" lon="11.3476615"><ele>577.5</ele><time>2026-03-22T09:02:27.811Z</time></trkpt><trkpt lat="43.617516" lon="11.3475577"><ele>579.3333333333334</ele><time>2026-03-22T09:02:28.812Z</time></trkpt><trkpt lat="43.6175376" lon="11.3474414"><ele>581.1666666666667</ele><time>2026-03-22T09:02:29.812Z</time></trkpt><trkpt lat="43.6175653" lon="11.3473421"><ele>583.0</ele><time>2026-03-22T09:02:30.812Z</time></trkpt><trkpt lat="43.6176186" lon="11.3472556"><ele>585.3333333333334</ele><time>2026-03-22T09:02:31.812Z</time></trkpt><trkpt lat="43.6176785" lon="11.3471727"><ele>587.6666666666667</ele><time>2026-03-22T09:02:32.812Z</time></trkpt><trkpt lat="43.6177362" lon="11.3470857"><ele>590.0</ele><time>2026-03-22T09:02:33.812Z</time></trkpt><trkpt lat="43.6177894" lon="11.3470067"><ele>592.3333333333334</ele><time>2026-03-22T09:02:34.812Z</time></trkpt><trkpt lat="43.6178484" lon="11.3469272"><ele>594.6666666666666</ele><time>2026-03-22T09:02:35.812Z</time></trkpt><trkpt lat="43.6179011" lon="11.3468177"><ele>597.0</ele><time>2026-03-22T09:02:36.812Z</time></trkpt><trkpt lat="43.6179444" lon="11.3466916"><ele>592.0</ele><time>2026-03-22T09:02:37.812Z</time></trkpt><trkpt lat="43.61799" lon="11.3465601"><ele>587.0</ele><time>2026-03-22T09:02:38.812Z</time></trkpt><trkpt lat="43.6180493" lon="11.3464141"><ele>582.0</ele><time>2026-03-22T09:02:39.812Z</time></trkpt><trkpt lat="43.6181285" lon="11.3462818"><ele>577.0</ele><time>2026-03-22T09:02:40.812Z</time></trkpt><trkpt lat="43.6182045" lon="11.3461555"><ele>577.0</ele><time>2026-03-22T09:02:41.811Z</time></trkpt><trkpt lat="43.6182745" lon="11.3460433"><ele>577.0</ele><time>2026-03-22T09:02:42.812Z</time></trkpt><trkpt lat="43.6183405" lon="11.3459316"><ele>577.0</ele><time>2026-03-22T09:02:43.812Z</time></trkpt><trkpt lat="43.6184296" lon="11.3458414"><ele>577.0</ele><time>2026-03-22T09:02:44.812Z</time></trkpt><trkpt lat="43.6185225" lon="11.3457265"><ele>577.0</ele><time>2026-03-22T09:02:45.812Z</time></trkpt><trkpt lat="43.6186393" lon="11.345613"><ele>575.25</ele><time>2026-03-22T09:02:46.811Z</time></trkpt><trkpt lat="43.6187518" lon="11.3454672"><ele>573.5</ele><time>2026-03-22T09:02:47.811Z</time></trkpt><trkpt lat="43.6188389" lon="11.3453071"><ele>571.75</ele><time>2026-03-22T09:02:48.812Z</time></trkpt><trkpt lat="43.6189147" lon="11.3451465"><ele>570.0</ele><time>2026-03-22T09:02:49.811Z</time></trkpt><trkpt lat="43.6189896" lon="11.344995"><ele>570.0</ele><time>2026-03-22T09:02:50.812Z</time></trkpt><trkpt lat="43.6190612" lon="11.3448615"><ele>570.0</ele><time>2026-03-22T09:02:51.812Z</time></trkpt><trkpt lat="43.6191449" lon="11.344764"><ele>570.0</ele><time>2026-03-22T09:02:52.812Z</time></trkpt><trkpt lat="43.6192277" lon="11.3446692"><ele>570.0</ele><time>2026-03-22T09:02:53.812Z</time></trkpt><trkpt lat="43.6192896" lon="11.344577"><ele>570.0</ele><time>2026-03-22T09:02:54.812Z</time></trkpt><trkpt lat="43.6193432" lon="11.3444895"><ele>570.8</ele><time>2026-03-22T09:02:55.812Z</time></trkpt><trkpt lat="43.6193902" lon="11.3443864"><ele>571.6</ele><time>2026-03-22T09:02:56.811Z</time></trkpt><trkpt lat="43.6194639" lon="11.3442995"><ele>572.4</ele><time>2026-03-22T09:02:57.812Z</time></trkpt><trkpt lat="43.6195722" lon="11.3442209"><ele>573.2</ele><time>2026-03-22T09:02:58.812Z</time></trkpt><trkpt lat="43.6196888" lon="11.344145"><ele>574.0</ele><time>2026-03-22T09:02:59.811Z</time></trkpt><trkpt lat="43.619804" lon="11.3440838"><ele>574.0</ele><time>2026-03-22T09:03:00.811Z</time></trkpt><trkpt lat="43.619915" lon="11.3440492"><ele>574.0</ele><time>2026-03-22T09:03:01.812Z</time></trkpt><trkpt lat="43.6200156" lon="11.3440296"><ele>574.0</ele><time>2026-03-22T09:03:02.812Z</time></trkpt><trkpt lat="43.6201005" lon="11.3440042"><ele>574.0</ele><time>2026-03-22T09:03:03.812Z</time></trkpt><trkpt lat="43.620176" lon="11.3439983"><ele>574.0</ele><time>2026-03-22T09:03:04.812Z</time></trkpt><trkpt lat="43.6202443" lon="11.3439952"><ele>574.0</ele><time>2026-03-22T09:03:05.812Z</time></trkpt><trkpt lat="43.6203582" lon="11.3439847"><ele>574.5</ele><time>2026-03-22T09:03:07.812Z</time></trkpt><trkpt lat="43.6204718" lon="11.3439232"><ele>575.0</ele><time>2026-03-22T09:03:09.812Z</time></trkpt><trkpt lat="43.6205232" lon="11.3438617"><ele>575.5</ele><time>2026-03-22T09:03:10.811Z</time></trkpt><trkpt lat="43.6205726" lon="11.3437951"><ele>576.0</ele><time>2026-03-22T09:03:11.812Z</time></trkpt><trkpt lat="43.6206137" lon="11.3436517"><ele>576.5</ele><time>2026-03-22T09:03:13.812Z</time></trkpt><trkpt lat="43.6206225" lon="11.3435655"><ele>577.0</ele><time>2026-03-22T09:03:14.811Z</time></trkpt><trkpt lat="43.6206179" lon="11.3433904"><ele>577.0</ele><time>2026-03-22T09:03:16.812Z</time></trkpt><trkpt lat="43.6206242" lon="11.3432538"><ele>577.0</ele><time>2026-03-22T09:03:18.812Z</time></trkpt><trkpt lat="43.6206914" lon="11.3431252"><ele>577.0</ele><time>2026-03-22T09:03:20.812Z</time></trkpt><trkpt lat="43.620796" lon="11.3430624"><ele>577.0</ele><time>2026-03-22T09:03:22.812Z</time></trkpt><trkpt lat="43.6208634" lon="11.34303"><ele>577.0</ele><time>2026-03-22T09:03:23.812Z</time></trkpt><trkpt lat="43.6209313" lon="11.3430007"><ele>579.5</ele><time>2026-03-22T09:03:24.812Z</time></trkpt><trkpt lat="43.621015" lon="11.342969"><ele>582.0</ele><time>2026-03-22T09:03:25.811Z</time></trkpt><trkpt lat="43.621103" lon="11.3429199"><ele>584.5</ele><time>2026-03-22T09:03:26.812Z</time></trkpt><trkpt lat="43.6211961" lon="11.3428686"><ele>587.0</ele><time>2026-03-22T09:03:27.811Z</time></trkpt><trkpt lat="43.6212791" lon="11.3428269"><ele>589.5</ele><time>2026-03-22T09:03:28.812Z</time></trkpt><trkpt lat="43.6213507" lon="11.3427908"><ele>592.0</ele><time>2026-03-22T09:03:29.812Z</time></trkpt><trkpt lat="43.6214239" lon="11.3427525"><ele>592.0</ele><time>2026-03-22T09:03:30.812Z</time></trkpt><trkpt lat="43.6214947" lon="11.3427119"><ele>592.0</ele><time>2026-03-22T09:03:31.811Z</time></trkpt><trkpt lat="43.6215917" lon="11.3426828"><ele>592.0</ele><time>2026-03-22T09:03:32.812Z</time></trkpt><trkpt lat="43.6216587" lon="11.342641"><ele>592.0</ele><time>2026-03-22T09:03:33.812Z</time></trkpt><trkpt lat="43.6217172" lon="11.3425892"><ele>592.0</ele><time>2026-03-22T09:03:34.812Z</time></trkpt><trkpt lat="43.6217893" lon="11.3425181"><ele>592.0</ele><time>2026-03-22T09:03:35.811Z</time></trkpt><trkpt lat="43.6218548" lon="11.3424457"><ele>592.0</ele><time>2026-03-22T09:03:36.811Z</time></trkpt><trkpt lat="43.6219223" lon="11.3423737"><ele>592.0</ele><time>2026-03-22T09:03:37.811Z</time></trkpt><trkpt lat="43.6219873" lon="11.3422918"><ele>592.0</ele><time>2026-03-22T09:03:38.811Z</time></trkpt><trkpt lat="43.6220499" lon="11.3422106"><ele>592.0</ele><time>2026-03-22T09:03:39.811Z</time></trkpt><trkpt lat="43.622109" lon="11.3421338"><ele>592.0</ele><time>2026-03-22T09:03:40.812Z</time></trkpt><trkpt lat="43.6221559" lon="11.3420663"><ele>592.0</ele><time>2026-03-22T09:03:41.811Z</time></trkpt><trkpt lat="43.6222154" lon="11.3419928"><ele>592.8333333333334</ele><time>2026-03-22T09:03:43.812Z</time></trkpt><trkpt lat="43.6222744" lon="11.3419324"><ele>593.6666666666667</ele><time>2026-03-22T09:03:45.812Z</time></trkpt><trkpt lat="43.6223278" lon="11.3418795"><ele>594.5</ele><time>2026-03-22T09:03:47.812Z</time></trkpt><trkpt lat="43.6223827" lon="11.3418299"><ele>595.3333333333334</ele><time>2026-03-22T09:03:49.811Z</time></trkpt><trkpt lat="43.6224543" lon="11.3417747"><ele>596.1666666666666</ele><time>2026-03-22T09:03:51.812Z</time></trkpt><trkpt lat="43.6225109" lon="11.3416688"><ele>597.0</ele><time>2026-03-22T09:03:53.811Z</time></trkpt><trkpt lat="43.6225484" lon="11.3415902"><ele>597.0</ele><time>2026-03-22T09:03:55.812Z</time></trkpt><trkpt lat="43.622589" lon="11.3415058"><ele>597.0</ele><time>2026-03-22T09:03:57.812Z</time></trkpt><trkpt lat="43.6226321" lon="11.3414419"><ele>597.0</ele><time>2026-03-22T09:04:01.811Z</time></trkpt><trkpt lat="43.6226484" lon="11.3413309"><ele>597.0</ele><time>2026-03-22T09:04:08.812Z</time></trkpt><trkpt lat="43.6226821" lon="11.3412009"><ele>597.0</ele><time>2026-03-22T09:04:10.812Z</time></trkpt><trkpt lat="43.6227307" lon="11.3410545"><ele>597.0</ele><time>2026-03-22T09:04:12.812Z</time></trkpt><trkpt lat="43.6227933" lon="11.3409245"><ele>598.0</ele><time>2026-03-22T09:04:14.812Z</time></trkpt><trkpt lat="43.6228764" lon="11.3408602"><ele>599.0</ele><time>2026-03-22T09:04:16.812Z</time></trkpt><trkpt lat="43.6229557" lon="11.3408275"><ele>600.0</ele><time>2026-03-22T09:04:19.811Z</time></trkpt><trkpt lat="43.6230484" lon="11.3408401"><ele>601.0</ele><time>2026-03-22T09:04:22.812Z</time></trkpt><trkpt lat="43.6231318" lon="11.3408772"><ele>602.0</ele><time>2026-03-22T09:04:25.811Z</time></trkpt><trkpt lat="43.6232008" lon="11.3409206"><ele>603.0</ele><time>2026-03-22T09:04:27.812Z</time></trkpt><trkpt lat="43.6232633" lon="11.3409666"><ele>603.0</ele><time>2026-03-22T09:04:28.812Z</time></trkpt><trkpt lat="43.6233739" lon="11.3409727"><ele>603.0</ele><time>2026-03-22T09:04:30.812Z</time></trkpt><trkpt lat="43.6234806" lon="11.340968"><ele>603.0</ele><time>2026-03-22T09:04:32.812Z</time></trkpt><trkpt lat="43.6235762" lon="11.3409285"><ele>603.0</ele><time>2026-03-22T09:04:34.812Z</time></trkpt><trkpt lat="43.6236716" lon="11.3408157"><ele>603.0</ele><time>2026-03-22T09:04:36.812Z</time></trkpt><trkpt lat="43.6237376" lon="11.3407469"><ele>602.8333333333334</ele><time>2026-03-22T09:04:38.812Z</time></trkpt><trkpt lat="43.6238062" lon="11.3406577"><ele>602.6666666666666</ele><time>2026-03-22T09:04:49.812Z</time></trkpt><trkpt lat="43.62387" lon="11.3405469"><ele>602.5</ele><time>2026-03-22T09:04:51.812Z</time></trkpt><trkpt lat="43.6239306" lon="11.3404322"><ele>602.3333333333333</ele><time>2026-03-22T09:04:53.812Z</time></trkpt><trkpt lat="43.6239708" lon="11.3403609"><ele>602.1666666666666</ele><time>2026-03-22T09:04:55.812Z</time></trkpt><trkpt lat="43.6240249" lon="11.3402854"><ele>602.0</ele><time>2026-03-22T09:04:58.811Z</time></trkpt><trkpt lat="43.6240718" lon="11.3401897"><ele>603.6666666666666</ele><time>2026-03-22T09:05:03.812Z</time></trkpt><trkpt lat="43.6241136" lon="11.3400726"><ele>605.3333333333333</ele><time>2026-03-22T09:05:06.812Z</time></trkpt><trkpt lat="43.6241479" lon="11.3399797"><ele>607.0</ele><time>2026-03-22T09:05:08.812Z</time></trkpt><trkpt lat="43.62418" lon="11.3398978"><ele>608.6666666666666</ele><time>2026-03-22T09:05:10.812Z</time></trkpt><trkpt lat="43.6242151" lon="11.3398124"><ele>610.3333333333334</ele><time>2026-03-22T09:05:13.811Z</time></trkpt><trkpt lat="43.6242005" lon="11.3397211"><ele>612.0</ele><time>2026-03-22T09:05:40.812Z</time></trkpt><trkpt lat="43.6242704" lon="11.3396778"><ele>612.0</ele><time>2026-03-22T09:06:33.811Z</time></trkpt><trkpt lat="43.6243529" lon="11.3395947"><ele>612.0</ele><time>2026-03-22T09:06:35.812Z</time></trkpt><trkpt lat="43.6244325" lon="11.3395124"><ele>612.0</ele><time>2026-03-22T09:06:37.812Z</time></trkpt><trkpt lat="43.6244844" lon="11.3394587"><ele>612.0</ele><time>2026-03-22T09:06:38.811Z</time></trkpt><trkpt lat="43.6245561" lon="11.3393456"><ele>612.0</ele><time>2026-03-22T09:06:40.812Z</time></trkpt><trkpt lat="43.6246206" lon="11.3391914"><ele>612.0</ele><time>2026-03-22T09:06:42.812Z</time></trkpt><trkpt lat="43.6246692" lon="11.3390477"><ele>612.0</ele><time>2026-03-22T09:06:44.812Z</time></trkpt><trkpt lat="43.6247471" lon="11.3389163"><ele>612.0</ele><time>2026-03-22T09:06:46.812Z</time></trkpt><trkpt lat="43.6248003" lon="11.3388562"><ele>612.0</ele><time>2026-03-22T09:06:47.811Z</time></trkpt><trkpt lat="43.6248759" lon="11.338727"><ele>612.0</ele><time>2026-03-22T09:06:49.811Z</time></trkpt><trkpt lat="43.6249531" lon="11.3386016"><ele>611.3333333333334</ele><time>2026-03-22T09:06:51.811Z</time></trkpt><trkpt lat="43.6250295" lon="11.3385525"><ele>610.6666666666666</ele><time>2026-03-22T09:06:52.812Z</time></trkpt><trkpt lat="43.6250872" lon="11.3384867"><ele>610.0</ele><time>2026-03-22T09:06:53.811Z</time></trkpt><trkpt lat="43.6251508" lon="11.3383981"><ele>609.3333333333333</ele><time>2026-03-22T09:06:54.812Z</time></trkpt><trkpt lat="43.6252035" lon="11.3383023"><ele>608.6666666666666</ele><time>2026-03-22T09:06:55.811Z</time></trkpt><trkpt lat="43.625262" lon="11.3382061"><ele>608.0</ele><time>2026-03-22T09:06:56.812Z</time></trkpt><trkpt lat="43.625318" lon="11.338122"><ele>609.3333333333333</ele><time>2026-03-22T09:06:57.812Z</time></trkpt><trkpt lat="43.6253705" lon="11.3380243"><ele>610.6666666666666</ele><time>2026-03-22T09:06:58.812Z</time></trkpt><trkpt lat="43.6254229" lon="11.3379255"><ele>612.0</ele><time>2026-03-22T09:06:59.812Z</time></trkpt><trkpt lat="43.6254771" lon="11.3378257"><ele>613.3333333333334</ele><time>2026-03-22T09:07:00.812Z</time></trkpt><trkpt lat="43.6255339" lon="11.3377439"><ele>614.6666666666667</ele><time>2026-03-22T09:07:01.812Z</time></trkpt><trkpt lat="43.625583" lon="11.3376759"><ele>616.0</ele><time>2026-03-22T09:07:02.812Z</time></trkpt><trkpt lat="43.6256788" lon="11.337579"><ele>616.0</ele><time>2026-03-22T09:07:04.812Z</time></trkpt><trkpt lat="43.6257506" lon="11.3375814"><ele>616.0</ele><time>2026-03-22T09:07:06.812Z</time></trkpt><trkpt lat="43.6258608" lon="11.3375739"><ele>616.0</ele><time>2026-03-22T09:07:16.812Z</time></trkpt><trkpt lat="43.6259205" lon="11.3375398"><ele>616.0</ele><time>2026-03-22T09:07:17.812Z</time></trkpt><trkpt lat="43.6260308" lon="11.3374756"><ele>616.0</ele><time>2026-03-22T09:07:19.812Z</time></trkpt><trkpt lat="43.6261461" lon="11.3374139"><ele>615.5714285714286</ele><time>2026-03-22T09:07:21.812Z</time></trkpt><trkpt lat="43.6262139" lon="11.3373635"><ele>615.1428571428571</ele><time>2026-03-22T09:07:22.811Z</time></trkpt><trkpt lat="43.6262742" lon="11.3373103"><ele>614.7142857142858</ele><time>2026-03-22T09:07:23.812Z</time></trkpt><trkpt lat="43.6263333" lon="11.3372669"><ele>614.2857142857142</ele><time>2026-03-22T09:07:24.812Z</time></trkpt><trkpt lat="43.6264028" lon="11.3372276"><ele>613.8571428571429</ele><time>2026-03-22T09:07:25.812Z</time></trkpt><trkpt lat="43.6264704" lon="11.3371897"><ele>613.4285714285714</ele><time>2026-03-22T09:07:26.812Z</time></trkpt><trkpt lat="43.6265429" lon="11.3371641"><ele>613.0</ele><time>2026-03-22T09:07:27.811Z</time></trkpt><trkpt lat="43.6266153" lon="11.3371457"><ele>613.0</ele><time>2026-03-22T09:07:28.811Z</time></trkpt><trkpt lat="43.6266874" lon="11.337158"><ele>613.0</ele><time>2026-03-22T09:07:29.812Z</time></trkpt><trkpt lat="43.6268141" lon="11.3371718"><ele>613.0</ele><time>2026-03-22T09:07:31.812Z</time></trkpt><trkpt lat="43.6268817" lon="11.3371515"><ele>613.0</ele><time>2026-03-22T09:07:32.812Z</time></trkpt><trkpt lat="43.6269492" lon="11.3371016"><ele>613.0</ele><time>2026-03-22T09:07:33.812Z</time></trkpt><trkpt lat="43.6270184" lon="11.3370434"><ele>613.0</ele><time>2026-03-22T09:07:34.812Z</time></trkpt><trkpt lat="43.6270696" lon="11.3369692"><ele>611.5</ele><time>2026-03-22T09:07:35.812Z</time></trkpt><trkpt lat="43.6271132" lon="11.3368931"><ele>610.0</ele><time>2026-03-22T09:07:36.812Z</time></trkpt><trkpt lat="43.6271592" lon="11.3368191"><ele>608.5</ele><time>2026-03-22T09:07:37.812Z</time></trkpt><trkpt lat="43.6272018" lon="11.3367504"><ele>607.0</ele><time>2026-03-22T09:07:38.812Z</time></trkpt><trkpt lat="43.6272653" lon="11.3366581"><ele>605.5</ele><time>2026-03-22T09:07:40.812Z</time></trkpt><trkpt lat="43.6273186" lon="11.3365685"><ele>604.0</ele><time>2026-03-22T09:07:58.811Z</time></trkpt><trkpt lat="43.6273909" lon="11.3364754"><ele>604.8</ele><time>2026-03-22T09:08:01.812Z</time></trkpt><trkpt lat="43.6274585" lon="11.3363761"><ele>605.5999999999999</ele><time>2026-03-22T09:08:03.812Z</time></trkpt><trkpt lat="43.6275223" lon="11.3363027"><ele>606.4</ele><time>2026-03-22T09:08:06.811Z</time></trkpt><trkpt lat="43.6276042" lon="11.3362448"><ele>607.1999999999999</ele><time>2026-03-22T09:08:09.812Z</time></trkpt><trkpt lat="43.627693" lon="11.3362485"><ele>608.0</ele><time>2026-03-22T09:08:11.812Z</time></trkpt><trkpt lat="43.6277859" lon="11.3363188"><ele>608.0</ele><time>2026-03-22T09:08:13.811Z</time></trkpt><trkpt lat="43.6278431" lon="11.336366"><ele>608.0</ele><time>2026-03-22T09:08:14.811Z</time></trkpt><trkpt lat="43.6279385" lon="11.3363967"><ele>608.0</ele><time>2026-03-22T09:08:16.812Z</time></trkpt><trkpt lat="43.6278384" lon="11.3363333"><ele>608.0</ele><time>2026-03-22T09:08:43.811Z</time></trkpt><trkpt lat="43.6277612" lon="11.3362628"><ele>608.0</ele><time>2026-03-22T09:08:45.812Z</time></trkpt><trkpt lat="43.6276859" lon="11.3362117"><ele>608.0</ele><time>2026-03-22T09:08:47.812Z</time></trkpt><trkpt lat="43.6276071" lon="11.3362144"><ele>608.0</ele><time>2026-03-22T09:08:49.812Z</time></trkpt><trkpt lat="43.6275344" lon="11.3362803"><ele>608.0</ele><time>2026-03-22T09:08:51.812Z</time></trkpt><trkpt lat="43.6274584" lon="11.3363812"><ele>608.0</ele><time>2026-03-22T09:08:53.812Z</time></trkpt><trkpt lat="43.6273743" lon="11.3364897"><ele>608.0</ele><time>2026-03-22T09:08:55.812Z</time></trkpt><trkpt lat="43.627319" lon="11.3365682"><ele>608.0</ele><time>2026-03-22T09:08:57.812Z</time></trkpt><trkpt lat="43.6272652" lon="11.3366283"><ele>608.0</ele><time>2026-03-22T09:08:59.811Z</time></trkpt><trkpt lat="43.6273142" lon="11.3365462"><ele>608.0</ele><time>2026-03-22T09:09:14.811Z</time></trkpt><trkpt lat="43.6273276" lon="11.3364562"><ele>608.0</ele><time>2026-03-22T09:09:16.812Z</time></trkpt><trkpt lat="43.6273464" lon="11.336333"><ele>608.0</ele><time>2026-03-22T09:09:18.812Z</time></trkpt><trkpt lat="43.6273926" lon="11.336209"><ele>608.0</ele><time>2026-03-22T09:09:20.812Z</time></trkpt><trkpt lat="43.627452" lon="11.3360735"><ele>608.0</ele><time>2026-03-22T09:09:22.812Z</time></trkpt><trkpt lat="43.6274886" lon="11.3359718"><ele>608.0</ele><time>2026-03-22T09:09:23.812Z</time></trkpt><trkpt lat="43.62751" lon="11.3358652"><ele>608.0</ele><time>2026-03-22T09:09:27.811Z</time></trkpt><trkpt lat="43.627561" lon="11.3358044"><ele>608.0</ele><time>2026-03-22T09:10:14.813Z</time></trkpt><trkpt lat="43.6276323" lon="11.3357388"><ele>608.0</ele><time>2026-03-22T09:10:17.813Z</time></trkpt><trkpt lat="43.6276741" lon="11.335664"><ele>608.0</ele><time>2026-03-22T09:10:20.813Z</time></trkpt><trkpt lat="43.6277392" lon="11.3355875"><ele>608.1666666666666</ele><time>2026-03-22T09:10:22.813Z</time></trkpt><trkpt lat="43.6278076" lon="11.3354877"><ele>608.3333333333333</ele><time>2026-03-22T09:10:24.813Z</time></trkpt><trkpt lat="43.6278615" lon="11.335408"><ele>608.5</ele><time>2026-03-22T09:10:26.813Z</time></trkpt><trkpt lat="43.6279315" lon="11.3353229"><ele>608.6666666666666</ele><time>2026-03-22T09:10:29.813Z</time></trkpt><trkpt lat="43.6279865" lon="11.335232"><ele>608.8333333333334</ele><time>2026-03-22T09:10:32.812Z</time></trkpt><trkpt lat="43.6280523" lon="11.3351678"><ele>609.0</ele><time>2026-03-22T09:10:34.812Z</time></trkpt><trkpt lat="43.6281538" lon="11.3350929"><ele>609.0</ele><time>2026-03-22T09:10:36.813Z</time></trkpt><trkpt lat="43.628218" lon="11.3350602"><ele>609.0</ele><time>2026-03-22T09:10:38.813Z</time></trkpt><trkpt lat="43.6282796" lon="11.3349995"><ele>609.0</ele><time>2026-03-22T09:10:40.812Z</time></trkpt><trkpt lat="43.6283945" lon="11.3348939"><ele>609.0</ele><time>2026-03-22T09:10:42.813Z</time></trkpt><trkpt lat="43.6284681" lon="11.3348067"><ele>609.0</ele><time>2026-03-22T09:10:43.813Z</time></trkpt><trkpt lat="43.6285371" lon="11.3347159"><ele>608.1666666666666</ele><time>2026-03-22T09:10:44.813Z</time></trkpt><trkpt lat="43.6285949" lon="11.3346721"><ele>607.3333333333334</ele><time>2026-03-22T09:10:45.813Z</time></trkpt><trkpt lat="43.628688" lon="11.3346248"><ele>606.5</ele><time>2026-03-22T09:10:46.813Z</time></trkpt><trkpt lat="43.6287535" lon="11.3345714"><ele>605.6666666666667</ele><time>2026-03-22T09:10:47.813Z</time></trkpt><trkpt lat="43.6288167" lon="11.3345114"><ele>604.8333333333334</ele><time>2026-03-22T09:10:48.813Z</time></trkpt><trkpt lat="43.6288759" lon="11.3344664"><ele>604.0</ele><time>2026-03-22T09:10:49.812Z</time></trkpt><trkpt lat="43.6289323" lon="11.3344134"><ele>604.0</ele><time>2026-03-22T09:10:50.813Z</time></trkpt><trkpt lat="43.6289841" lon="11.3343446"><ele>604.0</ele><time>2026-03-22T09:10:51.813Z</time></trkpt><trkpt lat="43.6290301" lon="11.3342616"><ele>604.0</ele><time>2026-03-22T09:10:52.813Z</time></trkpt><trkpt lat="43.6290988" lon="11.3341617"><ele>604.0</ele><time>2026-03-22T09:10:53.812Z</time></trkpt><trkpt lat="43.6291632" lon="11.3340754"><ele>604.0</ele><time>2026-03-22T09:10:54.813Z</time></trkpt><trkpt lat="43.6292376" lon="11.3339944"><ele>604.0</ele><time>2026-03-22T09:10:55.813Z</time></trkpt><trkpt lat="43.6293246" lon="11.3339141"><ele>603.3333333333334</ele><time>2026-03-22T09:10:56.812Z</time></trkpt><trkpt lat="43.6294061" lon="11.3338625"><ele>602.6666666666667</ele><time>2026-03-22T09:10:57.813Z</time></trkpt><trkpt lat="43.6294891" lon="11.3338039"><ele>602.0</ele><time>2026-03-22T09:10:58.813Z</time></trkpt><trkpt lat="43.6295564" lon="11.3337559"><ele>601.3333333333334</ele><time>2026-03-22T09:10:59.813Z</time></trkpt><trkpt lat="43.629621" lon="11.3337198"><ele>600.6666666666666</ele><time>2026-03-22T09:11:00.813Z</time></trkpt><trkpt lat="43.6296862" lon="11.3336661"><ele>600.0</ele><time>2026-03-22T09:11:01.813Z</time></trkpt><trkpt lat="43.6297386" lon="11.3335961"><ele>600.0</ele><time>2026-03-22T09:11:02.813Z</time></trkpt><trkpt lat="43.6297931" lon="11.3335164"><ele>600.0</ele><time>2026-03-22T09:11:03.812Z</time></trkpt><trkpt lat="43.6298386" lon="11.3334223"><ele>600.0</ele><time>2026-03-22T09:11:04.813Z</time></trkpt><trkpt lat="43.6298722" lon="11.3333121"><ele>600.0</ele><time>2026-03-22T09:11:05.813Z</time></trkpt><trkpt lat="43.629905" lon="11.3332079"><ele>600.0</ele><time>2026-03-22T09:11:06.813Z</time></trkpt><trkpt lat="43.6299255" lon="11.3331151"><ele>600.0</ele><time>2026-03-22T09:11:07.813Z</time></trkpt><trkpt lat="43.6299581" lon="11.3330394"><ele>600.3333333333334</ele><time>2026-03-22T09:11:08.813Z</time></trkpt><trkpt lat="43.6300205" lon="11.3328948"><ele>600.6666666666666</ele><time>2026-03-22T09:11:10.813Z</time></trkpt><trkpt lat="43.630035" lon="11.3327984"><ele>601.0</ele><time>2026-03-22T09:11:11.813Z</time></trkpt><trkpt lat="43.6300423" lon="11.3326981"><ele>601.3333333333333</ele><time>2026-03-22T09:11:12.812Z</time></trkpt><trkpt lat="43.6300494" lon="11.3326023"><ele>601.6666666666666</ele><time>2026-03-22T09:11:13.812Z</time></trkpt><trkpt lat="43.6300616" lon="11.3324956"><ele>602.0</ele><time>2026-03-22T09:11:14.813Z</time></trkpt><trkpt lat="43.630089" lon="11.3323944"><ele>602.0</ele><time>2026-03-22T09:11:15.813Z</time></trkpt><trkpt lat="43.6301192" lon="11.3322927"><ele>602.0</ele><time>2026-03-22T09:11:16.813Z</time></trkpt><trkpt lat="43.6301382" lon="11.3321862"><ele>602.0</ele><time>2026-03-22T09:11:17.812Z</time></trkpt><trkpt lat="43.6301434" lon="11.3320853"><ele>602.0</ele><time>2026-03-22T09:11:18.813Z</time></trkpt><trkpt lat="43.6301561" lon="11.3319812"><ele>602.0</ele><time>2026-03-22T09:11:19.813Z</time></trkpt><trkpt lat="43.6301819" lon="11.3318822"><ele>602.0</ele><time>2026-03-22T09:11:20.812Z</time></trkpt><trkpt lat="43.6302094" lon="11.3317966"><ele>601.8333333333333</ele><time>2026-03-22T09:11:21.813Z</time></trkpt><trkpt lat="43.630241" lon="11.3316754"><ele>601.6666666666666</ele><time>2026-03-22T09:11:23.812Z</time></trkpt><trkpt lat="43.6302903" lon="11.3315976"><ele>601.5</ele><time>2026-03-22T09:13:47.813Z</time></trkpt><trkpt lat="43.6303288" lon="11.3315065"><ele>601.3333333333334</ele><time>2026-03-22T09:13:50.813Z</time></trkpt><trkpt lat="43.6303407" lon="11.3313981"><ele>601.1666666666667</ele><time>2026-03-22T09:13:54.812Z</time></trkpt><trkpt lat="43.6303406" lon="11.3313104"><ele>601.0</ele><time>2026-03-22T09:13:57.813Z</time></trkpt><trkpt lat="43.6303739" lon="11.3311907"><ele>597.8</ele><time>2026-03-22T09:14:05.813Z</time></trkpt><trkpt lat="43.6304189" lon="11.3310714"><ele>594.6</ele><time>2026-03-22T09:14:07.813Z</time></trkpt><trkpt lat="43.6304502" lon="11.3309269"><ele>591.4</ele><time>2026-03-22T09:14:09.813Z</time></trkpt><trkpt lat="43.6304966" lon="11.3307668"><ele>588.2</ele><time>2026-03-22T09:14:11.813Z</time></trkpt><trkpt lat="43.6305471" lon="11.3306462"><ele>585.0</ele><time>2026-03-22T09:14:13.813Z</time></trkpt><trkpt lat="43.6305976" lon="11.3305548"><ele>584.8333333333334</ele><time>2026-03-22T09:14:16.812Z</time></trkpt><trkpt lat="43.6306647" lon="11.3304724"><ele>584.6666666666666</ele><time>2026-03-22T09:14:19.813Z</time></trkpt><trkpt lat="43.6306928" lon="11.3303842"><ele>584.5</ele><time>2026-03-22T09:14:22.813Z</time></trkpt><trkpt lat="43.6307175" lon="11.3302601"><ele>584.3333333333333</ele><time>2026-03-22T09:15:23.813Z</time></trkpt><trkpt lat="43.6306947" lon="11.3301657"><ele>584.1666666666666</ele><time>2026-03-22T09:15:25.813Z</time></trkpt><trkpt lat="43.6307167" lon="11.330025"><ele>584.0</ele><time>2026-03-22T09:15:29.813Z</time></trkpt><trkpt lat="43.6307328" lon="11.3299312"><ele>584.0</ele><time>2026-03-22T09:15:30.813Z</time></trkpt><trkpt lat="43.6307449" lon="11.3298428"><ele>584.0</ele><time>2026-03-22T09:15:31.813Z</time></trkpt><trkpt lat="43.6307481" lon="11.3297434"><ele>584.0</ele><time>2026-03-22T09:15:32.813Z</time></trkpt><trkpt lat="43.630775" lon="11.3296605"><ele>584.0</ele><time>2026-03-22T09:15:33.813Z</time></trkpt><trkpt lat="43.6308416" lon="11.3295086"><ele>584.0</ele><time>2026-03-22T09:15:35.813Z</time></trkpt><trkpt lat="43.6308944" lon="11.3293667"><ele>584.0</ele><time>2026-03-22T09:15:37.813Z</time></trkpt><trkpt lat="43.630932" lon="11.3292794"><ele>583.1666666666666</ele><time>2026-03-22T09:15:38.813Z</time></trkpt><trkpt lat="43.6309762" lon="11.3292011"><ele>582.3333333333333</ele><time>2026-03-22T09:15:39.812Z</time></trkpt><trkpt lat="43.6310237" lon="11.3291182"><ele>581.5</ele><time>2026-03-22T09:15:40.813Z</time></trkpt><trkpt lat="43.6310618" lon="11.3290206"><ele>580.6666666666666</ele><time>2026-03-22T09:15:41.813Z</time></trkpt><trkpt lat="43.6311058" lon="11.3289439"><ele>579.8333333333334</ele><time>2026-03-22T09:15:42.813Z</time></trkpt><trkpt lat="43.6311631" lon="11.3288157"><ele>579.0</ele><time>2026-03-22T09:15:44.813Z</time></trkpt><trkpt lat="43.6311638" lon="11.3286777"><ele>577.8571428571428</ele><time>2026-03-22T09:15:46.813Z</time></trkpt><trkpt lat="43.63116" lon="11.3285871"><ele>576.7142857142857</ele><time>2026-03-22T09:15:53.813Z</time></trkpt><trkpt lat="43.6311545" lon="11.3284943"><ele>575.5714285714286</ele><time>2026-03-22T09:15:55.813Z</time></trkpt><trkpt lat="43.6311403" lon="11.3283771"><ele>574.4285714285713</ele><time>2026-03-22T09:15:57.813Z</time></trkpt><trkpt lat="43.6311322" lon="11.3282795"><ele>573.2857142857142</ele><time>2026-03-22T09:15:59.813Z</time></trkpt><trkpt lat="43.6311335" lon="11.3281758"><ele>572.1428571428571</ele><time>2026-03-22T09:16:02.812Z</time></trkpt><trkpt lat="43.6311286" lon="11.3282661"><ele>571.0</ele><time>2026-03-22T09:16:17.813Z</time></trkpt><trkpt lat="43.6311409" lon="11.3283909"><ele>572.3333333333334</ele><time>2026-03-22T09:16:19.813Z</time></trkpt><trkpt lat="43.6311558" lon="11.32854"><ele>573.6666666666667</ele><time>2026-03-22T09:16:21.813Z</time></trkpt><trkpt lat="43.6311642" lon="11.3286329"><ele>575.0</ele><time>2026-03-22T09:16:22.812Z</time></trkpt><trkpt lat="43.6311739" lon="11.3287195"><ele>576.3333333333334</ele><time>2026-03-22T09:16:23.813Z</time></trkpt><trkpt lat="43.6311571" lon="11.3288055"><ele>577.6666666666666</ele><time>2026-03-22T09:16:24.813Z</time></trkpt><trkpt lat="43.6311011" lon="11.3289512"><ele>579.0</ele><time>2026-03-22T09:16:26.813Z</time></trkpt><trkpt lat="43.6310521" lon="11.3290321"><ele>579.0</ele><time>2026-03-22T09:16:27.813Z</time></trkpt><trkpt lat="43.631012" lon="11.3291152"><ele>579.0</ele><time>2026-03-22T09:16:28.813Z</time></trkpt><trkpt lat="43.6309561" lon="11.3292108"><ele>579.0</ele><time>2026-03-22T09:16:29.813Z</time></trkpt><trkpt lat="43.6309141" lon="11.3292903"><ele>579.0</ele><time>2026-03-22T09:16:30.813Z</time></trkpt><trkpt lat="43.6308755" lon="11.3294537"><ele>579.0</ele><time>2026-03-22T09:16:32.813Z</time></trkpt><trkpt lat="43.6308118" lon="11.3296068"><ele>579.0</ele><time>2026-03-22T09:16:34.813Z</time></trkpt><trkpt lat="43.6307824" lon="11.3296851"><ele>579.0</ele><time>2026-03-22T09:16:35.813Z</time></trkpt><trkpt lat="43.6307545" lon="11.3298437"><ele>579.0</ele><time>2026-03-22T09:16:37.813Z</time></trkpt><trkpt lat="43.6307375" lon="11.32993"><ele>579.0</ele><time>2026-03-22T09:16:38.813Z</time></trkpt><trkpt lat="43.6307182" lon="11.3300533"><ele>579.0</ele><time>2026-03-22T09:16:40.813Z</time></trkpt><trkpt lat="43.6306742" lon="11.3301209"><ele>579.0</ele><time>2026-03-22T09:18:55.812Z</time></trkpt><trkpt lat="43.6307185" lon="11.330225"><ele>579.8333333333334</ele><time>2026-03-22T09:21:31.814Z</time></trkpt><trkpt lat="43.6307255" lon="11.3303273"><ele>580.6666666666666</ele><time>2026-03-22T09:21:33.813Z</time></trkpt><trkpt lat="43.6306877" lon="11.3304114"><ele>581.5</ele><time>2026-03-22T09:21:34.813Z</time></trkpt><trkpt lat="43.6306378" lon="11.3304952"><ele>582.3333333333333</ele><time>2026-03-22T09:21:35.814Z</time></trkpt><trkpt lat="43.6305815" lon="11.3305678"><ele>583.1666666666666</ele><time>2026-03-22T09:21:36.814Z</time></trkpt><trkpt lat="43.6305031" lon="11.3307278"><ele>584.0</ele><time>2026-03-22T09:21:38.813Z</time></trkpt><trkpt lat="43.6304723" lon="11.3308548"><ele>584.1666666666666</ele><time>2026-03-22T09:21:39.814Z</time></trkpt><trkpt lat="43.6304427" lon="11.3309728"><ele>584.3333333333333</ele><time>2026-03-22T09:21:40.813Z</time></trkpt><trkpt lat="43.6304173" lon="11.3310852"><ele>584.5</ele><time>2026-03-22T09:21:41.814Z</time></trkpt><trkpt lat="43.6303842" lon="11.3311971"><ele>584.6666666666666</ele><time>2026-03-22T09:21:42.813Z</time></trkpt><trkpt lat="43.6303489" lon="11.3313033"><ele>584.8333333333334</ele><time>2026-03-22T09:21:43.814Z</time></trkpt><trkpt lat="43.6303304" lon="11.3314007"><ele>585.0</ele><time>2026-03-22T09:21:44.814Z</time></trkpt><trkpt lat="43.6302968" lon="11.3315493"><ele>588.2</ele><time>2026-03-22T09:21:46.814Z</time></trkpt><trkpt lat="43.6302399" lon="11.3317211"><ele>591.4</ele><time>2026-03-22T09:21:48.814Z</time></trkpt><trkpt lat="43.63021" lon="11.3318422"><ele>594.6</ele><time>2026-03-22T09:21:49.814Z</time></trkpt><trkpt lat="43.6301871" lon="11.3319679"><ele>597.8</ele><time>2026-03-22T09:21:50.814Z</time></trkpt><trkpt lat="43.6301672" lon="11.3320776"><ele>601.0</ele><time>2026-03-22T09:21:51.813Z</time></trkpt><trkpt lat="43.6301522" lon="11.3321763"><ele>601.1666666666667</ele><time>2026-03-22T09:21:52.814Z</time></trkpt><trkpt lat="43.6301517" lon="11.332268"><ele>601.3333333333334</ele><time>2026-03-22T09:21:53.814Z</time></trkpt><trkpt lat="43.6301358" lon="11.3323639"><ele>601.5</ele><time>2026-03-22T09:21:55.814Z</time></trkpt><trkpt lat="43.6301165" lon="11.3325306"><ele>601.6666666666666</ele><time>2026-03-22T09:21:57.814Z</time></trkpt><trkpt lat="43.6301021" lon="11.3326528"><ele>601.8333333333333</ele><time>2026-03-22T09:21:58.814Z</time></trkpt><trkpt lat="43.6300958" lon="11.3327576"><ele>602.0</ele><time>2026-03-22T09:21:59.814Z</time></trkpt><trkpt lat="43.6300896" lon="11.3328662"><ele>602.0</ele><time>2026-03-22T09:22:00.813Z</time></trkpt><trkpt lat="43.6300738" lon="11.3329613"><ele>602.0</ele><time>2026-03-22T09:22:01.813Z</time></trkpt><trkpt lat="43.6300398" lon="11.3330509"><ele>602.0</ele><time>2026-03-22T09:22:02.813Z</time></trkpt><trkpt lat="43.6299958" lon="11.3331274"><ele>602.0</ele><time>2026-03-22T09:22:03.814Z</time></trkpt><trkpt lat="43.6299513" lon="11.3332226"><ele>602.0</ele><time>2026-03-22T09:22:04.814Z</time></trkpt><trkpt lat="43.6299092" lon="11.3333206"><ele>602.0</ele><time>2026-03-22T09:22:05.813Z</time></trkpt><trkpt lat="43.6298504" lon="11.3334334"><ele>601.6666666666666</ele><time>2026-03-22T09:22:06.814Z</time></trkpt><trkpt lat="43.6297954" lon="11.3335335"><ele>601.3333333333333</ele><time>2026-03-22T09:22:07.814Z</time></trkpt><trkpt lat="43.6297403" lon="11.3336076"><ele>601.0</ele><time>2026-03-22T09:22:08.814Z</time></trkpt><trkpt lat="43.6296771" lon="11.3336672"><ele>600.6666666666666</ele><time>2026-03-22T09:22:09.814Z</time></trkpt><trkpt lat="43.6296053" lon="11.3337142"><ele>600.3333333333334</ele><time>2026-03-22T09:22:10.813Z</time></trkpt><trkpt lat="43.6295284" lon="11.3337587"><ele>600.0</ele><time>2026-03-22T09:22:11.814Z</time></trkpt><trkpt lat="43.6294405" lon="11.3338065"><ele>600.6666666666666</ele><time>2026-03-22T09:22:12.814Z</time></trkpt><trkpt lat="43.6293564" lon="11.3338562"><ele>601.3333333333334</ele><time>2026-03-22T09:22:13.814Z</time></trkpt><trkpt lat="43.6292938" lon="11.333924"><ele>602.0</ele><time>2026-03-22T09:22:14.814Z</time></trkpt><trkpt lat="43.6292402" lon="11.3339895"><ele>602.6666666666667</ele><time>2026-03-22T09:22:15.813Z</time></trkpt><trkpt lat="43.629193" lon="11.3340588"><ele>603.3333333333334</ele><time>2026-03-22T09:22:16.814Z</time></trkpt><trkpt lat="43.6291412" lon="11.3341254"><ele>604.0</ele><time>2026-03-22T09:22:17.813Z</time></trkpt><trkpt lat="43.6290886" lon="11.3342009"><ele>604.0000000000001</ele><time>2026-03-22T09:22:18.813Z</time></trkpt><trkpt lat="43.6290318" lon="11.3342784"><ele>604.0</ele><time>2026-03-22T09:22:19.814Z</time></trkpt><trkpt lat="43.6289849" lon="11.3343507"><ele>604.0</ele><time>2026-03-22T09:22:20.814Z</time></trkpt><trkpt lat="43.6289204" lon="11.3343887"><ele>604.0</ele><time>2026-03-22T09:22:21.814Z</time></trkpt><trkpt lat="43.6288544" lon="11.3344292"><ele>604.0</ele><time>2026-03-22T09:22:22.813Z</time></trkpt><trkpt lat="43.6287968" lon="11.3344733"><ele>604.0000000000001</ele><time>2026-03-22T09:22:23.814Z</time></trkpt><trkpt lat="43.628728" lon="11.3345117"><ele>604.0</ele><time>2026-03-22T09:22:24.813Z</time></trkpt><trkpt lat="43.6286652" lon="11.3345491"><ele>604.8333333333334</ele><time>2026-03-22T09:22:25.814Z</time></trkpt><trkpt lat="43.6286061" lon="11.3345902"><ele>605.6666666666667</ele><time>2026-03-22T09:22:26.814Z</time></trkpt><trkpt lat="43.6285058" lon="11.3347047"><ele>606.5</ele><time>2026-03-22T09:22:28.814Z</time></trkpt><trkpt lat="43.628445" lon="11.3347801"><ele>607.3333333333334</ele><time>2026-03-22T09:22:29.814Z</time></trkpt><trkpt lat="43.6283794" lon="11.3348632"><ele>608.1666666666666</ele><time>2026-03-22T09:22:30.814Z</time></trkpt><trkpt lat="43.6283223" lon="11.3349357"><ele>609.0</ele><time>2026-03-22T09:22:31.813Z</time></trkpt><trkpt lat="43.6282405" lon="11.3350302"><ele>609.0</ele><time>2026-03-22T09:22:33.813Z</time></trkpt><trkpt lat="43.6281511" lon="11.335114"><ele>609.0</ele><time>2026-03-22T09:22:35.814Z</time></trkpt><trkpt lat="43.6280705" lon="11.3351821"><ele>609.0</ele><time>2026-03-22T09:22:37.814Z</time></trkpt><trkpt lat="43.6280241" lon="11.3352502"><ele>609.0</ele><time>2026-03-22T09:22:40.813Z</time></trkpt><trkpt lat="43.627955" lon="11.3353323"><ele>609.0</ele><time>2026-03-22T09:22:43.814Z</time></trkpt><trkpt lat="43.6278659" lon="11.3354411"><ele>609.0</ele><time>2026-03-22T09:22:45.814Z</time></trkpt><trkpt lat="43.6278171" lon="11.3354996"><ele>609.0</ele><time>2026-03-22T09:22:46.814Z</time></trkpt><trkpt lat="43.6277608" lon="11.3355826"><ele>609.0</ele><time>2026-03-22T09:22:48.814Z</time></trkpt><trkpt lat="43.6277034" lon="11.3356224"><ele>609.0</ele><time>2026-03-22T09:22:50.814Z</time></trkpt><trkpt lat="43.6276645" lon="11.3356909"><ele>609.0</ele><time>2026-03-22T09:22:51.813Z</time></trkpt><trkpt lat="43.6275876" lon="11.3357723"><ele>609.0</ele><time>2026-03-22T09:22:54.813Z</time></trkpt><trkpt lat="43.6275136" lon="11.3359385"><ele>608.8333333333334</ele><time>2026-03-22T09:22:56.814Z</time></trkpt><trkpt lat="43.6274513" lon="11.3360378"><ele>608.6666666666666</ele><time>2026-03-22T09:22:57.814Z</time></trkpt><trkpt lat="43.6273942" lon="11.3361364"><ele>608.5</ele><time>2026-03-22T09:22:58.814Z</time></trkpt><trkpt lat="43.6273466" lon="11.3362171"><ele>608.3333333333333</ele><time>2026-03-22T09:22:59.814Z</time></trkpt><trkpt lat="43.6273132" lon="11.3362987"><ele>608.1666666666666</ele><time>2026-03-22T09:23:00.814Z</time></trkpt><trkpt lat="43.6272942" lon="11.3364067"><ele>608.0</ele><time>2026-03-22T09:23:01.814Z</time></trkpt><trkpt lat="43.6272867" lon="11.3364945"><ele>607.0</ele><time>2026-03-22T09:23:02.814Z</time></trkpt><trkpt lat="43.6272157" lon="11.3366672"><ele>606.0</ele><time>2026-03-22T09:23:04.814Z</time></trkpt><trkpt lat="43.6271663" lon="11.3367669"><ele>605.0</ele><time>2026-03-22T09:23:05.814Z</time></trkpt><trkpt lat="43.6270996" lon="11.3368859"><ele>604.0</ele><time>2026-03-22T09:23:06.814Z</time></trkpt><trkpt lat="43.6270196" lon="11.3369976"><ele>605.5</ele><time>2026-03-22T09:23:07.814Z</time></trkpt><trkpt lat="43.6269455" lon="11.337082"><ele>607.0</ele><time>2026-03-22T09:23:08.814Z</time></trkpt><trkpt lat="43.6268661" lon="11.3371208"><ele>608.5</ele><time>2026-03-22T09:23:09.814Z</time></trkpt><trkpt lat="43.6267939" lon="11.3371404"><ele>610.0</ele><time>2026-03-22T09:23:10.814Z</time></trkpt><trkpt lat="43.6267162" lon="11.3371361"><ele>611.5</ele><time>2026-03-22T09:23:11.813Z</time></trkpt><trkpt lat="43.6266414" lon="11.3371149"><ele>613.0</ele><time>2026-03-22T09:23:12.813Z</time></trkpt><trkpt lat="43.6265649" lon="11.3371189"><ele>613.0</ele><time>2026-03-22T09:23:13.814Z</time></trkpt><trkpt lat="43.6264866" lon="11.3371286"><ele>613.0</ele><time>2026-03-22T09:23:14.814Z</time></trkpt><trkpt lat="43.6263896" lon="11.3371644"><ele>613.0</ele><time>2026-03-22T09:23:15.814Z</time></trkpt><trkpt lat="43.6263059" lon="11.3371996"><ele>613.0</ele><time>2026-03-22T09:23:16.814Z</time></trkpt><trkpt lat="43.626242" lon="11.3372564"><ele>613.0</ele><time>2026-03-22T09:23:17.813Z</time></trkpt><trkpt lat="43.6261824" lon="11.3373134"><ele>613.0</ele><time>2026-03-22T09:23:18.814Z</time></trkpt><trkpt lat="43.6261236" lon="11.337373"><ele>613.5</ele><time>2026-03-22T09:23:19.814Z</time></trkpt><trkpt lat="43.6260543" lon="11.3374247"><ele>614.0</ele><time>2026-03-22T09:23:20.813Z</time></trkpt><trkpt lat="43.6259803" lon="11.3374617"><ele>614.5</ele><time>2026-03-22T09:23:21.813Z</time></trkpt><trkpt lat="43.6259161" lon="11.3375021"><ele>615.0</ele><time>2026-03-22T09:23:22.814Z</time></trkpt><trkpt lat="43.6258182" lon="11.3375712"><ele>615.5</ele><time>2026-03-22T09:23:24.813Z</time></trkpt><trkpt lat="43.6257129" lon="11.3375709"><ele>616.0</ele><time>2026-03-22T09:23:26.814Z</time></trkpt><trkpt lat="43.6256007" lon="11.3376196"><ele>616.0</ele><time>2026-03-22T09:23:28.814Z</time></trkpt><trkpt lat="43.6255407" lon="11.3376781"><ele>616.0</ele><time>2026-03-22T09:23:29.814Z</time></trkpt><trkpt lat="43.6254773" lon="11.3377746"><ele>616.0</ele><time>2026-03-22T09:23:30.814Z</time></trkpt><trkpt lat="43.6254137" lon="11.3378972"><ele>616.0</ele><time>2026-03-22T09:23:31.814Z</time></trkpt><trkpt lat="43.6253492" lon="11.3380361"><ele>616.0</ele><time>2026-03-22T09:23:32.814Z</time></trkpt><trkpt lat="43.6252794" lon="11.3381506"><ele>616.3333333333334</ele><time>2026-03-22T09:23:33.813Z</time></trkpt><trkpt lat="43.6252212" lon="11.3382493"><ele>616.6666666666667</ele><time>2026-03-22T09:23:34.814Z</time></trkpt><trkpt lat="43.6251784" lon="11.3383386"><ele>617.0</ele><time>2026-03-22T09:23:35.814Z</time></trkpt><trkpt lat="43.6251266" lon="11.3384217"><ele>617.3333333333334</ele><time>2026-03-22T09:23:36.814Z</time></trkpt><trkpt lat="43.6250785" lon="11.3385007"><ele>617.6666666666666</ele><time>2026-03-22T09:23:37.814Z</time></trkpt><trkpt lat="43.6250331" lon="11.3385711"><ele>618.0</ele><time>2026-03-22T09:23:38.814Z</time></trkpt><trkpt lat="43.6249556" lon="11.3386742"><ele>618.0</ele><time>2026-03-22T09:23:40.814Z</time></trkpt><trkpt lat="43.6249008" lon="11.3387826"><ele>618.0</ele><time>2026-03-22T09:23:42.814Z</time></trkpt><trkpt lat="43.6248173" lon="11.3388828"><ele>618.0</ele><time>2026-03-22T09:23:44.814Z</time></trkpt><trkpt lat="43.6247226" lon="11.3390105"><ele>618.0</ele><time>2026-03-22T09:23:46.813Z</time></trkpt><trkpt lat="43.6246771" lon="11.3391378"><ele>618.0</ele><time>2026-03-22T09:23:48.813Z</time></trkpt><trkpt lat="43.6246177" lon="11.3393109"><ele>618.6666666666666</ele><time>2026-03-22T09:23:50.814Z</time></trkpt><trkpt lat="43.6245894" lon="11.3394056"><ele>619.3333333333334</ele><time>2026-03-22T09:23:51.814Z</time></trkpt><trkpt lat="43.6245483" lon="11.3394998"><ele>620.0</ele><time>2026-03-22T09:23:52.813Z</time></trkpt><trkpt lat="43.6245153" lon="11.3395795"><ele>620.6666666666667</ele><time>2026-03-22T09:23:53.814Z</time></trkpt><trkpt lat="43.6244697" lon="11.339653"><ele>621.3333333333334</ele><time>2026-03-22T09:23:54.813Z</time></trkpt><trkpt lat="43.6243385" lon="11.3397194"><ele>622.0</ele><time>2026-03-22T09:23:56.814Z</time></trkpt><trkpt lat="43.6242683" lon="11.3397522"><ele>620.0</ele><time>2026-03-22T09:23:57.814Z</time></trkpt><trkpt lat="43.6242043" lon="11.3398684"><ele>618.0</ele><time>2026-03-22T09:23:59.814Z</time></trkpt><trkpt lat="43.6241631" lon="11.3399893"><ele>616.0</ele><time>2026-03-22T09:24:01.814Z</time></trkpt><trkpt lat="43.6241268" lon="11.3401142"><ele>614.0</ele><time>2026-03-22T09:24:04.814Z</time></trkpt><trkpt lat="43.6240889" lon="11.3402328"><ele>612.0</ele><time>2026-03-22T09:24:07.814Z</time></trkpt><trkpt lat="43.624027" lon="11.3403269"><ele>612.0</ele><time>2026-03-22T09:24:11.813Z</time></trkpt><trkpt lat="43.6239688" lon="11.340423"><ele>612.0</ele><time>2026-03-22T09:24:13.814Z</time></trkpt><trkpt lat="43.6238951" lon="11.3405422"><ele>612.0</ele><time>2026-03-22T09:24:15.814Z</time></trkpt><trkpt lat="43.6238118" lon="11.3406771"><ele>612.0</ele><time>2026-03-22T09:24:17.814Z</time></trkpt><trkpt lat="43.6237617" lon="11.3407437"><ele>612.0</ele><time>2026-03-22T09:24:18.814Z</time></trkpt><trkpt lat="43.6237001" lon="11.3408072"><ele>610.2</ele><time>2026-03-22T09:24:19.814Z</time></trkpt><trkpt lat="43.6236155" lon="11.3409108"><ele>608.4000000000001</ele><time>2026-03-22T09:24:21.813Z</time></trkpt><trkpt lat="43.6235112" lon="11.3409719"><ele>606.5999999999999</ele><time>2026-03-22T09:24:23.814Z</time></trkpt><trkpt lat="43.623448" lon="11.3409972"><ele>604.8</ele><time>2026-03-22T09:24:24.814Z</time></trkpt><trkpt lat="43.6233328" lon="11.3409993"><ele>603.0</ele><time>2026-03-22T09:24:26.814Z</time></trkpt><trkpt lat="43.6232562" lon="11.3409977"><ele>603.0</ele><time>2026-03-22T09:24:28.813Z</time></trkpt><trkpt lat="43.6231942" lon="11.3409075"><ele>603.0</ele><time>2026-03-22T09:24:31.814Z</time></trkpt><trkpt lat="43.6231045" lon="11.3408364"><ele>603.0</ele><time>2026-03-22T09:24:33.814Z</time></trkpt><trkpt lat="43.6229882" lon="11.3408365"><ele>603.0</ele><time>2026-03-22T09:24:35.814Z</time></trkpt><trkpt lat="43.622884" lon="11.340883"><ele>603.0</ele><time>2026-03-22T09:24:37.814Z</time></trkpt><trkpt lat="43.6227917" lon="11.3409637"><ele>602.1428571428572</ele><time>2026-03-22T09:24:39.814Z</time></trkpt><trkpt lat="43.622756" lon="11.3410501"><ele>601.2857142857142</ele><time>2026-03-22T09:24:40.814Z</time></trkpt><trkpt lat="43.6227244" lon="11.3411461"><ele>600.4285714285714</ele><time>2026-03-22T09:24:41.814Z</time></trkpt><trkpt lat="43.6227023" lon="11.3412432"><ele>599.5714285714287</ele><time>2026-03-22T09:24:42.814Z</time></trkpt><trkpt lat="43.6226786" lon="11.3413424"><ele>598.7142857142858</ele><time>2026-03-22T09:24:44.814Z</time></trkpt><trkpt lat="43.6226799" lon="11.3414437"><ele>597.8571428571429</ele><time>2026-03-22T09:24:47.813Z</time></trkpt><trkpt lat="43.6226545" lon="11.3415233"><ele>597.0</ele><time>2026-03-22T09:25:32.814Z</time></trkpt><trkpt lat="43.6226018" lon="11.3415722"><ele>597.0</ele><time>2026-03-22T09:25:34.814Z</time></trkpt><trkpt lat="43.6225591" lon="11.3416675"><ele>597.0</ele><time>2026-03-22T09:25:36.814Z</time></trkpt><trkpt lat="43.6225071" lon="11.3417367"><ele>597.0</ele><time>2026-03-22T09:25:38.814Z</time></trkpt><trkpt lat="43.6224353" lon="11.3418052"><ele>597.0</ele><time>2026-03-22T09:25:40.814Z</time></trkpt><trkpt lat="43.6223498" lon="11.3418915"><ele>597.0</ele><time>2026-03-22T09:25:42.814Z</time></trkpt><trkpt lat="43.6223022" lon="11.3419492"><ele>597.0</ele><time>2026-03-22T09:25:43.814Z</time></trkpt><trkpt lat="43.6222543" lon="11.3420066"><ele>597.0</ele><time>2026-03-22T09:25:44.814Z</time></trkpt><trkpt lat="43.6222062" lon="11.3420722"><ele>597.0</ele><time>2026-03-22T09:25:45.814Z</time></trkpt><trkpt lat="43.6221543" lon="11.3421481"><ele>597.0</ele><time>2026-03-22T09:25:46.813Z</time></trkpt><trkpt lat="43.6220991" lon="11.342219"><ele>597.0</ele><time>2026-03-22T09:25:47.813Z</time></trkpt><trkpt lat="43.6220249" lon="11.3422985"><ele>597.0</ele><time>2026-03-22T09:25:48.814Z</time></trkpt><trkpt lat="43.6219756" lon="11.3423784"><ele>597.0</ele><time>2026-03-22T09:25:49.814Z</time></trkpt><trkpt lat="43.6219273" lon="11.3424513"><ele>596.0</ele><time>2026-03-22T09:25:50.813Z</time></trkpt><trkpt lat="43.6218709" lon="11.3425108"><ele>595.0</ele><time>2026-03-22T09:25:51.814Z</time></trkpt><trkpt lat="43.6218158" lon="11.3425726"><ele>594.0</ele><time>2026-03-22T09:25:52.814Z</time></trkpt><trkpt lat="43.6217203" lon="11.3426562"><ele>593.0</ele><time>2026-03-22T09:25:54.814Z</time></trkpt><trkpt lat="43.6216225" lon="11.3427326"><ele>592.0</ele><time>2026-03-22T09:25:56.814Z</time></trkpt><trkpt lat="43.6215003" lon="11.3428062"><ele>592.0</ele><time>2026-03-22T09:25:58.814Z</time></trkpt><trkpt lat="43.6214268" lon="11.3428486"><ele>592.0</ele><time>2026-03-22T09:25:59.813Z</time></trkpt><trkpt lat="43.6213551" lon="11.3428797"><ele>592.0</ele><time>2026-03-22T09:26:00.814Z</time></trkpt><trkpt lat="43.6212767" lon="11.3429132"><ele>592.0</ele><time>2026-03-22T09:26:01.813Z</time></trkpt><trkpt lat="43.6211891" lon="11.3429494"><ele>592.0</ele><time>2026-03-22T09:26:02.813Z</time></trkpt><trkpt lat="43.6211063" lon="11.342988"><ele>592.0</ele><time>2026-03-22T09:26:03.814Z</time></trkpt><trkpt lat="43.6210295" lon="11.3430333"><ele>589.5</ele><time>2026-03-22T09:26:04.814Z</time></trkpt><trkpt lat="43.6209528" lon="11.343077"><ele>587.0</ele><time>2026-03-22T09:26:05.814Z</time></trkpt><trkpt lat="43.6208787" lon="11.343126"><ele>584.5</ele><time>2026-03-22T09:26:06.814Z</time></trkpt><trkpt lat="43.6208147" lon="11.3431621"><ele>582.0</ele><time>2026-03-22T09:26:07.813Z</time></trkpt><trkpt lat="43.6207085" lon="11.3432232"><ele>579.5</ele><time>2026-03-22T09:26:09.813Z</time></trkpt><trkpt lat="43.6206557" lon="11.3432766"><ele>577.0</ele><time>2026-03-22T09:26:10.814Z</time></trkpt><trkpt lat="43.6206078" lon="11.3434147"><ele>577.0</ele><time>2026-03-22T09:26:12.814Z</time></trkpt><trkpt lat="43.6206143" lon="11.3435159"><ele>577.0</ele><time>2026-03-22T09:26:13.814Z</time></trkpt><trkpt lat="43.6206082" lon="11.3436337"><ele>577.0</ele><time>2026-03-22T09:26:14.813Z</time></trkpt><trkpt lat="43.6205894" lon="11.3437618"><ele>577.0</ele><time>2026-03-22T09:26:15.813Z</time></trkpt><trkpt lat="43.6205246" lon="11.3438789"><ele>577.0</ele><time>2026-03-22T09:26:16.813Z</time></trkpt><trkpt lat="43.6204445" lon="11.3439591"><ele>576.5714285714286</ele><time>2026-03-22T09:26:17.814Z</time></trkpt><trkpt lat="43.6203706" lon="11.3440038"><ele>576.1428571428571</ele><time>2026-03-22T09:26:18.814Z</time></trkpt><trkpt lat="43.6203055" lon="11.3440195"><ele>575.7142857142858</ele><time>2026-03-22T09:26:19.814Z</time></trkpt><trkpt lat="43.6202295" lon="11.3440059"><ele>575.2857142857142</ele><time>2026-03-22T09:26:20.813Z</time></trkpt><trkpt lat="43.6201649" lon="11.3440135"><ele>574.8571428571429</ele><time>2026-03-22T09:26:21.814Z</time></trkpt><trkpt lat="43.6200938" lon="11.344014"><ele>574.4285714285714</ele><time>2026-03-22T09:26:22.814Z</time></trkpt><trkpt lat="43.6200123" lon="11.3440098"><ele>574.0</ele><time>2026-03-22T09:26:23.814Z</time></trkpt><trkpt lat="43.6199056" lon="11.3440278"><ele>574.0</ele><time>2026-03-22T09:26:24.813Z</time></trkpt><trkpt lat="43.6197895" lon="11.3440678"><ele>574.0</ele><time>2026-03-22T09:26:25.814Z</time></trkpt><trkpt lat="43.6196776" lon="11.3441295"><ele>574.0</ele><time>2026-03-22T09:26:26.814Z</time></trkpt><trkpt lat="43.6195677" lon="11.3442133"><ele>574.0</ele><time>2026-03-22T09:26:27.814Z</time></trkpt><trkpt lat="43.6194634" lon="11.344309"><ele>573.2</ele><time>2026-03-22T09:26:28.814Z</time></trkpt><trkpt lat="43.6193857" lon="11.3444377"><ele>572.4</ele><time>2026-03-22T09:26:29.814Z</time></trkpt><trkpt lat="43.6193244" lon="11.3445589"><ele>571.6</ele><time>2026-03-22T09:26:30.814Z</time></trkpt><trkpt lat="43.6192593" lon="11.3446835"><ele>570.8</ele><time>2026-03-22T09:26:31.814Z</time></trkpt><trkpt lat="43.6191919" lon="11.3447964"><ele>570.0</ele><time>2026-03-22T09:26:32.814Z</time></trkpt><trkpt lat="43.6191225" lon="11.3449047"><ele>570.0</ele><time>2026-03-22T09:26:33.814Z</time></trkpt><trkpt lat="43.6190514" lon="11.3450111"><ele>570.0</ele><time>2026-03-22T09:26:34.814Z</time></trkpt><trkpt lat="43.6189898" lon="11.3451311"><ele>570.0</ele><time>2026-03-22T09:26:35.814Z</time></trkpt><trkpt lat="43.6189206" lon="11.3452681"><ele>570.0</ele><time>2026-03-22T09:26:36.814Z</time></trkpt><trkpt lat="43.6188359" lon="11.345411"><ele>570.0</ele><time>2026-03-22T09:26:37.814Z</time></trkpt><trkpt lat="43.6187337" lon="11.3455453"><ele>570.0</ele><time>2026-03-22T09:26:38.814Z</time></trkpt><trkpt lat="43.6186177" lon="11.3456593"><ele>570.0</ele><time>2026-03-22T09:26:39.814Z</time></trkpt><trkpt lat="43.6185051" lon="11.3457694"><ele>570.0</ele><time>2026-03-22T09:26:40.814Z</time></trkpt><trkpt lat="43.6183878" lon="11.3459034"><ele>569.6666666666666</ele><time>2026-03-22T09:26:41.814Z</time></trkpt><trkpt lat="43.6182741" lon="11.346053"><ele>569.3333333333333</ele><time>2026-03-22T09:26:42.814Z</time></trkpt><trkpt lat="43.6181532" lon="11.3462378"><ele>569.0</ele><time>2026-03-22T09:26:43.814Z</time></trkpt><trkpt lat="43.6180395" lon="11.3464046"><ele>569.0</ele><time>2026-03-22T09:26:44.814Z</time></trkpt><trkpt lat="43.6179444" lon="11.3465718"><ele>569.0</ele><time>2026-03-22T09:26:45.814Z</time></trkpt><trkpt lat="43.617886" lon="11.3467148"><ele>569.0</ele><time>2026-03-22T09:26:46.813Z</time></trkpt><trkpt lat="43.6178086" lon="11.3468424"><ele>569.0</ele><time>2026-03-22T09:26:47.814Z</time></trkpt><trkpt lat="43.6177509" lon="11.3469384"><ele>571.8</ele><time>2026-03-22T09:26:48.814Z</time></trkpt><trkpt lat="43.6176884" lon="11.3470207"><ele>574.5999999999999</ele><time>2026-03-22T09:26:49.814Z</time></trkpt><trkpt lat="43.617617" lon="11.3471234"><ele>577.4</ele><time>2026-03-22T09:26:50.814Z</time></trkpt><trkpt lat="43.6175761" lon="11.3472392"><ele>580.1999999999999</ele><time>2026-03-22T09:26:51.814Z</time></trkpt><trkpt lat="43.6175293" lon="11.347368"><ele>583.0</ele><time>2026-03-22T09:26:52.814Z</time></trkpt><trkpt lat="43.6174924" lon="11.3474827"><ele>583.0</ele><time>2026-03-22T09:26:53.814Z</time></trkpt><trkpt lat="43.6174785" lon="11.3475923"><ele>583.0</ele><time>2026-03-22T09:26:54.814Z</time></trkpt><trkpt lat="43.6174764" lon="11.3477001"><ele>583.0</ele><time>2026-03-22T09:26:55.814Z</time></trkpt><trkpt lat="43.617461" lon="11.3478157"><ele>583.0</ele><time>2026-03-22T09:26:56.814Z</time></trkpt><trkpt lat="43.6174182" lon="11.3479158"><ele>583.0</ele><time>2026-03-22T09:26:57.814Z</time></trkpt><trkpt lat="43.6173549" lon="11.3480062"><ele>583.0</ele><time>2026-03-22T09:26:58.814Z</time></trkpt><trkpt lat="43.6172705" lon="11.3481098"><ele>582.1999999999999</ele><time>2026-03-22T09:26:59.814Z</time></trkpt><trkpt lat="43.6171895" lon="11.3482499"><ele>581.4</ele><time>2026-03-22T09:27:00.814Z</time></trkpt><trkpt lat="43.6171235" lon="11.348371"><ele>580.5999999999999</ele><time>2026-03-22T09:27:01.813Z</time></trkpt><trkpt lat="43.6170573" lon="11.3484777"><ele>579.8</ele><time>2026-03-22T09:27:02.813Z</time></trkpt><trkpt lat="43.6170019" lon="11.348575"><ele>579.0</ele><time>2026-03-22T09:27:03.813Z</time></trkpt><trkpt lat="43.6169415" lon="11.3486504"><ele>579.0</ele><time>2026-03-22T09:27:04.814Z</time></trkpt><trkpt lat="43.6168766" lon="11.3487131"><ele>579.0</ele><time>2026-03-22T09:27:05.814Z</time></trkpt><trkpt lat="43.6168109" lon="11.3487359"><ele>579.0</ele><time>2026-03-22T09:27:06.814Z</time></trkpt><trkpt lat="43.616696" lon="11.348684"><ele>579.0</ele><time>2026-03-22T09:27:08.814Z</time></trkpt><trkpt lat="43.6166306" lon="11.3487374"><ele>579.0</ele><time>2026-03-22T09:27:10.813Z</time></trkpt><trkpt lat="43.6166181" lon="11.3488339"><ele>579.0</ele><time>2026-03-22T09:27:11.813Z</time></trkpt><trkpt lat="43.616616" lon="11.348951"><ele>576.4</ele><time>2026-03-22T09:27:12.814Z</time></trkpt><trkpt lat="43.6166238" lon="11.3491023"><ele>573.8</ele><time>2026-03-22T09:27:13.814Z</time></trkpt><trkpt lat="43.6166531" lon="11.3492568"><ele>571.2</ele><time>2026-03-22T09:27:14.814Z</time></trkpt><trkpt lat="43.616673" lon="11.3493771"><ele>568.6</ele><time>2026-03-22T09:27:15.813Z</time></trkpt><trkpt lat="43.6166861" lon="11.3495003"><ele>566.0</ele><time>2026-03-22T09:27:16.814Z</time></trkpt><trkpt lat="43.6167001" lon="11.3496127"><ele>564.6666666666666</ele><time>2026-03-22T09:27:17.813Z</time></trkpt><trkpt lat="43.6167129" lon="11.3497299"><ele>563.3333333333333</ele><time>2026-03-22T09:27:18.814Z</time></trkpt><trkpt lat="43.6167188" lon="11.3498549"><ele>562.0</ele><time>2026-03-22T09:27:19.814Z</time></trkpt><trkpt lat="43.6167123" lon="11.3499773"><ele>560.6666666666666</ele><time>2026-03-22T09:27:20.814Z</time></trkpt><trkpt lat="43.6167125" lon="11.3501008"><ele>559.3333333333334</ele><time>2026-03-22T09:27:21.814Z</time></trkpt><trkpt lat="43.6167133" lon="11.3502191"><ele>558.0</ele><time>2026-03-22T09:27:22.814Z</time></trkpt><trkpt lat="43.6167102" lon="11.3503279"><ele>558.0</ele><time>2026-03-22T09:27:23.814Z</time></trkpt><trkpt lat="43.6167076" lon="11.3504305"><ele>558.0</ele><time>2026-03-22T09:27:24.813Z</time></trkpt><trkpt lat="43.6167079" lon="11.350521"><ele>558.0</ele><time>2026-03-22T09:27:25.814Z</time></trkpt><trkpt lat="43.6167111" lon="11.350631"><ele>558.0</ele><time>2026-03-22T09:27:26.814Z</time></trkpt><trkpt lat="43.6167251" lon="11.3507487"><ele>558.0</ele><time>2026-03-22T09:27:27.813Z</time></trkpt><trkpt lat="43.6167407" lon="11.3508698"><ele>558.0</ele><time>2026-03-22T09:27:28.813Z</time></trkpt><trkpt lat="43.6167546" lon="11.35099"><ele>558.0</ele><time>2026-03-22T09:27:29.813Z</time></trkpt><trkpt lat="43.6167616" lon="11.3511001"><ele>558.0</ele><time>2026-03-22T09:27:30.814Z</time></trkpt><trkpt lat="43.6167662" lon="11.3512058"><ele>558.0</ele><time>2026-03-22T09:27:31.814Z</time></trkpt><trkpt lat="43.6167988" lon="11.351294"><ele>558.0</ele><time>2026-03-22T09:27:32.814Z</time></trkpt><trkpt lat="43.6168776" lon="11.3513487"><ele>558.0</ele><time>2026-03-22T09:27:33.814Z</time></trkpt><trkpt lat="43.6169534" lon="11.351386"><ele>558.0</ele><time>2026-03-22T09:27:34.814Z</time></trkpt><trkpt lat="43.6170191" lon="11.3513999"><ele>554.4</ele><time>2026-03-22T09:27:35.813Z</time></trkpt><trkpt lat="43.6171164" lon="11.3514526"><ele>550.8</ele><time>2026-03-22T09:27:37.813Z</time></trkpt><trkpt lat="43.6171793" lon="11.3515363"><ele>547.2</ele><time>2026-03-22T09:27:39.814Z</time></trkpt><trkpt lat="43.6171829" lon="11.3517084"><ele>543.6</ele><time>2026-03-22T09:27:41.814Z</time></trkpt><trkpt lat="43.6172415" lon="11.3518588"><ele>540.0</ele><time>2026-03-22T09:27:43.813Z</time></trkpt><trkpt lat="43.6173178" lon="11.3519489"><ele>540.0</ele><time>2026-03-22T09:27:44.814Z</time></trkpt><trkpt lat="43.6173953" lon="11.3520272"><ele>540.0</ele><time>2026-03-22T09:27:45.813Z</time></trkpt><trkpt lat="43.617465" lon="11.3520888"><ele>540.0</ele><time>2026-03-22T09:27:46.813Z</time></trkpt><trkpt lat="43.6175167" lon="11.35216"><ele>540.0</ele><time>2026-03-22T09:27:47.813Z</time></trkpt><trkpt lat="43.6175549" lon="11.3522411"><ele>540.0</ele><time>2026-03-22T09:27:48.814Z</time></trkpt><trkpt lat="43.6175822" lon="11.3523461"><ele>540.0</ele><time>2026-03-22T09:27:49.813Z</time></trkpt><trkpt lat="43.6175884" lon="11.3524771"><ele>541.2</ele><time>2026-03-22T09:27:50.814Z</time></trkpt><trkpt lat="43.6175974" lon="11.3526061"><ele>542.4</ele><time>2026-03-22T09:27:51.814Z</time></trkpt><trkpt lat="43.6176109" lon="11.3527289"><ele>543.6</ele><time>2026-03-22T09:27:52.814Z</time></trkpt><trkpt lat="43.6176228" lon="11.3528557"><ele>544.8</ele><time>2026-03-22T09:27:53.813Z</time></trkpt><trkpt lat="43.6176401" lon="11.3529742"><ele>546.0</ele><time>2026-03-22T09:27:54.814Z</time></trkpt><trkpt lat="43.6176578" lon="11.3530952"><ele>546.0</ele><time>2026-03-22T09:27:55.814Z</time></trkpt><trkpt lat="43.6176666" lon="11.3531949"><ele>546.0</ele><time>2026-03-22T09:27:56.814Z</time></trkpt><trkpt lat="43.6176613" lon="11.3533111"><ele>546.0</ele><time>2026-03-22T09:27:57.814Z</time></trkpt><trkpt lat="43.6176421" lon="11.3534382"><ele>546.0</ele><time>2026-03-22T09:27:58.814Z</time></trkpt><trkpt lat="43.6176336" lon="11.3535681"><ele>546.0</ele><time>2026-03-22T09:27:59.813Z</time></trkpt><trkpt lat="43.6176299" lon="11.3537031"><ele>546.0</ele><time>2026-03-22T09:28:00.814Z</time></trkpt><trkpt lat="43.6176257" lon="11.3538374"><ele>543.6666666666666</ele><time>2026-03-22T09:28:01.814Z</time></trkpt><trkpt lat="43.6176133" lon="11.3539716"><ele>541.3333333333334</ele><time>2026-03-22T09:28:02.813Z</time></trkpt><trkpt lat="43.6176011" lon="11.3541006"><ele>539.0</ele><time>2026-03-22T09:28:03.813Z</time></trkpt><trkpt lat="43.6175871" lon="11.3542139"><ele>536.6666666666667</ele><time>2026-03-22T09:28:04.814Z</time></trkpt><trkpt lat="43.6175655" lon="11.3543335"><ele>534.3333333333334</ele><time>2026-03-22T09:28:05.814Z</time></trkpt><trkpt lat="43.6175455" lon="11.3544321"><ele>532.0</ele><time>2026-03-22T09:28:06.814Z</time></trkpt><trkpt lat="43.6175172" lon="11.3545248"><ele>532.0</ele><time>2026-03-22T09:28:07.813Z</time></trkpt><trkpt lat="43.6174843" lon="11.3546094"><ele>532.0</ele><time>2026-03-22T09:28:08.813Z</time></trkpt><trkpt lat="43.6174308" lon="11.3546759"><ele>532.0</ele><time>2026-03-22T09:28:09.814Z</time></trkpt><trkpt lat="43.6173573" lon="11.3548098"><ele>532.0</ele><time>2026-03-22T09:28:11.814Z</time></trkpt><trkpt lat="43.6173333" lon="11.3549"><ele>532.0</ele><time>2026-03-22T09:28:12.814Z</time></trkpt><trkpt lat="43.6173397" lon="11.3550167"><ele>532.0</ele><time>2026-03-22T09:28:13.814Z</time></trkpt><trkpt lat="43.6173775" lon="11.3551152"><ele>529.6666666666667</ele><time>2026-03-22T09:28:14.813Z</time></trkpt><trkpt lat="43.6174248" lon="11.3552153"><ele>527.3333333333334</ele><time>2026-03-22T09:28:15.814Z</time></trkpt><trkpt lat="43.6174747" lon="11.3553076"><ele>525.0</ele><time>2026-03-22T09:28:16.813Z</time></trkpt><trkpt lat="43.6174906" lon="11.3554149"><ele>522.6666666666666</ele><time>2026-03-22T09:28:17.814Z</time></trkpt><trkpt lat="43.6174899" lon="11.3555211"><ele>520.3333333333333</ele><time>2026-03-22T09:28:18.814Z</time></trkpt><trkpt lat="43.6174678" lon="11.3556163"><ele>518.0</ele><time>2026-03-22T09:28:19.813Z</time></trkpt><trkpt lat="43.6174122" lon="11.3557198"><ele>516.4</ele><time>2026-03-22T09:28:20.814Z</time></trkpt><trkpt lat="43.6173626" lon="11.3558192"><ele>514.8</ele><time>2026-03-22T09:28:21.814Z</time></trkpt><trkpt lat="43.6173092" lon="11.3559316"><ele>513.2</ele><time>2026-03-22T09:28:22.814Z</time></trkpt><trkpt lat="43.6172653" lon="11.356063"><ele>511.6</ele><time>2026-03-22T09:28:23.814Z</time></trkpt><trkpt lat="43.6172381" lon="11.356199"><ele>510.0</ele><time>2026-03-22T09:28:24.813Z</time></trkpt><trkpt lat="43.6172116" lon="11.3563296"><ele>508.0</ele><time>2026-03-22T09:28:25.814Z</time></trkpt><trkpt lat="43.617193" lon="11.3564394"><ele>506.0</ele><time>2026-03-22T09:28:26.814Z</time></trkpt><trkpt lat="43.6171629" lon="11.3565698"><ele>504.0</ele><time>2026-03-22T09:28:28.814Z</time></trkpt><trkpt lat="43.6171866" lon="11.3567101"><ele>502.0</ele><time>2026-03-22T09:28:30.813Z</time></trkpt><trkpt lat="43.6172801" lon="11.3568176"><ele>500.0</ele><time>2026-03-22T09:28:32.814Z</time></trkpt><trkpt lat="43.617349" lon="11.3568903"><ele>499.99999999999994</ele><time>2026-03-22T09:28:34.814Z</time></trkpt><trkpt lat="43.6173776" lon="11.3569684"><ele>500.0</ele><time>2026-03-22T09:28:35.814Z</time></trkpt><trkpt lat="43.6174068" lon="11.357069"><ele>500.0</ele><time>2026-03-22T09:28:36.813Z</time></trkpt><trkpt lat="43.6174062" lon="11.3571776"><ele>500.0</ele><time>2026-03-22T09:28:37.814Z</time></trkpt><trkpt lat="43.6174152" lon="11.3572893"><ele>499.99999999999994</ele><time>2026-03-22T09:28:38.814Z</time></trkpt><trkpt lat="43.6174251" lon="11.3574029"><ele>500.0</ele><time>2026-03-22T09:28:39.814Z</time></trkpt><trkpt lat="43.6174475" lon="11.3575209"><ele>499.16666666666663</ele><time>2026-03-22T09:28:40.814Z</time></trkpt><trkpt lat="43.6174625" lon="11.3576399"><ele>498.3333333333333</ele><time>2026-03-22T09:28:41.814Z</time></trkpt><trkpt lat="43.6174789" lon="11.3577666"><ele>497.5</ele><time>2026-03-22T09:28:42.814Z</time></trkpt><trkpt lat="43.6175001" lon="11.3578805"><ele>496.66666666666663</ele><time>2026-03-22T09:28:43.814Z</time></trkpt><trkpt lat="43.6175188" lon="11.3579915"><ele>495.8333333333333</ele><time>2026-03-22T09:28:44.813Z</time></trkpt><trkpt lat="43.6175409" lon="11.358101"><ele>495.0</ele><time>2026-03-22T09:28:45.814Z</time></trkpt><trkpt lat="43.6175596" lon="11.3582182"><ele>494.3333333333333</ele><time>2026-03-22T09:28:46.814Z</time></trkpt><trkpt lat="43.6175732" lon="11.358337"><ele>493.66666666666663</ele><time>2026-03-22T09:28:47.814Z</time></trkpt><trkpt lat="43.6175947" lon="11.358444"><ele>493.0</ele><time>2026-03-22T09:28:48.814Z</time></trkpt><trkpt lat="43.6176105" lon="11.3585559"><ele>492.3333333333333</ele><time>2026-03-22T09:28:49.814Z</time></trkpt><trkpt lat="43.6176224" lon="11.358642"><ele>491.66666666666663</ele><time>2026-03-22T09:28:50.814Z</time></trkpt><trkpt lat="43.6176506" lon="11.3588019"><ele>491.0</ele><time>2026-03-22T09:28:52.814Z</time></trkpt><trkpt lat="43.6176864" lon="11.3588767"><ele>490.8333333333333</ele><time>2026-03-22T09:28:53.814Z</time></trkpt><trkpt lat="43.6177567" lon="11.3589968"><ele>490.66666666666663</ele><time>2026-03-22T09:28:55.814Z</time></trkpt><trkpt lat="43.6178178" lon="11.3590806"><ele>490.5</ele><time>2026-03-22T09:28:57.814Z</time></trkpt><trkpt lat="43.6178809" lon="11.3591546"><ele>490.33333333333337</ele><time>2026-03-22T09:29:01.814Z</time></trkpt><trkpt lat="43.6178014" lon="11.3591579"><ele>490.1666666666667</ele><time>2026-03-22T09:30:50.815Z</time></trkpt><trkpt lat="43.6177395" lon="11.3592082"><ele>490.0</ele><time>2026-03-22T09:30:51.815Z</time></trkpt><trkpt lat="43.6176543" lon="11.3592129"><ele>490.0</ele><time>2026-03-22T09:30:52.815Z</time></trkpt><trkpt lat="43.6175611" lon="11.3591676"><ele>490.0</ele><time>2026-03-22T09:30:53.815Z</time></trkpt><trkpt lat="43.6174746" lon="11.3590705"><ele>490.0</ele><time>2026-03-22T09:30:54.814Z</time></trkpt><trkpt lat="43.617386" lon="11.358916"><ele>490.0</ele><time>2026-03-22T09:30:55.814Z</time></trkpt><trkpt lat="43.6172847" lon="11.3587767"><ele>490.25</ele><time>2026-03-22T09:30:56.815Z</time></trkpt><trkpt lat="43.617191" lon="11.3586189"><ele>490.5</ele><time>2026-03-22T09:30:57.815Z</time></trkpt><trkpt lat="43.61709" lon="11.3584625"><ele>490.75</ele><time>2026-03-22T09:30:58.815Z</time></trkpt><trkpt lat="43.6169953" lon="11.3583081"><ele>491.0</ele><time>2026-03-22T09:30:59.815Z</time></trkpt><trkpt lat="43.6169109" lon="11.3581634"><ele>492.25</ele><time>2026-03-22T09:31:00.815Z</time></trkpt><trkpt lat="43.616832" lon="11.3580287"><ele>493.5</ele><time>2026-03-22T09:31:01.814Z</time></trkpt><trkpt lat="43.616759" lon="11.3579027"><ele>494.75</ele><time>2026-03-22T09:31:02.815Z</time></trkpt><trkpt lat="43.6166827" lon="11.3577857"><ele>496.0</ele><time>2026-03-22T09:31:03.815Z</time></trkpt><trkpt lat="43.6165785" lon="11.3577131"><ele>496.0</ele><time>2026-03-22T09:31:04.815Z</time></trkpt><trkpt lat="43.6164133" lon="11.3577837"><ele>496.0</ele><time>2026-03-22T09:31:05.815Z</time></trkpt><trkpt lat="43.6162623" lon="11.3578735"><ele>496.0</ele><time>2026-03-22T09:31:06.814Z</time></trkpt><trkpt lat="43.6161262" lon="11.3579694"><ele>490.5</ele><time>2026-03-22T09:31:07.815Z</time></trkpt><trkpt lat="43.6160027" lon="11.3580618"><ele>485.0</ele><time>2026-03-22T09:31:08.814Z</time></trkpt><trkpt lat="43.6158825" lon="11.3581336"><ele>479.5</ele><time>2026-03-22T09:31:09.815Z</time></trkpt><trkpt lat="43.615758" lon="11.3581735"><ele>474.0</ele><time>2026-03-22T09:31:10.814Z</time></trkpt><trkpt lat="43.6156372" lon="11.3581982"><ele>474.0</ele><time>2026-03-22T09:31:11.815Z</time></trkpt><trkpt lat="43.6154975" lon="11.3581768"><ele>474.0</ele><time>2026-03-22T09:31:12.815Z</time></trkpt><trkpt lat="43.6153682" lon="11.3581482"><ele>474.0</ele><time>2026-03-22T09:31:13.814Z</time></trkpt><trkpt lat="43.6152391" lon="11.3581882"><ele>474.0</ele><time>2026-03-22T09:31:14.815Z</time></trkpt><trkpt lat="43.6151231" lon="11.3582851"><ele>474.5</ele><time>2026-03-22T09:31:15.815Z</time></trkpt><trkpt lat="43.6150145" lon="11.3583577"><ele>475.0</ele><time>2026-03-22T09:31:16.815Z</time></trkpt><trkpt lat="43.6148931" lon="11.3583815"><ele>475.5</ele><time>2026-03-22T09:31:17.815Z</time></trkpt><trkpt lat="43.6147502" lon="11.3583646"><ele>476.0</ele><time>2026-03-22T09:31:18.815Z</time></trkpt><trkpt lat="43.6145857" lon="11.3583581"><ele>475.0</ele><time>2026-03-22T09:31:19.815Z</time></trkpt><trkpt lat="43.6144153" lon="11.358347"><ele>474.0</ele><time>2026-03-22T09:31:20.814Z</time></trkpt><trkpt lat="43.6142554" lon="11.3583275"><ele>473.0</ele><time>2026-03-22T09:31:21.815Z</time></trkpt><trkpt lat="43.6141042" lon="11.3583089"><ele>473.0</ele><time>2026-03-22T09:31:22.815Z</time></trkpt><trkpt lat="43.6139611" lon="11.3582967"><ele>473.0</ele><time>2026-03-22T09:31:23.814Z</time></trkpt><trkpt lat="43.6138196" lon="11.3582917"><ele>473.0</ele><time>2026-03-22T09:31:24.815Z</time></trkpt><trkpt lat="43.6136832" lon="11.358313"><ele>473.0</ele><time>2026-03-22T09:31:25.815Z</time></trkpt><trkpt lat="43.613563" lon="11.3584363"><ele>475.66666666666663</ele><time>2026-03-22T09:31:26.815Z</time></trkpt><trkpt lat="43.6134448" lon="11.3585905"><ele>478.33333333333337</ele><time>2026-03-22T09:31:27.815Z</time></trkpt><trkpt lat="43.6133283" lon="11.3587824"><ele>481.0</ele><time>2026-03-22T09:31:28.815Z</time></trkpt><trkpt lat="43.6132081" lon="11.358939"><ele>479.75</ele><time>2026-03-22T09:31:29.814Z</time></trkpt><trkpt lat="43.6130933" lon="11.3590627"><ele>478.5</ele><time>2026-03-22T09:31:30.814Z</time></trkpt><trkpt lat="43.6129832" lon="11.359171"><ele>477.25</ele><time>2026-03-22T09:31:31.815Z</time></trkpt><trkpt lat="43.6128655" lon="11.3592903"><ele>476.0</ele><time>2026-03-22T09:31:32.815Z</time></trkpt><trkpt lat="43.6127512" lon="11.3593941"><ele>476.0</ele><time>2026-03-22T09:31:33.815Z</time></trkpt><trkpt lat="43.6126369" lon="11.3594725"><ele>476.0</ele><time>2026-03-22T09:31:34.815Z</time></trkpt><trkpt lat="43.6125154" lon="11.3595303"><ele>476.0</ele><time>2026-03-22T09:31:35.814Z</time></trkpt><trkpt lat="43.612407" lon="11.3595863"><ele>476.0</ele><time>2026-03-22T09:31:36.815Z</time></trkpt><trkpt lat="43.612289" lon="11.3596622"><ele>472.5</ele><time>2026-03-22T09:31:37.815Z</time></trkpt><trkpt lat="43.612171" lon="11.3597594"><ele>469.0</ele><time>2026-03-22T09:31:38.814Z</time></trkpt><trkpt lat="43.6120504" lon="11.3598597"><ele>465.5</ele><time>2026-03-22T09:31:39.815Z</time></trkpt><trkpt lat="43.6119272" lon="11.3599597"><ele>462.0</ele><time>2026-03-22T09:31:40.815Z</time></trkpt><trkpt lat="43.6117897" lon="11.3600616"><ele>462.0</ele><time>2026-03-22T09:31:41.815Z</time></trkpt><trkpt lat="43.6116451" lon="11.3601617"><ele>462.0</ele><time>2026-03-22T09:31:42.815Z</time></trkpt><trkpt lat="43.6115025" lon="11.3602556"><ele>462.0</ele><time>2026-03-22T09:31:43.815Z</time></trkpt><trkpt lat="43.611376" lon="11.360354"><ele>462.0</ele><time>2026-03-22T09:31:44.815Z</time></trkpt><trkpt lat="43.6112554" lon="11.3604519"><ele>462.0</ele><time>2026-03-22T09:31:45.815Z</time></trkpt><trkpt lat="43.6111467" lon="11.3605675"><ele>462.0</ele><time>2026-03-22T09:31:46.815Z</time></trkpt><trkpt lat="43.6110805" lon="11.3606992"><ele>462.0</ele><time>2026-03-22T09:31:47.815Z</time></trkpt><trkpt lat="43.6110272" lon="11.3608477"><ele>460.5</ele><time>2026-03-22T09:31:48.815Z</time></trkpt><trkpt lat="43.6109626" lon="11.3609888"><ele>459.0</ele><time>2026-03-22T09:31:49.815Z</time></trkpt><trkpt lat="43.6108878" lon="11.361094"><ele>457.5</ele><time>2026-03-22T09:31:50.815Z</time></trkpt><trkpt lat="43.6107848" lon="11.3611662"><ele>456.0</ele><time>2026-03-22T09:31:51.815Z</time></trkpt><trkpt lat="43.6106563" lon="11.3612008"><ele>456.0</ele><time>2026-03-22T09:31:52.815Z</time></trkpt><trkpt lat="43.6105288" lon="11.361215"><ele>456.0</ele><time>2026-03-22T09:31:53.815Z</time></trkpt><trkpt lat="43.6104013" lon="11.3612323"><ele>456.0</ele><time>2026-03-22T09:31:54.815Z</time></trkpt><trkpt lat="43.6102938" lon="11.3613061"><ele>456.0</ele><time>2026-03-22T09:31:55.814Z</time></trkpt><trkpt lat="43.6102272" lon="11.3614499"><ele>455.33333333333337</ele><time>2026-03-22T09:31:56.815Z</time></trkpt><trkpt lat="43.6101616" lon="11.3616528"><ele>454.6666666666667</ele><time>2026-03-22T09:31:57.815Z</time></trkpt><trkpt lat="43.6101175" lon="11.3618639"><ele>454.0</ele><time>2026-03-22T09:31:58.814Z</time></trkpt><trkpt lat="43.6100283" lon="11.3620777"><ele>450.33333333333337</ele><time>2026-03-22T09:31:59.815Z</time></trkpt><trkpt lat="43.6099226" lon="11.3622876"><ele>446.66666666666663</ele><time>2026-03-22T09:32:00.815Z</time></trkpt><trkpt lat="43.6098135" lon="11.362495"><ele>443.0</ele><time>2026-03-22T09:32:01.814Z</time></trkpt><trkpt lat="43.6097049" lon="11.3627014"><ele>443.0</ele><time>2026-03-22T09:32:02.814Z</time></trkpt><trkpt lat="43.6096211" lon="11.3629134"><ele>443.0</ele><time>2026-03-22T09:32:03.815Z</time></trkpt><trkpt lat="43.6095586" lon="11.363126"><ele>443.0</ele><time>2026-03-22T09:32:04.815Z</time></trkpt><trkpt lat="43.6095286" lon="11.3633361"><ele>442.25</ele><time>2026-03-22T09:32:05.815Z</time></trkpt><trkpt lat="43.6095144" lon="11.3635392"><ele>441.5</ele><time>2026-03-22T09:32:06.815Z</time></trkpt><trkpt lat="43.6094757" lon="11.3637303"><ele>440.75</ele><time>2026-03-22T09:32:07.814Z</time></trkpt><trkpt lat="43.6093932" lon="11.3639059"><ele>440.0</ele><time>2026-03-22T09:32:08.815Z</time></trkpt><trkpt lat="43.6092785" lon="11.3640389"><ele>440.0</ele><time>2026-03-22T09:32:09.815Z</time></trkpt><trkpt lat="43.6091378" lon="11.364107"><ele>440.0</ele><time>2026-03-22T09:32:10.815Z</time></trkpt><trkpt lat="43.6089962" lon="11.3641318"><ele>440.0</ele><time>2026-03-22T09:32:11.815Z</time></trkpt><trkpt lat="43.608848" lon="11.3640764"><ele>440.0</ele><time>2026-03-22T09:32:12.814Z</time></trkpt><trkpt lat="43.6087182" lon="11.3639691"><ele>439.66666666666663</ele><time>2026-03-22T09:32:13.815Z</time></trkpt><trkpt lat="43.6085869" lon="11.3638848"><ele>439.33333333333337</ele><time>2026-03-22T09:32:14.815Z</time></trkpt><trkpt lat="43.6084453" lon="11.36389"><ele>439.0</ele><time>2026-03-22T09:32:15.814Z</time></trkpt><trkpt lat="43.608294" lon="11.3639821"><ele>439.0</ele><time>2026-03-22T09:32:16.815Z</time></trkpt><trkpt lat="43.6081496" lon="11.3641268"><ele>439.0</ele><time>2026-03-22T09:32:17.814Z</time></trkpt><trkpt lat="43.6079931" lon="11.3642576"><ele>439.0</ele><time>2026-03-22T09:32:18.815Z</time></trkpt><trkpt lat="43.6078345" lon="11.3643651"><ele>441.33333333333337</ele><time>2026-03-22T09:32:19.815Z</time></trkpt><trkpt lat="43.6076875" lon="11.3644778"><ele>443.66666666666663</ele><time>2026-03-22T09:32:20.814Z</time></trkpt><trkpt lat="43.6075464" lon="11.3646012"><ele>446.0</ele><time>2026-03-22T09:32:21.814Z</time></trkpt><trkpt lat="43.6073905" lon="11.3647164"><ele>443.0</ele><time>2026-03-22T09:32:22.815Z</time></trkpt><trkpt lat="43.6072374" lon="11.3647883"><ele>440.0</ele><time>2026-03-22T09:32:23.814Z</time></trkpt><trkpt lat="43.6071028" lon="11.3648035"><ele>437.0</ele><time>2026-03-22T09:32:24.815Z</time></trkpt><trkpt lat="43.6069793" lon="11.3647604"><ele>434.0</ele><time>2026-03-22T09:32:25.815Z</time></trkpt><trkpt lat="43.6069036" lon="11.3647535"><ele>434.0</ele><time>2026-03-22T09:32:26.815Z</time></trkpt><trkpt lat="43.6068397" lon="11.3648353"><ele>434.0</ele><time>2026-03-22T09:32:27.815Z</time></trkpt><trkpt lat="43.6068144" lon="11.3649636"><ele>434.0</ele><time>2026-03-22T09:32:28.815Z</time></trkpt><trkpt lat="43.6068421" lon="11.3651505"><ele>434.0</ele><time>2026-03-22T09:32:29.815Z</time></trkpt><trkpt lat="43.6068665" lon="11.3653241"><ele>430.0</ele><time>2026-03-22T09:32:30.815Z</time></trkpt><trkpt lat="43.60685" lon="11.3655398"><ele>426.0</ele><time>2026-03-22T09:32:31.815Z</time></trkpt><trkpt lat="43.6067953" lon="11.365748"><ele>422.0</ele><time>2026-03-22T09:32:32.814Z</time></trkpt><trkpt lat="43.6066973" lon="11.3659356"><ele>422.0</ele><time>2026-03-22T09:32:33.815Z</time></trkpt><trkpt lat="43.6065731" lon="11.3661056"><ele>422.0</ele><time>2026-03-22T09:32:34.815Z</time></trkpt><trkpt lat="43.6064422" lon="11.3662547"><ele>422.0</ele><time>2026-03-22T09:32:35.815Z</time></trkpt><trkpt lat="43.6063049" lon="11.366366"><ele>420.75</ele><time>2026-03-22T09:32:36.815Z</time></trkpt><trkpt lat="43.6061701" lon="11.3664354"><ele>419.5</ele><time>2026-03-22T09:32:37.814Z</time></trkpt><trkpt lat="43.6060472" lon="11.3664563"><ele>418.25</ele><time>2026-03-22T09:32:38.815Z</time></trkpt><trkpt lat="43.605925" lon="11.366404"><ele>417.0</ele><time>2026-03-22T09:32:39.814Z</time></trkpt><trkpt lat="43.6058115" lon="11.3663462"><ele>417.0</ele><time>2026-03-22T09:32:40.815Z</time></trkpt><trkpt lat="43.6056999" lon="11.3663223"><ele>417.0</ele><time>2026-03-22T09:32:41.815Z</time></trkpt><trkpt lat="43.6056016" lon="11.3663458"><ele>417.0</ele><time>2026-03-22T09:32:42.814Z</time></trkpt><trkpt lat="43.6055416" lon="11.3664582"><ele>417.0</ele><time>2026-03-22T09:32:43.815Z</time></trkpt><trkpt lat="43.605543" lon="11.3666108"><ele>417.0</ele><time>2026-03-22T09:32:44.815Z</time></trkpt><trkpt lat="43.6055863" lon="11.3667868"><ele>417.0</ele><time>2026-03-22T09:32:45.815Z</time></trkpt><trkpt lat="43.6056447" lon="11.3669712"><ele>417.0</ele><time>2026-03-22T09:32:46.814Z</time></trkpt><trkpt lat="43.6056932" lon="11.3671433"><ele>417.0</ele><time>2026-03-22T09:32:47.815Z</time></trkpt><trkpt lat="43.6057043" lon="11.3673224"><ele>417.0</ele><time>2026-03-22T09:32:48.815Z</time></trkpt><trkpt lat="43.6056814" lon="11.3674971"><ele>413.0</ele><time>2026-03-22T09:32:49.815Z</time></trkpt><trkpt lat="43.6056096" lon="11.3676733"><ele>409.0</ele><time>2026-03-22T09:32:50.815Z</time></trkpt><trkpt lat="43.6055011" lon="11.3678404"><ele>405.0</ele><time>2026-03-22T09:32:51.814Z</time></trkpt><trkpt lat="43.6053513" lon="11.3679672"><ele>404.66666666666663</ele><time>2026-03-22T09:32:52.815Z</time></trkpt><trkpt lat="43.6052022" lon="11.3680777"><ele>404.3333333333333</ele><time>2026-03-22T09:32:53.815Z</time></trkpt><trkpt lat="43.6050307" lon="11.3681384"><ele>404.0</ele><time>2026-03-22T09:32:54.814Z</time></trkpt><trkpt lat="43.6048539" lon="11.3681475"><ele>404.0</ele><time>2026-03-22T09:32:55.814Z</time></trkpt><trkpt lat="43.6046901" lon="11.3681621"><ele>404.0</ele><time>2026-03-22T09:32:56.814Z</time></trkpt><trkpt lat="43.6045363" lon="11.3682033"><ele>404.0</ele><time>2026-03-22T09:32:57.815Z</time></trkpt><trkpt lat="43.6044041" lon="11.3682684"><ele>406.25</ele><time>2026-03-22T09:32:58.815Z</time></trkpt><trkpt lat="43.6042887" lon="11.3683329"><ele>408.5</ele><time>2026-03-22T09:32:59.814Z</time></trkpt><trkpt lat="43.6041897" lon="11.368419"><ele>410.75</ele><time>2026-03-22T09:33:00.815Z</time></trkpt><trkpt lat="43.6041328" lon="11.3685305"><ele>413.0</ele><time>2026-03-22T09:33:01.815Z</time></trkpt><trkpt lat="43.6041118" lon="11.3687187"><ele>412.75</ele><time>2026-03-22T09:33:02.814Z</time></trkpt><trkpt lat="43.6041677" lon="11.3688861"><ele>412.5</ele><time>2026-03-22T09:33:03.815Z</time></trkpt><trkpt lat="43.604247" lon="11.369038"><ele>412.25</ele><time>2026-03-22T09:33:04.814Z</time></trkpt><trkpt lat="43.6043158" lon="11.3691898"><ele>412.0</ele><time>2026-03-22T09:33:05.814Z</time></trkpt><trkpt lat="43.6043404" lon="11.3693648"><ele>412.0</ele><time>2026-03-22T09:33:06.815Z</time></trkpt><trkpt lat="43.6043124" lon="11.3695703"><ele>412.0</ele><time>2026-03-22T09:33:07.815Z</time></trkpt><trkpt lat="43.6042953" lon="11.3697623"><ele>412.0</ele><time>2026-03-22T09:33:08.815Z</time></trkpt><trkpt lat="43.6043445" lon="11.3699755"><ele>414.6666666666667</ele><time>2026-03-22T09:33:09.814Z</time></trkpt><trkpt lat="43.6044377" lon="11.3701309"><ele>417.33333333333337</ele><time>2026-03-22T09:33:10.815Z</time></trkpt><trkpt lat="43.6045174" lon="11.3702997"><ele>420.0</ele><time>2026-03-22T09:33:11.815Z</time></trkpt><trkpt lat="43.6045632" lon="11.3705118"><ele>412.66666666666663</ele><time>2026-03-22T09:33:12.815Z</time></trkpt><trkpt lat="43.6045857" lon="11.3707394"><ele>405.3333333333333</ele><time>2026-03-22T09:33:13.815Z</time></trkpt><trkpt lat="43.6045887" lon="11.3709499"><ele>398.0</ele><time>2026-03-22T09:33:14.814Z</time></trkpt><trkpt lat="43.6045669" lon="11.3711417"><ele>398.0</ele><time>2026-03-22T09:33:15.815Z</time></trkpt><trkpt lat="43.6045033" lon="11.3713191"><ele>398.0</ele><time>2026-03-22T09:33:16.814Z</time></trkpt><trkpt lat="43.6043842" lon="11.3714663"><ele>398.0</ele><time>2026-03-22T09:33:17.814Z</time></trkpt><trkpt lat="43.6042299" lon="11.3715497"><ele>401.5</ele><time>2026-03-22T09:33:18.815Z</time></trkpt><trkpt lat="43.6040744" lon="11.3715905"><ele>405.0</ele><time>2026-03-22T09:33:19.815Z</time></trkpt><trkpt lat="43.6039509" lon="11.3716621"><ele>408.5</ele><time>2026-03-22T09:33:20.815Z</time></trkpt><trkpt lat="43.6038748" lon="11.3718044"><ele>412.0</ele><time>2026-03-22T09:33:21.815Z</time></trkpt><trkpt lat="43.6038636" lon="11.3719844"><ele>412.0</ele><time>2026-03-22T09:33:22.815Z</time></trkpt><trkpt lat="43.6038627" lon="11.3721639"><ele>412.0</ele><time>2026-03-22T09:33:23.814Z</time></trkpt><trkpt lat="43.6038096" lon="11.3723233"><ele>412.0</ele><time>2026-03-22T09:33:24.815Z</time></trkpt><trkpt lat="43.6036872" lon="11.3724386"><ele>412.0</ele><time>2026-03-22T09:33:25.815Z</time></trkpt><trkpt lat="43.6035398" lon="11.3725174"><ele>414.40000000000003</ele><time>2026-03-22T09:33:26.814Z</time></trkpt><trkpt lat="43.6034166" lon="11.3726041"><ele>416.8</ele><time>2026-03-22T09:33:27.815Z</time></trkpt><trkpt lat="43.6033109" lon="11.3726799"><ele>419.2</ele><time>2026-03-22T09:33:28.815Z</time></trkpt><trkpt lat="43.6032312" lon="11.3727563"><ele>421.6</ele><time>2026-03-22T09:33:29.815Z</time></trkpt><trkpt lat="43.6031721" lon="11.3728306"><ele>424.0</ele><time>2026-03-22T09:33:30.815Z</time></trkpt><trkpt lat="43.6030909" lon="11.3729239"><ele>424.00000000000006</ele><time>2026-03-22T09:33:32.814Z</time></trkpt><trkpt lat="43.6030278" lon="11.3729879"><ele>424.0</ele><time>2026-03-22T09:33:34.815Z</time></trkpt><trkpt lat="43.6029629" lon="11.3730388"><ele>424.0</ele><time>2026-03-22T09:33:36.814Z</time></trkpt><trkpt lat="43.6028224" lon="11.3730616"><ele>424.0</ele><time>2026-03-22T09:33:38.815Z</time></trkpt><trkpt lat="43.6027545" lon="11.3730573"><ele>424.00000000000006</ele><time>2026-03-22T09:33:39.815Z</time></trkpt><trkpt lat="43.6026917" lon="11.373043"><ele>424.0</ele><time>2026-03-22T09:33:40.814Z</time></trkpt><trkpt lat="43.6026041" lon="11.37295"><ele>424.00000000000006</ele><time>2026-03-22T09:33:42.815Z</time></trkpt><trkpt lat="43.6026236" lon="11.3728534"><ele>424.0</ele><time>2026-03-22T09:33:43.814Z</time></trkpt><trkpt lat="43.6026563" lon="11.372751"><ele>424.0</ele><time>2026-03-22T09:33:44.814Z</time></trkpt><trkpt lat="43.6027028" lon="11.3726567"><ele>424.0</ele><time>2026-03-22T09:33:45.815Z</time></trkpt><trkpt lat="43.602763" lon="11.3725707"><ele>424.00000000000006</ele><time>2026-03-22T09:33:46.815Z</time></trkpt><trkpt lat="43.6028404" lon="11.3724935"><ele>424.0</ele><time>2026-03-22T09:33:47.814Z</time></trkpt><trkpt lat="43.6029186" lon="11.3724133"><ele>424.0</ele><time>2026-03-22T09:33:48.815Z</time></trkpt><trkpt lat="43.6029978" lon="11.372316"><ele>424.0</ele><time>2026-03-22T09:33:49.815Z</time></trkpt><trkpt lat="43.6030702" lon="11.3722222"><ele>424.0</ele><time>2026-03-22T09:33:50.815Z</time></trkpt><trkpt lat="43.6031234" lon="11.3721094"><ele>424.0</ele><time>2026-03-22T09:33:51.814Z</time></trkpt><trkpt lat="43.6031717" lon="11.3719785"><ele>424.0</ele><time>2026-03-22T09:33:52.815Z</time></trkpt><trkpt lat="43.6032016" lon="11.3718606"><ele>425.79999999999995</ele><time>2026-03-22T09:33:53.814Z</time></trkpt><trkpt lat="43.6032102" lon="11.3717499"><ele>427.59999999999997</ele><time>2026-03-22T09:33:54.815Z</time></trkpt><trkpt lat="43.6032063" lon="11.3716276"><ele>429.4</ele><time>2026-03-22T09:33:55.814Z</time></trkpt><trkpt lat="43.6031982" lon="11.3714974"><ele>431.2</ele><time>2026-03-22T09:33:56.815Z</time></trkpt><trkpt lat="43.6031897" lon="11.3713539"><ele>433.0</ele><time>2026-03-22T09:33:57.815Z</time></trkpt><trkpt lat="43.6031775" lon="11.371217"><ele>435.1666666666667</ele><time>2026-03-22T09:33:58.814Z</time></trkpt><trkpt lat="43.6031703" lon="11.3710852"><ele>437.33333333333337</ele><time>2026-03-22T09:33:59.815Z</time></trkpt><trkpt lat="43.6031687" lon="11.3709723"><ele>439.5</ele><time>2026-03-22T09:34:00.815Z</time></trkpt><trkpt lat="43.6031668" lon="11.3708813"><ele>441.66666666666663</ele><time>2026-03-22T09:34:01.814Z</time></trkpt><trkpt lat="43.6031121" lon="11.3707898"><ele>443.8333333333333</ele><time>2026-03-22T09:34:03.815Z</time></trkpt><trkpt lat="43.6030247" lon="11.3708289"><ele>446.0</ele><time>2026-03-22T09:34:05.815Z</time></trkpt><trkpt lat="43.6029961" lon="11.3709105"><ele>446.0</ele><time>2026-03-22T09:34:06.815Z</time></trkpt><trkpt lat="43.6029488" lon="11.3710736"><ele>446.0</ele><time>2026-03-22T09:34:07.815Z</time></trkpt><trkpt lat="43.602898" lon="11.3712046"><ele>446.0</ele><time>2026-03-22T09:34:08.814Z</time></trkpt><trkpt lat="43.6028546" lon="11.3713102"><ele>446.0</ele><time>2026-03-22T09:34:09.815Z</time></trkpt><trkpt lat="43.602809" lon="11.3713792"><ele>446.0</ele><time>2026-03-22T09:34:10.815Z</time></trkpt><trkpt lat="43.6027402" lon="11.3714202"><ele>446.49999999999994</ele><time>2026-03-22T09:34:12.815Z</time></trkpt><trkpt lat="43.6026719" lon="11.3713675"><ele>447.0</ele><time>2026-03-22T09:34:14.815Z</time></trkpt><trkpt lat="43.6026503" lon="11.3712063"><ele>447.5</ele><time>2026-03-22T09:34:16.814Z</time></trkpt><trkpt lat="43.6026561" lon="11.3711101"><ele>448.0</ele><time>2026-03-22T09:34:17.815Z</time></trkpt><trkpt lat="43.6026702" lon="11.3710238"><ele>448.49999999999994</ele><time>2026-03-22T09:34:18.815Z</time></trkpt><trkpt lat="43.602693" lon="11.370864"><ele>449.0</ele><time>2026-03-22T09:34:20.815Z</time></trkpt><trkpt lat="43.6026976" lon="11.3707598"><ele>451.3333333333333</ele><time>2026-03-22T09:34:21.815Z</time></trkpt><trkpt lat="43.6027048" lon="11.3706247"><ele>453.66666666666663</ele><time>2026-03-22T09:34:22.815Z</time></trkpt><trkpt lat="43.6027155" lon="11.3705014"><ele>456.0</ele><time>2026-03-22T09:34:23.814Z</time></trkpt><trkpt lat="43.602724" lon="11.3703918"><ele>458.33333333333337</ele><time>2026-03-22T09:34:24.815Z</time></trkpt><trkpt lat="43.6027268" lon="11.3702984"><ele>460.6666666666667</ele><time>2026-03-22T09:34:25.815Z</time></trkpt><trkpt lat="43.6026886" lon="11.3701602"><ele>463.0</ele><time>2026-03-22T09:34:27.814Z</time></trkpt><trkpt lat="43.6026014" lon="11.3700548"><ele>463.00000000000006</ele><time>2026-03-22T09:34:29.815Z</time></trkpt><trkpt lat="43.6025335" lon="11.369992"><ele>463.0</ele><time>2026-03-22T09:34:30.815Z</time></trkpt><trkpt lat="43.6024673" lon="11.369947"><ele>463.0</ele><time>2026-03-22T09:34:31.814Z</time></trkpt><trkpt lat="43.6024002" lon="11.3699048"><ele>463.0</ele><time>2026-03-22T09:34:32.814Z</time></trkpt><trkpt lat="43.6023363" lon="11.3698424"><ele>463.00000000000006</ele><time>2026-03-22T09:34:33.814Z</time></trkpt><trkpt lat="43.602278" lon="11.3697547"><ele>463.0</ele><time>2026-03-22T09:34:34.814Z</time></trkpt><trkpt lat="43.6022233" lon="11.3696606"><ele>463.0</ele><time>2026-03-22T09:34:35.815Z</time></trkpt><trkpt lat="43.6021729" lon="11.3695689"><ele>462.99999999999994</ele><time>2026-03-22T09:34:36.815Z</time></trkpt><trkpt lat="43.6021234" lon="11.3694811"><ele>462.99999999999994</ele><time>2026-03-22T09:34:37.814Z</time></trkpt><trkpt lat="43.6020369" lon="11.3693846"><ele>463.0</ele><time>2026-03-22T09:34:39.815Z</time></trkpt><trkpt lat="43.601954" lon="11.3693547"><ele>463.0</ele><time>2026-03-22T09:34:40.815Z</time></trkpt><trkpt lat="43.6018579" lon="11.3693149"><ele>466.50000000000006</ele><time>2026-03-22T09:34:41.815Z</time></trkpt><trkpt lat="43.6017706" lon="11.36925"><ele>470.0</ele><time>2026-03-22T09:34:42.815Z</time></trkpt><trkpt lat="43.6016885" lon="11.3691804"><ele>473.5</ele><time>2026-03-22T09:34:43.815Z</time></trkpt><trkpt lat="43.6016238" lon="11.3691147"><ele>477.0</ele><time>2026-03-22T09:34:44.815Z</time></trkpt><trkpt lat="43.6015703" lon="11.3690502"><ele>480.50000000000006</ele><time>2026-03-22T09:34:45.815Z</time></trkpt><trkpt lat="43.6015127" lon="11.3689824"><ele>484.0</ele><time>2026-03-22T09:34:46.815Z</time></trkpt><trkpt lat="43.6014546" lon="11.3689004"><ele>482.0</ele><time>2026-03-22T09:34:47.815Z</time></trkpt><trkpt lat="43.6013921" lon="11.3688011"><ele>480.0</ele><time>2026-03-22T09:34:48.814Z</time></trkpt><trkpt lat="43.6013299" lon="11.3686977"><ele>478.0</ele><time>2026-03-22T09:34:49.815Z</time></trkpt><trkpt lat="43.6012656" lon="11.3685934"><ele>476.0</ele><time>2026-03-22T09:34:50.815Z</time></trkpt><trkpt lat="43.6012044" lon="11.3684996"><ele>474.0</ele><time>2026-03-22T09:34:51.815Z</time></trkpt><trkpt lat="43.6011432" lon="11.3684134"><ele>478.6</ele><time>2026-03-22T09:34:52.815Z</time></trkpt><trkpt lat="43.601078" lon="11.3683355"><ele>483.2</ele><time>2026-03-22T09:34:53.815Z</time></trkpt><trkpt lat="43.6010113" lon="11.3682634"><ele>487.80000000000007</ele><time>2026-03-22T09:34:54.815Z</time></trkpt><trkpt lat="43.600941" lon="11.3682002"><ele>492.40000000000003</ele><time>2026-03-22T09:34:55.815Z</time></trkpt><trkpt lat="43.6008522" lon="11.3681279"><ele>497.0</ele><time>2026-03-22T09:34:56.815Z</time></trkpt><trkpt lat="43.6007688" lon="11.3680532"><ele>495.20000000000005</ele><time>2026-03-22T09:34:57.814Z</time></trkpt><trkpt lat="43.6006836" lon="11.3679784"><ele>493.40000000000003</ele><time>2026-03-22T09:34:58.815Z</time></trkpt><trkpt lat="43.6006066" lon="11.3678911"><ele>491.59999999999997</ele><time>2026-03-22T09:34:59.815Z</time></trkpt><trkpt lat="43.6005354" lon="11.3677904"><ele>489.79999999999995</ele><time>2026-03-22T09:35:00.815Z</time></trkpt><trkpt lat="43.6004797" lon="11.3676916"><ele>488.0</ele><time>2026-03-22T09:35:01.815Z</time></trkpt><trkpt lat="43.6004394" lon="11.3676006"><ele>488.0</ele><time>2026-03-22T09:35:02.814Z</time></trkpt><trkpt lat="43.6003922" lon="11.3674968"><ele>487.99999999999994</ele><time>2026-03-22T09:35:03.815Z</time></trkpt><trkpt lat="43.600343" lon="11.3674136"><ele>487.99999999999994</ele><time>2026-03-22T09:35:04.814Z</time></trkpt><trkpt lat="43.6002246" lon="11.3673254"><ele>488.0</ele><time>2026-03-22T09:35:06.815Z</time></trkpt><trkpt lat="43.6001327" lon="11.3672804"><ele>488.0</ele><time>2026-03-22T09:35:07.815Z</time></trkpt><trkpt lat="43.6000407" lon="11.3672347"><ele>490.16666666666663</ele><time>2026-03-22T09:35:08.815Z</time></trkpt><trkpt lat="43.5999338" lon="11.3671895"><ele>492.3333333333333</ele><time>2026-03-22T09:35:09.815Z</time></trkpt><trkpt lat="43.5998431" lon="11.3671597"><ele>494.5</ele><time>2026-03-22T09:35:10.815Z</time></trkpt><trkpt lat="43.5997742" lon="11.3671217"><ele>496.66666666666663</ele><time>2026-03-22T09:35:11.815Z</time></trkpt><trkpt lat="43.5997158" lon="11.3670576"><ele>498.8333333333333</ele><time>2026-03-22T09:35:12.815Z</time></trkpt><trkpt lat="43.5996571" lon="11.3669928"><ele>501.0</ele><time>2026-03-22T09:35:13.815Z</time></trkpt><trkpt lat="43.5996097" lon="11.366926"><ele>501.0</ele><time>2026-03-22T09:35:14.814Z</time></trkpt><trkpt lat="43.5995796" lon="11.3668415"><ele>501.0</ele><time>2026-03-22T09:35:15.814Z</time></trkpt><trkpt lat="43.5995658" lon="11.366725"><ele>501.0</ele><time>2026-03-22T09:35:16.815Z</time></trkpt><trkpt lat="43.5995701" lon="11.3666176"><ele>501.0</ele><time>2026-03-22T09:35:17.815Z</time></trkpt><trkpt lat="43.5995576" lon="11.3665274"><ele>501.0</ele><time>2026-03-22T09:35:18.815Z</time></trkpt><trkpt lat="43.5995362" lon="11.3664416"><ele>501.0</ele><time>2026-03-22T09:35:19.815Z</time></trkpt><trkpt lat="43.5995152" lon="11.3663553"><ele>501.0</ele><time>2026-03-22T09:35:20.815Z</time></trkpt><trkpt lat="43.5995035" lon="11.3662427"><ele>504.6</ele><time>2026-03-22T09:35:21.814Z</time></trkpt><trkpt lat="43.5994933" lon="11.3660805"><ele>508.20000000000005</ele><time>2026-03-22T09:35:22.814Z</time></trkpt><trkpt lat="43.5994877" lon="11.365941"><ele>511.79999999999995</ele><time>2026-03-22T09:35:23.815Z</time></trkpt><trkpt lat="43.5994875" lon="11.365825"><ele>515.4</ele><time>2026-03-22T09:35:24.815Z</time></trkpt><trkpt lat="43.599475" lon="11.365705"><ele>519.0</ele><time>2026-03-22T09:35:25.815Z</time></trkpt><trkpt lat="43.5994441" lon="11.3656128"><ele>519.0</ele><time>2026-03-22T09:35:26.815Z</time></trkpt><trkpt lat="43.5993919" lon="11.3654703"><ele>519.0</ele><time>2026-03-22T09:35:28.815Z</time></trkpt><trkpt lat="43.5993375" lon="11.3653888"><ele>519.0</ele><time>2026-03-22T09:35:29.815Z</time></trkpt><trkpt lat="43.5992603" lon="11.3653103"><ele>519.0</ele><time>2026-03-22T09:35:30.814Z</time></trkpt><trkpt lat="43.5991928" lon="11.3652359"><ele>519.0</ele><time>2026-03-22T09:35:31.815Z</time></trkpt><trkpt lat="43.5991389" lon="11.3651648"><ele>519.0</ele><time>2026-03-22T09:35:32.815Z</time></trkpt><trkpt lat="43.5990707" lon="11.3650798"><ele>519.0</ele><time>2026-03-22T09:35:33.814Z</time></trkpt><trkpt lat="43.5990014" lon="11.3649875"><ele>519.0</ele><time>2026-03-22T09:35:34.815Z</time></trkpt><trkpt lat="43.5989299" lon="11.3649169"><ele>519.0</ele><time>2026-03-22T09:35:35.815Z</time></trkpt><trkpt lat="43.5988444" lon="11.3648503"><ele>519.0</ele><time>2026-03-22T09:35:36.814Z</time></trkpt><trkpt lat="43.5987485" lon="11.3647781"><ele>521.0</ele><time>2026-03-22T09:35:37.815Z</time></trkpt><trkpt lat="43.5986476" lon="11.3647094"><ele>523.0</ele><time>2026-03-22T09:35:38.815Z</time></trkpt><trkpt lat="43.5985612" lon="11.3646544"><ele>525.0</ele><time>2026-03-22T09:35:39.815Z</time></trkpt><trkpt lat="43.5984925" lon="11.3646144"><ele>527.0</ele><time>2026-03-22T09:35:40.814Z</time></trkpt><trkpt lat="43.598429" lon="11.3645914"><ele>529.0</ele><time>2026-03-22T09:35:41.815Z</time></trkpt><trkpt lat="43.5983568" lon="11.3645173"><ele>531.0</ele><time>2026-03-22T09:35:43.815Z</time></trkpt><trkpt lat="43.5983189" lon="11.3644464"><ele>531.0</ele><time>2026-03-22T09:35:44.815Z</time></trkpt><trkpt lat="43.5982802" lon="11.3643311"><ele>531.0</ele><time>2026-03-22T09:35:45.815Z</time></trkpt><trkpt lat="43.5982737" lon="11.3641755"><ele>531.0</ele><time>2026-03-22T09:35:46.815Z</time></trkpt><trkpt lat="43.5982725" lon="11.3640334"><ele>531.0</ele><time>2026-03-22T09:35:47.814Z</time></trkpt><trkpt lat="43.5982569" lon="11.3639345"><ele>531.0</ele><time>2026-03-22T09:35:48.815Z</time></trkpt><trkpt lat="43.5982131" lon="11.3638605"><ele>531.2</ele><time>2026-03-22T09:35:49.815Z</time></trkpt><trkpt lat="43.5981459" lon="11.3638306"><ele>531.4000000000001</ele><time>2026-03-22T09:35:50.815Z</time></trkpt><trkpt lat="43.598042" lon="11.3638218"><ele>531.6</ele><time>2026-03-22T09:35:51.814Z</time></trkpt><trkpt lat="43.5979219" lon="11.3638025"><ele>531.8000000000001</ele><time>2026-03-22T09:35:52.814Z</time></trkpt><trkpt lat="43.5977907" lon="11.3637711"><ele>532.0</ele><time>2026-03-22T09:35:53.815Z</time></trkpt><trkpt lat="43.597666" lon="11.3637291"><ele>532.0</ele><time>2026-03-22T09:35:54.815Z</time></trkpt><trkpt lat="43.5975593" lon="11.3637182"><ele>532.0</ele><time>2026-03-22T09:35:55.815Z</time></trkpt><trkpt lat="43.5974587" lon="11.3637603"><ele>532.0</ele><time>2026-03-22T09:35:56.815Z</time></trkpt><trkpt lat="43.5973344" lon="11.3638273"><ele>532.0</ele><time>2026-03-22T09:35:57.815Z</time></trkpt><trkpt lat="43.5972048" lon="11.363891"><ele>533.75</ele><time>2026-03-22T09:35:58.815Z</time></trkpt><trkpt lat="43.5970692" lon="11.3639511"><ele>535.5</ele><time>2026-03-22T09:35:59.815Z</time></trkpt><trkpt lat="43.5969365" lon="11.3640025"><ele>537.25</ele><time>2026-03-22T09:36:00.815Z</time></trkpt><trkpt lat="43.596842" lon="11.3640025"><ele>539.0</ele><time>2026-03-22T09:36:01.815Z</time></trkpt><trkpt lat="43.5967673" lon="11.3639661"><ele>539.8</ele><time>2026-03-22T09:36:02.814Z</time></trkpt><trkpt lat="43.5966872" lon="11.3638961"><ele>540.5999999999999</ele><time>2026-03-22T09:36:03.815Z</time></trkpt><trkpt lat="43.5966177" lon="11.3638107"><ele>541.4</ele><time>2026-03-22T09:36:04.815Z</time></trkpt><trkpt lat="43.59654" lon="11.363732"><ele>542.1999999999999</ele><time>2026-03-22T09:36:05.814Z</time></trkpt><trkpt lat="43.5964566" lon="11.363663"><ele>543.0</ele><time>2026-03-22T09:36:06.815Z</time></trkpt><trkpt lat="43.5963634" lon="11.3636065"><ele>543.0</ele><time>2026-03-22T09:36:07.815Z</time></trkpt><trkpt lat="43.5962813" lon="11.3635724"><ele>543.0</ele><time>2026-03-22T09:36:08.815Z</time></trkpt><trkpt lat="43.5962173" lon="11.3635622"><ele>543.0</ele><time>2026-03-22T09:36:09.814Z</time></trkpt><trkpt lat="43.5961469" lon="11.3635751"><ele>543.0</ele><time>2026-03-22T09:36:10.815Z</time></trkpt><trkpt lat="43.5960756" lon="11.3636085"><ele>543.0</ele><time>2026-03-22T09:36:11.815Z</time></trkpt><trkpt lat="43.5960014" lon="11.3636449"><ele>543.0</ele><time>2026-03-22T09:36:12.815Z</time></trkpt><trkpt lat="43.5959334" lon="11.3636892"><ele>543.8333333333334</ele><time>2026-03-22T09:36:13.815Z</time></trkpt><trkpt lat="43.5958693" lon="11.3637463"><ele>544.6666666666666</ele><time>2026-03-22T09:36:14.815Z</time></trkpt><trkpt lat="43.5958168" lon="11.3638027"><ele>545.5</ele><time>2026-03-22T09:36:15.815Z</time></trkpt><trkpt lat="43.5957701" lon="11.3638702"><ele>546.3333333333333</ele><time>2026-03-22T09:36:16.814Z</time></trkpt><trkpt lat="43.5957261" lon="11.3639528"><ele>547.1666666666666</ele><time>2026-03-22T09:36:17.815Z</time></trkpt><trkpt lat="43.5956923" lon="11.3640645"><ele>548.0</ele><time>2026-03-22T09:36:18.815Z</time></trkpt><trkpt lat="43.5956772" lon="11.3641692"><ele>551.0</ele><time>2026-03-22T09:36:19.815Z</time></trkpt><trkpt lat="43.5956605" lon="11.3642906"><ele>554.0</ele><time>2026-03-22T09:36:20.815Z</time></trkpt><trkpt lat="43.595656" lon="11.3644204"><ele>557.0</ele><time>2026-03-22T09:36:21.815Z</time></trkpt><trkpt lat="43.5956659" lon="11.3645547"><ele>560.0</ele><time>2026-03-22T09:36:22.814Z</time></trkpt><trkpt lat="43.5956859" lon="11.3646835"><ele>563.0</ele><time>2026-03-22T09:36:23.814Z</time></trkpt><trkpt lat="43.5957016" lon="11.3648138"><ele>564.8</ele><time>2026-03-22T09:36:24.815Z</time></trkpt><trkpt lat="43.5957234" lon="11.3649403"><ele>566.5999999999999</ele><time>2026-03-22T09:36:25.815Z</time></trkpt><trkpt lat="43.5957454" lon="11.3650699"><ele>568.4000000000001</ele><time>2026-03-22T09:36:26.815Z</time></trkpt><trkpt lat="43.5957529" lon="11.3652088"><ele>570.2</ele><time>2026-03-22T09:36:27.815Z</time></trkpt><trkpt lat="43.5957491" lon="11.3653549"><ele>572.0</ele><time>2026-03-22T09:36:28.815Z</time></trkpt><trkpt lat="43.5957267" lon="11.3654983"><ele>573.2</ele><time>2026-03-22T09:36:29.815Z</time></trkpt><trkpt lat="43.5956749" lon="11.3656288"><ele>574.4000000000001</ele><time>2026-03-22T09:36:30.815Z</time></trkpt><trkpt lat="43.5956137" lon="11.365744"><ele>575.5999999999999</ele><time>2026-03-22T09:36:31.815Z</time></trkpt><trkpt lat="43.5955257" lon="11.3658162"><ele>576.8</ele><time>2026-03-22T09:36:32.815Z</time></trkpt><trkpt lat="43.5954353" lon="11.3658687"><ele>578.0</ele><time>2026-03-22T09:36:33.815Z</time></trkpt><trkpt lat="43.5953388" lon="11.3659273"><ele>578.0</ele><time>2026-03-22T09:36:34.815Z</time></trkpt><trkpt lat="43.5952513" lon="11.365972"><ele>578.0</ele><time>2026-03-22T09:36:35.814Z</time></trkpt><trkpt lat="43.5951584" lon="11.3660077"><ele>578.0</ele><time>2026-03-22T09:36:36.815Z</time></trkpt><trkpt lat="43.5950628" lon="11.3660355"><ele>578.0</ele><time>2026-03-22T09:36:37.815Z</time></trkpt><trkpt lat="43.5949696" lon="11.3660345"><ele>578.0</ele><time>2026-03-22T09:36:38.814Z</time></trkpt><trkpt lat="43.5948676" lon="11.3660039"><ele>578.0</ele><time>2026-03-22T09:36:39.815Z</time></trkpt><trkpt lat="43.5947552" lon="11.365956"><ele>578.0</ele><time>2026-03-22T09:36:40.815Z</time></trkpt><trkpt lat="43.5946503" lon="11.365895"><ele>578.0</ele><time>2026-03-22T09:36:41.815Z</time></trkpt><trkpt lat="43.5945597" lon="11.3658498"><ele>578.0</ele><time>2026-03-22T09:36:42.815Z</time></trkpt><trkpt lat="43.5944352" lon="11.3658291"><ele>579.8333333333333</ele><time>2026-03-22T09:36:44.815Z</time></trkpt><trkpt lat="43.5943615" lon="11.3658577"><ele>581.6666666666666</ele><time>2026-03-22T09:36:45.815Z</time></trkpt><trkpt lat="43.5942934" lon="11.3659129"><ele>583.5</ele><time>2026-03-22T09:36:46.815Z</time></trkpt><trkpt lat="43.5942188" lon="11.3659786"><ele>585.3333333333334</ele><time>2026-03-22T09:36:47.814Z</time></trkpt><trkpt lat="43.5941583" lon="11.3660547"><ele>587.1666666666667</ele><time>2026-03-22T09:36:48.815Z</time></trkpt><trkpt lat="43.5940837" lon="11.3660922"><ele>589.0</ele><time>2026-03-22T09:36:49.814Z</time></trkpt><trkpt lat="43.5940072" lon="11.3660847"><ele>589.0</ele><time>2026-03-22T09:36:50.814Z</time></trkpt><trkpt lat="43.5939383" lon="11.3660671"><ele>589.0</ele><time>2026-03-22T09:36:51.815Z</time></trkpt><trkpt lat="43.5938767" lon="11.3660422"><ele>589.0</ele><time>2026-03-22T09:36:53.815Z</time></trkpt><trkpt lat="43.5938211" lon="11.3661187"><ele>589.0</ele><time>2026-03-22T09:36:56.815Z</time></trkpt><trkpt lat="43.5938172" lon="11.3662528"><ele>589.0</ele><time>2026-03-22T09:36:58.815Z</time></trkpt><trkpt lat="43.5937785" lon="11.3663484"><ele>589.0</ele><time>2026-03-22T09:37:00.815Z</time></trkpt><trkpt lat="43.5937376" lon="11.3664515"><ele>592.2</ele><time>2026-03-22T09:37:02.815Z</time></trkpt><trkpt lat="43.5936589" lon="11.3665719"><ele>595.4</ele><time>2026-03-22T09:37:04.814Z</time></trkpt><trkpt lat="43.5935907" lon="11.3666821"><ele>598.6</ele><time>2026-03-22T09:37:06.815Z</time></trkpt><trkpt lat="43.5934925" lon="11.3666741"><ele>601.8</ele><time>2026-03-22T09:37:08.814Z</time></trkpt><trkpt lat="43.5933882" lon="11.3665753"><ele>605.0</ele><time>2026-03-22T09:37:10.815Z</time></trkpt><trkpt lat="43.5933283" lon="11.366492"><ele>605.0</ele><time>2026-03-22T09:37:11.815Z</time></trkpt><trkpt lat="43.5932823" lon="11.3664138"><ele>605.0</ele><time>2026-03-22T09:37:12.815Z</time></trkpt><trkpt lat="43.5932315" lon="11.3663379"><ele>605.0</ele><time>2026-03-22T09:37:13.814Z</time></trkpt><trkpt lat="43.5931794" lon="11.3662814"><ele>605.0</ele><time>2026-03-22T09:37:14.814Z</time></trkpt><trkpt lat="43.5931276" lon="11.3662244"><ele>605.0</ele><time>2026-03-22T09:37:15.814Z</time></trkpt><trkpt lat="43.5930164" lon="11.3661798"><ele>605.0</ele><time>2026-03-22T09:37:17.815Z</time></trkpt><trkpt lat="43.5929369" lon="11.3662034"><ele>605.0</ele><time>2026-03-22T09:37:18.815Z</time></trkpt><trkpt lat="43.5928638" lon="11.3662279"><ele>605.0</ele><time>2026-03-22T09:37:19.815Z</time></trkpt><trkpt lat="43.5927927" lon="11.3662533"><ele>605.0</ele><time>2026-03-22T09:37:20.815Z</time></trkpt><trkpt lat="43.5927172" lon="11.3662636"><ele>605.0</ele><time>2026-03-22T09:37:21.815Z</time></trkpt><trkpt lat="43.5926139" lon="11.3662785"><ele>605.0</ele><time>2026-03-22T09:37:23.815Z</time></trkpt><trkpt lat="43.592535" lon="11.3663017"><ele>605.0</ele><time>2026-03-22T09:37:25.815Z</time></trkpt><trkpt lat="43.5924363" lon="11.3662853"><ele>604.8333333333333</ele><time>2026-03-22T09:37:27.815Z</time></trkpt><trkpt lat="43.5923604" lon="11.3662698"><ele>604.6666666666666</ele><time>2026-03-22T09:37:29.814Z</time></trkpt><trkpt lat="43.5922773" lon="11.3662631"><ele>604.5</ele><time>2026-03-22T09:37:31.815Z</time></trkpt><trkpt lat="43.5922" lon="11.3662808"><ele>604.3333333333334</ele><time>2026-03-22T09:37:36.815Z</time></trkpt><trkpt lat="43.5921331" lon="11.366311"><ele>604.1666666666667</ele><time>2026-03-22T09:37:51.815Z</time></trkpt><trkpt lat="43.5920545" lon="11.3663732"><ele>604.0</ele><time>2026-03-22T09:37:53.814Z</time></trkpt><trkpt lat="43.5919969" lon="11.36642"><ele>603.6666666666667</ele><time>2026-03-22T09:37:54.815Z</time></trkpt><trkpt lat="43.5919271" lon="11.3664651"><ele>603.3333333333334</ele><time>2026-03-22T09:37:56.815Z</time></trkpt><trkpt lat="43.5918785" lon="11.3665363"><ele>603.0</ele><time>2026-03-22T09:37:59.815Z</time></trkpt><trkpt lat="43.5918382" lon="11.3666178"><ele>602.6666666666666</ele><time>2026-03-22T09:38:02.815Z</time></trkpt><trkpt lat="43.5917552" lon="11.3666289"><ele>602.3333333333333</ele><time>2026-03-22T09:38:06.814Z</time></trkpt><trkpt lat="43.5916982" lon="11.3666757"><ele>602.0</ele><time>2026-03-22T09:38:08.815Z</time></trkpt><trkpt lat="43.591597" lon="11.366782"><ele>602.0</ele><time>2026-03-22T09:38:10.815Z</time></trkpt><trkpt lat="43.5915024" lon="11.3668646"><ele>602.0</ele><time>2026-03-22T09:38:12.815Z</time></trkpt><trkpt lat="43.5914347" lon="11.366897"><ele>602.0</ele><time>2026-03-22T09:38:13.815Z</time></trkpt><trkpt lat="43.5913282" lon="11.3669719"><ele>602.0</ele><time>2026-03-22T09:38:15.815Z</time></trkpt><trkpt lat="43.591267" lon="11.3670037"><ele>602.0</ele><time>2026-03-22T09:38:16.815Z</time></trkpt><trkpt lat="43.5911683" lon="11.3670741"><ele>601.2</ele><time>2026-03-22T09:38:18.814Z</time></trkpt><trkpt lat="43.5910699" lon="11.3670203"><ele>600.4000000000001</ele><time>2026-03-22T09:38:20.814Z</time></trkpt><trkpt lat="43.5910705" lon="11.3668652"><ele>599.5999999999999</ele><time>2026-03-22T09:38:22.815Z</time></trkpt><trkpt lat="43.5910755" lon="11.3667101"><ele>598.8</ele><time>2026-03-22T09:38:24.815Z</time></trkpt><trkpt lat="43.5910579" lon="11.3666003"><ele>598.0</ele><time>2026-03-22T09:38:26.814Z</time></trkpt><trkpt lat="43.5909651" lon="11.3665344"><ele>598.0</ele><time>2026-03-22T09:38:28.815Z</time></trkpt><trkpt lat="43.5909106" lon="11.3664677"><ele>598.0</ele><time>2026-03-22T09:38:33.815Z</time></trkpt><trkpt lat="43.5908659" lon="11.3664026"><ele>598.0</ele><time>2026-03-22T09:38:35.815Z</time></trkpt><trkpt lat="43.590788" lon="11.3663238"><ele>598.0</ele><time>2026-03-22T09:38:37.814Z</time></trkpt><trkpt lat="43.5907123" lon="11.3662624"><ele>598.0</ele><time>2026-03-22T09:38:39.814Z</time></trkpt><trkpt lat="43.5906207" lon="11.3662808"><ele>598.0</ele><time>2026-03-22T09:38:41.815Z</time></trkpt><trkpt lat="43.5905648" lon="11.3664239"><ele>598.0</ele><time>2026-03-22T09:38:43.815Z</time></trkpt><trkpt lat="43.5905167" lon="11.3665251"><ele>598.0</ele><time>2026-03-22T09:38:44.815Z</time></trkpt><trkpt lat="43.5904573" lon="11.3666216"><ele>598.0</ele><time>2026-03-22T09:38:45.815Z</time></trkpt><trkpt lat="43.5904029" lon="11.3667028"><ele>598.0</ele><time>2026-03-22T09:38:46.815Z</time></trkpt><trkpt lat="43.5903454" lon="11.3667673"><ele>598.0</ele><time>2026-03-22T09:38:47.815Z</time></trkpt><trkpt lat="43.5902464" lon="11.3668359"><ele>598.0</ele><time>2026-03-22T09:38:49.815Z</time></trkpt><trkpt lat="43.5901493" lon="11.3669156"><ele>600.6</ele><time>2026-03-22T09:38:51.815Z</time></trkpt><trkpt lat="43.5900358" lon="11.3669877"><ele>603.1999999999999</ele><time>2026-03-22T09:38:53.815Z</time></trkpt><trkpt lat="43.5899552" lon="11.3670382"><ele>605.8</ele><time>2026-03-22T09:38:55.815Z</time></trkpt><trkpt lat="43.5898828" lon="11.3670669"><ele>608.4</ele><time>2026-03-22T09:38:57.815Z</time></trkpt><trkpt lat="43.5897824" lon="11.3670185"><ele>611.0</ele><time>2026-03-22T09:38:59.814Z</time></trkpt><trkpt lat="43.5896885" lon="11.3669256"><ele>611.0</ele><time>2026-03-22T09:39:01.815Z</time></trkpt><trkpt lat="43.5896258" lon="11.3668813"><ele>611.0</ele><time>2026-03-22T09:39:02.814Z</time></trkpt><trkpt lat="43.5895267" lon="11.3668431"><ele>611.0</ele><time>2026-03-22T09:39:04.815Z</time></trkpt><trkpt lat="43.5894481" lon="11.3667437"><ele>611.0</ele><time>2026-03-22T09:39:06.815Z</time></trkpt><trkpt lat="43.5893964" lon="11.366671"><ele>611.0</ele><time>2026-03-22T09:39:08.814Z</time></trkpt><trkpt lat="43.5893251" lon="11.3666517"><ele>611.0</ele><time>2026-03-22T09:39:09.815Z</time></trkpt><trkpt lat="43.589251" lon="11.3666555"><ele>612.1666666666666</ele><time>2026-03-22T09:39:10.815Z</time></trkpt><trkpt lat="43.5891405" lon="11.3666483"><ele>613.3333333333333</ele><time>2026-03-22T09:39:12.815Z</time></trkpt><trkpt lat="43.5890733" lon="11.3666278"><ele>614.5</ele><time>2026-03-22T09:39:14.815Z</time></trkpt><trkpt lat="43.5889825" lon="11.3665759"><ele>615.6666666666666</ele><time>2026-03-22T09:40:06.815Z</time></trkpt><trkpt lat="43.5889138" lon="11.3665312"><ele>616.8333333333334</ele><time>2026-03-22T09:40:07.815Z</time></trkpt><trkpt lat="43.5888452" lon="11.3664864"><ele>618.0</ele><time>2026-03-22T09:40:08.815Z</time></trkpt><trkpt lat="43.5887801" lon="11.3664702"><ele>618.0</ele><time>2026-03-22T09:40:09.815Z</time></trkpt><trkpt lat="43.58871" lon="11.3664896"><ele>618.0</ele><time>2026-03-22T09:40:10.815Z</time></trkpt><trkpt lat="43.588629" lon="11.366524"><ele>618.0</ele><time>2026-03-22T09:40:11.814Z</time></trkpt><trkpt lat="43.5885447" lon="11.3665512"><ele>618.0</ele><time>2026-03-22T09:40:12.815Z</time></trkpt><trkpt lat="43.5884507" lon="11.3665548"><ele>618.0</ele><time>2026-03-22T09:40:13.815Z</time></trkpt><trkpt lat="43.5883466" lon="11.3665398"><ele>618.0</ele><time>2026-03-22T09:40:14.814Z</time></trkpt><trkpt lat="43.5882398" lon="11.3665161"><ele>618.5</ele><time>2026-03-22T09:40:15.815Z</time></trkpt><trkpt lat="43.5881305" lon="11.3664989"><ele>619.0</ele><time>2026-03-22T09:40:16.815Z</time></trkpt><trkpt lat="43.5880068" lon="11.366486"><ele>619.5</ele><time>2026-03-22T09:40:17.814Z</time></trkpt><trkpt lat="43.5878887" lon="11.3664577"><ele>620.0</ele><time>2026-03-22T09:40:18.815Z</time></trkpt><trkpt lat="43.5877735" lon="11.3664396"><ele>620.75</ele><time>2026-03-22T09:40:19.815Z</time></trkpt><trkpt lat="43.5876551" lon="11.3664218"><ele>621.5</ele><time>2026-03-22T09:40:20.815Z</time></trkpt><trkpt lat="43.5875349" lon="11.366416"><ele>622.25</ele><time>2026-03-22T09:40:21.815Z</time></trkpt><trkpt lat="43.5873887" lon="11.3664084"><ele>623.0</ele><time>2026-03-22T09:40:22.815Z</time></trkpt><trkpt lat="43.5872218" lon="11.366418"><ele>623.0</ele><time>2026-03-22T09:40:23.815Z</time></trkpt><trkpt lat="43.587061" lon="11.3664258"><ele>623.0</ele><time>2026-03-22T09:40:24.815Z</time></trkpt><trkpt lat="43.5869035" lon="11.3664271"><ele>623.0</ele><time>2026-03-22T09:40:25.814Z</time></trkpt><trkpt lat="43.5867514" lon="11.3664244"><ele>624.3333333333333</ele><time>2026-03-22T09:40:26.815Z</time></trkpt><trkpt lat="43.5865924" lon="11.3664134"><ele>625.6666666666666</ele><time>2026-03-22T09:40:27.815Z</time></trkpt><trkpt lat="43.5864297" lon="11.3663951"><ele>627.0</ele><time>2026-03-22T09:40:28.815Z</time></trkpt><trkpt lat="43.5862765" lon="11.3663718"><ele>627.0</ele><time>2026-03-22T09:40:29.815Z</time></trkpt><trkpt lat="43.5861385" lon="11.3663517"><ele>627.0</ele><time>2026-03-22T09:40:30.814Z</time></trkpt><trkpt lat="43.5859993" lon="11.3663365"><ele>627.0</ele><time>2026-03-22T09:40:31.815Z</time></trkpt><trkpt lat="43.5858749" lon="11.3663255"><ele>627.0</ele><time>2026-03-22T09:40:32.815Z</time></trkpt><trkpt lat="43.5857656" lon="11.3663183"><ele>627.0</ele><time>2026-03-22T09:40:33.815Z</time></trkpt><trkpt lat="43.5856563" lon="11.3663024"><ele>627.0</ele><time>2026-03-22T09:40:34.815Z</time></trkpt><trkpt lat="43.5855789" lon="11.3663"><ele>627.0</ele><time>2026-03-22T09:40:35.814Z</time></trkpt><trkpt lat="43.585516" lon="11.3662937"><ele>627.0</ele><time>2026-03-22T09:40:36.815Z</time></trkpt><trkpt lat="43.5854503" lon="11.3663557"><ele>627.0</ele><time>2026-03-22T09:41:18.816Z</time></trkpt><trkpt lat="43.5854006" lon="11.3664688"><ele>627.0</ele><time>2026-03-22T09:41:20.816Z</time></trkpt><trkpt lat="43.5853895" lon="11.3665714"><ele>627.0</ele><time>2026-03-22T09:41:21.816Z</time></trkpt><trkpt lat="43.5853834" lon="11.3666944"><ele>627.0</ele><time>2026-03-22T09:41:22.816Z</time></trkpt><trkpt lat="43.5853707" lon="11.366827"><ele>627.0</ele><time>2026-03-22T09:41:23.816Z</time></trkpt><trkpt lat="43.5853578" lon="11.3669691"><ele>627.0</ele><time>2026-03-22T09:41:24.816Z</time></trkpt><trkpt lat="43.5853491" lon="11.3671103"><ele>627.0</ele><time>2026-03-22T09:41:25.816Z</time></trkpt><trkpt lat="43.58534" lon="11.3672494"><ele>628.0</ele><time>2026-03-22T09:41:26.815Z</time></trkpt><trkpt lat="43.5853328" lon="11.3673793"><ele>629.0</ele><time>2026-03-22T09:41:27.816Z</time></trkpt><trkpt lat="43.5853362" lon="11.367513"><ele>630.0</ele><time>2026-03-22T09:41:28.816Z</time></trkpt><trkpt lat="43.5853647" lon="11.3676628"><ele>631.0</ele><time>2026-03-22T09:41:29.816Z</time></trkpt><trkpt lat="43.5853889" lon="11.3678088"><ele>632.0</ele><time>2026-03-22T09:41:30.816Z</time></trkpt><trkpt lat="43.5853963" lon="11.3679357"><ele>632.3333333333333</ele><time>2026-03-22T09:41:31.816Z</time></trkpt><trkpt lat="43.5853806" lon="11.3680375"><ele>632.6666666666666</ele><time>2026-03-22T09:41:32.816Z</time></trkpt><trkpt lat="43.5853272" lon="11.3681324"><ele>633.0</ele><time>2026-03-22T09:41:33.816Z</time></trkpt><trkpt lat="43.5852699" lon="11.3682065"><ele>633.3333333333334</ele><time>2026-03-22T09:41:34.816Z</time></trkpt><trkpt lat="43.5852033" lon="11.3682723"><ele>633.6666666666667</ele><time>2026-03-22T09:41:35.816Z</time></trkpt><trkpt lat="43.5851361" lon="11.3683384"><ele>634.0</ele><time>2026-03-22T09:41:36.816Z</time></trkpt><trkpt lat="43.5850578" lon="11.3684121"><ele>636.6</ele><time>2026-03-22T09:41:37.815Z</time></trkpt><trkpt lat="43.5849803" lon="11.3684947"><ele>639.2</ele><time>2026-03-22T09:41:38.816Z</time></trkpt><trkpt lat="43.5849003" lon="11.36858"><ele>641.8000000000001</ele><time>2026-03-22T09:41:39.816Z</time></trkpt><trkpt lat="43.5847988" lon="11.3686609"><ele>644.4</ele><time>2026-03-22T09:41:40.815Z</time></trkpt><trkpt lat="43.5846944" lon="11.3687533"><ele>647.0</ele><time>2026-03-22T09:41:41.816Z</time></trkpt><trkpt lat="43.5845792" lon="11.3688503"><ele>650.0</ele><time>2026-03-22T09:41:42.815Z</time></trkpt><trkpt lat="43.5844619" lon="11.3689504"><ele>653.0</ele><time>2026-03-22T09:41:43.816Z</time></trkpt><trkpt lat="43.5843406" lon="11.3690611"><ele>656.0</ele><time>2026-03-22T09:41:44.815Z</time></trkpt><trkpt lat="43.5842148" lon="11.3691884"><ele>659.0</ele><time>2026-03-22T09:41:45.815Z</time></trkpt><trkpt lat="43.5841042" lon="11.3693198"><ele>659.0</ele><time>2026-03-22T09:41:46.816Z</time></trkpt><trkpt lat="43.5839986" lon="11.3694515"><ele>659.0</ele><time>2026-03-22T09:41:47.815Z</time></trkpt><trkpt lat="43.5838985" lon="11.3695781"><ele>659.0</ele><time>2026-03-22T09:41:48.816Z</time></trkpt><trkpt lat="43.5838054" lon="11.3697027"><ele>659.0</ele><time>2026-03-22T09:41:49.816Z</time></trkpt><trkpt lat="43.5837078" lon="11.3698269"><ele>660.0</ele><time>2026-03-22T09:41:50.816Z</time></trkpt><trkpt lat="43.5836074" lon="11.369934"><ele>661.0</ele><time>2026-03-22T09:41:51.816Z</time></trkpt><trkpt lat="43.5835193" lon="11.3700377"><ele>662.0</ele><time>2026-03-22T09:41:52.816Z</time></trkpt><trkpt lat="43.5834223" lon="11.3701506"><ele>663.0</ele><time>2026-03-22T09:41:53.815Z</time></trkpt><trkpt lat="43.583309" lon="11.3702825"><ele>663.0</ele><time>2026-03-22T09:41:54.816Z</time></trkpt><trkpt lat="43.5831842" lon="11.3704208"><ele>663.0</ele><time>2026-03-22T09:41:55.816Z</time></trkpt><trkpt lat="43.5830657" lon="11.3705421"><ele>663.0</ele><time>2026-03-22T09:41:56.815Z</time></trkpt><trkpt lat="43.5829446" lon="11.3706686"><ele>665.3333333333334</ele><time>2026-03-22T09:41:57.816Z</time></trkpt><trkpt lat="43.582818" lon="11.3707676"><ele>667.6666666666667</ele><time>2026-03-22T09:41:58.815Z</time></trkpt><trkpt lat="43.5826778" lon="11.3708582"><ele>670.0</ele><time>2026-03-22T09:41:59.816Z</time></trkpt><trkpt lat="43.5825299" lon="11.3709526"><ele>670.0</ele><time>2026-03-22T09:42:00.816Z</time></trkpt><trkpt lat="43.5823709" lon="11.3710162"><ele>670.0</ele><time>2026-03-22T09:42:01.816Z</time></trkpt><trkpt lat="43.5821948" lon="11.3710708"><ele>670.0</ele><time>2026-03-22T09:42:02.815Z</time></trkpt><trkpt lat="43.5820277" lon="11.3711271"><ele>673.0</ele><time>2026-03-22T09:42:03.816Z</time></trkpt><trkpt lat="43.5818596" lon="11.3711659"><ele>676.0</ele><time>2026-03-22T09:42:04.816Z</time></trkpt><trkpt lat="43.5816845" lon="11.3712005"><ele>679.0</ele><time>2026-03-22T09:42:05.816Z</time></trkpt><trkpt lat="43.5815023" lon="11.3712219"><ele>679.0</ele><time>2026-03-22T09:42:06.816Z</time></trkpt><trkpt lat="43.5813296" lon="11.3712472"><ele>679.0</ele><time>2026-03-22T09:42:07.815Z</time></trkpt><trkpt lat="43.5811627" lon="11.3712727"><ele>679.0</ele><time>2026-03-22T09:42:08.816Z</time></trkpt><trkpt lat="43.5810135" lon="11.3712785"><ele>681.5</ele><time>2026-03-22T09:42:09.816Z</time></trkpt><trkpt lat="43.5808778" lon="11.3712495"><ele>684.0</ele><time>2026-03-22T09:42:10.816Z</time></trkpt><trkpt lat="43.5807507" lon="11.3711888"><ele>686.5</ele><time>2026-03-22T09:42:11.816Z</time></trkpt><trkpt lat="43.580633" lon="11.3710937"><ele>689.0</ele><time>2026-03-22T09:42:12.816Z</time></trkpt><trkpt lat="43.5805408" lon="11.3710053"><ele>689.0</ele><time>2026-03-22T09:42:13.816Z</time></trkpt><trkpt lat="43.5804531" lon="11.3709568"><ele>689.0</ele><time>2026-03-22T09:42:14.816Z</time></trkpt><trkpt lat="43.5803742" lon="11.3709359"><ele>689.0</ele><time>2026-03-22T09:42:15.816Z</time></trkpt><trkpt lat="43.580255" lon="11.3709914"><ele>689.0</ele><time>2026-03-22T09:42:17.815Z</time></trkpt><trkpt lat="43.5801991" lon="11.3710613"><ele>689.0</ele><time>2026-03-22T09:42:18.815Z</time></trkpt><trkpt lat="43.5801375" lon="11.3711654"><ele>690.25</ele><time>2026-03-22T09:42:19.816Z</time></trkpt><trkpt lat="43.5800621" lon="11.3712861"><ele>691.5</ele><time>2026-03-22T09:42:20.816Z</time></trkpt><trkpt lat="43.5799674" lon="11.3713937"><ele>692.75</ele><time>2026-03-22T09:42:21.816Z</time></trkpt><trkpt lat="43.5798619" lon="11.3714472"><ele>694.0</ele><time>2026-03-22T09:42:22.816Z</time></trkpt><trkpt lat="43.5797521" lon="11.371473"><ele>697.75</ele><time>2026-03-22T09:42:23.816Z</time></trkpt><trkpt lat="43.5796366" lon="11.3714773"><ele>701.5</ele><time>2026-03-22T09:42:24.815Z</time></trkpt><trkpt lat="43.5795259" lon="11.3715285"><ele>705.25</ele><time>2026-03-22T09:42:25.815Z</time></trkpt><trkpt lat="43.5794143" lon="11.3715798"><ele>709.0</ele><time>2026-03-22T09:42:26.816Z</time></trkpt><trkpt lat="43.579314" lon="11.3716661"><ele>709.0</ele><time>2026-03-22T09:42:27.816Z</time></trkpt><trkpt lat="43.5792303" lon="11.3717772"><ele>709.0</ele><time>2026-03-22T09:42:28.815Z</time></trkpt><trkpt lat="43.5791493" lon="11.3719109"><ele>709.0</ele><time>2026-03-22T09:42:29.816Z</time></trkpt><trkpt lat="43.5790631" lon="11.3720351"><ele>709.0</ele><time>2026-03-22T09:42:30.816Z</time></trkpt><trkpt lat="43.5789546" lon="11.3721199"><ele>712.25</ele><time>2026-03-22T09:42:31.816Z</time></trkpt><trkpt lat="43.5788241" lon="11.3721975"><ele>715.5</ele><time>2026-03-22T09:42:32.815Z</time></trkpt><trkpt lat="43.5786925" lon="11.3722897"><ele>718.75</ele><time>2026-03-22T09:42:33.816Z</time></trkpt><trkpt lat="43.5785627" lon="11.3724063"><ele>722.0</ele><time>2026-03-22T09:42:34.816Z</time></trkpt><trkpt lat="43.578431" lon="11.3725243"><ele>722.0</ele><time>2026-03-22T09:42:35.816Z</time></trkpt><trkpt lat="43.5783173" lon="11.3726579"><ele>722.0</ele><time>2026-03-22T09:42:36.815Z</time></trkpt><trkpt lat="43.5782092" lon="11.3727864"><ele>722.0</ele><time>2026-03-22T09:42:37.815Z</time></trkpt><trkpt lat="43.5781217" lon="11.372941"><ele>722.0</ele><time>2026-03-22T09:42:38.816Z</time></trkpt><trkpt lat="43.5780422" lon="11.3730866"><ele>722.2</ele><time>2026-03-22T09:42:39.816Z</time></trkpt><trkpt lat="43.5779737" lon="11.3732061"><ele>722.4000000000001</ele><time>2026-03-22T09:42:40.816Z</time></trkpt><trkpt lat="43.5779147" lon="11.3732945"><ele>722.5999999999999</ele><time>2026-03-22T09:42:41.816Z</time></trkpt><trkpt lat="43.5778371" lon="11.3733754"><ele>722.8</ele><time>2026-03-22T09:42:42.815Z</time></trkpt><trkpt lat="43.577745" lon="11.373417"><ele>723.0</ele><time>2026-03-22T09:42:43.816Z</time></trkpt><trkpt lat="43.5776194" lon="11.3734391"><ele>723.5</ele><time>2026-03-22T09:42:44.816Z</time></trkpt><trkpt lat="43.5774747" lon="11.3734514"><ele>724.0</ele><time>2026-03-22T09:42:45.815Z</time></trkpt><trkpt lat="43.577326" lon="11.373474"><ele>724.5</ele><time>2026-03-22T09:42:46.815Z</time></trkpt><trkpt lat="43.5771786" lon="11.3735294"><ele>725.0</ele><time>2026-03-22T09:42:47.816Z</time></trkpt><trkpt lat="43.5770595" lon="11.3735825"><ele>725.75</ele><time>2026-03-22T09:42:48.816Z</time></trkpt><trkpt lat="43.5769455" lon="11.3736293"><ele>726.5</ele><time>2026-03-22T09:42:49.815Z</time></trkpt><trkpt lat="43.5768297" lon="11.3736448"><ele>727.25</ele><time>2026-03-22T09:42:50.815Z</time></trkpt><trkpt lat="43.5767098" lon="11.3736351"><ele>728.0</ele><time>2026-03-22T09:42:51.815Z</time></trkpt><trkpt lat="43.5765818" lon="11.3736083"><ele>728.0</ele><time>2026-03-22T09:42:52.816Z</time></trkpt><trkpt lat="43.5764473" lon="11.3735684"><ele>728.0</ele><time>2026-03-22T09:42:53.816Z</time></trkpt><trkpt lat="43.5763188" lon="11.3735322"><ele>728.0</ele><time>2026-03-22T09:42:54.815Z</time></trkpt><trkpt lat="43.5761846" lon="11.3735174"><ele>728.0</ele><time>2026-03-22T09:42:55.816Z</time></trkpt><trkpt lat="43.5760461" lon="11.3735347"><ele>727.0</ele><time>2026-03-22T09:42:56.815Z</time></trkpt><trkpt lat="43.5758976" lon="11.3735835"><ele>726.0</ele><time>2026-03-22T09:42:57.815Z</time></trkpt><trkpt lat="43.5757681" lon="11.3736407"><ele>725.0</ele><time>2026-03-22T09:42:58.816Z</time></trkpt><trkpt lat="43.5756397" lon="11.3737546"><ele>724.0</ele><time>2026-03-22T09:42:59.816Z</time></trkpt><trkpt lat="43.5755118" lon="11.3738919"><ele>724.0</ele><time>2026-03-22T09:43:00.816Z</time></trkpt><trkpt lat="43.5753767" lon="11.3740763"><ele>724.0</ele><time>2026-03-22T09:43:01.815Z</time></trkpt><trkpt lat="43.5752395" lon="11.3742879"><ele>724.0</ele><time>2026-03-22T09:43:02.816Z</time></trkpt><trkpt lat="43.5750896" lon="11.3745102"><ele>727.3333333333334</ele><time>2026-03-22T09:43:03.816Z</time></trkpt><trkpt lat="43.5749312" lon="11.3747308"><ele>730.6666666666666</ele><time>2026-03-22T09:43:04.816Z</time></trkpt><trkpt lat="43.5747861" lon="11.3749496"><ele>734.0</ele><time>2026-03-22T09:43:05.816Z</time></trkpt><trkpt lat="43.5746656" lon="11.3751385"><ele>734.0</ele><time>2026-03-22T09:43:06.816Z</time></trkpt><trkpt lat="43.5745565" lon="11.3752764"><ele>734.0</ele><time>2026-03-22T09:43:07.816Z</time></trkpt><trkpt lat="43.5744445" lon="11.3753772"><ele>734.0</ele><time>2026-03-22T09:43:08.816Z</time></trkpt><trkpt lat="43.5743315" lon="11.3754721"><ele>734.0</ele><time>2026-03-22T09:43:09.816Z</time></trkpt><trkpt lat="43.5741942" lon="11.3755689"><ele>738.0</ele><time>2026-03-22T09:43:10.816Z</time></trkpt><trkpt lat="43.5740273" lon="11.3756684"><ele>742.0</ele><time>2026-03-22T09:43:11.815Z</time></trkpt><trkpt lat="43.5738565" lon="11.3757603"><ele>746.0</ele><time>2026-03-22T09:43:12.816Z</time></trkpt><trkpt lat="43.5736899" lon="11.3758545"><ele>744.3333333333333</ele><time>2026-03-22T09:43:13.815Z</time></trkpt><trkpt lat="43.573538" lon="11.375942"><ele>742.6666666666666</ele><time>2026-03-22T09:43:14.815Z</time></trkpt><trkpt lat="43.5733997" lon="11.3760315"><ele>741.0</ele><time>2026-03-22T09:43:15.816Z</time></trkpt><trkpt lat="43.5732692" lon="11.376115"><ele>741.0</ele><time>2026-03-22T09:43:16.816Z</time></trkpt><trkpt lat="43.5731213" lon="11.3761882"><ele>741.0</ele><time>2026-03-22T09:43:17.816Z</time></trkpt><trkpt lat="43.5729519" lon="11.3762327"><ele>741.0</ele><time>2026-03-22T09:43:18.816Z</time></trkpt><trkpt lat="43.5727732" lon="11.3762857"><ele>743.3333333333334</ele><time>2026-03-22T09:43:19.816Z</time></trkpt><trkpt lat="43.572581" lon="11.3763632"><ele>745.6666666666667</ele><time>2026-03-22T09:43:20.816Z</time></trkpt><trkpt lat="43.5723978" lon="11.3764444"><ele>748.0</ele><time>2026-03-22T09:43:21.816Z</time></trkpt><trkpt lat="43.5722194" lon="11.3765159"><ele>748.0</ele><time>2026-03-22T09:43:22.816Z</time></trkpt><trkpt lat="43.572032" lon="11.3766086"><ele>748.0</ele><time>2026-03-22T09:43:23.816Z</time></trkpt><trkpt lat="43.5718261" lon="11.3767146"><ele>748.0</ele><time>2026-03-22T09:43:24.815Z</time></trkpt><trkpt lat="43.5716291" lon="11.3768029"><ele>748.3333333333334</ele><time>2026-03-22T09:43:25.816Z</time></trkpt><trkpt lat="43.5714355" lon="11.3768893"><ele>748.6666666666666</ele><time>2026-03-22T09:43:26.816Z</time></trkpt><trkpt lat="43.5712619" lon="11.3769267"><ele>749.0</ele><time>2026-03-22T09:43:27.816Z</time></trkpt><trkpt lat="43.5711088" lon="11.3769435"><ele>749.0</ele><time>2026-03-22T09:43:28.816Z</time></trkpt><trkpt lat="43.5709715" lon="11.3769633"><ele>749.0</ele><time>2026-03-22T09:43:29.816Z</time></trkpt><trkpt lat="43.570823" lon="11.3770188"><ele>749.0</ele><time>2026-03-22T09:43:30.816Z</time></trkpt><trkpt lat="43.570644" lon="11.3771108"><ele>749.0</ele><time>2026-03-22T09:43:31.816Z</time></trkpt><trkpt lat="43.5704771" lon="11.3772195"><ele>749.0</ele><time>2026-03-22T09:43:32.816Z</time></trkpt><trkpt lat="43.570323" lon="11.3773235"><ele>749.0</ele><time>2026-03-22T09:43:33.815Z</time></trkpt><trkpt lat="43.5701791" lon="11.3774132"><ele>748.0</ele><time>2026-03-22T09:43:34.816Z</time></trkpt><trkpt lat="43.5700461" lon="11.3775037"><ele>747.0</ele><time>2026-03-22T09:43:35.816Z</time></trkpt><trkpt lat="43.5699125" lon="11.3775808"><ele>746.0</ele><time>2026-03-22T09:43:36.816Z</time></trkpt><trkpt lat="43.5697925" lon="11.3776659"><ele>745.0</ele><time>2026-03-22T09:43:37.815Z</time></trkpt><trkpt lat="43.5696688" lon="11.3777441"><ele>745.0</ele><time>2026-03-22T09:43:38.816Z</time></trkpt><trkpt lat="43.569538" lon="11.377833"><ele>745.0</ele><time>2026-03-22T09:43:39.816Z</time></trkpt><trkpt lat="43.5694098" lon="11.3779268"><ele>745.0</ele><time>2026-03-22T09:43:40.816Z</time></trkpt><trkpt lat="43.5692815" lon="11.3780217"><ele>745.0</ele><time>2026-03-22T09:43:41.815Z</time></trkpt><trkpt lat="43.5691576" lon="11.3781245"><ele>745.6</ele><time>2026-03-22T09:43:42.816Z</time></trkpt><trkpt lat="43.5690422" lon="11.3782132"><ele>746.2</ele><time>2026-03-22T09:43:43.816Z</time></trkpt><trkpt lat="43.5689393" lon="11.378287"><ele>746.8</ele><time>2026-03-22T09:43:44.816Z</time></trkpt><trkpt lat="43.5688553" lon="11.378309"><ele>747.4</ele><time>2026-03-22T09:43:45.816Z</time></trkpt><trkpt lat="43.5687868" lon="11.378315"><ele>748.0</ele><time>2026-03-22T09:43:46.816Z</time></trkpt><trkpt lat="43.5687192" lon="11.3781636"><ele>751.5</ele><time>2026-03-22T09:43:48.816Z</time></trkpt><trkpt lat="43.568685" lon="11.3780342"><ele>755.0</ele><time>2026-03-22T09:43:49.816Z</time></trkpt><trkpt lat="43.5686457" lon="11.3778714"><ele>758.5</ele><time>2026-03-22T09:43:50.816Z</time></trkpt><trkpt lat="43.568595" lon="11.377692"><ele>762.0</ele><time>2026-03-22T09:43:51.816Z</time></trkpt><trkpt lat="43.5685404" lon="11.3775188"><ele>762.1666666666666</ele><time>2026-03-22T09:43:52.815Z</time></trkpt><trkpt lat="43.5685001" lon="11.3773794"><ele>762.3333333333334</ele><time>2026-03-22T09:43:53.815Z</time></trkpt><trkpt lat="43.5684548" lon="11.3772643"><ele>762.5</ele><time>2026-03-22T09:43:54.816Z</time></trkpt><trkpt lat="43.5684155" lon="11.3771717"><ele>762.6666666666667</ele><time>2026-03-22T09:43:55.816Z</time></trkpt><trkpt lat="43.5683719" lon="11.3771051"><ele>762.8333333333334</ele><time>2026-03-22T09:43:56.816Z</time></trkpt><trkpt lat="43.568299" lon="11.3770872"><ele>763.0</ele><time>2026-03-22T09:43:57.816Z</time></trkpt><trkpt lat="43.5682197" lon="11.3770957"><ele>763.0</ele><time>2026-03-22T09:43:58.815Z</time></trkpt><trkpt lat="43.5681522" lon="11.3771527"><ele>763.0</ele><time>2026-03-22T09:43:59.816Z</time></trkpt><trkpt lat="43.5681126" lon="11.377246"><ele>763.0</ele><time>2026-03-22T09:44:00.816Z</time></trkpt><trkpt lat="43.5681118" lon="11.3773663"><ele>763.0</ele><time>2026-03-22T09:44:01.815Z</time></trkpt><trkpt lat="43.5681059" lon="11.3775063"><ele>763.0</ele><time>2026-03-22T09:44:02.816Z</time></trkpt><trkpt lat="43.5680749" lon="11.3776498"><ele>763.5</ele><time>2026-03-22T09:44:03.815Z</time></trkpt><trkpt lat="43.5679987" lon="11.3777881"><ele>764.0</ele><time>2026-03-22T09:44:04.816Z</time></trkpt><trkpt lat="43.5679086" lon="11.3779363"><ele>764.5</ele><time>2026-03-22T09:44:05.816Z</time></trkpt><trkpt lat="43.5678123" lon="11.3780427"><ele>765.0</ele><time>2026-03-22T09:44:06.816Z</time></trkpt><trkpt lat="43.5677108" lon="11.3781272"><ele>767.75</ele><time>2026-03-22T09:44:07.816Z</time></trkpt><trkpt lat="43.5675974" lon="11.3781793"><ele>770.5</ele><time>2026-03-22T09:44:08.816Z</time></trkpt><trkpt lat="43.5674811" lon="11.3782024"><ele>773.25</ele><time>2026-03-22T09:44:09.815Z</time></trkpt><trkpt lat="43.5673583" lon="11.378196"><ele>776.0</ele><time>2026-03-22T09:44:10.816Z</time></trkpt><trkpt lat="43.567218" lon="11.3781593"><ele>776.0</ele><time>2026-03-22T09:44:11.816Z</time></trkpt><trkpt lat="43.5670603" lon="11.3781228"><ele>776.0</ele><time>2026-03-22T09:44:12.816Z</time></trkpt><trkpt lat="43.5668938" lon="11.3780743"><ele>776.0</ele><time>2026-03-22T09:44:13.816Z</time></trkpt><trkpt lat="43.5667205" lon="11.3780145"><ele>778.3333333333334</ele><time>2026-03-22T09:44:14.816Z</time></trkpt><trkpt lat="43.5665466" lon="11.3779351"><ele>780.6666666666667</ele><time>2026-03-22T09:44:15.816Z</time></trkpt><trkpt lat="43.5663946" lon="11.3778472"><ele>783.0</ele><time>2026-03-22T09:44:16.816Z</time></trkpt><trkpt lat="43.566267" lon="11.3777731"><ele>785.75</ele><time>2026-03-22T09:44:17.816Z</time></trkpt><trkpt lat="43.5661542" lon="11.3777177"><ele>788.5</ele><time>2026-03-22T09:44:18.816Z</time></trkpt><trkpt lat="43.5660354" lon="11.377678"><ele>791.25</ele><time>2026-03-22T09:44:19.816Z</time></trkpt><trkpt lat="43.5659081" lon="11.3776724"><ele>794.0</ele><time>2026-03-22T09:44:20.816Z</time></trkpt><trkpt lat="43.5657904" lon="11.3776944"><ele>794.0</ele><time>2026-03-22T09:44:21.816Z</time></trkpt><trkpt lat="43.5656732" lon="11.3777882"><ele>794.0</ele><time>2026-03-22T09:44:22.815Z</time></trkpt><trkpt lat="43.5655458" lon="11.3779201"><ele>794.0</ele><time>2026-03-22T09:44:23.816Z</time></trkpt><trkpt lat="43.5654176" lon="11.3780769"><ele>798.3333333333334</ele><time>2026-03-22T09:44:24.816Z</time></trkpt><trkpt lat="43.5652883" lon="11.3782318"><ele>802.6666666666667</ele><time>2026-03-22T09:44:25.816Z</time></trkpt><trkpt lat="43.5651686" lon="11.3783681"><ele>807.0</ele><time>2026-03-22T09:44:26.816Z</time></trkpt><trkpt lat="43.565049" lon="11.3784619"><ele>807.0</ele><time>2026-03-22T09:44:27.816Z</time></trkpt><trkpt lat="43.5649173" lon="11.3785442"><ele>807.0</ele><time>2026-03-22T09:44:28.816Z</time></trkpt><trkpt lat="43.5647619" lon="11.3786258"><ele>807.0</ele><time>2026-03-22T09:44:29.816Z</time></trkpt><trkpt lat="43.5645852" lon="11.3787017"><ele>812.0</ele><time>2026-03-22T09:44:30.816Z</time></trkpt><trkpt lat="43.5644159" lon="11.3787555"><ele>817.0</ele><time>2026-03-22T09:44:31.816Z</time></trkpt><trkpt lat="43.5642566" lon="11.3788078"><ele>822.0</ele><time>2026-03-22T09:44:32.816Z</time></trkpt><trkpt lat="43.5641224" lon="11.3788293"><ele>822.0</ele><time>2026-03-22T09:44:33.816Z</time></trkpt><trkpt lat="43.5640161" lon="11.3788223"><ele>822.0</ele><time>2026-03-22T09:44:34.816Z</time></trkpt><trkpt lat="43.5639343" lon="11.3787724"><ele>822.0</ele><time>2026-03-22T09:44:35.816Z</time></trkpt><trkpt lat="43.5638694" lon="11.3786932"><ele>822.0</ele><time>2026-03-22T09:44:36.816Z</time></trkpt><trkpt lat="43.5638401" lon="11.3785937"><ele>822.0</ele><time>2026-03-22T09:44:37.815Z</time></trkpt><trkpt lat="43.5638355" lon="11.3784923"><ele>822.0</ele><time>2026-03-22T09:44:38.815Z</time></trkpt><trkpt lat="43.5638471" lon="11.3783927"><ele>822.0</ele><time>2026-03-22T09:44:39.816Z</time></trkpt><trkpt lat="43.5638994" lon="11.3782768"><ele>822.0</ele><time>2026-03-22T09:44:40.816Z</time></trkpt><trkpt lat="43.5639438" lon="11.3781754"><ele>822.0</ele><time>2026-03-22T09:44:41.816Z</time></trkpt><trkpt lat="43.5639657" lon="11.3780706"><ele>822.0</ele><time>2026-03-22T09:44:42.816Z</time></trkpt><trkpt lat="43.5639622" lon="11.3779699"><ele>822.0</ele><time>2026-03-22T09:44:43.815Z</time></trkpt><trkpt lat="43.563922" lon="11.377896"><ele>822.0</ele><time>2026-03-22T09:44:44.815Z</time></trkpt><trkpt lat="43.563851" lon="11.3778375"><ele>822.5</ele><time>2026-03-22T09:44:45.815Z</time></trkpt><trkpt lat="43.5637453" lon="11.3777948"><ele>823.0</ele><time>2026-03-22T09:44:46.816Z</time></trkpt><trkpt lat="43.5636208" lon="11.3777962"><ele>823.5</ele><time>2026-03-22T09:44:47.816Z</time></trkpt><trkpt lat="43.5634768" lon="11.3778319"><ele>824.0</ele><time>2026-03-22T09:44:48.816Z</time></trkpt><trkpt lat="43.5633262" lon="11.377899"><ele>825.6666666666667</ele><time>2026-03-22T09:44:49.816Z</time></trkpt><trkpt lat="43.5631708" lon="11.3779749"><ele>827.3333333333333</ele><time>2026-03-22T09:44:50.815Z</time></trkpt><trkpt lat="43.5630057" lon="11.3780505"><ele>829.0</ele><time>2026-03-22T09:44:51.816Z</time></trkpt><trkpt lat="43.5628442" lon="11.3781192"><ele>833.6666666666666</ele><time>2026-03-22T09:44:52.816Z</time></trkpt><trkpt lat="43.5627096" lon="11.378188"><ele>838.3333333333333</ele><time>2026-03-22T09:44:53.815Z</time></trkpt><trkpt lat="43.5625842" lon="11.3782865"><ele>843.0</ele><time>2026-03-22T09:44:54.815Z</time></trkpt><trkpt lat="43.56245" lon="11.378425"><ele>843.0</ele><time>2026-03-22T09:44:55.816Z</time></trkpt><trkpt lat="43.5623377" lon="11.3785979"><ele>843.0</ele><time>2026-03-22T09:44:56.816Z</time></trkpt><trkpt lat="43.5622143" lon="11.378809"><ele>843.0</ele><time>2026-03-22T09:44:57.816Z</time></trkpt><trkpt lat="43.5621012" lon="11.3790341"><ele>850.6666666666667</ele><time>2026-03-22T09:44:58.815Z</time></trkpt><trkpt lat="43.5619716" lon="11.3792711"><ele>858.3333333333334</ele><time>2026-03-22T09:44:59.816Z</time></trkpt><trkpt lat="43.5618429" lon="11.3794849"><ele>866.0</ele><time>2026-03-22T09:45:00.816Z</time></trkpt><trkpt lat="43.5617335" lon="11.3796799"><ele>862.75</ele><time>2026-03-22T09:45:01.816Z</time></trkpt><trkpt lat="43.5616372" lon="11.379856"><ele>859.5</ele><time>2026-03-22T09:45:02.816Z</time></trkpt><trkpt lat="43.5615657" lon="11.3800075"><ele>856.25</ele><time>2026-03-22T09:45:03.816Z</time></trkpt><trkpt lat="43.5614987" lon="11.3801343"><ele>853.0</ele><time>2026-03-22T09:45:04.816Z</time></trkpt><trkpt lat="43.5614204" lon="11.3802285"><ele>853.0</ele><time>2026-03-22T09:45:05.815Z</time></trkpt><trkpt lat="43.5613226" lon="11.3803168"><ele>853.0</ele><time>2026-03-22T09:45:06.815Z</time></trkpt><trkpt lat="43.5612152" lon="11.3803792"><ele>853.0</ele><time>2026-03-22T09:45:07.816Z</time></trkpt><trkpt lat="43.561102" lon="11.3804381"><ele>853.0</ele><time>2026-03-22T09:45:08.816Z</time></trkpt><trkpt lat="43.5609916" lon="11.380488"><ele>851.5999999999999</ele><time>2026-03-22T09:45:09.815Z</time></trkpt><trkpt lat="43.560889" lon="11.380541"><ele>850.1999999999999</ele><time>2026-03-22T09:45:10.815Z</time></trkpt><trkpt lat="43.5607893" lon="11.3805919"><ele>848.8</ele><time>2026-03-22T09:45:11.816Z</time></trkpt><trkpt lat="43.5606977" lon="11.3806244"><ele>847.4</ele><time>2026-03-22T09:45:12.815Z</time></trkpt><trkpt lat="43.5606158" lon="11.3806474"><ele>846.0</ele><time>2026-03-22T09:45:13.816Z</time></trkpt><trkpt lat="43.5605458" lon="11.3806569"><ele>846.0</ele><time>2026-03-22T09:45:14.816Z</time></trkpt><trkpt lat="43.560478" lon="11.3806867"><ele>846.0</ele><time>2026-03-22T09:45:15.815Z</time></trkpt><trkpt lat="43.5604136" lon="11.3807194"><ele>846.0</ele><time>2026-03-22T09:45:16.816Z</time></trkpt><trkpt lat="43.5603481" lon="11.3807862"><ele>846.0</ele><time>2026-03-22T09:45:17.816Z</time></trkpt><trkpt lat="43.5602798" lon="11.3808724"><ele>846.0</ele><time>2026-03-22T09:45:18.815Z</time></trkpt><trkpt lat="43.5602194" lon="11.3809734"><ele>846.0</ele><time>2026-03-22T09:45:19.816Z</time></trkpt><trkpt lat="43.5601663" lon="11.381077"><ele>846.25</ele><time>2026-03-22T09:45:20.816Z</time></trkpt><trkpt lat="43.5601101" lon="11.3811901"><ele>846.5</ele><time>2026-03-22T09:45:21.816Z</time></trkpt><trkpt lat="43.560044" lon="11.3813059"><ele>846.75</ele><time>2026-03-22T09:45:22.816Z</time></trkpt><trkpt lat="43.5599677" lon="11.3814354"><ele>847.0</ele><time>2026-03-22T09:45:23.816Z</time></trkpt><trkpt lat="43.5598814" lon="11.3815656"><ele>845.0</ele><time>2026-03-22T09:45:24.816Z</time></trkpt><trkpt lat="43.5598014" lon="11.3816995"><ele>843.0</ele><time>2026-03-22T09:45:25.816Z</time></trkpt><trkpt lat="43.5597351" lon="11.3818219"><ele>841.0</ele><time>2026-03-22T09:45:26.815Z</time></trkpt><trkpt lat="43.5596647" lon="11.3819482"><ele>839.0</ele><time>2026-03-22T09:45:27.816Z</time></trkpt><trkpt lat="43.5595871" lon="11.3820823"><ele>840.25</ele><time>2026-03-22T09:45:28.816Z</time></trkpt><trkpt lat="43.5595008" lon="11.3822202"><ele>841.5</ele><time>2026-03-22T09:45:29.816Z</time></trkpt><trkpt lat="43.559421" lon="11.3823581"><ele>842.75</ele><time>2026-03-22T09:45:30.816Z</time></trkpt><trkpt lat="43.5593403" lon="11.382474"><ele>844.0</ele><time>2026-03-22T09:45:31.815Z</time></trkpt><trkpt lat="43.5592657" lon="11.3825724"><ele>844.0</ele><time>2026-03-22T09:45:32.816Z</time></trkpt><trkpt lat="43.5591881" lon="11.3826491"><ele>844.0</ele><time>2026-03-22T09:45:33.816Z</time></trkpt><trkpt lat="43.5591053" lon="11.3827109"><ele>844.0</ele><time>2026-03-22T09:45:34.816Z</time></trkpt><trkpt lat="43.5590127" lon="11.3827703"><ele>844.0</ele><time>2026-03-22T09:45:35.816Z</time></trkpt><trkpt lat="43.5589263" lon="11.3828132"><ele>844.0</ele><time>2026-03-22T09:45:36.816Z</time></trkpt><trkpt lat="43.5588331" lon="11.3828511"><ele>844.0</ele><time>2026-03-22T09:45:37.816Z</time></trkpt><trkpt lat="43.5587307" lon="11.3828731"><ele>844.0</ele><time>2026-03-22T09:45:38.816Z</time></trkpt><trkpt lat="43.5586307" lon="11.3829071"><ele>844.0</ele><time>2026-03-22T09:45:39.815Z</time></trkpt><trkpt lat="43.558527" lon="11.3829597"><ele>844.0</ele><time>2026-03-22T09:45:40.815Z</time></trkpt><trkpt lat="43.5584129" lon="11.3830508"><ele>844.0</ele><time>2026-03-22T09:45:41.815Z</time></trkpt><trkpt lat="43.5583129" lon="11.3831614"><ele>846.5</ele><time>2026-03-22T09:45:42.816Z</time></trkpt><trkpt lat="43.5582197" lon="11.3832708"><ele>849.0</ele><time>2026-03-22T09:45:43.816Z</time></trkpt><trkpt lat="43.5581039" lon="11.3833645"><ele>851.5</ele><time>2026-03-22T09:45:44.816Z</time></trkpt><trkpt lat="43.5579906" lon="11.3834355"><ele>854.0</ele><time>2026-03-22T09:45:45.815Z</time></trkpt><trkpt lat="43.5578602" lon="11.3835155"><ele>854.0</ele><time>2026-03-22T09:45:46.816Z</time></trkpt><trkpt lat="43.5577246" lon="11.3835873"><ele>854.0</ele><time>2026-03-22T09:45:47.816Z</time></trkpt><trkpt lat="43.557603" lon="11.383666"><ele>854.0</ele><time>2026-03-22T09:45:48.815Z</time></trkpt><trkpt lat="43.557481" lon="11.3837278"><ele>854.0</ele><time>2026-03-22T09:45:49.815Z</time></trkpt><trkpt lat="43.5573795" lon="11.3837659"><ele>868.0</ele><time>2026-03-22T09:45:50.816Z</time></trkpt><trkpt lat="43.5550441" lon="11.384687"><ele>868.0</ele><time>2026-03-22T09:46:16.81Z</time></trkpt><trkpt lat="43.5549568" lon="11.3847446"><ele>868.0</ele><time>2026-03-22T09:46:17.761Z</time></trkpt><trkpt lat="43.5503159" lon="11.385895"><ele>866.9999999999999</ele><time>2026-03-22T09:47:47.77Z</time></trkpt><trkpt lat="43.550275" lon="11.3858186"><ele>866.0</ele><time>2026-03-22T09:47:48.86Z</time></trkpt><trkpt lat="43.5502029" lon="11.3858975"><ele>865.0</ele><time>2026-03-22T09:47:50.097Z</time></trkpt><trkpt lat="43.5501332" lon="11.3859025"><ele>864.0</ele><time>2026-03-22T09:47:51.789Z</time></trkpt><trkpt lat="43.5501967" lon="11.3859355"><ele>862.9999999999999</ele><time>2026-03-22T09:48:10.79Z</time></trkpt><trkpt lat="43.5502214" lon="11.3860276"><ele>862.0</ele><time>2026-03-22T09:48:34.79Z</time></trkpt><trkpt lat="43.5501397" lon="11.3860765"><ele>862.0</ele><time>2026-03-22T09:49:33.79Z</time></trkpt><trkpt lat="43.5500825" lon="11.3861887"><ele>862.0</ele><time>2026-03-22T09:49:35.79Z</time></trkpt><trkpt lat="43.5500007" lon="11.3862869"><ele>862.0</ele><time>2026-03-22T09:49:37.79Z</time></trkpt><trkpt lat="43.5498985" lon="11.3863656"><ele>862.0</ele><time>2026-03-22T09:49:39.79Z</time></trkpt><trkpt lat="43.5498385" lon="11.3863998"><ele>862.0</ele><time>2026-03-22T09:49:40.79Z</time></trkpt><trkpt lat="43.5497279" lon="11.3864596"><ele>860.8</ele><time>2026-03-22T09:49:42.79Z</time></trkpt><trkpt lat="43.549626" lon="11.3865645"><ele>859.6</ele><time>2026-03-22T09:49:44.79Z</time></trkpt><trkpt lat="43.5495319" lon="11.3866623"><ele>858.3999999999999</ele><time>2026-03-22T09:49:46.79Z</time></trkpt><trkpt lat="43.549456" lon="11.3867538"><ele>857.1999999999999</ele><time>2026-03-22T09:49:48.79Z</time></trkpt><trkpt lat="43.5494172" lon="11.3868346"><ele>856.0</ele><time>2026-03-22T09:49:50.79Z</time></trkpt><trkpt lat="43.549382" lon="11.3869267"><ele>856.0000000000001</ele><time>2026-03-22T09:49:52.79Z</time></trkpt><trkpt lat="43.5493495" lon="11.3870035"><ele>856.0</ele><time>2026-03-22T09:49:53.79Z</time></trkpt><trkpt lat="43.549298" lon="11.3870904"><ele>856.0</ele><time>2026-03-22T09:49:54.79Z</time></trkpt><trkpt lat="43.5492467" lon="11.3871487"><ele>856.0</ele><time>2026-03-22T09:49:55.79Z</time></trkpt><trkpt lat="43.5492053" lon="11.3872312"><ele>856.0</ele><time>2026-03-22T09:49:57.79Z</time></trkpt><trkpt lat="43.5491763" lon="11.3873193"><ele>856.0000000000001</ele><time>2026-03-22T09:50:00.79Z</time></trkpt><trkpt lat="43.549183" lon="11.3874153"><ele>856.0</ele><time>2026-03-22T09:50:03.79Z</time></trkpt><trkpt lat="43.549206" lon="11.3875457"><ele>858.0</ele><time>2026-03-22T09:50:07.79Z</time></trkpt><trkpt lat="43.5491885" lon="11.3877206"><ele>859.9999999999999</ele><time>2026-03-22T09:50:09.79Z</time></trkpt><trkpt lat="43.5491553" lon="11.3878121"><ele>861.9999999999999</ele><time>2026-03-22T09:50:10.789Z</time></trkpt><trkpt lat="43.5491225" lon="11.3878976"><ele>864.0</ele><time>2026-03-22T09:50:11.79Z</time></trkpt><trkpt lat="43.5490979" lon="11.3880705"><ele>866.0</ele><time>2026-03-22T09:50:13.79Z</time></trkpt><trkpt lat="43.5490943" lon="11.3881742"><ele>866.7142857142857</ele><time>2026-03-22T09:50:14.79Z</time></trkpt><trkpt lat="43.5490924" lon="11.3882674"><ele>867.4285714285714</ele><time>2026-03-22T09:50:15.79Z</time></trkpt><trkpt lat="43.5490835" lon="11.3883555"><ele>868.1428571428571</ele><time>2026-03-22T09:50:16.79Z</time></trkpt><trkpt lat="43.5490472" lon="11.3884391"><ele>868.8571428571429</ele><time>2026-03-22T09:50:17.79Z</time></trkpt><trkpt lat="43.5489815" lon="11.3884773"><ele>869.5714285714286</ele><time>2026-03-22T09:50:18.79Z</time></trkpt><trkpt lat="43.5489217" lon="11.3885258"><ele>870.2857142857142</ele><time>2026-03-22T09:50:19.789Z</time></trkpt><trkpt lat="43.5488344" lon="11.3886076"><ele>871.0</ele><time>2026-03-22T09:50:21.79Z</time></trkpt><trkpt lat="43.5488001" lon="11.3886936"><ele>871.0</ele><time>2026-03-22T09:50:23.79Z</time></trkpt><trkpt lat="43.5487905" lon="11.3888164"><ele>870.9999999999999</ele><time>2026-03-22T09:50:25.79Z</time></trkpt><trkpt lat="43.5488194" lon="11.3889476"><ele>870.9999999999999</ele><time>2026-03-22T09:50:27.79Z</time></trkpt><trkpt lat="43.5488467" lon="11.3890284"><ele>871.0</ele><time>2026-03-22T09:50:28.79Z</time></trkpt><trkpt lat="43.5488991" lon="11.3891623"><ele>871.0</ele><time>2026-03-22T09:50:30.79Z</time></trkpt><trkpt lat="43.5489504" lon="11.3893064"><ele>870.8571428571429</ele><time>2026-03-22T09:50:32.79Z</time></trkpt><trkpt lat="43.5489951" lon="11.3893768"><ele>870.7142857142857</ele><time>2026-03-22T09:50:33.79Z</time></trkpt><trkpt lat="43.5490438" lon="11.389448"><ele>870.5714285714287</ele><time>2026-03-22T09:50:34.789Z</time></trkpt><trkpt lat="43.5491082" lon="11.389505"><ele>870.4285714285714</ele><time>2026-03-22T09:50:35.79Z</time></trkpt><trkpt lat="43.5491699" lon="11.3895715"><ele>870.2857142857143</ele><time>2026-03-22T09:50:36.789Z</time></trkpt><trkpt lat="43.5492285" lon="11.3896199"><ele>870.1428571428572</ele><time>2026-03-22T09:50:37.79Z</time></trkpt><trkpt lat="43.5492853" lon="11.3897039"><ele>870.0</ele><time>2026-03-22T09:50:38.789Z</time></trkpt><trkpt lat="43.5493444" lon="11.3898237"><ele>866.8</ele><time>2026-03-22T09:50:39.79Z</time></trkpt><trkpt lat="43.5494026" lon="11.3899311"><ele>863.6</ele><time>2026-03-22T09:50:40.79Z</time></trkpt><trkpt lat="43.5494588" lon="11.3900414"><ele>860.4000000000001</ele><time>2026-03-22T09:50:41.79Z</time></trkpt><trkpt lat="43.5495053" lon="11.3901725"><ele>857.2</ele><time>2026-03-22T09:50:42.789Z</time></trkpt><trkpt lat="43.5495309" lon="11.3902826"><ele>854.0</ele><time>2026-03-22T09:50:43.79Z</time></trkpt><trkpt lat="43.5495383" lon="11.3903965"><ele>854.6666666666667</ele><time>2026-03-22T09:50:44.79Z</time></trkpt><trkpt lat="43.549552" lon="11.3905327"><ele>855.3333333333334</ele><time>2026-03-22T09:50:45.79Z</time></trkpt><trkpt lat="43.5495874" lon="11.3906431"><ele>856.0</ele><time>2026-03-22T09:50:46.789Z</time></trkpt><trkpt lat="43.5496253" lon="11.3907573"><ele>856.6666666666667</ele><time>2026-03-22T09:50:47.79Z</time></trkpt><trkpt lat="43.5496645" lon="11.3908495"><ele>857.3333333333334</ele><time>2026-03-22T09:50:48.79Z</time></trkpt><trkpt lat="43.5497124" lon="11.3909468"><ele>858.0</ele><time>2026-03-22T09:50:49.79Z</time></trkpt><trkpt lat="43.5497483" lon="11.3910305"><ele>858.0</ele><time>2026-03-22T09:50:50.79Z</time></trkpt><trkpt lat="43.549793" lon="11.3911047"><ele>858.0</ele><time>2026-03-22T09:50:51.789Z</time></trkpt><trkpt lat="43.5499017" lon="11.3911518"><ele>858.0</ele><time>2026-03-22T09:50:53.79Z</time></trkpt><trkpt lat="43.5500203" lon="11.391115"><ele>858.0</ele><time>2026-03-22T09:50:55.79Z</time></trkpt><trkpt lat="43.5500917" lon="11.3910757"><ele>858.0</ele><time>2026-03-22T09:50:56.789Z</time></trkpt><trkpt lat="43.550155" lon="11.391042"><ele>858.0</ele><time>2026-03-22T09:50:57.79Z</time></trkpt><trkpt lat="43.5502437" lon="11.3910128"><ele>858.0</ele><time>2026-03-22T09:50:59.79Z</time></trkpt><trkpt lat="43.5503114" lon="11.3910384"><ele>858.0</ele><time>2026-03-22T09:51:01.79Z</time></trkpt><trkpt lat="43.5503768" lon="11.391172"><ele>858.0</ele><time>2026-03-22T09:51:03.79Z</time></trkpt><trkpt lat="43.5503701" lon="11.3913031"><ele>858.0</ele><time>2026-03-22T09:51:04.79Z</time></trkpt><trkpt lat="43.5503435" lon="11.3914384"><ele>855.0</ele><time>2026-03-22T09:51:05.79Z</time></trkpt><trkpt lat="43.5503233" lon="11.3915706"><ele>852.0</ele><time>2026-03-22T09:51:06.79Z</time></trkpt><trkpt lat="43.5503003" lon="11.3916934"><ele>849.0</ele><time>2026-03-22T09:51:07.789Z</time></trkpt><trkpt lat="43.5502814" lon="11.3917916"><ele>846.0</ele><time>2026-03-22T09:51:08.789Z</time></trkpt><trkpt lat="43.5502659" lon="11.3918894"><ele>843.0</ele><time>2026-03-22T09:51:09.79Z</time></trkpt><trkpt lat="43.5502643" lon="11.3919951"><ele>840.0</ele><time>2026-03-22T09:51:10.789Z</time></trkpt><trkpt lat="43.5502501" lon="11.3921013"><ele>838.0</ele><time>2026-03-22T09:51:11.789Z</time></trkpt><trkpt lat="43.5502295" lon="11.3921993"><ele>836.0</ele><time>2026-03-22T09:51:12.79Z</time></trkpt><trkpt lat="43.5502177" lon="11.3923006"><ele>834.0</ele><time>2026-03-22T09:51:13.79Z</time></trkpt><trkpt lat="43.550212" lon="11.392394"><ele>832.0</ele><time>2026-03-22T09:51:14.79Z</time></trkpt><trkpt lat="43.5502077" lon="11.392493"><ele>830.0</ele><time>2026-03-22T09:51:15.79Z</time></trkpt><trkpt lat="43.5502136" lon="11.3925894"><ele>828.0</ele><time>2026-03-22T09:51:16.79Z</time></trkpt><trkpt lat="43.5502416" lon="11.3926783"><ele>826.0</ele><time>2026-03-22T09:51:17.789Z</time></trkpt><trkpt lat="43.5502871" lon="11.3927598"><ele>825.9999999999999</ele><time>2026-03-22T09:51:18.79Z</time></trkpt><trkpt lat="43.5503429" lon="11.3928461"><ele>826.0</ele><time>2026-03-22T09:51:19.79Z</time></trkpt><trkpt lat="43.5504053" lon="11.3929394"><ele>826.0</ele><time>2026-03-22T09:51:20.79Z</time></trkpt><trkpt lat="43.5504734" lon="11.3930165"><ele>826.0</ele><time>2026-03-22T09:51:21.79Z</time></trkpt><trkpt lat="43.550535" lon="11.3930865"><ele>825.9999999999999</ele><time>2026-03-22T09:51:22.789Z</time></trkpt><trkpt lat="43.5506077" lon="11.3931471"><ele>826.0</ele><time>2026-03-22T09:51:23.789Z</time></trkpt><trkpt lat="43.5506778" lon="11.39318"><ele>827.1428571428571</ele><time>2026-03-22T09:51:24.789Z</time></trkpt><trkpt lat="43.5507543" lon="11.3932011"><ele>828.2857142857142</ele><time>2026-03-22T09:51:25.79Z</time></trkpt><trkpt lat="43.5508382" lon="11.393198"><ele>829.4285714285714</ele><time>2026-03-22T09:51:26.79Z</time></trkpt><trkpt lat="43.5509169" lon="11.3931839"><ele>830.5714285714286</ele><time>2026-03-22T09:51:27.79Z</time></trkpt><trkpt lat="43.5509724" lon="11.3931331"><ele>831.7142857142857</ele><time>2026-03-22T09:51:28.79Z</time></trkpt><trkpt lat="43.5510251" lon="11.3930679"><ele>832.8571428571429</ele><time>2026-03-22T09:51:29.79Z</time></trkpt><trkpt lat="43.5510783" lon="11.3930035"><ele>834.0</ele><time>2026-03-22T09:51:30.789Z</time></trkpt><trkpt lat="43.5511916" lon="11.3929751"><ele>831.1666666666666</ele><time>2026-03-22T09:51:32.79Z</time></trkpt><trkpt lat="43.551253" lon="11.3930119"><ele>828.3333333333333</ele><time>2026-03-22T09:51:33.789Z</time></trkpt><trkpt lat="43.5513009" lon="11.3931698"><ele>825.5</ele><time>2026-03-22T09:51:35.79Z</time></trkpt><trkpt lat="43.5512735" lon="11.3932711"><ele>822.6666666666666</ele><time>2026-03-22T09:51:36.79Z</time></trkpt><trkpt lat="43.5512304" lon="11.3933691"><ele>819.8333333333333</ele><time>2026-03-22T09:51:37.79Z</time></trkpt><trkpt lat="43.5511887" lon="11.3934435"><ele>817.0</ele><time>2026-03-22T09:51:38.79Z</time></trkpt><trkpt lat="43.551074" lon="11.3935486"><ele>817.0</ele><time>2026-03-22T09:51:40.79Z</time></trkpt><trkpt lat="43.5510015" lon="11.3936183"><ele>817.0</ele><time>2026-03-22T09:51:42.789Z</time></trkpt><trkpt lat="43.5509686" lon="11.3937676"><ele>817.0</ele><time>2026-03-22T09:51:44.79Z</time></trkpt><trkpt lat="43.5509865" lon="11.3938657"><ele>817.0</ele><time>2026-03-22T09:51:45.79Z</time></trkpt><trkpt lat="43.5510218" lon="11.3940016"><ele>817.0</ele><time>2026-03-22T09:51:46.789Z</time></trkpt><trkpt lat="43.5510659" lon="11.3941285"><ele>813.8</ele><time>2026-03-22T09:51:47.79Z</time></trkpt><trkpt lat="43.5511241" lon="11.3942549"><ele>810.6</ele><time>2026-03-22T09:51:48.79Z</time></trkpt><trkpt lat="43.5511875" lon="11.3943736"><ele>807.4</ele><time>2026-03-22T09:51:49.79Z</time></trkpt><trkpt lat="43.5512455" lon="11.3944824"><ele>804.1999999999999</ele><time>2026-03-22T09:51:50.79Z</time></trkpt><trkpt lat="43.5513131" lon="11.3945781"><ele>801.0</ele><time>2026-03-22T09:51:51.789Z</time></trkpt><trkpt lat="43.5513765" lon="11.3946665"><ele>799.5</ele><time>2026-03-22T09:51:52.79Z</time></trkpt><trkpt lat="43.551428" lon="11.3947584"><ele>798.0</ele><time>2026-03-22T09:51:53.79Z</time></trkpt><trkpt lat="43.5514805" lon="11.3948476"><ele>796.5</ele><time>2026-03-22T09:51:54.79Z</time></trkpt><trkpt lat="43.5515335" lon="11.3949339"><ele>795.0</ele><time>2026-03-22T09:51:55.79Z</time></trkpt><trkpt lat="43.5515758" lon="11.3950192"><ele>793.5</ele><time>2026-03-22T09:51:56.79Z</time></trkpt><trkpt lat="43.5516025" lon="11.3951614"><ele>792.0</ele><time>2026-03-22T09:51:58.79Z</time></trkpt><trkpt lat="43.5515468" lon="11.3952527"><ele>792.0</ele><time>2026-03-22T09:52:00.79Z</time></trkpt><trkpt lat="43.5514918" lon="11.3952968"><ele>792.0</ele><time>2026-03-22T09:52:01.789Z</time></trkpt><trkpt lat="43.5514198" lon="11.3953366"><ele>792.0</ele><time>2026-03-22T09:52:02.789Z</time></trkpt><trkpt lat="43.55134" lon="11.3953787"><ele>792.0</ele><time>2026-03-22T09:52:03.789Z</time></trkpt><trkpt lat="43.5512421" lon="11.3954138"><ele>792.0</ele><time>2026-03-22T09:52:04.789Z</time></trkpt><trkpt lat="43.5511505" lon="11.3954405"><ele>792.0</ele><time>2026-03-22T09:52:05.79Z</time></trkpt><trkpt lat="43.5510666" lon="11.3954578"><ele>792.8</ele><time>2026-03-22T09:52:06.79Z</time></trkpt><trkpt lat="43.5509903" lon="11.3954695"><ele>793.6</ele><time>2026-03-22T09:52:07.789Z</time></trkpt><trkpt lat="43.5508902" lon="11.3954674"><ele>794.4</ele><time>2026-03-22T09:52:09.79Z</time></trkpt><trkpt lat="43.5507923" lon="11.3954003"><ele>795.1999999999999</ele><time>2026-03-22T09:52:11.79Z</time></trkpt><trkpt lat="43.5507098" lon="11.3952779"><ele>796.0</ele><time>2026-03-22T09:52:13.789Z</time></trkpt><trkpt lat="43.5506654" lon="11.3951918"><ele>795.9999999999999</ele><time>2026-03-22T09:52:14.79Z</time></trkpt><trkpt lat="43.5506316" lon="11.3951149"><ele>796.0</ele><time>2026-03-22T09:52:15.79Z</time></trkpt><trkpt lat="43.5506139" lon="11.3950239"><ele>796.0</ele><time>2026-03-22T09:52:16.79Z</time></trkpt><trkpt lat="43.5506106" lon="11.3949234"><ele>796.0</ele><time>2026-03-22T09:52:17.79Z</time></trkpt><trkpt lat="43.5506091" lon="11.3948171"><ele>796.0</ele><time>2026-03-22T09:52:18.79Z</time></trkpt><trkpt lat="43.5506027" lon="11.3947118"><ele>795.9999999999999</ele><time>2026-03-22T09:52:19.79Z</time></trkpt><trkpt lat="43.5505818" lon="11.3946206"><ele>796.0</ele><time>2026-03-22T09:52:20.79Z</time></trkpt><trkpt lat="43.5505508" lon="11.3945298"><ele>795.8333333333333</ele><time>2026-03-22T09:52:21.79Z</time></trkpt><trkpt lat="43.5505134" lon="11.3944429"><ele>795.6666666666666</ele><time>2026-03-22T09:52:22.79Z</time></trkpt><trkpt lat="43.5504651" lon="11.3943677"><ele>795.5</ele><time>2026-03-22T09:52:23.79Z</time></trkpt><trkpt lat="43.5503795" lon="11.394265"><ele>795.3333333333333</ele><time>2026-03-22T09:52:25.789Z</time></trkpt><trkpt lat="43.5502618" lon="11.3942881"><ele>795.1666666666666</ele><time>2026-03-22T09:52:27.79Z</time></trkpt><trkpt lat="43.5502317" lon="11.3943663"><ele>795.0</ele><time>2026-03-22T09:52:28.79Z</time></trkpt><trkpt lat="43.5502468" lon="11.3944774"><ele>795.0</ele><time>2026-03-22T09:52:29.789Z</time></trkpt><trkpt lat="43.5502531" lon="11.3945815"><ele>795.0</ele><time>2026-03-22T09:52:30.79Z</time></trkpt><trkpt lat="43.5502675" lon="11.3946734"><ele>795.0</ele><time>2026-03-22T09:52:31.79Z</time></trkpt><trkpt lat="43.5502623" lon="11.394828"><ele>795.0</ele><time>2026-03-22T09:52:33.79Z</time></trkpt><trkpt lat="43.5502132" lon="11.3949388"><ele>795.0</ele><time>2026-03-22T09:52:35.79Z</time></trkpt><trkpt lat="43.5501761" lon="11.3950106"><ele>795.0</ele><time>2026-03-22T09:52:36.79Z</time></trkpt><trkpt lat="43.5501601" lon="11.3951268"><ele>792.3333333333334</ele><time>2026-03-22T09:52:37.79Z</time></trkpt><trkpt lat="43.5501499" lon="11.3952432"><ele>789.6666666666667</ele><time>2026-03-22T09:52:38.79Z</time></trkpt><trkpt lat="43.5501631" lon="11.3953513"><ele>787.0</ele><time>2026-03-22T09:52:39.79Z</time></trkpt><trkpt lat="43.5502" lon="11.3954632"><ele>784.3333333333334</ele><time>2026-03-22T09:52:40.79Z</time></trkpt><trkpt lat="43.55023" lon="11.3955644"><ele>781.6666666666667</ele><time>2026-03-22T09:52:41.79Z</time></trkpt><trkpt lat="43.5502323" lon="11.3956665"><ele>779.0</ele><time>2026-03-22T09:52:42.79Z</time></trkpt><trkpt lat="43.5502183" lon="11.3957549"><ele>777.2</ele><time>2026-03-22T09:52:43.79Z</time></trkpt><trkpt lat="43.550216" lon="11.3959116"><ele>775.4000000000001</ele><time>2026-03-22T09:52:45.79Z</time></trkpt><trkpt lat="43.5501991" lon="11.3960558"><ele>773.6</ele><time>2026-03-22T09:52:47.79Z</time></trkpt><trkpt lat="43.55009" lon="11.396147"><ele>771.8</ele><time>2026-03-22T09:52:49.789Z</time></trkpt><trkpt lat="43.5500289" lon="11.3961904"><ele>770.0</ele><time>2026-03-22T09:52:50.79Z</time></trkpt><trkpt lat="43.5499397" lon="11.396262"><ele>769.1666666666667</ele><time>2026-03-22T09:52:52.79Z</time></trkpt><trkpt lat="43.5499258" lon="11.3964238"><ele>768.3333333333334</ele><time>2026-03-22T09:52:54.79Z</time></trkpt><trkpt lat="43.5499447" lon="11.3965179"><ele>767.5</ele><time>2026-03-22T09:52:55.79Z</time></trkpt><trkpt lat="43.5499611" lon="11.3966034"><ele>766.6666666666667</ele><time>2026-03-22T09:52:56.79Z</time></trkpt><trkpt lat="43.5499629" lon="11.3967002"><ele>765.8333333333334</ele><time>2026-03-22T09:52:57.79Z</time></trkpt><trkpt lat="43.5499388" lon="11.3968025"><ele>765.0</ele><time>2026-03-22T09:52:58.79Z</time></trkpt><trkpt lat="43.5499" lon="11.3969088"><ele>765.0</ele><time>2026-03-22T09:52:59.789Z</time></trkpt><trkpt lat="43.5498466" lon="11.3970495"><ele>765.0</ele><time>2026-03-22T09:53:00.79Z</time></trkpt><trkpt lat="43.5498013" lon="11.3971677"><ele>765.0</ele><time>2026-03-22T09:53:01.79Z</time></trkpt><trkpt lat="43.5497709" lon="11.3972645"><ele>765.0</ele><time>2026-03-22T09:53:02.79Z</time></trkpt><trkpt lat="43.5497487" lon="11.3973544"><ele>765.0</ele><time>2026-03-22T09:53:03.79Z</time></trkpt><trkpt lat="43.5497331" lon="11.3974481"><ele>765.0</ele><time>2026-03-22T09:53:04.79Z</time></trkpt><trkpt lat="43.5497191" lon="11.3976239"><ele>763.1666666666666</ele><time>2026-03-22T09:53:06.79Z</time></trkpt><trkpt lat="43.5497344" lon="11.3977181"><ele>761.3333333333334</ele><time>2026-03-22T09:53:07.789Z</time></trkpt><trkpt lat="43.549765" lon="11.3978044"><ele>759.5</ele><time>2026-03-22T09:53:08.79Z</time></trkpt><trkpt lat="43.5498" lon="11.3978778"><ele>757.6666666666667</ele><time>2026-03-22T09:53:09.79Z</time></trkpt><trkpt lat="43.5498404" lon="11.3979455"><ele>755.8333333333334</ele><time>2026-03-22T09:53:10.79Z</time></trkpt><trkpt lat="43.5499193" lon="11.3980453"><ele>754.0</ele><time>2026-03-22T09:53:12.79Z</time></trkpt><trkpt lat="43.5499939" lon="11.3981336"><ele>752.6</ele><time>2026-03-22T09:53:14.789Z</time></trkpt><trkpt lat="43.5500935" lon="11.3981969"><ele>751.2</ele><time>2026-03-22T09:53:16.79Z</time></trkpt><trkpt lat="43.550197" lon="11.3982397"><ele>749.8000000000001</ele><time>2026-03-22T09:53:18.789Z</time></trkpt><trkpt lat="43.5502923" lon="11.3982531"><ele>748.4000000000001</ele><time>2026-03-22T09:53:20.789Z</time></trkpt><trkpt lat="43.5503677" lon="11.3982869"><ele>747.0</ele><time>2026-03-22T09:53:22.79Z</time></trkpt><trkpt lat="43.5504067" lon="11.3983555"><ele>747.0</ele><time>2026-03-22T09:53:25.791Z</time></trkpt><trkpt lat="43.5504348" lon="11.3985148"><ele>747.0</ele><time>2026-03-22T09:53:32.79Z</time></trkpt><trkpt lat="43.5504677" lon="11.3986194"><ele>747.0</ele><time>2026-03-22T09:53:33.791Z</time></trkpt><trkpt lat="43.5505103" lon="11.398742"><ele>747.0</ele><time>2026-03-22T09:53:34.79Z</time></trkpt><trkpt lat="43.5505552" lon="11.3988751"><ele>747.0</ele><time>2026-03-22T09:53:35.791Z</time></trkpt><trkpt lat="43.5505961" lon="11.3990097"><ele>747.0</ele><time>2026-03-22T09:53:36.791Z</time></trkpt><trkpt lat="43.5506324" lon="11.3991455"><ele>747.0</ele><time>2026-03-22T09:53:37.79Z</time></trkpt><trkpt lat="43.5506616" lon="11.3992638"><ele>747.0</ele><time>2026-03-22T09:53:38.791Z</time></trkpt><trkpt lat="43.5506768" lon="11.39937"><ele>747.0</ele><time>2026-03-22T09:53:39.79Z</time></trkpt><trkpt lat="43.5506747" lon="11.3994578"><ele>747.0</ele><time>2026-03-22T09:53:40.791Z</time></trkpt><trkpt lat="43.5506573" lon="11.3995421"><ele>747.0</ele><time>2026-03-22T09:53:42.791Z</time></trkpt><trkpt lat="43.550637" lon="11.3996477"><ele>748.0</ele><time>2026-03-22T09:53:46.791Z</time></trkpt><trkpt lat="43.5506148" lon="11.3997933"><ele>749.0</ele><time>2026-03-22T09:53:49.791Z</time></trkpt><trkpt lat="43.5505915" lon="11.3999135"><ele>750.0</ele><time>2026-03-22T09:53:51.791Z</time></trkpt><trkpt lat="43.5505269" lon="11.4000598"><ele>751.0</ele><time>2026-03-22T09:53:53.791Z</time></trkpt><trkpt lat="43.5505007" lon="11.400155"><ele>752.0</ele><time>2026-03-22T09:53:54.791Z</time></trkpt><trkpt lat="43.5504802" lon="11.400247"><ele>752.0</ele><time>2026-03-22T09:53:55.791Z</time></trkpt><trkpt lat="43.5504613" lon="11.4003341"><ele>752.0</ele><time>2026-03-22T09:53:56.791Z</time></trkpt><trkpt lat="43.5504225" lon="11.4004766"><ele>752.0</ele><time>2026-03-22T09:53:58.791Z</time></trkpt><trkpt lat="43.5504523" lon="11.4006237"><ele>752.0</ele><time>2026-03-22T09:54:00.79Z</time></trkpt><trkpt lat="43.5504809" lon="11.4007041"><ele>752.0</ele><time>2026-03-22T09:54:01.79Z</time></trkpt><trkpt lat="43.5505178" lon="11.4007887"><ele>752.0</ele><time>2026-03-22T09:54:02.791Z</time></trkpt><trkpt lat="43.5505713" lon="11.4008735"><ele>751.6</ele><time>2026-03-22T09:54:03.791Z</time></trkpt><trkpt lat="43.5506161" lon="11.4009561"><ele>751.2</ele><time>2026-03-22T09:54:04.79Z</time></trkpt><trkpt lat="43.5506663" lon="11.4010454"><ele>750.8</ele><time>2026-03-22T09:54:05.791Z</time></trkpt><trkpt lat="43.5507267" lon="11.4011481"><ele>750.4</ele><time>2026-03-22T09:54:06.791Z</time></trkpt><trkpt lat="43.5507902" lon="11.4012546"><ele>750.0</ele><time>2026-03-22T09:54:07.79Z</time></trkpt><trkpt lat="43.5508629" lon="11.4013507"><ele>748.6</ele><time>2026-03-22T09:54:08.791Z</time></trkpt><trkpt lat="43.5509359" lon="11.4014477"><ele>747.2</ele><time>2026-03-22T09:54:09.791Z</time></trkpt><trkpt lat="43.5510067" lon="11.4015403"><ele>745.8</ele><time>2026-03-22T09:54:10.79Z</time></trkpt><trkpt lat="43.551069" lon="11.4016152"><ele>744.4</ele><time>2026-03-22T09:54:11.791Z</time></trkpt><trkpt lat="43.5511158" lon="11.4016855"><ele>743.0</ele><time>2026-03-22T09:54:12.791Z</time></trkpt><trkpt lat="43.5511514" lon="11.4018243"><ele>743.0</ele><time>2026-03-22T09:54:14.791Z</time></trkpt><trkpt lat="43.551195" lon="11.4019836"><ele>743.0</ele><time>2026-03-22T09:54:16.791Z</time></trkpt><trkpt lat="43.5512137" lon="11.4020699"><ele>743.0</ele><time>2026-03-22T09:54:17.791Z</time></trkpt><trkpt lat="43.5512201" lon="11.4021652"><ele>743.0</ele><time>2026-03-22T09:54:18.791Z</time></trkpt><trkpt lat="43.5512168" lon="11.4022662"><ele>743.0</ele><time>2026-03-22T09:54:20.791Z</time></trkpt><trkpt lat="43.5512662" lon="11.4023267"><ele>743.0</ele><time>2026-03-22T09:57:19.791Z</time></trkpt><trkpt lat="43.5513334" lon="11.4023186"><ele>743.1666666666666</ele><time>2026-03-22T09:57:22.79Z</time></trkpt><trkpt lat="43.5513876" lon="11.4023693"><ele>743.3333333333333</ele><time>2026-03-22T09:57:25.791Z</time></trkpt><trkpt lat="43.5514581" lon="11.4024449"><ele>743.5</ele><time>2026-03-22T09:57:28.791Z</time></trkpt><trkpt lat="43.5515162" lon="11.4025195"><ele>743.6666666666666</ele><time>2026-03-22T09:57:30.791Z</time></trkpt><trkpt lat="43.5515788" lon="11.4025497"><ele>743.8333333333334</ele><time>2026-03-22T09:57:35.791Z</time></trkpt><trkpt lat="43.5516388" lon="11.4025993"><ele>744.0</ele><time>2026-03-22T09:57:37.791Z</time></trkpt><trkpt lat="43.5517251" lon="11.4026607"><ele>744.0</ele><time>2026-03-22T09:57:39.79Z</time></trkpt><trkpt lat="43.5518483" lon="11.4027126"><ele>744.0</ele><time>2026-03-22T09:57:41.791Z</time></trkpt><trkpt lat="43.5519055" lon="11.4027501"><ele>744.0</ele><time>2026-03-22T09:57:42.79Z</time></trkpt><trkpt lat="43.5519997" lon="11.4028287"><ele>744.0</ele><time>2026-03-22T09:57:44.791Z</time></trkpt><trkpt lat="43.552068" lon="11.4028813"><ele>744.0</ele><time>2026-03-22T09:57:46.79Z</time></trkpt><trkpt lat="43.5521331" lon="11.4029475"><ele>744.1666666666666</ele><time>2026-03-22T09:57:48.791Z</time></trkpt><trkpt lat="43.5521848" lon="11.4030667"><ele>744.3333333333334</ele><time>2026-03-22T09:57:51.791Z</time></trkpt><trkpt lat="43.552252" lon="11.4031176"><ele>744.5</ele><time>2026-03-22T09:57:53.79Z</time></trkpt><trkpt lat="43.5523242" lon="11.4031333"><ele>744.6666666666667</ele><time>2026-03-22T09:57:55.79Z</time></trkpt><trkpt lat="43.5523872" lon="11.4031946"><ele>744.8333333333334</ele><time>2026-03-22T09:57:57.791Z</time></trkpt><trkpt lat="43.5524289" lon="11.4032712"><ele>745.0</ele><time>2026-03-22T09:57:59.791Z</time></trkpt><trkpt lat="43.5524923" lon="11.4033253"><ele>745.0</ele><time>2026-03-22T09:58:01.79Z</time></trkpt><trkpt lat="43.5526104" lon="11.4033969"><ele>745.0</ele><time>2026-03-22T09:58:03.791Z</time></trkpt><trkpt lat="43.5526857" lon="11.4034346"><ele>745.0</ele><time>2026-03-22T09:58:04.791Z</time></trkpt><trkpt lat="43.5527479" lon="11.4034614"><ele>745.0</ele><time>2026-03-22T09:58:05.791Z</time></trkpt><trkpt lat="43.552814" lon="11.403477"><ele>745.0</ele><time>2026-03-22T09:58:06.79Z</time></trkpt><trkpt lat="43.5528807" lon="11.4034814"><ele>745.0</ele><time>2026-03-22T09:58:08.791Z</time></trkpt><trkpt lat="43.552961" lon="11.4034394"><ele>744.0</ele><time>2026-03-22T09:58:11.79Z</time></trkpt><trkpt lat="43.5530357" lon="11.4034355"><ele>743.0</ele><time>2026-03-22T09:58:13.79Z</time></trkpt><trkpt lat="43.5531287" lon="11.4034699"><ele>742.0</ele><time>2026-03-22T09:58:15.79Z</time></trkpt><trkpt lat="43.5532136" lon="11.4034428"><ele>741.0</ele><time>2026-03-22T09:58:17.791Z</time></trkpt><trkpt lat="43.5533002" lon="11.4034374"><ele>740.0</ele><time>2026-03-22T09:58:19.791Z</time></trkpt><trkpt lat="43.5534104" lon="11.4034863"><ele>739.9999999999999</ele><time>2026-03-22T09:58:21.791Z</time></trkpt><trkpt lat="43.5534666" lon="11.4035335"><ele>740.0</ele><time>2026-03-22T09:58:22.791Z</time></trkpt><trkpt lat="43.5535271" lon="11.4035702"><ele>740.0</ele><time>2026-03-22T09:58:23.791Z</time></trkpt><trkpt lat="43.5535901" lon="11.4036026"><ele>740.0</ele><time>2026-03-22T09:58:25.791Z</time></trkpt><trkpt lat="43.5536658" lon="11.4036151"><ele>740.0</ele><time>2026-03-22T09:58:28.79Z</time></trkpt><trkpt lat="43.5537281" lon="11.403585"><ele>739.9999999999999</ele><time>2026-03-22T09:58:39.791Z</time></trkpt><trkpt lat="43.5537954" lon="11.4035852"><ele>740.0</ele><time>2026-03-22T09:58:41.791Z</time></trkpt><trkpt lat="43.5538676" lon="11.4035929"><ele>738.6666666666666</ele><time>2026-03-22T09:58:43.79Z</time></trkpt><trkpt lat="43.553965" lon="11.4036303"><ele>737.3333333333333</ele><time>2026-03-22T09:58:45.79Z</time></trkpt><trkpt lat="43.5540255" lon="11.4036645"><ele>736.0</ele><time>2026-03-22T09:58:46.791Z</time></trkpt><trkpt lat="43.5540943" lon="11.403702"><ele>734.6666666666666</ele><time>2026-03-22T09:58:47.791Z</time></trkpt><trkpt lat="43.5541663" lon="11.4037228"><ele>733.3333333333334</ele><time>2026-03-22T09:58:48.79Z</time></trkpt><trkpt lat="43.5542418" lon="11.4037304"><ele>732.0</ele><time>2026-03-22T09:58:49.791Z</time></trkpt><trkpt lat="43.5543392" lon="11.4037542"><ele>732.0</ele><time>2026-03-22T09:58:50.791Z</time></trkpt><trkpt lat="43.5544399" lon="11.4037846"><ele>732.0</ele><time>2026-03-22T09:58:51.791Z</time></trkpt><trkpt lat="43.5545439" lon="11.4038221"><ele>732.0</ele><time>2026-03-22T09:58:52.791Z</time></trkpt><trkpt lat="43.5546462" lon="11.4038585"><ele>732.0</ele><time>2026-03-22T09:58:53.791Z</time></trkpt><trkpt lat="43.5547486" lon="11.4038939"><ele>732.0</ele><time>2026-03-22T09:58:54.79Z</time></trkpt><trkpt lat="43.5548609" lon="11.403912"><ele>731.0</ele><time>2026-03-22T09:58:55.791Z</time></trkpt><trkpt lat="43.5549739" lon="11.4039186"><ele>730.0</ele><time>2026-03-22T09:58:56.791Z</time></trkpt><trkpt lat="43.5550897" lon="11.4039337"><ele>729.0</ele><time>2026-03-22T09:58:57.791Z</time></trkpt><trkpt lat="43.5552058" lon="11.4039437"><ele>728.0</ele><time>2026-03-22T09:58:58.791Z</time></trkpt><trkpt lat="43.5553217" lon="11.4039559"><ele>727.8333333333333</ele><time>2026-03-22T09:58:59.791Z</time></trkpt><trkpt lat="43.5554281" lon="11.4039669"><ele>727.6666666666666</ele><time>2026-03-22T09:59:00.79Z</time></trkpt><trkpt lat="43.5555257" lon="11.4039698"><ele>727.5</ele><time>2026-03-22T09:59:01.79Z</time></trkpt><trkpt lat="43.5556025" lon="11.4039742"><ele>727.3333333333334</ele><time>2026-03-22T09:59:02.791Z</time></trkpt><trkpt lat="43.5556872" lon="11.4039884"><ele>727.1666666666667</ele><time>2026-03-22T09:59:04.79Z</time></trkpt><trkpt lat="43.555758" lon="11.4039914"><ele>727.0</ele><time>2026-03-22T09:59:06.791Z</time></trkpt><trkpt lat="43.5558478" lon="11.403943"><ele>727.0</ele><time>2026-03-22T09:59:08.791Z</time></trkpt><trkpt lat="43.5559644" lon="11.4038747"><ele>727.0</ele><time>2026-03-22T09:59:10.791Z</time></trkpt><trkpt lat="43.5560454" lon="11.4038467"><ele>727.0</ele><time>2026-03-22T09:59:11.791Z</time></trkpt><trkpt lat="43.5561423" lon="11.4038451"><ele>727.0</ele><time>2026-03-22T09:59:12.791Z</time></trkpt><trkpt lat="43.5562405" lon="11.4038542"><ele>727.0</ele><time>2026-03-22T09:59:13.791Z</time></trkpt><trkpt lat="43.5563499" lon="11.4038766"><ele>727.6666666666667</ele><time>2026-03-22T09:59:14.791Z</time></trkpt><trkpt lat="43.5564385" lon="11.4038939"><ele>728.3333333333334</ele><time>2026-03-22T09:59:15.791Z</time></trkpt><trkpt lat="43.5565204" lon="11.4039134"><ele>729.0</ele><time>2026-03-22T09:59:16.791Z</time></trkpt><trkpt lat="43.5566003" lon="11.4039279"><ele>729.6666666666666</ele><time>2026-03-22T09:59:17.791Z</time></trkpt><trkpt lat="43.5566768" lon="11.4039302"><ele>730.3333333333333</ele><time>2026-03-22T09:59:18.79Z</time></trkpt><trkpt lat="43.5567893" lon="11.4039201"><ele>731.0</ele><time>2026-03-22T09:59:20.791Z</time></trkpt><trkpt lat="43.5568833" lon="11.4039452"><ele>731.0</ele><time>2026-03-22T09:59:22.791Z</time></trkpt><trkpt lat="43.5569243" lon="11.4040279"><ele>731.0</ele><time>2026-03-22T09:59:56.79Z</time></trkpt><trkpt lat="43.5569503" lon="11.4041755"><ele>731.0</ele><time>2026-03-22T09:59:58.791Z</time></trkpt><trkpt lat="43.5569593" lon="11.40431"><ele>731.0</ele><time>2026-03-22T10:00:00.791Z</time></trkpt><trkpt lat="43.5570384" lon="11.4044792"><ele>731.0</ele><time>2026-03-22T10:00:02.791Z</time></trkpt><trkpt lat="43.5570804" lon="11.4045801"><ele>732.6666666666666</ele><time>2026-03-22T10:00:03.791Z</time></trkpt><trkpt lat="43.5571261" lon="11.4046694"><ele>734.3333333333333</ele><time>2026-03-22T10:00:04.791Z</time></trkpt><trkpt lat="43.5571602" lon="11.4047666"><ele>736.0</ele><time>2026-03-22T10:00:05.791Z</time></trkpt><trkpt lat="43.5571896" lon="11.404879"><ele>737.6666666666666</ele><time>2026-03-22T10:00:06.791Z</time></trkpt><trkpt lat="43.5572262" lon="11.4049987"><ele>739.3333333333334</ele><time>2026-03-22T10:00:07.791Z</time></trkpt><trkpt lat="43.5572702" lon="11.4051054"><ele>741.0</ele><time>2026-03-22T10:00:08.791Z</time></trkpt><trkpt lat="43.5573072" lon="11.4051925"><ele>741.0</ele><time>2026-03-22T10:00:09.791Z</time></trkpt><trkpt lat="43.5573416" lon="11.4052759"><ele>741.0</ele><time>2026-03-22T10:00:10.791Z</time></trkpt><trkpt lat="43.5573863" lon="11.4054317"><ele>741.0</ele><time>2026-03-22T10:00:12.79Z</time></trkpt><trkpt lat="43.5574036" lon="11.4056151"><ele>741.0</ele><time>2026-03-22T10:00:14.791Z</time></trkpt><trkpt lat="43.5574133" lon="11.4057011"><ele>741.0</ele><time>2026-03-22T10:00:15.791Z</time></trkpt><trkpt lat="43.5574367" lon="11.4057907"><ele>741.0</ele><time>2026-03-22T10:00:16.791Z</time></trkpt><trkpt lat="43.5574662" lon="11.4058758"><ele>741.0</ele><time>2026-03-22T10:00:17.791Z</time></trkpt><trkpt lat="43.5575035" lon="11.4059736"><ele>741.0</ele><time>2026-03-22T10:00:18.791Z</time></trkpt><trkpt lat="43.5575332" lon="11.4060616"><ele>741.0</ele><time>2026-03-22T10:00:19.791Z</time></trkpt><trkpt lat="43.5575518" lon="11.4061481"><ele>741.0</ele><time>2026-03-22T10:00:20.791Z</time></trkpt><trkpt lat="43.5575761" lon="11.4062299"><ele>741.0</ele><time>2026-03-22T10:00:21.791Z</time></trkpt><trkpt lat="43.557635" lon="11.4063601"><ele>740.5999999999999</ele><time>2026-03-22T10:00:23.791Z</time></trkpt><trkpt lat="43.5576761" lon="11.4065024"><ele>740.2</ele><time>2026-03-22T10:00:25.791Z</time></trkpt><trkpt lat="43.5577188" lon="11.4066415"><ele>739.8</ele><time>2026-03-22T10:00:27.79Z</time></trkpt><trkpt lat="43.5577752" lon="11.40675"><ele>739.4000000000001</ele><time>2026-03-22T10:00:29.791Z</time></trkpt><trkpt lat="43.5578508" lon="11.4068164"><ele>739.0</ele><time>2026-03-22T10:00:31.791Z</time></trkpt><trkpt lat="43.5579038" lon="11.4069562"><ele>738.1666666666667</ele><time>2026-03-22T10:00:33.791Z</time></trkpt><trkpt lat="43.5578997" lon="11.4071018"><ele>737.3333333333334</ele><time>2026-03-22T10:00:35.79Z</time></trkpt><trkpt lat="43.5578888" lon="11.4071915"><ele>736.5</ele><time>2026-03-22T10:00:36.791Z</time></trkpt><trkpt lat="43.557866" lon="11.4072761"><ele>735.6666666666666</ele><time>2026-03-22T10:00:37.791Z</time></trkpt><trkpt lat="43.5578415" lon="11.4073746"><ele>734.8333333333333</ele><time>2026-03-22T10:00:38.791Z</time></trkpt><trkpt lat="43.5578301" lon="11.4074896"><ele>734.0</ele><time>2026-03-22T10:00:39.791Z</time></trkpt><trkpt lat="43.5578156" lon="11.4076074"><ele>734.0</ele><time>2026-03-22T10:00:40.79Z</time></trkpt><trkpt lat="43.5577962" lon="11.4077263"><ele>734.0</ele><time>2026-03-22T10:00:41.791Z</time></trkpt><trkpt lat="43.5577893" lon="11.4078461"><ele>734.0</ele><time>2026-03-22T10:00:42.791Z</time></trkpt><trkpt lat="43.5577955" lon="11.4079508"><ele>734.0</ele><time>2026-03-22T10:00:43.791Z</time></trkpt><trkpt lat="43.5578119" lon="11.4080503"><ele>734.0</ele><time>2026-03-22T10:00:44.79Z</time></trkpt><trkpt lat="43.5578346" lon="11.4081469"><ele>734.0</ele><time>2026-03-22T10:00:45.791Z</time></trkpt><trkpt lat="43.5578758" lon="11.4082393"><ele>732.6666666666666</ele><time>2026-03-22T10:00:46.79Z</time></trkpt><trkpt lat="43.5579384" lon="11.4083005"><ele>731.3333333333333</ele><time>2026-03-22T10:00:47.791Z</time></trkpt><trkpt lat="43.5580114" lon="11.4083537"><ele>730.0</ele><time>2026-03-22T10:00:48.79Z</time></trkpt><trkpt lat="43.558101" lon="11.4083953"><ele>728.6666666666666</ele><time>2026-03-22T10:00:49.791Z</time></trkpt><trkpt lat="43.5581851" lon="11.4084423"><ele>727.3333333333334</ele><time>2026-03-22T10:00:50.791Z</time></trkpt><trkpt lat="43.5582645" lon="11.4085035"><ele>726.0</ele><time>2026-03-22T10:00:51.79Z</time></trkpt><trkpt lat="43.5583271" lon="11.4085775"><ele>726.0</ele><time>2026-03-22T10:00:52.79Z</time></trkpt><trkpt lat="43.5584025" lon="11.4086609"><ele>726.0</ele><time>2026-03-22T10:00:54.791Z</time></trkpt><trkpt lat="43.5584435" lon="11.4085843"><ele>726.0</ele><time>2026-03-22T10:01:31.79Z</time></trkpt><trkpt lat="43.5585291" lon="11.4085711"><ele>726.0</ele><time>2026-03-22T10:01:33.791Z</time></trkpt><trkpt lat="43.5586175" lon="11.4084564"><ele>726.0</ele><time>2026-03-22T10:01:35.791Z</time></trkpt><trkpt lat="43.558669" lon="11.4083977"><ele>726.0</ele><time>2026-03-22T10:01:36.791Z</time></trkpt><trkpt lat="43.5587286" lon="11.4083658"><ele>725.1666666666666</ele><time>2026-03-22T10:01:37.791Z</time></trkpt><trkpt lat="43.5588045" lon="11.4083472"><ele>724.3333333333334</ele><time>2026-03-22T10:01:38.791Z</time></trkpt><trkpt lat="43.5588775" lon="11.4083355"><ele>723.5</ele><time>2026-03-22T10:01:39.791Z</time></trkpt><trkpt lat="43.5589363" lon="11.4082992"><ele>722.6666666666667</ele><time>2026-03-22T10:01:40.791Z</time></trkpt><trkpt lat="43.5590485" lon="11.4082834"><ele>721.8333333333334</ele><time>2026-03-22T10:01:42.791Z</time></trkpt><trkpt lat="43.5591285" lon="11.4083539"><ele>721.0</ele><time>2026-03-22T10:01:44.791Z</time></trkpt><trkpt lat="43.5592116" lon="11.4084134"><ele>721.0</ele><time>2026-03-22T10:01:46.791Z</time></trkpt><trkpt lat="43.5593005" lon="11.4084648"><ele>721.0</ele><time>2026-03-22T10:01:48.791Z</time></trkpt><trkpt lat="43.5594143" lon="11.4084745"><ele>721.0</ele><time>2026-03-22T10:01:50.791Z</time></trkpt><trkpt lat="43.5595243" lon="11.4085401"><ele>721.0</ele><time>2026-03-22T10:01:52.791Z</time></trkpt><trkpt lat="43.559635" lon="11.4085885"><ele>721.0</ele><time>2026-03-22T10:01:54.79Z</time></trkpt><trkpt lat="43.559698" lon="11.4085803"><ele>719.5</ele><time>2026-03-22T10:01:55.791Z</time></trkpt><trkpt lat="43.5597903" lon="11.4085761"><ele>718.0</ele><time>2026-03-22T10:01:57.791Z</time></trkpt><trkpt lat="43.5598912" lon="11.4086118"><ele>716.5</ele><time>2026-03-22T10:01:59.791Z</time></trkpt><trkpt lat="43.5599511" lon="11.4086435"><ele>715.0</ele><time>2026-03-22T10:02:00.791Z</time></trkpt><trkpt lat="43.5600472" lon="11.4086756"><ele>713.5</ele><time>2026-03-22T10:02:02.791Z</time></trkpt><trkpt lat="43.5601038" lon="11.4085895"><ele>712.0</ele><time>2026-03-22T10:02:04.79Z</time></trkpt><trkpt lat="43.5601713" lon="11.4084419"><ele>712.0</ele><time>2026-03-22T10:02:06.791Z</time></trkpt><trkpt lat="43.5602032" lon="11.4083646"><ele>712.0</ele><time>2026-03-22T10:02:07.79Z</time></trkpt><trkpt lat="43.5602308" lon="11.4082746"><ele>712.0</ele><time>2026-03-22T10:02:08.79Z</time></trkpt><trkpt lat="43.5602575" lon="11.4081893"><ele>712.0</ele><time>2026-03-22T10:02:09.791Z</time></trkpt><trkpt lat="43.5603018" lon="11.4081201"><ele>712.0</ele><time>2026-03-22T10:02:10.791Z</time></trkpt><trkpt lat="43.5603551" lon="11.4079653"><ele>712.0</ele><time>2026-03-22T10:02:12.791Z</time></trkpt><trkpt lat="43.5603936" lon="11.4078113"><ele>710.3333333333334</ele><time>2026-03-22T10:02:14.79Z</time></trkpt><trkpt lat="43.5604407" lon="11.4077213"><ele>708.6666666666667</ele><time>2026-03-22T10:02:16.791Z</time></trkpt><trkpt lat="43.5605027" lon="11.4076948"><ele>707.0</ele><time>2026-03-22T10:02:18.791Z</time></trkpt><trkpt lat="43.5605671" lon="11.4076777"><ele>705.3333333333334</ele><time>2026-03-22T10:02:20.791Z</time></trkpt><trkpt lat="43.5606353" lon="11.4076689"><ele>703.6666666666666</ele><time>2026-03-22T10:02:22.791Z</time></trkpt><trkpt lat="43.5607088" lon="11.4076592"><ele>702.0</ele><time>2026-03-22T10:02:23.791Z</time></trkpt><trkpt lat="43.5608332" lon="11.4076515"><ele>702.0</ele><time>2026-03-22T10:02:25.791Z</time></trkpt><trkpt lat="43.5609022" lon="11.4076463"><ele>702.0</ele><time>2026-03-22T10:02:26.79Z</time></trkpt><trkpt lat="43.5609718" lon="11.4076499"><ele>702.0</ele><time>2026-03-22T10:02:27.791Z</time></trkpt><trkpt lat="43.5610912" lon="11.4076593"><ele>702.0</ele><time>2026-03-22T10:02:29.791Z</time></trkpt><trkpt lat="43.5611664" lon="11.4076899"><ele>702.0</ele><time>2026-03-22T10:02:31.79Z</time></trkpt><trkpt lat="43.5612464" lon="11.4077023"><ele>702.0</ele><time>2026-03-22T10:02:33.791Z</time></trkpt><trkpt lat="43.561316" lon="11.4076683"><ele>702.6</ele><time>2026-03-22T10:02:35.791Z</time></trkpt><trkpt lat="43.5613192" lon="11.4075261"><ele>703.2</ele><time>2026-03-22T10:02:39.79Z</time></trkpt><trkpt lat="43.5613094" lon="11.4073831"><ele>703.8</ele><time>2026-03-22T10:02:41.79Z</time></trkpt><trkpt lat="43.5612381" lon="11.4072751"><ele>704.4</ele><time>2026-03-22T10:02:43.791Z</time></trkpt><trkpt lat="43.5611762" lon="11.4071447"><ele>705.0</ele><time>2026-03-22T10:02:45.791Z</time></trkpt><trkpt lat="43.561175" lon="11.4069826"><ele>703.0</ele><time>2026-03-22T10:02:47.79Z</time></trkpt><trkpt lat="43.5612425" lon="11.4068328"><ele>701.0</ele><time>2026-03-22T10:02:49.791Z</time></trkpt><trkpt lat="43.56128" lon="11.4067562"><ele>699.0</ele><time>2026-03-22T10:02:50.791Z</time></trkpt><trkpt lat="43.5613298" lon="11.4066571"><ele>697.0</ele><time>2026-03-22T10:02:52.791Z</time></trkpt><trkpt lat="43.5613568" lon="11.4065566"><ele>695.0</ele><time>2026-03-22T10:02:54.791Z</time></trkpt><trkpt lat="43.5613951" lon="11.4064709"><ele>693.0</ele><time>2026-03-22T10:02:56.79Z</time></trkpt><trkpt lat="43.5614538" lon="11.4063933"><ele>694.1666666666666</ele><time>2026-03-22T10:02:58.79Z</time></trkpt><trkpt lat="43.5615409" lon="11.4062904"><ele>695.3333333333334</ele><time>2026-03-22T10:03:00.791Z</time></trkpt><trkpt lat="43.5616398" lon="11.4062185"><ele>696.5</ele><time>2026-03-22T10:03:02.791Z</time></trkpt><trkpt lat="43.5616936" lon="11.4061605"><ele>697.6666666666667</ele><time>2026-03-22T10:03:03.791Z</time></trkpt><trkpt lat="43.5617497" lon="11.4060975"><ele>698.8333333333334</ele><time>2026-03-22T10:03:04.791Z</time></trkpt><trkpt lat="43.5618112" lon="11.4060347"><ele>700.0</ele><time>2026-03-22T10:03:05.791Z</time></trkpt><trkpt lat="43.561877" lon="11.4059767"><ele>700.0</ele><time>2026-03-22T10:03:06.79Z</time></trkpt><trkpt lat="43.5619555" lon="11.4059356"><ele>700.0</ele><time>2026-03-22T10:03:07.79Z</time></trkpt><trkpt lat="43.5620329" lon="11.4058829"><ele>700.0</ele><time>2026-03-22T10:03:08.791Z</time></trkpt><trkpt lat="43.5620921" lon="11.4058263"><ele>700.0</ele><time>2026-03-22T10:03:09.791Z</time></trkpt><trkpt lat="43.5621527" lon="11.4057794"><ele>700.0</ele><time>2026-03-22T10:03:10.79Z</time></trkpt><trkpt lat="43.5622148" lon="11.4057331"><ele>700.0</ele><time>2026-03-22T10:03:11.791Z</time></trkpt><trkpt lat="43.562286" lon="11.4056268"><ele>698.3333333333334</ele><time>2026-03-22T10:03:13.79Z</time></trkpt><trkpt lat="43.5623324" lon="11.4055209"><ele>696.6666666666667</ele><time>2026-03-22T10:03:15.791Z</time></trkpt><trkpt lat="43.5623813" lon="11.4054456"><ele>695.0</ele><time>2026-03-22T10:03:17.791Z</time></trkpt><trkpt lat="43.5624371" lon="11.4053889"><ele>693.3333333333334</ele><time>2026-03-22T10:03:19.791Z</time></trkpt><trkpt lat="43.5625045" lon="11.4053551"><ele>691.6666666666666</ele><time>2026-03-22T10:03:21.791Z</time></trkpt><trkpt lat="43.5625931" lon="11.405335"><ele>690.0</ele><time>2026-03-22T10:03:24.791Z</time></trkpt><trkpt lat="43.5626861" lon="11.4053141"><ele>689.1666666666666</ele><time>2026-03-22T10:03:27.791Z</time></trkpt><trkpt lat="43.5627588" lon="11.4052886"><ele>688.3333333333334</ele><time>2026-03-22T10:03:29.792Z</time></trkpt><trkpt lat="43.5628334" lon="11.4052508"><ele>687.5</ele><time>2026-03-22T10:03:32.791Z</time></trkpt><trkpt lat="43.5629208" lon="11.4052126"><ele>686.6666666666667</ele><time>2026-03-22T10:03:35.792Z</time></trkpt><trkpt lat="43.563009" lon="11.4051778"><ele>685.8333333333334</ele><time>2026-03-22T10:03:37.792Z</time></trkpt><trkpt lat="43.5631073" lon="11.4051413"><ele>685.0</ele><time>2026-03-22T10:03:39.792Z</time></trkpt><trkpt lat="43.5631708" lon="11.405096"><ele>683.3333333333334</ele><time>2026-03-22T10:03:41.791Z</time></trkpt><trkpt lat="43.563204" lon="11.404993"><ele>681.6666666666667</ele><time>2026-03-22T10:03:43.792Z</time></trkpt><trkpt lat="43.5632451" lon="11.4049225"><ele>680.0</ele><time>2026-03-22T10:03:45.792Z</time></trkpt><trkpt lat="43.5633342" lon="11.4048649"><ele>678.3333333333334</ele><time>2026-03-22T10:03:52.791Z</time></trkpt><trkpt lat="43.5634099" lon="11.4048371"><ele>676.6666666666666</ele><time>2026-03-22T10:03:53.791Z</time></trkpt><trkpt lat="43.5634889" lon="11.4048132"><ele>675.0</ele><time>2026-03-22T10:03:54.791Z</time></trkpt><trkpt lat="43.5635597" lon="11.4047918"><ele>675.0</ele><time>2026-03-22T10:03:55.792Z</time></trkpt><trkpt lat="43.5636254" lon="11.4047846"><ele>675.0</ele><time>2026-03-22T10:03:56.792Z</time></trkpt><trkpt lat="43.5636889" lon="11.4047701"><ele>675.0</ele><time>2026-03-22T10:03:57.791Z</time></trkpt><trkpt lat="43.5637813" lon="11.4047701"><ele>675.0</ele><time>2026-03-22T10:03:59.792Z</time></trkpt><trkpt lat="43.5638456" lon="11.4047637"><ele>675.0</ele><time>2026-03-22T10:04:01.792Z</time></trkpt><trkpt lat="43.5639096" lon="11.4047439"><ele>675.0</ele><time>2026-03-22T10:04:03.791Z</time></trkpt><trkpt lat="43.5639882" lon="11.404713"><ele>675.0</ele><time>2026-03-22T10:04:11.792Z</time></trkpt><trkpt lat="43.5640509" lon="11.4047051"><ele>673.8333333333334</ele><time>2026-03-22T10:04:13.792Z</time></trkpt><trkpt lat="43.5641313" lon="11.4047163"><ele>672.6666666666666</ele><time>2026-03-22T10:04:15.792Z</time></trkpt><trkpt lat="43.564196" lon="11.4047144"><ele>671.5</ele><time>2026-03-22T10:04:17.792Z</time></trkpt><trkpt lat="43.5642941" lon="11.4047085"><ele>670.3333333333333</ele><time>2026-03-22T10:04:20.791Z</time></trkpt><trkpt lat="43.5644072" lon="11.4046837"><ele>669.1666666666666</ele><time>2026-03-22T10:04:22.792Z</time></trkpt><trkpt lat="43.5644809" lon="11.4046613"><ele>668.0</ele><time>2026-03-22T10:04:24.791Z</time></trkpt><trkpt lat="43.5645428" lon="11.4046413"><ele>666.8333333333333</ele><time>2026-03-22T10:04:26.792Z</time></trkpt><trkpt lat="43.5646131" lon="11.4046105"><ele>665.6666666666666</ele><time>2026-03-22T10:04:28.792Z</time></trkpt><trkpt lat="43.564684" lon="11.404591"><ele>664.5</ele><time>2026-03-22T10:04:30.792Z</time></trkpt><trkpt lat="43.5648016" lon="11.4045838"><ele>663.3333333333334</ele><time>2026-03-22T10:04:32.792Z</time></trkpt><trkpt lat="43.5648906" lon="11.404603"><ele>662.1666666666667</ele><time>2026-03-22T10:04:33.791Z</time></trkpt><trkpt lat="43.5649764" lon="11.4046147"><ele>661.0</ele><time>2026-03-22T10:04:34.792Z</time></trkpt><trkpt lat="43.565059" lon="11.4046112"><ele>661.0</ele><time>2026-03-22T10:04:35.791Z</time></trkpt><trkpt lat="43.5651318" lon="11.4045973"><ele>661.0</ele><time>2026-03-22T10:04:36.792Z</time></trkpt><trkpt lat="43.5651972" lon="11.4045769"><ele>661.0</ele><time>2026-03-22T10:04:37.792Z</time></trkpt><trkpt lat="43.5652992" lon="11.4045381"><ele>661.0</ele><time>2026-03-22T10:04:39.792Z</time></trkpt><trkpt lat="43.56539" lon="11.4045135"><ele>661.0</ele><time>2026-03-22T10:04:41.792Z</time></trkpt><trkpt lat="43.5654854" lon="11.4044908"><ele>661.0</ele><time>2026-03-22T10:04:43.791Z</time></trkpt><trkpt lat="43.5655864" lon="11.4044786"><ele>661.3333333333334</ele><time>2026-03-22T10:04:45.791Z</time></trkpt><trkpt lat="43.5656741" lon="11.4044577"><ele>661.6666666666667</ele><time>2026-03-22T10:04:47.791Z</time></trkpt><trkpt lat="43.5657396" lon="11.4044221"><ele>662.0</ele><time>2026-03-22T10:04:49.792Z</time></trkpt><trkpt lat="43.5658015" lon="11.4043797"><ele>662.3333333333334</ele><time>2026-03-22T10:04:51.792Z</time></trkpt><trkpt lat="43.5658614" lon="11.4043071"><ele>662.6666666666666</ele><time>2026-03-22T10:04:55.791Z</time></trkpt><trkpt lat="43.5659282" lon="11.4042565"><ele>663.0</ele><time>2026-03-22T10:04:58.792Z</time></trkpt><trkpt lat="43.5659901" lon="11.4041985"><ele>662.9999999999999</ele><time>2026-03-22T10:05:02.791Z</time></trkpt><trkpt lat="43.566049" lon="11.404158"><ele>663.0</ele><time>2026-03-22T10:05:06.792Z</time></trkpt><trkpt lat="43.5660949" lon="11.4040874"><ele>663.0</ele><time>2026-03-22T10:05:11.792Z</time></trkpt><trkpt lat="43.5661297" lon="11.4039991"><ele>663.0</ele><time>2026-03-22T10:05:17.792Z</time></trkpt><trkpt lat="43.5661806" lon="11.4039149"><ele>663.0</ele><time>2026-03-22T10:05:22.791Z</time></trkpt><trkpt lat="43.5662148" lon="11.4038306"><ele>662.9999999999999</ele><time>2026-03-22T10:05:27.792Z</time></trkpt><trkpt lat="43.566271" lon="11.4037801"><ele>663.0</ele><time>2026-03-22T10:05:31.791Z</time></trkpt><trkpt lat="43.5663241" lon="11.4037159"><ele>659.5714285714286</ele><time>2026-03-22T10:05:35.792Z</time></trkpt><trkpt lat="43.5663811" lon="11.4036736"><ele>656.1428571428571</ele><time>2026-03-22T10:05:38.791Z</time></trkpt><trkpt lat="43.566436" lon="11.4036308"><ele>652.7142857142858</ele><time>2026-03-22T10:05:41.792Z</time></trkpt><trkpt lat="43.5665053" lon="11.4035992"><ele>649.2857142857142</ele><time>2026-03-22T10:05:45.792Z</time></trkpt><trkpt lat="43.5665887" lon="11.4035899"><ele>645.8571428571429</ele><time>2026-03-22T10:05:48.792Z</time></trkpt><trkpt lat="43.5666646" lon="11.4035765"><ele>642.4285714285714</ele><time>2026-03-22T10:05:51.792Z</time></trkpt><trkpt lat="43.5667318" lon="11.4035813"><ele>639.0</ele><time>2026-03-22T10:05:54.791Z</time></trkpt><trkpt lat="43.5668389" lon="11.4035575"><ele>639.0000000000001</ele><time>2026-03-22T10:05:57.791Z</time></trkpt><trkpt lat="43.5669034" lon="11.4035509"><ele>639.0</ele><time>2026-03-22T10:05:59.792Z</time></trkpt><trkpt lat="43.566967" lon="11.4035301"><ele>639.0</ele><time>2026-03-22T10:06:02.792Z</time></trkpt><trkpt lat="43.5670528" lon="11.4035169"><ele>639.0</ele><time>2026-03-22T10:06:05.792Z</time></trkpt><trkpt lat="43.5671212" lon="11.4035025"><ele>639.0</ele><time>2026-03-22T10:06:08.792Z</time></trkpt><trkpt lat="43.5672045" lon="11.4034688"><ele>639.0000000000001</ele><time>2026-03-22T10:06:11.791Z</time></trkpt><trkpt lat="43.5672693" lon="11.403443"><ele>639.0</ele><time>2026-03-22T10:06:13.791Z</time></trkpt><trkpt lat="43.5673372" lon="11.4033908"><ele>637.7142857142858</ele><time>2026-03-22T10:06:15.792Z</time></trkpt><trkpt lat="43.5674177" lon="11.4033594"><ele>636.4285714285714</ele><time>2026-03-22T10:06:18.792Z</time></trkpt><trkpt lat="43.5674772" lon="11.4033141"><ele>635.1428571428571</ele><time>2026-03-22T10:06:22.791Z</time></trkpt><trkpt lat="43.5675258" lon="11.4032487"><ele>633.8571428571429</ele><time>2026-03-22T10:06:24.792Z</time></trkpt><trkpt lat="43.5675956" lon="11.4031919"><ele>632.5714285714286</ele><time>2026-03-22T10:06:26.792Z</time></trkpt><trkpt lat="43.5676629" lon="11.4031974"><ele>631.2857142857143</ele><time>2026-03-22T10:06:28.791Z</time></trkpt><trkpt lat="43.5677263" lon="11.4032145"><ele>630.0</ele><time>2026-03-22T10:06:30.792Z</time></trkpt><trkpt lat="43.567844" lon="11.4032542"><ele>628.0</ele><time>2026-03-22T10:06:32.792Z</time></trkpt><trkpt lat="43.5679636" lon="11.403283"><ele>626.0</ele><time>2026-03-22T10:06:34.791Z</time></trkpt><trkpt lat="43.5680805" lon="11.4032939"><ele>624.0</ele><time>2026-03-22T10:06:36.792Z</time></trkpt><trkpt lat="43.5681882" lon="11.4032876"><ele>622.0</ele><time>2026-03-22T10:06:38.792Z</time></trkpt><trkpt lat="43.5682939" lon="11.4032876"><ele>622.0</ele><time>2026-03-22T10:06:40.792Z</time></trkpt><trkpt lat="43.5684216" lon="11.4033035"><ele>622.0</ele><time>2026-03-22T10:06:42.792Z</time></trkpt><trkpt lat="43.5684958" lon="11.4033194"><ele>622.0</ele><time>2026-03-22T10:06:43.791Z</time></trkpt><trkpt lat="43.5686099" lon="11.403337"><ele>622.0</ele><time>2026-03-22T10:06:45.792Z</time></trkpt><trkpt lat="43.5686968" lon="11.403335"><ele>622.0</ele><time>2026-03-22T10:06:47.791Z</time></trkpt><trkpt lat="43.5687888" lon="11.4032774"><ele>623.6666666666667</ele><time>2026-03-22T10:06:49.792Z</time></trkpt><trkpt lat="43.5688632" lon="11.4031956"><ele>625.3333333333334</ele><time>2026-03-22T10:06:51.792Z</time></trkpt><trkpt lat="43.5689375" lon="11.4032058"><ele>627.0</ele><time>2026-03-22T10:06:53.791Z</time></trkpt><trkpt lat="43.5613568" lon="11.4065566"><ele>638.0</ele><time>2026-03-22T10:02:54.791Z</time></trkpt><trkpt lat="43.5613951" lon="11.4064709"><ele>649.0</ele><time>2026-03-22T10:02:56.79Z</time></trkpt><trkpt lat="43.5614538" lon="11.4063933"><ele>660.0</ele><time>2026-03-22T10:02:58.79Z</time></trkpt><trkpt lat="43.5615409" lon="11.4062904"><ele>671.0</ele><time>2026-03-22T10:03:00.791Z</time></trkpt><trkpt lat="43.5616398" lon="11.4062185"><ele>682.0</ele><time>2026-03-22T10:03:02.791Z</time></trkpt><trkpt lat="43.5616936" lon="11.4061605"><ele>693.0</ele><time>2026-03-22T10:03:03.791Z</time></trkpt><trkpt lat="43.5617497" lon="11.4060975"><ele>692.5</ele><time>2026-03-22T10:03:04.791Z</time></trkpt><trkpt lat="43.5618112" lon="11.4060347"><ele>692.0</ele><time>2026-03-22T10:03:05.791Z</time></trkpt><trkpt lat="43.561877" lon="11.4059767"><ele>691.5</ele><time>2026-03-22T10:03:06.79Z</time></trkpt><trkpt lat="43.5619555" lon="11.4059356"><ele>691.0</ele><time>2026-03-22T10:03:07.79Z</time></trkpt><trkpt lat="43.5620329" lon="11.4058829"><ele>690.5</ele><time>2026-03-22T10:03:08.791Z</time></trkpt><trkpt lat="43.5620921" lon="11.4058263"><ele>690.0</ele><time>2026-03-22T10:03:09.791Z</time></trkpt><trkpt lat="43.5621527" lon="11.4057794"><ele>690.0</ele><time>2026-03-22T10:03:10.79Z</time></trkpt><trkpt lat="43.5622148" lon="11.4057331"><ele>690.0</ele><time>2026-03-22T10:03:11.791Z</time></trkpt><trkpt lat="43.562286" lon="11.4056268"><ele>690.0</ele><time>2026-03-22T10:03:13.79Z</time></trkpt><trkpt lat="43.5623324" lon="11.4055209"><ele>690.0</ele><time>2026-03-22T10:03:15.791Z</time></trkpt><trkpt lat="43.5623813" lon="11.4054456"><ele>690.0</ele><time>2026-03-22T10:03:17.791Z</time></trkpt><trkpt lat="43.5624371" lon="11.4053889"><ele>690.0</ele><time>2026-03-22T10:03:19.791Z</time></trkpt><trkpt lat="43.5625045" lon="11.4053551"><ele>689.1666666666666</ele><time>2026-03-22T10:03:21.791Z</time></trkpt><trkpt lat="43.5625931" lon="11.405335"><ele>688.3333333333334</ele><time>2026-03-22T10:03:24.791Z</time></trkpt><trkpt lat="43.5626861" lon="11.4053141"><ele>687.5</ele><time>2026-03-22T10:03:27.791Z</time></trkpt><trkpt lat="43.5627588" lon="11.4052886"><ele>686.6666666666667</ele><time>2026-03-22T10:03:29.792Z</time></trkpt><trkpt lat="43.5628334" lon="11.4052508"><ele>685.8333333333334</ele><time>2026-03-22T10:03:32.791Z</time></trkpt><trkpt lat="43.5629208" lon="11.4052126"><ele>685.0</ele><time>2026-03-22T10:03:35.792Z</time></trkpt><trkpt lat="43.563009" lon="11.4051778"><ele>683.3333333333334</ele><time>2026-03-22T10:03:37.792Z</time></trkpt><trkpt lat="43.5631073" lon="11.4051413"><ele>681.6666666666667</ele><time>2026-03-22T10:03:39.792Z</time></trkpt><trkpt lat="43.5631708" lon="11.405096"><ele>680.0</ele><time>2026-03-22T10:03:41.791Z</time></trkpt><trkpt lat="43.563204" lon="11.404993"><ele>678.3333333333334</ele><time>2026-03-22T10:03:43.792Z</time></trkpt><trkpt lat="43.5632451" lon="11.4049225"><ele>676.6666666666666</ele><time>2026-03-22T10:03:45.792Z</time></trkpt><trkpt lat="43.5633342" lon="11.4048649"><ele>675.0</ele><time>2026-03-22T10:03:52.791Z</time></trkpt><trkpt lat="43.5634099" lon="11.4048371"><ele>675.0</ele><time>2026-03-22T10:03:53.791Z</time></trkpt><trkpt lat="43.5634889" lon="11.4048132"><ele>675.0</ele><time>2026-03-22T10:03:54.791Z</time></trkpt><trkpt lat="43.5635597" lon="11.4047918"><ele>675.0</ele><time>2026-03-22T10:03:55.792Z</time></trkpt><trkpt lat="43.5636254" lon="11.4047846"><ele>675.0</ele><time>2026-03-22T10:03:56.792Z</time></trkpt><trkpt lat="43.5636889" lon="11.4047701"><ele>675.0</ele><time>2026-03-22T10:03:57.791Z</time></trkpt><trkpt lat="43.5637813" lon="11.4047701"><ele>675.0</ele><time>2026-03-22T10:03:59.792Z</time></trkpt><trkpt lat="43.5638456" lon="11.4047637"><ele>675.0</ele><time>2026-03-22T10:04:01.792Z</time></trkpt><trkpt lat="43.5639096" lon="11.4047439"><ele>673.8333333333334</ele><time>2026-03-22T10:04:03.791Z</time></trkpt><trkpt lat="43.5639882" lon="11.404713"><ele>672.6666666666666</ele><time>2026-03-22T10:04:11.792Z</time></trkpt><trkpt lat="43.5640509" lon="11.4047051"><ele>671.5</ele><time>2026-03-22T10:04:13.792Z</time></trkpt><trkpt lat="43.5641313" lon="11.4047163"><ele>670.3333333333333</ele><time>2026-03-22T10:04:15.792Z</time></trkpt><trkpt lat="43.564196" lon="11.4047144"><ele>669.1666666666666</ele><time>2026-03-22T10:04:17.792Z</time></trkpt><trkpt lat="43.5642941" lon="11.4047085"><ele>668.0</ele><time>2026-03-22T10:04:20.791Z</time></trkpt><trkpt lat="43.5644072" lon="11.4046837"><ele>666.8333333333333</ele><time>2026-03-22T10:04:22.792Z</time></trkpt><trkpt lat="43.5644809" lon="11.4046613"><ele>665.6666666666666</ele><time>2026-03-22T10:04:24.791Z</time></trkpt><trkpt lat="43.5645428" lon="11.4046413"><ele>664.5</ele><time>2026-03-22T10:04:26.792Z</time></trkpt><trkpt lat="43.5646131" lon="11.4046105"><ele>663.3333333333334</ele><time>2026-03-22T10:04:28.792Z</time></trkpt><trkpt lat="43.564684" lon="11.404591"><ele>662.1666666666667</ele><time>2026-03-22T10:04:30.792Z</time></trkpt><trkpt lat="43.5648016" lon="11.4045838"><ele>661.0</ele><time>2026-03-22T10:04:32.792Z</time></trkpt><trkpt lat="43.5648906" lon="11.404603"><ele>661.0</ele><time>2026-03-22T10:04:33.791Z</time></trkpt><trkpt lat="43.5649764" lon="11.4046147"><ele>661.0</ele><time>2026-03-22T10:04:34.792Z</time></trkpt><trkpt lat="43.565059" lon="11.4046112"><ele>661.0</ele><time>2026-03-22T10:04:35.791Z</time></trkpt><trkpt lat="43.5651318" lon="11.4045973"><ele>661.0</ele><time>2026-03-22T10:04:36.792Z</time></trkpt><trkpt lat="43.5651972" lon="11.4045769"><ele>661.0</ele><time>2026-03-22T10:04:37.792Z</time></trkpt><trkpt lat="43.5652992" lon="11.4045381"><ele>661.0</ele><time>2026-03-22T10:04:39.792Z</time></trkpt><trkpt lat="43.56539" lon="11.4045135"><ele>661.3333333333334</ele><time>2026-03-22T10:04:41.792Z</time></trkpt><trkpt lat="43.5654854" lon="11.4044908"><ele>661.6666666666667</ele><time>2026-03-22T10:04:43.791Z</time></trkpt><trkpt lat="43.5655864" lon="11.4044786"><ele>662.0</ele><time>2026-03-22T10:04:45.791Z</time></trkpt><trkpt lat="43.5656741" lon="11.4044577"><ele>662.3333333333334</ele><time>2026-03-22T10:04:47.791Z</time></trkpt><trkpt lat="43.5657396" lon="11.4044221"><ele>662.6666666666666</ele><time>2026-03-22T10:04:49.792Z</time></trkpt><trkpt lat="43.5658015" lon="11.4043797"><ele>663.0</ele><time>2026-03-22T10:04:51.792Z</time></trkpt><trkpt lat="43.5658614" lon="11.4043071"><ele>662.9999999999999</ele><time>2026-03-22T10:04:55.791Z</time></trkpt><trkpt lat="43.5659282" lon="11.4042565"><ele>663.0</ele><time>2026-03-22T10:04:58.792Z</time></trkpt><trkpt lat="43.5659901" lon="11.4041985"><ele>663.0</ele><time>2026-03-22T10:05:02.791Z</time></trkpt><trkpt lat="43.566049" lon="11.404158"><ele>663.0</ele><time>2026-03-22T10:05:06.792Z</time></trkpt><trkpt lat="43.5660949" lon="11.4040874"><ele>663.0</ele><time>2026-03-22T10:05:11.792Z</time></trkpt><trkpt lat="43.5661297" lon="11.4039991"><ele>662.9999999999999</ele><time>2026-03-22T10:05:17.792Z</time></trkpt><trkpt lat="43.5661806" lon="11.4039149"><ele>663.0</ele><time>2026-03-22T10:05:22.791Z</time></trkpt><trkpt lat="43.5662148" lon="11.4038306"><ele>659.5714285714286</ele><time>2026-03-22T10:05:27.792Z</time></trkpt><trkpt lat="43.566271" lon="11.4037801"><ele>656.1428571428571</ele><time>2026-03-22T10:05:31.791Z</time></trkpt><trkpt lat="43.5663241" lon="11.4037159"><ele>652.7142857142858</ele><time>2026-03-22T10:05:35.792Z</time></trkpt><trkpt lat="43.5663811" lon="11.4036736"><ele>649.2857142857142</ele><time>2026-03-22T10:05:38.791Z</time></trkpt><trkpt lat="43.566436" lon="11.4036308"><ele>645.8571428571429</ele><time>2026-03-22T10:05:41.792Z</time></trkpt><trkpt lat="43.5665053" lon="11.4035992"><ele>642.4285714285714</ele><time>2026-03-22T10:05:45.792Z</time></trkpt><trkpt lat="43.5665887" lon="11.4035899"><ele>639.0</ele><time>2026-03-22T10:05:48.792Z</time></trkpt><trkpt lat="43.5666646" lon="11.4035765"><ele>639.0</ele><time>2026-03-22T10:05:51.792Z</time></trkpt><trkpt lat="43.5667318" lon="11.4035813"><ele>639.0</ele><time>2026-03-22T10:05:54.791Z</time></trkpt><trkpt lat="43.5668389" lon="11.4035575"><ele>639.0</ele><time>2026-03-22T10:05:57.791Z</time></trkpt><trkpt lat="43.5669034" lon="11.4035509"><ele>639.0</ele><time>2026-03-22T10:05:59.792Z</time></trkpt><trkpt lat="43.566967" lon="11.4035301"><ele>639.0</ele><time>2026-03-22T10:06:02.792Z</time></trkpt><trkpt lat="43.5670528" lon="11.4035169"><ele>639.0</ele><time>2026-03-22T10:06:05.792Z</time></trkpt><trkpt lat="43.5671212" lon="11.4035025"><ele>637.5</ele><time>2026-03-22T10:06:08.792Z</time></trkpt><trkpt lat="43.5672045" lon="11.4034688"><ele>636.0</ele><time>2026-03-22T10:06:11.791Z</time></trkpt><trkpt lat="43.5672693" lon="11.403443"><ele>634.5</ele><time>2026-03-22T10:06:13.791Z</time></trkpt><trkpt lat="43.5673372" lon="11.4033908"><ele>633.0</ele><time>2026-03-22T10:06:15.792Z</time></trkpt><trkpt lat="43.5674177" lon="11.4033594"><ele>631.5</ele><time>2026-03-22T10:06:18.792Z</time></trkpt><trkpt lat="43.5674772" lon="11.4033141"><ele>630.0</ele><time>2026-03-22T10:06:22.791Z</time></trkpt><trkpt lat="43.5675258" lon="11.4032487"><ele>630.0</ele><time>2026-03-22T10:06:24.792Z</time></trkpt><trkpt lat="43.5675956" lon="11.4031919"><ele>630.0</ele><time>2026-03-22T10:06:26.792Z</time></trkpt><trkpt lat="43.5676629" lon="11.4031974"><ele>630.0</ele><time>2026-03-22T10:06:28.791Z</time></trkpt><trkpt lat="43.5677263" lon="11.4032145"><ele>630.0</ele><time>2026-03-22T10:06:30.792Z</time></trkpt><trkpt lat="43.567844" lon="11.4032542"><ele>630.0</ele><time>2026-03-22T10:06:32.792Z</time></trkpt><trkpt lat="43.5679636" lon="11.403283"><ele>628.0</ele><time>2026-03-22T10:06:34.791Z</time></trkpt><trkpt lat="43.5680805" lon="11.4032939"><ele>626.0</ele><time>2026-03-22T10:06:36.792Z</time></trkpt><trkpt lat="43.5681882" lon="11.4032876"><ele>624.0</ele><time>2026-03-22T10:06:38.792Z</time></trkpt><trkpt lat="43.5682939" lon="11.4032876"><ele>622.0</ele><time>2026-03-22T10:06:40.792Z</time></trkpt><trkpt lat="43.5684216" lon="11.4033035"><ele>622.0</ele><time>2026-03-22T10:06:42.792Z</time></trkpt><trkpt lat="43.5684958" lon="11.4033194"><ele>622.0</ele><time>2026-03-22T10:06:43.791Z</time></trkpt><trkpt lat="43.5686099" lon="11.403337"><ele>622.0</ele><time>2026-03-22T10:06:45.792Z</time></trkpt><trkpt lat="43.5686968" lon="11.403335"><ele>622.0</ele><time>2026-03-22T10:06:47.791Z</time></trkpt><trkpt lat="43.5687888" lon="11.4032774"><ele>622.0</ele><time>2026-03-22T10:06:49.792Z</time></trkpt><trkpt lat="43.5688632" lon="11.4031956"><ele>623.0</ele><time>2026-03-22T10:06:51.792Z</time></trkpt><trkpt lat="43.5689375" lon="11.4032058"><ele>624.0</ele><time>2026-03-22T10:06:53.791Z</time></trkpt><trkpt lat="43.5690431" lon="11.4032118"><ele>625.0</ele><time>2026-03-22T10:06:55.792Z</time></trkpt><trkpt lat="43.5691641" lon="11.4032218"><ele>626.0</ele><time>2026-03-22T10:06:57.792Z</time></trkpt><trkpt lat="43.5692455" lon="11.403236"><ele>627.0</ele><time>2026-03-22T10:06:58.792Z</time></trkpt><trkpt lat="43.5693198" lon="11.4032456"><ele>627.0</ele><time>2026-03-22T10:06:59.791Z</time></trkpt><trkpt lat="43.5693904" lon="11.4032577"><ele>627.0</ele><time>2026-03-22T10:07:00.792Z</time></trkpt><trkpt lat="43.569504" lon="11.403314"><ele>627.0</ele><time>2026-03-22T10:07:02.792Z</time></trkpt><trkpt lat="43.5696012" lon="11.4033712"><ele>627.0</ele><time>2026-03-22T10:07:04.792Z</time></trkpt><trkpt lat="43.569696" lon="11.4034897"><ele>627.0</ele><time>2026-03-22T10:07:06.791Z</time></trkpt><trkpt lat="43.5697944" lon="11.4035503"><ele>628.1666666666666</ele><time>2026-03-22T10:07:08.792Z</time></trkpt><trkpt lat="43.5698829" lon="11.4035581"><ele>629.3333333333334</ele><time>2026-03-22T10:07:10.791Z</time></trkpt><trkpt lat="43.5699546" lon="11.4035436"><ele>630.5</ele><time>2026-03-22T10:07:11.792Z</time></trkpt><trkpt lat="43.5700307" lon="11.4035358"><ele>631.6666666666667</ele><time>2026-03-22T10:07:12.792Z</time></trkpt><trkpt lat="43.5701156" lon="11.4035313"><ele>632.8333333333334</ele><time>2026-03-22T10:07:13.792Z</time></trkpt><trkpt lat="43.5702085" lon="11.4035304"><ele>634.0</ele><time>2026-03-22T10:07:14.792Z</time></trkpt><trkpt lat="43.5703047" lon="11.4035337"><ele>634.5</ele><time>2026-03-22T10:07:15.792Z</time></trkpt><trkpt lat="43.5704271" lon="11.4035276"><ele>635.0</ele><time>2026-03-22T10:07:17.792Z</time></trkpt><trkpt lat="43.5704899" lon="11.4035345"><ele>635.5</ele><time>2026-03-22T10:07:18.792Z</time></trkpt><trkpt lat="43.5705597" lon="11.4035544"><ele>636.0</ele><time>2026-03-22T10:07:19.791Z</time></trkpt><trkpt lat="43.5706397" lon="11.4035811"><ele>636.5</ele><time>2026-03-22T10:07:20.791Z</time></trkpt><trkpt lat="43.570715" lon="11.4036084"><ele>637.0</ele><time>2026-03-22T10:07:21.791Z</time></trkpt><trkpt lat="43.5708031" lon="11.4036398"><ele>637.0</ele><time>2026-03-22T10:07:22.792Z</time></trkpt><trkpt lat="43.5709159" lon="11.4036843"><ele>637.0</ele><time>2026-03-22T10:07:24.792Z</time></trkpt><trkpt lat="43.5709811" lon="11.4037058"><ele>637.0</ele><time>2026-03-22T10:07:26.792Z</time></trkpt><trkpt lat="43.5710456" lon="11.4037703"><ele>637.0</ele><time>2026-03-22T10:07:28.792Z</time></trkpt><trkpt lat="43.5711059" lon="11.4038146"><ele>637.0</ele><time>2026-03-22T10:07:29.792Z</time></trkpt><trkpt lat="43.5712184" lon="11.4038495"><ele>637.0</ele><time>2026-03-22T10:07:30.792Z</time></trkpt><trkpt lat="43.5713032" lon="11.4038681"><ele>637.3333333333334</ele><time>2026-03-22T10:07:31.792Z</time></trkpt><trkpt lat="43.5713922" lon="11.4038883"><ele>637.6666666666667</ele><time>2026-03-22T10:07:32.791Z</time></trkpt><trkpt lat="43.5714798" lon="11.4039217"><ele>638.0</ele><time>2026-03-22T10:07:33.791Z</time></trkpt><trkpt lat="43.5715677" lon="11.4039549"><ele>638.3333333333334</ele><time>2026-03-22T10:07:34.792Z</time></trkpt><trkpt lat="43.5716491" lon="11.4039965"><ele>638.6666666666666</ele><time>2026-03-22T10:07:35.792Z</time></trkpt><trkpt lat="43.5717288" lon="11.4040294"><ele>639.0</ele><time>2026-03-22T10:07:36.792Z</time></trkpt><trkpt lat="43.5718206" lon="11.4040422"><ele>639.0</ele><time>2026-03-22T10:07:37.792Z</time></trkpt><trkpt lat="43.5719154" lon="11.404039"><ele>639.0</ele><time>2026-03-22T10:07:38.792Z</time></trkpt><trkpt lat="43.5720006" lon="11.4040223"><ele>639.0</ele><time>2026-03-22T10:07:39.792Z</time></trkpt><trkpt lat="43.5721172" lon="11.4040208"><ele>639.0</ele><time>2026-03-22T10:07:41.791Z</time></trkpt><trkpt lat="43.5721956" lon="11.4041147"><ele>639.0</ele><time>2026-03-22T10:07:43.792Z</time></trkpt><trkpt lat="43.5722766" lon="11.4041771"><ele>638.5</ele><time>2026-03-22T10:07:45.792Z</time></trkpt><trkpt lat="43.5723572" lon="11.4041671"><ele>638.0</ele><time>2026-03-22T10:07:47.792Z</time></trkpt><trkpt lat="43.5724318" lon="11.4041908"><ele>637.5</ele><time>2026-03-22T10:07:49.792Z</time></trkpt><trkpt lat="43.5725017" lon="11.4042367"><ele>637.0</ele><time>2026-03-22T10:07:52.792Z</time></trkpt><trkpt lat="43.5725776" lon="11.404278"><ele>636.5</ele><time>2026-03-22T10:07:58.792Z</time></trkpt><trkpt lat="43.5726862" lon="11.4043582"><ele>636.0</ele><time>2026-03-22T10:08:00.792Z</time></trkpt><trkpt lat="43.5727438" lon="11.4044315"><ele>636.0</ele><time>2026-03-22T10:08:01.792Z</time></trkpt><trkpt lat="43.5728011" lon="11.4045083"><ele>636.0</ele><time>2026-03-22T10:08:02.792Z</time></trkpt><trkpt lat="43.5728574" lon="11.4046001"><ele>636.0</ele><time>2026-03-22T10:08:03.792Z</time></trkpt><trkpt lat="43.572911" lon="11.4046852"><ele>636.0</ele><time>2026-03-22T10:08:04.791Z</time></trkpt><trkpt lat="43.5729738" lon="11.4047532"><ele>636.0</ele><time>2026-03-22T10:08:05.792Z</time></trkpt><trkpt lat="43.5730338" lon="11.4048176"><ele>636.0</ele><time>2026-03-22T10:08:06.792Z</time></trkpt><trkpt lat="43.5730847" lon="11.404879"><ele>633.6</ele><time>2026-03-22T10:08:07.792Z</time></trkpt><trkpt lat="43.5731786" lon="11.4049821"><ele>631.2</ele><time>2026-03-22T10:08:09.792Z</time></trkpt><trkpt lat="43.5732535" lon="11.405055"><ele>628.8</ele><time>2026-03-22T10:08:11.792Z</time></trkpt><trkpt lat="43.5733282" lon="11.4051252"><ele>626.4</ele><time>2026-03-22T10:08:14.791Z</time></trkpt><trkpt lat="43.5734151" lon="11.405173"><ele>624.0</ele><time>2026-03-22T10:08:17.792Z</time></trkpt><trkpt lat="43.5735017" lon="11.4051725"><ele>624.0</ele><time>2026-03-22T10:08:19.792Z</time></trkpt><trkpt lat="43.5736131" lon="11.4051442"><ele>624.0</ele><time>2026-03-22T10:08:21.792Z</time></trkpt><trkpt lat="43.5736779" lon="11.4051279"><ele>624.0</ele><time>2026-03-22T10:08:22.792Z</time></trkpt><trkpt lat="43.5738003" lon="11.4050914"><ele>624.0</ele><time>2026-03-22T10:08:24.792Z</time></trkpt><trkpt lat="43.5738688" lon="11.4050768"><ele>624.0</ele><time>2026-03-22T10:08:25.792Z</time></trkpt><trkpt lat="43.5739509" lon="11.4050729"><ele>621.8333333333334</ele><time>2026-03-22T10:08:26.792Z</time></trkpt><trkpt lat="43.5740298" lon="11.4050633"><ele>619.6666666666666</ele><time>2026-03-22T10:08:27.791Z</time></trkpt><trkpt lat="43.5741009" lon="11.405061"><ele>617.5</ele><time>2026-03-22T10:08:28.792Z</time></trkpt><trkpt lat="43.5741986" lon="11.405035"><ele>615.3333333333333</ele><time>2026-03-22T10:08:29.792Z</time></trkpt><trkpt lat="43.5742907" lon="11.4050212"><ele>613.1666666666666</ele><time>2026-03-22T10:08:30.792Z</time></trkpt><trkpt lat="43.5743946" lon="11.4049888"><ele>611.0</ele><time>2026-03-22T10:08:31.791Z</time></trkpt><trkpt lat="43.5744943" lon="11.4049734"><ele>610.2</ele><time>2026-03-22T10:08:32.791Z</time></trkpt><trkpt lat="43.5745889" lon="11.4049175"><ele>609.4000000000001</ele><time>2026-03-22T10:08:33.792Z</time></trkpt><trkpt lat="43.5746807" lon="11.4048744"><ele>608.6</ele><time>2026-03-22T10:08:34.792Z</time></trkpt><trkpt lat="43.5747709" lon="11.404854"><ele>607.8000000000001</ele><time>2026-03-22T10:08:35.792Z</time></trkpt><trkpt lat="43.5748729" lon="11.4048351"><ele>607.0</ele><time>2026-03-22T10:08:36.792Z</time></trkpt><trkpt lat="43.5749743" lon="11.4048003"><ele>607.0</ele><time>2026-03-22T10:08:37.792Z</time></trkpt><trkpt lat="43.57507" lon="11.4047552"><ele>607.0</ele><time>2026-03-22T10:08:38.792Z</time></trkpt><trkpt lat="43.5751618" lon="11.4047249"><ele>607.0</ele><time>2026-03-22T10:08:39.792Z</time></trkpt><trkpt lat="43.5752545" lon="11.4046934"><ele>607.0</ele><time>2026-03-22T10:08:40.791Z</time></trkpt><trkpt lat="43.5753525" lon="11.4046691"><ele>607.0</ele><time>2026-03-22T10:08:41.792Z</time></trkpt><trkpt lat="43.5754406" lon="11.4046163"><ele>605.6</ele><time>2026-03-22T10:08:42.792Z</time></trkpt><trkpt lat="43.5755277" lon="11.4045621"><ele>604.2</ele><time>2026-03-22T10:08:43.792Z</time></trkpt><trkpt lat="43.5756123" lon="11.4045233"><ele>602.8</ele><time>2026-03-22T10:08:44.791Z</time></trkpt><trkpt lat="43.5757007" lon="11.4044888"><ele>601.4</ele><time>2026-03-22T10:08:45.792Z</time></trkpt><trkpt lat="43.575796" lon="11.4044627"><ele>600.0</ele><time>2026-03-22T10:08:46.792Z</time></trkpt><trkpt lat="43.575897" lon="11.4044425"><ele>600.0</ele><time>2026-03-22T10:08:47.792Z</time></trkpt><trkpt lat="43.5759891" lon="11.404417"><ele>600.0</ele><time>2026-03-22T10:08:48.792Z</time></trkpt><trkpt lat="43.5760695" lon="11.404397"><ele>600.0</ele><time>2026-03-22T10:08:49.791Z</time></trkpt><trkpt lat="43.5761374" lon="11.4043898"><ele>600.0</ele><time>2026-03-22T10:08:50.791Z</time></trkpt><trkpt lat="43.5762402" lon="11.4043693"><ele>600.0</ele><time>2026-03-22T10:08:52.792Z</time></trkpt><trkpt lat="43.576325" lon="11.4043041"><ele>600.0</ele><time>2026-03-22T10:08:54.792Z</time></trkpt><trkpt lat="43.5763834" lon="11.4042364"><ele>598.6666666666666</ele><time>2026-03-22T10:08:55.792Z</time></trkpt><trkpt lat="43.5764457" lon="11.4041718"><ele>597.3333333333334</ele><time>2026-03-22T10:08:56.791Z</time></trkpt><trkpt lat="43.576499" lon="11.4041098"><ele>596.0</ele><time>2026-03-22T10:08:57.792Z</time></trkpt><trkpt lat="43.576551" lon="11.4040476"><ele>594.6666666666667</ele><time>2026-03-22T10:08:58.792Z</time></trkpt><trkpt lat="43.5766426" lon="11.4039224"><ele>593.3333333333334</ele><time>2026-03-22T10:09:00.792Z</time></trkpt><trkpt lat="43.5766757" lon="11.403833"><ele>592.0</ele><time>2026-03-22T10:09:01.792Z</time></trkpt><trkpt lat="43.5767022" lon="11.4037399"><ele>590.8000000000001</ele><time>2026-03-22T10:09:02.792Z</time></trkpt><trkpt lat="43.5767461" lon="11.4036528"><ele>589.6</ele><time>2026-03-22T10:09:03.791Z</time></trkpt><trkpt lat="43.5768009" lon="11.4035794"><ele>588.4000000000001</ele><time>2026-03-22T10:09:04.792Z</time></trkpt><trkpt lat="43.5768523" lon="11.4035168"><ele>587.2</ele><time>2026-03-22T10:09:05.792Z</time></trkpt><trkpt lat="43.5769286" lon="11.4034063"><ele>586.0</ele><time>2026-03-22T10:09:07.792Z</time></trkpt><trkpt lat="43.5770503" lon="11.4033947"><ele>585.0</ele><time>2026-03-22T10:09:09.791Z</time></trkpt><trkpt lat="43.5771151" lon="11.4034077"><ele>584.0</ele><time>2026-03-22T10:09:10.792Z</time></trkpt><trkpt lat="43.5772198" lon="11.4033992"><ele>583.0</ele><time>2026-03-22T10:09:12.792Z</time></trkpt><trkpt lat="43.5772857" lon="11.4033387"><ele>582.0</ele><time>2026-03-22T10:09:14.792Z</time></trkpt><trkpt lat="43.5773721" lon="11.4033135"><ele>581.0</ele><time>2026-03-22T10:09:16.792Z</time></trkpt><trkpt lat="43.5774365" lon="11.4033154"><ele>580.0</ele><time>2026-03-22T10:09:17.791Z</time></trkpt><trkpt lat="43.5775147" lon="11.4033043"><ele>580.0</ele><time>2026-03-22T10:09:18.792Z</time></trkpt><trkpt lat="43.5775867" lon="11.4032687"><ele>580.0</ele><time>2026-03-22T10:09:19.792Z</time></trkpt><trkpt lat="43.5776532" lon="11.4032512"><ele>580.0</ele><time>2026-03-22T10:09:20.791Z</time></trkpt><trkpt lat="43.5777625" lon="11.4032861"><ele>580.0</ele><time>2026-03-22T10:09:22.792Z</time></trkpt><trkpt lat="43.5778107" lon="11.4033597"><ele>580.0</ele><time>2026-03-22T10:09:24.792Z</time></trkpt><trkpt lat="43.5778248" lon="11.4034464"><ele>580.0</ele><time>2026-03-22T10:09:26.792Z</time></trkpt><trkpt lat="43.5778724" lon="11.403518"><ele>578.5714285714286</ele><time>2026-03-22T10:09:29.792Z</time></trkpt><trkpt lat="43.5779461" lon="11.4035684"><ele>577.1428571428572</ele><time>2026-03-22T10:09:32.792Z</time></trkpt><trkpt lat="43.5780139" lon="11.4035882"><ele>575.7142857142858</ele><time>2026-03-22T10:09:36.792Z</time></trkpt><trkpt lat="43.5780731" lon="11.4035493"><ele>574.2857142857143</ele><time>2026-03-22T10:09:47.792Z</time></trkpt><trkpt lat="43.5781399" lon="11.4035864"><ele>572.8571428571429</ele><time>2026-03-22T10:09:55.792Z</time></trkpt><trkpt lat="43.5781855" lon="11.4036692"><ele>571.4285714285714</ele><time>2026-03-22T10:09:59.791Z</time></trkpt><trkpt lat="43.5782459" lon="11.4037219"><ele>570.0</ele><time>2026-03-22T10:10:03.792Z</time></trkpt><trkpt lat="43.5783204" lon="11.4037396"><ele>570.0</ele><time>2026-03-22T10:10:31.792Z</time></trkpt><trkpt lat="43.5783926" lon="11.4037316"><ele>570.0</ele><time>2026-03-22T10:10:34.792Z</time></trkpt><trkpt lat="43.5784556" lon="11.4037555"><ele>570.0</ele><time>2026-03-22T10:10:37.791Z</time></trkpt><trkpt lat="43.5785127" lon="11.4038385"><ele>570.0</ele><time>2026-03-22T10:10:40.792Z</time></trkpt><trkpt lat="43.578548" lon="11.403954"><ele>570.0</ele><time>2026-03-22T10:10:43.792Z</time></trkpt><trkpt lat="43.5785737" lon="11.404058"><ele>570.0</ele><time>2026-03-22T10:10:46.791Z</time></trkpt><trkpt lat="43.5786401" lon="11.4040869"><ele>567.6666666666666</ele><time>2026-03-22T10:10:56.792Z</time></trkpt><trkpt lat="43.5787322" lon="11.404138"><ele>565.3333333333334</ele><time>2026-03-22T10:10:59.791Z</time></trkpt><trkpt lat="43.5788126" lon="11.4041718"><ele>563.0</ele><time>2026-03-22T10:11:01.792Z</time></trkpt><trkpt lat="43.5788906" lon="11.4041906"><ele>560.6666666666667</ele><time>2026-03-22T10:11:06.792Z</time></trkpt><trkpt lat="43.5789679" lon="11.4042026"><ele>558.3333333333334</ele><time>2026-03-22T10:11:42.792Z</time></trkpt><trkpt lat="43.5790392" lon="11.4042061"><ele>556.0</ele><time>2026-03-22T10:11:44.792Z</time></trkpt><trkpt lat="43.5791284" lon="11.4042352"><ele>556.0</ele><time>2026-03-22T10:11:46.791Z</time></trkpt><trkpt lat="43.5792412" lon="11.4043105"><ele>556.0</ele><time>2026-03-22T10:11:48.792Z</time></trkpt><trkpt lat="43.5793067" lon="11.404361"><ele>556.0</ele><time>2026-03-22T10:11:49.791Z</time></trkpt><trkpt lat="43.5793775" lon="11.4044067"><ele>556.0</ele><time>2026-03-22T10:11:50.792Z</time></trkpt><trkpt lat="43.5794464" lon="11.4044521"><ele>556.0</ele><time>2026-03-22T10:11:51.792Z</time></trkpt><trkpt lat="43.5795077" lon="11.4044899"><ele>556.0</ele><time>2026-03-22T10:11:52.791Z</time></trkpt><trkpt lat="43.579599" lon="11.4045351"><ele>555.0</ele><time>2026-03-22T10:11:54.792Z</time></trkpt><trkpt lat="43.579708" lon="11.4045537"><ele>554.0</ele><time>2026-03-22T10:11:56.791Z</time></trkpt><trkpt lat="43.5797893" lon="11.4046102"><ele>553.0</ele><time>2026-03-22T10:11:58.791Z</time></trkpt><trkpt lat="43.5799019" lon="11.4046904"><ele>552.0</ele><time>2026-03-22T10:12:00.792Z</time></trkpt><trkpt lat="43.5799929" lon="11.4047102"><ele>551.0</ele><time>2026-03-22T10:12:02.791Z</time></trkpt><trkpt lat="43.5800667" lon="11.4047048"><ele>551.0</ele><time>2026-03-22T10:12:04.792Z</time></trkpt><trkpt lat="43.5801166" lon="11.4046417"><ele>551.0</ele><time>2026-03-22T10:12:06.792Z</time></trkpt><trkpt lat="43.5801934" lon="11.4045983"><ele>551.0</ele><time>2026-03-22T10:12:08.792Z</time></trkpt><trkpt lat="43.5802773" lon="11.4045898"><ele>551.0</ele><time>2026-03-22T10:12:10.792Z</time></trkpt><trkpt lat="43.5803639" lon="11.4045522"><ele>551.0</ele><time>2026-03-22T10:12:12.792Z</time></trkpt><trkpt lat="43.5804399" lon="11.4044889"><ele>551.0</ele><time>2026-03-22T10:12:14.792Z</time></trkpt><trkpt lat="43.5805021" lon="11.4044747"><ele>550.8333333333333</ele><time>2026-03-22T10:12:16.791Z</time></trkpt><trkpt lat="43.5805808" lon="11.4044574"><ele>550.6666666666666</ele><time>2026-03-22T10:12:18.792Z</time></trkpt><trkpt lat="43.580648" lon="11.4044587"><ele>550.5</ele><time>2026-03-22T10:12:19.792Z</time></trkpt><trkpt lat="43.5807313" lon="11.4044582"><ele>550.3333333333334</ele><time>2026-03-22T10:12:20.792Z</time></trkpt><trkpt lat="43.5808305" lon="11.4044649"><ele>550.1666666666667</ele><time>2026-03-22T10:12:21.792Z</time></trkpt><trkpt lat="43.5809199" lon="11.404467"><ele>550.0</ele><time>2026-03-22T10:12:22.792Z</time></trkpt><trkpt lat="43.5810037" lon="11.4044625"><ele>550.0</ele><time>2026-03-22T10:12:23.792Z</time></trkpt><trkpt lat="43.5810932" lon="11.4044475"><ele>550.0</ele><time>2026-03-22T10:12:24.791Z</time></trkpt><trkpt lat="43.5811796" lon="11.4044168"><ele>550.0</ele><time>2026-03-22T10:12:25.792Z</time></trkpt><trkpt lat="43.5812666" lon="11.4043849"><ele>550.0</ele><time>2026-03-22T10:12:26.791Z</time></trkpt><trkpt lat="43.5813354" lon="11.4043527"><ele>550.0</ele><time>2026-03-22T10:12:27.791Z</time></trkpt><trkpt lat="43.5813994" lon="11.4043181"><ele>550.0</ele><time>2026-03-22T10:12:28.792Z</time></trkpt><trkpt lat="43.5814592" lon="11.4042866"><ele>550.0</ele><time>2026-03-22T10:12:29.792Z</time></trkpt><trkpt lat="43.5815827" lon="11.4042615"><ele>550.0</ele><time>2026-03-22T10:12:31.791Z</time></trkpt><trkpt lat="43.5816457" lon="11.4042443"><ele>550.0</ele><time>2026-03-22T10:12:32.792Z</time></trkpt><trkpt lat="43.5817547" lon="11.40418"><ele>550.0</ele><time>2026-03-22T10:12:34.791Z</time></trkpt><trkpt lat="43.5818445" lon="11.4040634"><ele>550.0</ele><time>2026-03-22T10:12:36.792Z</time></trkpt><trkpt lat="43.5818957" lon="11.4039216"><ele>548.2</ele><time>2026-03-22T10:12:38.792Z</time></trkpt><trkpt lat="43.5818781" lon="11.4038051"><ele>546.4</ele><time>2026-03-22T10:12:40.792Z</time></trkpt><trkpt lat="43.5818247" lon="11.4036936"><ele>544.6</ele><time>2026-03-22T10:12:42.792Z</time></trkpt><trkpt lat="43.5818373" lon="11.4035672"><ele>542.8</ele><time>2026-03-22T10:12:44.792Z</time></trkpt><trkpt lat="43.5818891" lon="11.4034214"><ele>541.0</ele><time>2026-03-22T10:12:46.791Z</time></trkpt><trkpt lat="43.5819435" lon="11.4033046"><ele>541.0</ele><time>2026-03-22T10:12:48.792Z</time></trkpt><trkpt lat="43.5820114" lon="11.4032405"><ele>541.0</ele><time>2026-03-22T10:12:50.792Z</time></trkpt><trkpt lat="43.582092" lon="11.4031908"><ele>541.0</ele><time>2026-03-22T10:12:52.791Z</time></trkpt><trkpt lat="43.5822381" lon="11.4031705"><ele>541.0</ele><time>2026-03-22T10:12:54.792Z</time></trkpt><trkpt lat="43.582307" lon="11.4031639"><ele>541.0</ele><time>2026-03-22T10:12:55.792Z</time></trkpt><trkpt lat="43.582375" lon="11.4031668"><ele>539.5</ele><time>2026-03-22T10:12:56.792Z</time></trkpt><trkpt lat="43.5824479" lon="11.4031665"><ele>538.0</ele><time>2026-03-22T10:12:57.792Z</time></trkpt><trkpt lat="43.5825167" lon="11.4031401"><ele>536.5</ele><time>2026-03-22T10:12:58.792Z</time></trkpt><trkpt lat="43.5825779" lon="11.4030909"><ele>535.0</ele><time>2026-03-22T10:12:59.791Z</time></trkpt><trkpt lat="43.5826415" lon="11.4030106"><ele>533.5</ele><time>2026-03-22T10:13:00.792Z</time></trkpt><trkpt lat="43.5827007" lon="11.4029251"><ele>532.0</ele><time>2026-03-22T10:13:01.792Z</time></trkpt><trkpt lat="43.5827519" lon="11.4028564"><ele>532.2</ele><time>2026-03-22T10:13:02.792Z</time></trkpt><trkpt lat="43.5828276" lon="11.402749"><ele>532.4000000000001</ele><time>2026-03-22T10:13:04.791Z</time></trkpt><trkpt lat="43.5829247" lon="11.4026433"><ele>532.5999999999999</ele><time>2026-03-22T10:13:06.792Z</time></trkpt><trkpt lat="43.5829931" lon="11.4026032"><ele>532.8</ele><time>2026-03-22T10:13:07.792Z</time></trkpt><trkpt lat="43.5830675" lon="11.4025751"><ele>533.0</ele><time>2026-03-22T10:13:08.791Z</time></trkpt><trkpt lat="43.5831617" lon="11.4025364"><ele>533.0</ele><time>2026-03-22T10:13:09.791Z</time></trkpt><trkpt lat="43.5832381" lon="11.40249"><ele>533.0</ele><time>2026-03-22T10:13:10.791Z</time></trkpt><trkpt lat="43.5832993" lon="11.4024308"><ele>533.0</ele><time>2026-03-22T10:13:11.792Z</time></trkpt><trkpt lat="43.5833541" lon="11.4023755"><ele>533.0</ele><time>2026-03-22T10:13:12.792Z</time></trkpt><trkpt lat="43.5834652" lon="11.4023322"><ele>533.0</ele><time>2026-03-22T10:13:14.792Z</time></trkpt><trkpt lat="43.5835612" lon="11.4024345"><ele>533.0</ele><time>2026-03-22T10:13:16.792Z</time></trkpt><trkpt lat="43.5836132" lon="11.4025065"><ele>533.0</ele><time>2026-03-22T10:13:17.791Z</time></trkpt><trkpt lat="43.583689" lon="11.4026034"><ele>533.0</ele><time>2026-03-22T10:13:19.792Z</time></trkpt><trkpt lat="43.5837322" lon="11.4026684"><ele>533.0</ele><time>2026-03-22T10:13:21.792Z</time></trkpt><trkpt lat="43.5838146" lon="11.4027448"><ele>533.0</ele><time>2026-03-22T10:13:23.791Z</time></trkpt><trkpt lat="43.583872" lon="11.4027912"><ele>533.0</ele><time>2026-03-22T10:13:24.792Z</time></trkpt><trkpt lat="43.583943" lon="11.4028333"><ele>533.8333333333333</ele><time>2026-03-22T10:13:25.792Z</time></trkpt><trkpt lat="43.5840153" lon="11.4028606"><ele>534.6666666666666</ele><time>2026-03-22T10:13:26.792Z</time></trkpt><trkpt lat="43.5840913" lon="11.40288"><ele>535.5</ele><time>2026-03-22T10:13:27.791Z</time></trkpt><trkpt lat="43.5841829" lon="11.4028873"><ele>536.3333333333334</ele><time>2026-03-22T10:13:28.792Z</time></trkpt><trkpt lat="43.5842791" lon="11.4028832"><ele>537.1666666666667</ele><time>2026-03-22T10:13:29.792Z</time></trkpt><trkpt lat="43.5843611" lon="11.4028654"><ele>538.0</ele><time>2026-03-22T10:13:30.791Z</time></trkpt><trkpt lat="43.5844419" lon="11.4028457"><ele>538.3333333333334</ele><time>2026-03-22T10:13:31.792Z</time></trkpt><trkpt lat="43.5845169" lon="11.4028357"><ele>538.6666666666667</ele><time>2026-03-22T10:13:32.791Z</time></trkpt><trkpt lat="43.5845777" lon="11.4028764"><ele>539.0</ele><time>2026-03-22T10:13:33.792Z</time></trkpt><trkpt lat="43.5846807" lon="11.4029342"><ele>539.3333333333334</ele><time>2026-03-22T10:13:35.792Z</time></trkpt><trkpt lat="43.584745" lon="11.4029491"><ele>539.6666666666666</ele><time>2026-03-22T10:13:36.792Z</time></trkpt><trkpt lat="43.5848128" lon="11.4029414"><ele>540.0</ele><time>2026-03-22T10:13:37.791Z</time></trkpt><trkpt lat="43.5848889" lon="11.4029313"><ele>540.0</ele><time>2026-03-22T10:13:38.792Z</time></trkpt><trkpt lat="43.584977" lon="11.4029479"><ele>540.0</ele><time>2026-03-22T10:13:39.792Z</time></trkpt><trkpt lat="43.585107" lon="11.4030042"><ele>540.0</ele><time>2026-03-22T10:13:40.792Z</time></trkpt><trkpt lat="43.5852256" lon="11.4030172"><ele>540.0</ele><time>2026-03-22T10:13:41.792Z</time></trkpt><trkpt lat="43.585326" lon="11.4030242"><ele>540.0</ele><time>2026-03-22T10:13:42.792Z</time></trkpt><trkpt lat="43.5854207" lon="11.4030425"><ele>540.8333333333334</ele><time>2026-03-22T10:13:43.792Z</time></trkpt><trkpt lat="43.5855099" lon="11.4030587"><ele>541.6666666666666</ele><time>2026-03-22T10:13:44.792Z</time></trkpt><trkpt lat="43.5855802" lon="11.403102"><ele>542.5</ele><time>2026-03-22T10:13:45.792Z</time></trkpt><trkpt lat="43.5856319" lon="11.4031703"><ele>543.3333333333333</ele><time>2026-03-22T10:13:46.792Z</time></trkpt><trkpt lat="43.5856672" lon="11.4032696"><ele>544.1666666666666</ele><time>2026-03-22T10:13:47.792Z</time></trkpt><trkpt lat="43.5856851" lon="11.4033778"><ele>545.0</ele><time>2026-03-22T10:13:48.791Z</time></trkpt><trkpt lat="43.5856995" lon="11.4034777"><ele>545.0</ele><time>2026-03-22T10:13:49.792Z</time></trkpt><trkpt lat="43.5857281" lon="11.4035626"><ele>545.0</ele><time>2026-03-22T10:13:50.792Z</time></trkpt><trkpt lat="43.5857702" lon="11.4036546"><ele>545.0</ele><time>2026-03-22T10:13:52.791Z</time></trkpt><trkpt lat="43.5858268" lon="11.4037508"><ele>545.0</ele><time>2026-03-22T10:13:54.792Z</time></trkpt><trkpt lat="43.5859232" lon="11.4037708"><ele>545.0</ele><time>2026-03-22T10:13:56.791Z</time></trkpt><trkpt lat="43.5860324" lon="11.4037808"><ele>545.0</ele><time>2026-03-22T10:13:58.792Z</time></trkpt><trkpt lat="43.5861203" lon="11.4038396"><ele>542.2</ele><time>2026-03-22T10:14:00.792Z</time></trkpt><trkpt lat="43.5862347" lon="11.4038392"><ele>539.4</ele><time>2026-03-22T10:14:02.791Z</time></trkpt><trkpt lat="43.5863063" lon="11.4038473"><ele>536.6</ele><time>2026-03-22T10:14:03.791Z</time></trkpt><trkpt lat="43.586393" lon="11.4038796"><ele>533.8</ele><time>2026-03-22T10:14:04.792Z</time></trkpt><trkpt lat="43.5865016" lon="11.4039081"><ele>531.0</ele><time>2026-03-22T10:14:05.792Z</time></trkpt><trkpt lat="43.5866059" lon="11.4039411"><ele>531.0</ele><time>2026-03-22T10:14:06.792Z</time></trkpt><trkpt lat="43.5867146" lon="11.4039907"><ele>531.0</ele><time>2026-03-22T10:14:07.791Z</time></trkpt><trkpt lat="43.586803" lon="11.4040326"><ele>531.0</ele><time>2026-03-22T10:14:08.791Z</time></trkpt><trkpt lat="43.5868919" lon="11.4040661"><ele>531.0</ele><time>2026-03-22T10:14:09.792Z</time></trkpt><trkpt lat="43.586977" lon="11.4040864"><ele>531.0</ele><time>2026-03-22T10:14:10.791Z</time></trkpt><trkpt lat="43.5870616" lon="11.4040766"><ele>533.0</ele><time>2026-03-22T10:14:11.792Z</time></trkpt><trkpt lat="43.5871269" lon="11.4040666"><ele>535.0</ele><time>2026-03-22T10:14:12.791Z</time></trkpt><trkpt lat="43.5871893" lon="11.4041046"><ele>537.0</ele><time>2026-03-22T10:14:13.792Z</time></trkpt><trkpt lat="43.5872468" lon="11.4041866"><ele>539.0</ele><time>2026-03-22T10:14:14.792Z</time></trkpt><trkpt lat="43.5873008" lon="11.4042974"><ele>541.0</ele><time>2026-03-22T10:14:15.792Z</time></trkpt><trkpt lat="43.5873647" lon="11.4044133"><ele>543.0</ele><time>2026-03-22T10:14:16.791Z</time></trkpt><trkpt lat="43.5874516" lon="11.4045165"><ele>543.0</ele><time>2026-03-22T10:14:17.792Z</time></trkpt><trkpt lat="43.5875226" lon="11.4046246"><ele>543.0</ele><time>2026-03-22T10:14:18.791Z</time></trkpt><trkpt lat="43.5875866" lon="11.4047302"><ele>543.0</ele><time>2026-03-22T10:14:19.792Z</time></trkpt><trkpt lat="43.5876399" lon="11.4048178"><ele>543.0</ele><time>2026-03-22T10:14:20.791Z</time></trkpt><trkpt lat="43.587687" lon="11.4048881"><ele>543.0</ele><time>2026-03-22T10:14:21.792Z</time></trkpt><trkpt lat="43.58779" lon="11.4049516"><ele>543.0</ele><time>2026-03-22T10:14:23.791Z</time></trkpt><trkpt lat="43.5879047" lon="11.4049862"><ele>543.0</ele><time>2026-03-22T10:14:25.791Z</time></trkpt><trkpt lat="43.5879827" lon="11.4049971"><ele>543.0</ele><time>2026-03-22T10:14:26.792Z</time></trkpt><trkpt lat="43.5880648" lon="11.4049945"><ele>543.0</ele><time>2026-03-22T10:14:27.791Z</time></trkpt><trkpt lat="43.5881395" lon="11.4049898"><ele>543.0</ele><time>2026-03-22T10:14:28.791Z</time></trkpt><trkpt lat="43.5882097" lon="11.4049851"><ele>543.0</ele><time>2026-03-22T10:14:29.792Z</time></trkpt><trkpt lat="43.5883063" lon="11.4050273"><ele>543.0</ele><time>2026-03-22T10:14:31.792Z</time></trkpt><trkpt lat="43.5883989" lon="11.4051548"><ele>543.0</ele><time>2026-03-22T10:14:33.792Z</time></trkpt><trkpt lat="43.5884792" lon="11.4051945"><ele>543.0</ele><time>2026-03-22T10:14:34.792Z</time></trkpt><trkpt lat="43.5885718" lon="11.4052176"><ele>543.0</ele><time>2026-03-22T10:14:35.793Z</time></trkpt><trkpt lat="43.5886712" lon="11.4052339"><ele>543.0</ele><time>2026-03-22T10:14:36.793Z</time></trkpt><trkpt lat="43.5887662" lon="11.4052423"><ele>543.0</ele><time>2026-03-22T10:14:37.793Z</time></trkpt><trkpt lat="43.588863" lon="11.4052522"><ele>543.0</ele><time>2026-03-22T10:14:38.793Z</time></trkpt><trkpt lat="43.5889561" lon="11.405267"><ele>543.0</ele><time>2026-03-22T10:14:39.792Z</time></trkpt><trkpt lat="43.5890502" lon="11.4052759"><ele>543.0</ele><time>2026-03-22T10:14:40.792Z</time></trkpt><trkpt lat="43.5891378" lon="11.4052929"><ele>543.0</ele><time>2026-03-22T10:14:41.793Z</time></trkpt><trkpt lat="43.5892173" lon="11.4053214"><ele>543.0</ele><time>2026-03-22T10:14:42.793Z</time></trkpt><trkpt lat="43.5892798" lon="11.4053419"><ele>543.0</ele><time>2026-03-22T10:14:43.792Z</time></trkpt><trkpt lat="43.5893446" lon="11.4053706"><ele>543.0</ele><time>2026-03-22T10:14:45.793Z</time></trkpt><trkpt lat="43.5894228" lon="11.4054012"><ele>543.0</ele><time>2026-03-22T10:14:47.792Z</time></trkpt><trkpt lat="43.5895066" lon="11.4054215"><ele>543.0</ele><time>2026-03-22T10:14:49.793Z</time></trkpt><trkpt lat="43.5895998" lon="11.4054296"><ele>543.0</ele><time>2026-03-22T10:14:51.793Z</time></trkpt><trkpt lat="43.5896845" lon="11.4054217"><ele>541.6666666666666</ele><time>2026-03-22T10:14:53.793Z</time></trkpt><trkpt lat="43.5897633" lon="11.4054195"><ele>540.3333333333334</ele><time>2026-03-22T10:14:55.793Z</time></trkpt><trkpt lat="43.5898325" lon="11.405403"><ele>539.0</ele><time>2026-03-22T10:14:57.793Z</time></trkpt><trkpt lat="43.5899424" lon="11.4053948"><ele>537.6666666666667</ele><time>2026-03-22T10:14:59.793Z</time></trkpt><trkpt lat="43.59003" lon="11.4053684"><ele>536.3333333333334</ele><time>2026-03-22T10:15:01.793Z</time></trkpt><trkpt lat="43.5900974" lon="11.4053111"><ele>535.0</ele><time>2026-03-22T10:15:05.792Z</time></trkpt><trkpt lat="43.5901483" lon="11.4052534"><ele>535.0</ele><time>2026-03-22T10:15:09.793Z</time></trkpt><trkpt lat="43.5902032" lon="11.4051943"><ele>535.0</ele><time>2026-03-22T10:15:13.793Z</time></trkpt><trkpt lat="43.5902754" lon="11.4051712"><ele>535.0</ele><time>2026-03-22T10:15:19.792Z</time></trkpt><trkpt lat="43.5903481" lon="11.4051518"><ele>535.0</ele><time>2026-03-22T10:15:24.793Z</time></trkpt><trkpt lat="43.5904176" lon="11.4051172"><ele>535.0</ele><time>2026-03-22T10:15:31.793Z</time></trkpt><trkpt lat="43.5904806" lon="11.405102"><ele>535.0</ele><time>2026-03-22T10:15:34.793Z</time></trkpt><trkpt lat="43.590563" lon="11.405079"><ele>535.0</ele><time>2026-03-22T10:15:38.793Z</time></trkpt><trkpt lat="43.5906413" lon="11.4050266"><ele>532.3333333333334</ele><time>2026-03-22T10:15:42.793Z</time></trkpt><trkpt lat="43.5907192" lon="11.4050006"><ele>529.6666666666667</ele><time>2026-03-22T10:15:45.793Z</time></trkpt><trkpt lat="43.5907989" lon="11.4050486"><ele>527.0</ele><time>2026-03-22T10:15:48.792Z</time></trkpt><trkpt lat="43.5908465" lon="11.4051114"><ele>524.3333333333334</ele><time>2026-03-22T10:15:52.793Z</time></trkpt><trkpt lat="43.5909069" lon="11.4051831"><ele>521.6666666666666</ele><time>2026-03-22T10:15:55.793Z</time></trkpt><trkpt lat="43.5909559" lon="11.4052766"><ele>519.0</ele><time>2026-03-22T10:15:58.793Z</time></trkpt><trkpt lat="43.5910009" lon="11.4053933"><ele>519.0</ele><time>2026-03-22T10:16:00.792Z</time></trkpt><trkpt lat="43.5910365" lon="11.4054783"><ele>519.0</ele><time>2026-03-22T10:16:02.793Z</time></trkpt><trkpt lat="43.5910888" lon="11.4055833"><ele>519.0</ele><time>2026-03-22T10:16:04.793Z</time></trkpt><trkpt lat="43.5911612" lon="11.4056808"><ele>519.0</ele><time>2026-03-22T10:16:06.792Z</time></trkpt><trkpt lat="43.5912335" lon="11.4057142"><ele>519.0</ele><time>2026-03-22T10:16:08.793Z</time></trkpt><trkpt lat="43.591316" lon="11.4057477"><ele>519.0</ele><time>2026-03-22T10:16:10.793Z</time></trkpt><trkpt lat="43.5914286" lon="11.4057862"><ele>516.5</ele><time>2026-03-22T10:16:12.793Z</time></trkpt><trkpt lat="43.5914749" lon="11.4059085"><ele>514.0</ele><time>2026-03-22T10:16:14.793Z</time></trkpt><trkpt lat="43.5914298" lon="11.405982"><ele>511.5</ele><time>2026-03-22T10:16:22.793Z</time></trkpt><trkpt lat="43.5913668" lon="11.4060241"><ele>509.0</ele><time>2026-03-22T10:16:23.793Z</time></trkpt><trkpt lat="43.5913004" lon="11.4060781"><ele>506.5</ele><time>2026-03-22T10:16:24.792Z</time></trkpt><trkpt lat="43.5912396" lon="11.4061284"><ele>504.0</ele><time>2026-03-22T10:16:25.793Z</time></trkpt><trkpt lat="43.591188" lon="11.4061991"><ele>504.8333333333333</ele><time>2026-03-22T10:16:26.793Z</time></trkpt><trkpt lat="43.5911424" lon="11.4062848"><ele>505.66666666666663</ele><time>2026-03-22T10:16:27.793Z</time></trkpt><trkpt lat="43.5911141" lon="11.4064198"><ele>506.5</ele><time>2026-03-22T10:16:28.793Z</time></trkpt><trkpt lat="43.591089" lon="11.406563"><ele>507.3333333333333</ele><time>2026-03-22T10:16:29.793Z</time></trkpt><trkpt lat="43.5910711" lon="11.4066778"><ele>508.16666666666663</ele><time>2026-03-22T10:16:30.792Z</time></trkpt><trkpt lat="43.591028" lon="11.4067615"><ele>509.0</ele><time>2026-03-22T10:16:31.793Z</time></trkpt><trkpt lat="43.5909842" lon="11.4068293"><ele>508.99999999999994</ele><time>2026-03-22T10:16:32.793Z</time></trkpt><trkpt lat="43.5909292" lon="11.4068979"><ele>509.0</ele><time>2026-03-22T10:16:33.792Z</time></trkpt><trkpt lat="43.590877" lon="11.4069546"><ele>509.0</ele><time>2026-03-22T10:16:34.793Z</time></trkpt><trkpt lat="43.5908236" lon="11.4070061"><ele>509.0</ele><time>2026-03-22T10:16:35.793Z</time></trkpt><trkpt lat="43.5907162" lon="11.4070913"><ele>508.99999999999994</ele><time>2026-03-22T10:16:37.793Z</time></trkpt><trkpt lat="43.5906145" lon="11.4071466"><ele>509.0</ele><time>2026-03-22T10:16:39.793Z</time></trkpt><trkpt lat="43.5905505" lon="11.4072913"><ele>508.8333333333333</ele><time>2026-03-22T10:16:41.792Z</time></trkpt><trkpt lat="43.5905245" lon="11.4074133"><ele>508.66666666666663</ele><time>2026-03-22T10:16:42.793Z</time></trkpt><trkpt lat="43.5905016" lon="11.4075308"><ele>508.5</ele><time>2026-03-22T10:16:43.792Z</time></trkpt><trkpt lat="43.590474" lon="11.407621"><ele>508.33333333333337</ele><time>2026-03-22T10:16:44.792Z</time></trkpt><trkpt lat="43.59044" lon="11.4077077"><ele>508.1666666666667</ele><time>2026-03-22T10:16:45.793Z</time></trkpt><trkpt lat="43.590392" lon="11.407782"><ele>508.0</ele><time>2026-03-22T10:16:46.793Z</time></trkpt><trkpt lat="43.5903296" lon="11.407831"><ele>508.0</ele><time>2026-03-22T10:16:47.793Z</time></trkpt><trkpt lat="43.5902547" lon="11.4078669"><ele>508.0</ele><time>2026-03-22T10:16:48.793Z</time></trkpt><trkpt lat="43.5901842" lon="11.4078939"><ele>508.0</ele><time>2026-03-22T10:16:49.793Z</time></trkpt><trkpt lat="43.5901144" lon="11.4079208"><ele>508.0</ele><time>2026-03-22T10:16:50.793Z</time></trkpt><trkpt lat="43.5900508" lon="11.4079232"><ele>508.0</ele><time>2026-03-22T10:16:51.793Z</time></trkpt><trkpt lat="43.5899793" lon="11.40791"><ele>508.0</ele><time>2026-03-22T10:16:52.793Z</time></trkpt><trkpt lat="43.5898984" lon="11.4079027"><ele>508.0</ele><time>2026-03-22T10:16:53.793Z</time></trkpt><trkpt lat="43.589796" lon="11.4078971"><ele>508.00000000000006</ele><time>2026-03-22T10:16:54.793Z</time></trkpt><trkpt lat="43.5897017" lon="11.407886"><ele>508.0</ele><time>2026-03-22T10:16:55.793Z</time></trkpt><trkpt lat="43.5896226" lon="11.407893"><ele>508.0</ele><time>2026-03-22T10:16:56.792Z</time></trkpt><trkpt lat="43.5895592" lon="11.407928"><ele>508.0</ele><time>2026-03-22T10:16:57.793Z</time></trkpt><trkpt lat="43.5894309" lon="11.4079671"><ele>508.00000000000006</ele><time>2026-03-22T10:16:59.793Z</time></trkpt><trkpt lat="43.5893593" lon="11.4079629"><ele>508.0</ele><time>2026-03-22T10:17:00.793Z</time></trkpt><trkpt lat="43.5892518" lon="11.4079779"><ele>507.33333333333337</ele><time>2026-03-22T10:17:02.793Z</time></trkpt><trkpt lat="43.5891831" lon="11.408094"><ele>506.6666666666667</ele><time>2026-03-22T10:17:04.793Z</time></trkpt><trkpt lat="43.5891737" lon="11.4081853"><ele>506.0</ele><time>2026-03-22T10:17:05.793Z</time></trkpt><trkpt lat="43.5891654" lon="11.4083062"><ele>505.33333333333337</ele><time>2026-03-22T10:17:07.793Z</time></trkpt><trkpt lat="43.5891066" lon="11.408361"><ele>504.6666666666667</ele><time>2026-03-22T10:17:09.793Z</time></trkpt><trkpt lat="43.5890538" lon="11.4084747"><ele>504.0</ele><time>2026-03-22T10:17:11.793Z</time></trkpt><trkpt lat="43.5889904" lon="11.4085598"><ele>504.0</ele><time>2026-03-22T10:17:13.793Z</time></trkpt><trkpt lat="43.5888886" lon="11.4085537"><ele>504.0</ele><time>2026-03-22T10:17:15.793Z</time></trkpt><trkpt lat="43.5887895" lon="11.408525"><ele>504.0</ele><time>2026-03-22T10:17:17.793Z</time></trkpt><trkpt lat="43.5887011" lon="11.4084906"><ele>504.0</ele><time>2026-03-22T10:17:19.792Z</time></trkpt><trkpt lat="43.5886124" lon="11.4084554"><ele>504.0</ele><time>2026-03-22T10:17:21.793Z</time></trkpt><trkpt lat="43.5885253" lon="11.4084552"><ele>503.79999999999995</ele><time>2026-03-22T10:17:23.792Z</time></trkpt><trkpt lat="43.5884188" lon="11.4084557"><ele>503.59999999999997</ele><time>2026-03-22T10:17:25.793Z</time></trkpt><trkpt lat="43.5883111" lon="11.4084631"><ele>503.4</ele><time>2026-03-22T10:17:27.792Z</time></trkpt><trkpt lat="43.5882058" lon="11.4084488"><ele>503.2</ele><time>2026-03-22T10:17:29.793Z</time></trkpt><trkpt lat="43.5880864" lon="11.4083941"><ele>503.0</ele><time>2026-03-22T10:17:31.793Z</time></trkpt><trkpt lat="43.5880218" lon="11.408359"><ele>502.99999999999994</ele><time>2026-03-22T10:17:32.793Z</time></trkpt><trkpt lat="43.5879389" lon="11.408299"><ele>503.0</ele><time>2026-03-22T10:17:34.793Z</time></trkpt><trkpt lat="43.5878838" lon="11.4082429"><ele>503.0</ele><time>2026-03-22T10:17:36.792Z</time></trkpt><trkpt lat="43.5877907" lon="11.4082508"><ele>503.0</ele><time>2026-03-22T10:17:38.792Z</time></trkpt><trkpt lat="43.5877145" lon="11.4083227"><ele>502.99999999999994</ele><time>2026-03-22T10:17:40.793Z</time></trkpt><trkpt lat="43.5876288" lon="11.4083589"><ele>503.0</ele><time>2026-03-22T10:17:42.792Z</time></trkpt><trkpt lat="43.5875389" lon="11.4084148"><ele>499.2</ele><time>2026-03-22T10:17:45.792Z</time></trkpt><trkpt lat="43.5874784" lon="11.4085194"><ele>495.4</ele><time>2026-03-22T10:17:47.793Z</time></trkpt><trkpt lat="43.5874" lon="11.4086102"><ele>491.59999999999997</ele><time>2026-03-22T10:17:49.793Z</time></trkpt><trkpt lat="43.5873128" lon="11.4087085"><ele>487.79999999999995</ele><time>2026-03-22T10:17:51.792Z</time></trkpt><trkpt lat="43.5872733" lon="11.4087778"><ele>484.0</ele><time>2026-03-22T10:17:52.793Z</time></trkpt><trkpt lat="43.5872134" lon="11.4088486"><ele>483.2</ele><time>2026-03-22T10:17:54.793Z</time></trkpt><trkpt lat="43.587161" lon="11.4089029"><ele>482.4</ele><time>2026-03-22T10:17:55.793Z</time></trkpt><trkpt lat="43.5870739" lon="11.4090798"><ele>481.6</ele><time>2026-03-22T10:17:57.792Z</time></trkpt><trkpt lat="43.5870114" lon="11.4091972"><ele>480.8</ele><time>2026-03-22T10:17:58.792Z</time></trkpt><trkpt lat="43.5869628" lon="11.4093189"><ele>480.0</ele><time>2026-03-22T10:17:59.793Z</time></trkpt><trkpt lat="43.5869121" lon="11.4094118"><ele>480.0</ele><time>2026-03-22T10:18:00.793Z</time></trkpt><trkpt lat="43.5868675" lon="11.4095007"><ele>480.0</ele><time>2026-03-22T10:18:01.792Z</time></trkpt><trkpt lat="43.5868427" lon="11.4096025"><ele>480.0</ele><time>2026-03-22T10:18:02.793Z</time></trkpt><trkpt lat="43.5868302" lon="11.4097086"><ele>480.0</ele><time>2026-03-22T10:18:03.793Z</time></trkpt><trkpt lat="43.5868319" lon="11.4098172"><ele>480.0</ele><time>2026-03-22T10:18:04.792Z</time></trkpt><trkpt lat="43.5868422" lon="11.4099193"><ele>480.0</ele><time>2026-03-22T10:18:05.792Z</time></trkpt><trkpt lat="43.5868585" lon="11.4100459"><ele>480.0</ele><time>2026-03-22T10:18:06.793Z</time></trkpt><trkpt lat="43.5868647" lon="11.4101505"><ele>480.0</ele><time>2026-03-22T10:18:07.793Z</time></trkpt><trkpt lat="43.5868663" lon="11.4103589"><ele>480.0</ele><time>2026-03-22T10:18:09.793Z</time></trkpt><trkpt lat="43.586889" lon="11.4104558"><ele>480.0</ele><time>2026-03-22T10:18:10.793Z</time></trkpt><trkpt lat="43.5869088" lon="11.4105689"><ele>480.0</ele><time>2026-03-22T10:18:11.792Z</time></trkpt><trkpt lat="43.5869245" lon="11.4106597"><ele>479.6666666666667</ele><time>2026-03-22T10:18:12.793Z</time></trkpt><trkpt lat="43.5869537" lon="11.4108153"><ele>479.33333333333337</ele><time>2026-03-22T10:18:14.793Z</time></trkpt><trkpt lat="43.587005" lon="11.4108717"><ele>479.0</ele><time>2026-03-22T10:18:15.793Z</time></trkpt><trkpt lat="43.5870567" lon="11.4109222"><ele>478.6666666666667</ele><time>2026-03-22T10:18:16.793Z</time></trkpt><trkpt lat="43.5871434" lon="11.4110091"><ele>478.33333333333337</ele><time>2026-03-22T10:18:18.793Z</time></trkpt><trkpt lat="43.5871736" lon="11.4110884"><ele>478.0</ele><time>2026-03-22T10:18:19.793Z</time></trkpt><trkpt lat="43.5871886" lon="11.411176"><ele>477.4</ele><time>2026-03-22T10:18:20.793Z</time></trkpt><trkpt lat="43.5871501" lon="11.4113099"><ele>476.79999999999995</ele><time>2026-03-22T10:18:22.793Z</time></trkpt><trkpt lat="43.5870985" lon="11.4114356"><ele>476.2</ele><time>2026-03-22T10:18:24.792Z</time></trkpt><trkpt lat="43.5870392" lon="11.4115665"><ele>475.6</ele><time>2026-03-22T10:18:26.793Z</time></trkpt><trkpt lat="43.5869661" lon="11.4116128"><ele>475.0</ele><time>2026-03-22T10:18:28.793Z</time></trkpt><trkpt lat="43.5869009" lon="11.4116764"><ele>475.0</ele><time>2026-03-22T10:18:30.793Z</time></trkpt><trkpt lat="43.5868414" lon="11.4117955"><ele>475.0</ele><time>2026-03-22T10:18:32.793Z</time></trkpt><trkpt lat="43.5868049" lon="11.4119228"><ele>475.0</ele><time>2026-03-22T10:18:34.792Z</time></trkpt><trkpt lat="43.5867652" lon="11.4120364"><ele>475.0</ele><time>2026-03-22T10:18:36.793Z</time></trkpt><trkpt lat="43.5867061" lon="11.4121346"><ele>475.0</ele><time>2026-03-22T10:18:38.793Z</time></trkpt><trkpt lat="43.586619" lon="11.4122439"><ele>474.1666666666667</ele><time>2026-03-22T10:18:40.792Z</time></trkpt><trkpt lat="43.5865209" lon="11.4123451"><ele>473.33333333333337</ele><time>2026-03-22T10:18:42.792Z</time></trkpt><trkpt lat="43.5864574" lon="11.412386"><ele>472.5</ele><time>2026-03-22T10:18:43.793Z</time></trkpt><trkpt lat="43.5863852" lon="11.4124329"><ele>471.66666666666663</ele><time>2026-03-22T10:18:44.793Z</time></trkpt><trkpt lat="43.5863215" lon="11.4124788"><ele>470.8333333333333</ele><time>2026-03-22T10:18:45.793Z</time></trkpt><trkpt lat="43.5862305" lon="11.412493"><ele>470.0</ele><time>2026-03-22T10:18:47.792Z</time></trkpt><trkpt lat="43.5861594" lon="11.4124658"><ele>468.49999999999994</ele><time>2026-03-22T10:18:49.793Z</time></trkpt><trkpt lat="43.5860778" lon="11.4124452"><ele>467.0</ele><time>2026-03-22T10:18:52.793Z</time></trkpt><trkpt lat="43.5860038" lon="11.4124076"><ele>465.5</ele><time>2026-03-22T10:18:55.793Z</time></trkpt><trkpt lat="43.5859281" lon="11.4123869"><ele>464.0</ele><time>2026-03-22T10:18:58.793Z</time></trkpt><trkpt lat="43.5858869" lon="11.412473"><ele>462.49999999999994</ele><time>2026-03-22T10:19:01.793Z</time></trkpt><trkpt lat="43.5858518" lon="11.4126231"><ele>461.0</ele><time>2026-03-22T10:19:03.793Z</time></trkpt><trkpt lat="43.5858332" lon="11.4127132"><ele>460.99999999999994</ele><time>2026-03-22T10:19:04.793Z</time></trkpt><trkpt lat="43.5857949" lon="11.4128233"><ele>461.0</ele><time>2026-03-22T10:19:06.793Z</time></trkpt><trkpt lat="43.5857569" lon="11.4128944"><ele>461.0</ele><time>2026-03-22T10:19:08.792Z</time></trkpt><trkpt lat="43.5857016" lon="11.4129512"><ele>461.0</ele><time>2026-03-22T10:19:12.793Z</time></trkpt><trkpt lat="43.5856441" lon="11.4130502"><ele>460.99999999999994</ele><time>2026-03-22T10:19:18.793Z</time></trkpt><trkpt lat="43.5855835" lon="11.4131657"><ele>461.0</ele><time>2026-03-22T10:19:21.792Z</time></trkpt><trkpt lat="43.5855605" lon="11.4132525"><ele>461.14285714285717</ele><time>2026-03-22T10:19:23.792Z</time></trkpt><trkpt lat="43.5855487" lon="11.4133379"><ele>461.28571428571433</ele><time>2026-03-22T10:19:25.793Z</time></trkpt><trkpt lat="43.585547" lon="11.4134279"><ele>461.42857142857144</ele><time>2026-03-22T10:19:27.792Z</time></trkpt><trkpt lat="43.5855232" lon="11.4135307"><ele>461.57142857142856</ele><time>2026-03-22T10:19:30.793Z</time></trkpt><trkpt lat="43.5854769" lon="11.4136137"><ele>461.7142857142857</ele><time>2026-03-22T10:19:33.793Z</time></trkpt><trkpt lat="43.5854399" lon="11.4136846"><ele>461.8571428571429</ele><time>2026-03-22T10:19:35.793Z</time></trkpt><trkpt lat="43.5854027" lon="11.4137671"><ele>462.0</ele><time>2026-03-22T10:19:38.792Z</time></trkpt><trkpt lat="43.5853864" lon="11.4138676"><ele>461.0</ele><time>2026-03-22T10:19:40.793Z</time></trkpt><trkpt lat="43.5853564" lon="11.4139563"><ele>460.0</ele><time>2026-03-22T10:19:42.793Z</time></trkpt><trkpt lat="43.5852999" lon="11.4140435"><ele>459.0</ele><time>2026-03-22T10:19:44.793Z</time></trkpt><trkpt lat="43.5852261" lon="11.4141339"><ele>458.0</ele><time>2026-03-22T10:19:47.793Z</time></trkpt><trkpt lat="43.5852256" lon="11.4142369"><ele>457.0</ele><time>2026-03-22T10:19:49.793Z</time></trkpt><trkpt lat="43.5852357" lon="11.4143291"><ele>456.0</ele><time>2026-03-22T10:19:52.793Z</time></trkpt><trkpt lat="43.5851855" lon="11.4144205"><ele>453.5</ele><time>2026-03-22T10:19:55.793Z</time></trkpt><trkpt lat="43.5851277" lon="11.4144971"><ele>451.0</ele><time>2026-03-22T10:19:58.793Z</time></trkpt><trkpt lat="43.5850961" lon="11.4146038"><ele>448.5</ele><time>2026-03-22T10:20:00.793Z</time></trkpt><trkpt lat="43.5850448" lon="11.4146922"><ele>446.0</ele><time>2026-03-22T10:20:02.793Z</time></trkpt><trkpt lat="43.5849912" lon="11.4147507"><ele>443.5</ele><time>2026-03-22T10:20:04.793Z</time></trkpt><trkpt lat="43.584908" lon="11.4148055"><ele>441.0</ele><time>2026-03-22T10:20:07.792Z</time></trkpt><trkpt lat="43.5848363" lon="11.4148477"><ele>439.6666666666667</ele><time>2026-03-22T10:20:09.792Z</time></trkpt><trkpt lat="43.5847465" lon="11.4148898"><ele>438.33333333333337</ele><time>2026-03-22T10:20:11.792Z</time></trkpt><trkpt lat="43.5846781" lon="11.4149158"><ele>437.0</ele><time>2026-03-22T10:20:13.793Z</time></trkpt><trkpt lat="43.5846189" lon="11.41495"><ele>435.6666666666667</ele><time>2026-03-22T10:20:15.793Z</time></trkpt><trkpt lat="43.5845462" lon="11.4149607"><ele>434.33333333333337</ele><time>2026-03-22T10:20:19.792Z</time></trkpt><trkpt lat="43.584487" lon="11.4149192"><ele>433.0</ele><time>2026-03-22T10:20:27.793Z</time></trkpt><trkpt lat="43.5844377" lon="11.4148226"><ele>430.71428571428567</ele><time>2026-03-22T10:20:32.793Z</time></trkpt><trkpt lat="43.5843826" lon="11.4147615"><ele>428.42857142857144</ele><time>2026-03-22T10:20:34.793Z</time></trkpt><trkpt lat="43.5843333" lon="11.4146918"><ele>426.1428571428571</ele><time>2026-03-22T10:20:37.792Z</time></trkpt><trkpt lat="43.5842849" lon="11.4146294"><ele>423.85714285714283</ele><time>2026-03-22T10:20:40.793Z</time></trkpt><trkpt lat="43.5842306" lon="11.4145577"><ele>421.57142857142856</ele><time>2026-03-22T10:20:46.836Z</time></trkpt><trkpt lat="43.5841714" lon="11.4145048"><ele>419.2857142857143</ele><time>2026-03-22T10:20:49.793Z</time></trkpt><trkpt lat="43.584172" lon="11.4143747"><ele>417.0</ele><time>2026-03-22T10:20:52.793Z</time></trkpt><trkpt lat="43.58421" lon="11.4142896"><ele>416.8333333333333</ele><time>2026-03-22T10:20:55.84Z</time></trkpt><trkpt lat="43.5841692" lon="11.4141989"><ele>416.66666666666663</ele><time>2026-03-22T10:20:59.852Z</time></trkpt><trkpt lat="43.5840864" lon="11.4142486"><ele>416.5</ele><time>2026-03-22T10:21:03.793Z</time></trkpt><trkpt lat="43.5840435" lon="11.4143594"><ele>416.3333333333333</ele><time>2026-03-22T10:21:06.792Z</time></trkpt><trkpt lat="43.584012" lon="11.414442"><ele>416.16666666666663</ele><time>2026-03-22T10:21:08.793Z</time></trkpt><trkpt lat="43.5839938" lon="11.4145408"><ele>416.0</ele><time>2026-03-22T10:21:10.793Z</time></trkpt><trkpt lat="43.5839647" lon="11.4146351"><ele>416.20000000000005</ele><time>2026-03-22T10:21:12.792Z</time></trkpt><trkpt lat="43.5839224" lon="11.4147164"><ele>416.40000000000003</ele><time>2026-03-22T10:21:14.792Z</time></trkpt><trkpt lat="43.5838879" lon="11.4148183"><ele>416.6</ele><time>2026-03-22T10:21:16.793Z</time></trkpt><trkpt lat="43.5838537" lon="11.4149549"><ele>416.8</ele><time>2026-03-22T10:21:18.793Z</time></trkpt><trkpt lat="43.5838001" lon="11.4150818"><ele>417.0</ele><time>2026-03-22T10:21:20.793Z</time></trkpt><trkpt lat="43.5837619" lon="11.4152071"><ele>417.0</ele><time>2026-03-22T10:21:22.793Z</time></trkpt><trkpt lat="43.5837907" lon="11.4153654"><ele>417.0</ele><time>2026-03-22T10:21:24.793Z</time></trkpt><trkpt lat="43.5838218" lon="11.4154916"><ele>417.0</ele><time>2026-03-22T10:21:26.793Z</time></trkpt><trkpt lat="43.5838634" lon="11.4156003"><ele>417.0</ele><time>2026-03-22T10:21:28.793Z</time></trkpt><trkpt lat="43.5839037" lon="11.415717"><ele>417.0</ele><time>2026-03-22T10:21:30.792Z</time></trkpt><trkpt lat="43.5839729" lon="11.4157952"><ele>415.3333333333333</ele><time>2026-03-22T10:21:32.793Z</time></trkpt><trkpt lat="43.5840349" lon="11.4158606"><ele>413.66666666666663</ele><time>2026-03-22T10:21:34.792Z</time></trkpt><trkpt lat="43.5840948" lon="11.4159391"><ele>412.0</ele><time>2026-03-22T10:21:36.793Z</time></trkpt><trkpt lat="43.5841416" lon="11.4160236"><ele>410.3333333333333</ele><time>2026-03-22T10:21:38.792Z</time></trkpt><trkpt lat="43.5841969" lon="11.416105"><ele>408.66666666666663</ele><time>2026-03-22T10:21:40.793Z</time></trkpt><trkpt lat="43.5842486" lon="11.4161826"><ele>407.0</ele><time>2026-03-22T10:21:42.793Z</time></trkpt><trkpt lat="43.5843175" lon="11.4162652"><ele>406.99999999999994</ele><time>2026-03-22T10:21:45.793Z</time></trkpt><trkpt lat="43.5843725" lon="11.4163194"><ele>407.0</ele><time>2026-03-22T10:21:48.793Z</time></trkpt><trkpt lat="43.584437" lon="11.4163908"><ele>407.0</ele><time>2026-03-22T10:21:51.793Z</time></trkpt><trkpt lat="43.5844953" lon="11.4164632"><ele>407.0</ele><time>2026-03-22T10:21:53.792Z</time></trkpt><trkpt lat="43.5845641" lon="11.4165215"><ele>406.99999999999994</ele><time>2026-03-22T10:21:55.793Z</time></trkpt><trkpt lat="43.5846067" lon="11.4166059"><ele>407.0</ele><time>2026-03-22T10:21:58.793Z</time></trkpt><trkpt lat="43.5846354" lon="11.416712"><ele>404.7142857142857</ele><time>2026-03-22T10:22:01.792Z</time></trkpt><trkpt lat="43.584653" lon="11.4167964"><ele>402.42857142857144</ele><time>2026-03-22T10:22:14.792Z</time></trkpt><trkpt lat="43.5846692" lon="11.4168955"><ele>400.1428571428571</ele><time>2026-03-22T10:22:27.793Z</time></trkpt><trkpt lat="43.5847017" lon="11.4169746"><ele>397.8571428571429</ele><time>2026-03-22T10:22:31.793Z</time></trkpt><trkpt lat="43.5847119" lon="11.4170651"><ele>395.57142857142856</ele><time>2026-03-22T10:23:05.793Z</time></trkpt><trkpt lat="43.5847445" lon="11.4171671"><ele>393.2857142857143</ele><time>2026-03-22T10:23:10.793Z</time></trkpt><trkpt lat="43.5847794" lon="11.4172403"><ele>391.0</ele><time>2026-03-22T10:23:12.793Z</time></trkpt><trkpt lat="43.58482" lon="11.4173141"><ele>387.83333333333337</ele><time>2026-03-22T10:23:14.792Z</time></trkpt><trkpt lat="43.5849051" lon="11.4173826"><ele>384.6666666666667</ele><time>2026-03-22T10:23:17.793Z</time></trkpt><trkpt lat="43.5849786" lon="11.417445"><ele>381.5</ele><time>2026-03-22T10:23:19.793Z</time></trkpt><trkpt lat="43.5850555" lon="11.4174878"><ele>378.33333333333337</ele><time>2026-03-22T10:23:21.792Z</time></trkpt><trkpt lat="43.5851241" lon="11.4175439"><ele>375.1666666666667</ele><time>2026-03-22T10:23:23.792Z</time></trkpt><trkpt lat="43.5851886" lon="11.4175246"><ele>372.0</ele><time>2026-03-22T10:23:25.792Z</time></trkpt><trkpt lat="43.5852665" lon="11.4174561"><ele>372.00000000000006</ele><time>2026-03-22T10:23:28.793Z</time></trkpt><trkpt lat="43.5853324" lon="11.417402"><ele>372.0</ele><time>2026-03-22T10:23:30.793Z</time></trkpt><trkpt lat="43.585403" lon="11.4173317"><ele>372.0</ele><time>2026-03-22T10:23:32.793Z</time></trkpt><trkpt lat="43.5854551" lon="11.4172573"><ele>372.0</ele><time>2026-03-22T10:23:34.793Z</time></trkpt><trkpt lat="43.5854763" lon="11.4171679"><ele>372.0</ele><time>2026-03-22T10:23:36.793Z</time></trkpt><trkpt lat="43.5855301" lon="11.4171177"><ele>372.00000000000006</ele><time>2026-03-22T10:23:39.792Z</time></trkpt><trkpt lat="43.5855932" lon="11.4171063"><ele>372.0</ele><time>2026-03-22T10:23:42.793Z</time></trkpt><trkpt lat="43.5856367" lon="11.4171906"><ele>371.0</ele><time>2026-03-22T10:23:48.793Z</time></trkpt><trkpt lat="43.585662" lon="11.4172812"><ele>370.0</ele><time>2026-03-22T10:23:50.793Z</time></trkpt><trkpt lat="43.5856995" lon="11.4173688"><ele>369.0</ele><time>2026-03-22T10:23:52.792Z</time></trkpt><trkpt lat="43.5857556" lon="11.4174744"><ele>368.0</ele><time>2026-03-22T10:23:55.793Z</time></trkpt><trkpt lat="43.5857891" lon="11.4175837"><ele>367.0</ele><time>2026-03-22T10:23:57.793Z</time></trkpt><trkpt lat="43.5858239" lon="11.4176691"><ele>366.0</ele><time>2026-03-22T10:23:58.793Z</time></trkpt><trkpt lat="43.5858738" lon="11.4178124"><ele>366.0</ele><time>2026-03-22T10:24:00.792Z</time></trkpt><trkpt lat="43.5859139" lon="11.4179169"><ele>366.0</ele><time>2026-03-22T10:24:02.793Z</time></trkpt><trkpt lat="43.585954" lon="11.4180418"><ele>366.0</ele><time>2026-03-22T10:24:04.792Z</time></trkpt><trkpt lat="43.585983" lon="11.4181204"><ele>366.0</ele><time>2026-03-22T10:24:06.792Z</time></trkpt><trkpt lat="43.586035" lon="11.4182421"><ele>366.0</ele><time>2026-03-22T10:24:09.792Z</time></trkpt><trkpt lat="43.5860773" lon="11.4183566"><ele>366.0</ele><time>2026-03-22T10:24:11.792Z</time></trkpt><trkpt lat="43.5861202" lon="11.4184669"><ele>364.6666666666667</ele><time>2026-03-22T10:24:13.792Z</time></trkpt><trkpt lat="43.5861553" lon="11.4185446"><ele>363.3333333333333</ele><time>2026-03-22T10:24:15.793Z</time></trkpt><trkpt lat="43.586198" lon="11.4186196"><ele>362.0</ele><time>2026-03-22T10:31:37.793Z</time></trkpt><trkpt lat="43.5862099" lon="11.4187075"><ele>360.66666666666663</ele><time>2026-03-22T10:31:40.794Z</time></trkpt><trkpt lat="43.5862361" lon="11.4188064"><ele>359.3333333333333</ele><time>2026-03-22T10:31:42.794Z</time></trkpt><trkpt lat="43.5862715" lon="11.4189203"><ele>358.0</ele><time>2026-03-22T10:31:44.794Z</time></trkpt><trkpt lat="43.5863339" lon="11.4190612"><ele>355.8333333333333</ele><time>2026-03-22T10:31:46.793Z</time></trkpt><trkpt lat="43.5863748" lon="11.4191733"><ele>353.66666666666663</ele><time>2026-03-22T10:31:48.794Z</time></trkpt><trkpt lat="43.5864041" lon="11.4193031"><ele>351.5</ele><time>2026-03-22T10:31:50.793Z</time></trkpt><trkpt lat="43.5864426" lon="11.4193952"><ele>349.3333333333333</ele><time>2026-03-22T10:31:52.794Z</time></trkpt><trkpt lat="43.5864806" lon="11.4194812"><ele>347.1666666666667</ele><time>2026-03-22T10:31:54.794Z</time></trkpt><trkpt lat="43.5865444" lon="11.4195772"><ele>345.0</ele><time>2026-03-22T10:31:56.794Z</time></trkpt><trkpt lat="43.5866072" lon="11.4196937"><ele>341.5</ele><time>2026-03-22T10:31:58.794Z</time></trkpt><trkpt lat="43.5866744" lon="11.4198167"><ele>338.0</ele><time>2026-03-22T10:32:00.794Z</time></trkpt><trkpt lat="43.5867206" lon="11.4199427"><ele>334.5</ele><time>2026-03-22T10:32:02.794Z</time></trkpt><trkpt lat="43.5867757" lon="11.4200952"><ele>331.0</ele><time>2026-03-22T10:32:04.794Z</time></trkpt><trkpt lat="43.5868395" lon="11.420236"><ele>331.0</ele><time>2026-03-22T10:32:06.794Z</time></trkpt><trkpt lat="43.5868806" lon="11.4203038"><ele>331.0</ele><time>2026-03-22T10:32:07.793Z</time></trkpt><trkpt lat="43.5869235" lon="11.4203726"><ele>331.0</ele><time>2026-03-22T10:32:08.794Z</time></trkpt><trkpt lat="43.5870168" lon="11.4204808"><ele>331.0</ele><time>2026-03-22T10:32:10.794Z</time></trkpt><trkpt lat="43.5870937" lon="11.4205914"><ele>331.0</ele><time>2026-03-22T10:32:12.793Z</time></trkpt><trkpt lat="43.5871327" lon="11.4206597"><ele>331.0</ele><time>2026-03-22T10:32:13.794Z</time></trkpt><trkpt lat="43.5871818" lon="11.420738"><ele>328.0</ele><time>2026-03-22T10:32:14.793Z</time></trkpt><trkpt lat="43.5872394" lon="11.4208325"><ele>325.0</ele><time>2026-03-22T10:32:15.794Z</time></trkpt><trkpt lat="43.5872938" lon="11.4209459"><ele>322.0</ele><time>2026-03-22T10:32:16.794Z</time></trkpt><trkpt lat="43.5873376" lon="11.4210528"><ele>319.0</ele><time>2026-03-22T10:32:17.794Z</time></trkpt><trkpt lat="43.5873795" lon="11.4211638"><ele>316.0</ele><time>2026-03-22T10:32:18.793Z</time></trkpt><trkpt lat="43.5874155" lon="11.4212673"><ele>314.40000000000003</ele><time>2026-03-22T10:32:19.794Z</time></trkpt><trkpt lat="43.587445" lon="11.4213642"><ele>312.8</ele><time>2026-03-22T10:32:20.793Z</time></trkpt><trkpt lat="43.587467" lon="11.4214457"><ele>311.20000000000005</ele><time>2026-03-22T10:32:21.794Z</time></trkpt><trkpt lat="43.5874245" lon="11.4215673"><ele>309.6</ele><time>2026-03-22T10:32:23.794Z</time></trkpt><trkpt lat="43.5873395" lon="11.4216636"><ele>308.0</ele><time>2026-03-22T10:32:25.793Z</time></trkpt><trkpt lat="43.5872605" lon="11.4218126"><ele>308.0</ele><time>2026-03-22T10:32:27.794Z</time></trkpt><trkpt lat="43.587253" lon="11.4219133"><ele>308.0</ele><time>2026-03-22T10:32:28.794Z</time></trkpt><trkpt lat="43.5872542" lon="11.4220521"><ele>308.0</ele><time>2026-03-22T10:32:29.794Z</time></trkpt><trkpt lat="43.587245" lon="11.4221769"><ele>308.0</ele><time>2026-03-22T10:32:30.794Z</time></trkpt><trkpt lat="43.5872303" lon="11.4222984"><ele>308.0</ele><time>2026-03-22T10:32:31.794Z</time></trkpt><trkpt lat="43.5872042" lon="11.4224259"><ele>308.0</ele><time>2026-03-22T10:32:32.794Z</time></trkpt><trkpt lat="43.5871617" lon="11.4225432"><ele>308.0</ele><time>2026-03-22T10:32:33.794Z</time></trkpt><trkpt lat="43.5871233" lon="11.4226554"><ele>308.0</ele><time>2026-03-22T10:32:34.794Z</time></trkpt><trkpt lat="43.5870731" lon="11.4227693"><ele>308.0</ele><time>2026-03-22T10:32:35.794Z</time></trkpt><trkpt lat="43.5870293" lon="11.4228851"><ele>308.0</ele><time>2026-03-22T10:32:36.794Z</time></trkpt><trkpt lat="43.5869838" lon="11.4230202"><ele>307.83333333333337</ele><time>2026-03-22T10:32:37.794Z</time></trkpt><trkpt lat="43.5869401" lon="11.4231473"><ele>307.6666666666667</ele><time>2026-03-22T10:32:38.794Z</time></trkpt><trkpt lat="43.5868985" lon="11.4232562"><ele>307.5</ele><time>2026-03-22T10:32:39.794Z</time></trkpt><trkpt lat="43.5868628" lon="11.4233592"><ele>307.3333333333333</ele><time>2026-03-22T10:32:40.793Z</time></trkpt><trkpt lat="43.5868381" lon="11.4234585"><ele>307.16666666666663</ele><time>2026-03-22T10:32:41.793Z</time></trkpt><trkpt lat="43.5868202" lon="11.4235595"><ele>307.0</ele><time>2026-03-22T10:32:42.793Z</time></trkpt><trkpt lat="43.5868014" lon="11.4236746"><ele>307.0</ele><time>2026-03-22T10:32:43.794Z</time></trkpt><trkpt lat="43.5867721" lon="11.4237988"><ele>307.0</ele><time>2026-03-22T10:32:44.794Z</time></trkpt><trkpt lat="43.5867465" lon="11.4239336"><ele>307.0</ele><time>2026-03-22T10:32:45.793Z</time></trkpt><trkpt lat="43.5867208" lon="11.4240848"><ele>307.0</ele><time>2026-03-22T10:32:46.794Z</time></trkpt><trkpt lat="43.5866942" lon="11.4242252"><ele>307.0</ele><time>2026-03-22T10:32:47.794Z</time></trkpt><trkpt lat="43.586667" lon="11.4243589"><ele>306.8</ele><time>2026-03-22T10:32:48.794Z</time></trkpt><trkpt lat="43.5866426" lon="11.4244921"><ele>306.6</ele><time>2026-03-22T10:32:49.793Z</time></trkpt><trkpt lat="43.5866167" lon="11.4246285"><ele>306.40000000000003</ele><time>2026-03-22T10:32:50.794Z</time></trkpt><trkpt lat="43.5865915" lon="11.42476"><ele>306.2</ele><time>2026-03-22T10:32:51.794Z</time></trkpt><trkpt lat="43.5865735" lon="11.4248881"><ele>306.0</ele><time>2026-03-22T10:32:52.793Z</time></trkpt><trkpt lat="43.5865556" lon="11.4250173"><ele>305.5</ele><time>2026-03-22T10:32:53.794Z</time></trkpt><trkpt lat="43.5865339" lon="11.4251294"><ele>305.0</ele><time>2026-03-22T10:32:54.794Z</time></trkpt><trkpt lat="43.5865165" lon="11.4252386"><ele>304.5</ele><time>2026-03-22T10:32:55.794Z</time></trkpt><trkpt lat="43.5865095" lon="11.4253403"><ele>304.0</ele><time>2026-03-22T10:32:56.794Z</time></trkpt><trkpt lat="43.5864927" lon="11.4254622"><ele>303.5</ele><time>2026-03-22T10:32:57.794Z</time></trkpt><trkpt lat="43.5864646" lon="11.4255979"><ele>303.0</ele><time>2026-03-22T10:32:58.793Z</time></trkpt><trkpt lat="43.586428" lon="11.4257273"><ele>303.0</ele><time>2026-03-22T10:32:59.793Z</time></trkpt><trkpt lat="43.5863877" lon="11.4258604"><ele>303.0</ele><time>2026-03-22T10:33:00.794Z</time></trkpt><trkpt lat="43.5863463" lon="11.4259967"><ele>303.0</ele><time>2026-03-22T10:33:01.794Z</time></trkpt><trkpt lat="43.5863153" lon="11.4261422"><ele>303.0</ele><time>2026-03-22T10:33:02.794Z</time></trkpt><trkpt lat="43.5862857" lon="11.4262853"><ele>303.0</ele><time>2026-03-22T10:33:03.794Z</time></trkpt><trkpt lat="43.5862737" lon="11.4264303"><ele>303.0</ele><time>2026-03-22T10:33:04.794Z</time></trkpt><trkpt lat="43.5862944" lon="11.4265773"><ele>303.0</ele><time>2026-03-22T10:33:05.794Z</time></trkpt><trkpt lat="43.5863446" lon="11.4267215"><ele>303.0</ele><time>2026-03-22T10:33:06.793Z</time></trkpt><trkpt lat="43.5864051" lon="11.4268444"><ele>303.0</ele><time>2026-03-22T10:33:07.794Z</time></trkpt><trkpt lat="43.5864581" lon="11.426961"><ele>303.0</ele><time>2026-03-22T10:33:08.794Z</time></trkpt><trkpt lat="43.5865097" lon="11.4270687"><ele>302.0</ele><time>2026-03-22T10:33:09.794Z</time></trkpt><trkpt lat="43.586554" lon="11.4271716"><ele>301.0</ele><time>2026-03-22T10:33:10.794Z</time></trkpt><trkpt lat="43.5865988" lon="11.4272663"><ele>300.0</ele><time>2026-03-22T10:33:11.794Z</time></trkpt><trkpt lat="43.5866389" lon="11.4273713"><ele>299.0</ele><time>2026-03-22T10:33:13.794Z</time></trkpt><trkpt lat="43.5866876" lon="11.4274513"><ele>298.0</ele><time>2026-03-22T10:33:52.793Z</time></trkpt><trkpt lat="43.5867437" lon="11.4275258"><ele>297.0</ele><time>2026-03-22T10:33:53.794Z</time></trkpt><trkpt lat="43.5867961" lon="11.4276383"><ele>297.0</ele><time>2026-03-22T10:33:54.793Z</time></trkpt><trkpt lat="43.5868595" lon="11.4277775"><ele>297.0</ele><time>2026-03-22T10:33:55.793Z</time></trkpt><trkpt lat="43.5869255" lon="11.4279249"><ele>297.0</ele><time>2026-03-22T10:33:56.794Z</time></trkpt><trkpt lat="43.5869992" lon="11.4280786"><ele>297.0</ele><time>2026-03-22T10:33:57.794Z</time></trkpt><trkpt lat="43.5870717" lon="11.4282195"><ele>298.5</ele><time>2026-03-22T10:33:58.794Z</time></trkpt><trkpt lat="43.5871432" lon="11.4283655"><ele>300.0</ele><time>2026-03-22T10:33:59.793Z</time></trkpt><trkpt lat="43.587216" lon="11.4285112"><ele>301.5</ele><time>2026-03-22T10:34:00.794Z</time></trkpt><trkpt lat="43.5872825" lon="11.4286511"><ele>303.0</ele><time>2026-03-22T10:34:01.794Z</time></trkpt><trkpt lat="43.5873454" lon="11.4287794"><ele>302.6</ele><time>2026-03-22T10:34:02.794Z</time></trkpt><trkpt lat="43.5873967" lon="11.4289035"><ele>302.20000000000005</ele><time>2026-03-22T10:34:03.794Z</time></trkpt><trkpt lat="43.5874442" lon="11.429021"><ele>301.8</ele><time>2026-03-22T10:34:04.794Z</time></trkpt><trkpt lat="43.5874928" lon="11.4291354"><ele>301.40000000000003</ele><time>2026-03-22T10:34:05.794Z</time></trkpt><trkpt lat="43.5875255" lon="11.429249"><ele>301.0</ele><time>2026-03-22T10:34:06.794Z</time></trkpt><trkpt lat="43.5875271" lon="11.4293819"><ele>301.0</ele><time>2026-03-22T10:34:07.793Z</time></trkpt><trkpt lat="43.5874886" lon="11.4295383"><ele>301.0</ele><time>2026-03-22T10:34:08.794Z</time></trkpt><trkpt lat="43.5874192" lon="11.4296865"><ele>301.0</ele><time>2026-03-22T10:34:09.794Z</time></trkpt><trkpt lat="43.5873255" lon="11.429822"><ele>301.0</ele><time>2026-03-22T10:34:10.794Z</time></trkpt><trkpt lat="43.5872342" lon="11.4299595"><ele>301.0</ele><time>2026-03-22T10:34:11.793Z</time></trkpt><trkpt lat="43.5871507" lon="11.430096"><ele>301.0</ele><time>2026-03-22T10:34:12.794Z</time></trkpt><trkpt lat="43.5870663" lon="11.4302341"><ele>301.0</ele><time>2026-03-22T10:34:13.794Z</time></trkpt><trkpt lat="43.5869833" lon="11.4303633"><ele>301.0</ele><time>2026-03-22T10:34:14.794Z</time></trkpt><trkpt lat="43.5869064" lon="11.4304868"><ele>298.25</ele><time>2026-03-22T10:34:15.794Z</time></trkpt><trkpt lat="43.5868317" lon="11.4306075"><ele>295.5</ele><time>2026-03-22T10:34:16.794Z</time></trkpt><trkpt lat="43.5867564" lon="11.4307367"><ele>292.75</ele><time>2026-03-22T10:34:17.794Z</time></trkpt><trkpt lat="43.5866776" lon="11.4308671"><ele>290.0</ele><time>2026-03-22T10:34:18.793Z</time></trkpt><trkpt lat="43.586594" lon="11.4309905"><ele>290.0</ele><time>2026-03-22T10:34:19.793Z</time></trkpt><trkpt lat="43.5865033" lon="11.431109"><ele>290.0</ele><time>2026-03-22T10:34:20.794Z</time></trkpt><trkpt lat="43.5864282" lon="11.4312318"><ele>290.0</ele><time>2026-03-22T10:34:21.793Z</time></trkpt><trkpt lat="43.5863696" lon="11.4313713"><ele>290.0</ele><time>2026-03-22T10:34:22.794Z</time></trkpt><trkpt lat="43.58635" lon="11.4315393"><ele>289.75</ele><time>2026-03-22T10:34:23.794Z</time></trkpt><trkpt lat="43.5863304" lon="11.4317012"><ele>289.5</ele><time>2026-03-22T10:34:24.794Z</time></trkpt><trkpt lat="43.5863296" lon="11.431873"><ele>289.25</ele><time>2026-03-22T10:34:25.794Z</time></trkpt><trkpt lat="43.5863471" lon="11.4320571"><ele>289.0</ele><time>2026-03-22T10:34:26.793Z</time></trkpt><trkpt lat="43.5863659" lon="11.4322361"><ele>286.5</ele><time>2026-03-22T10:34:27.793Z</time></trkpt><trkpt lat="43.5863909" lon="11.4323978"><ele>284.0</ele><time>2026-03-22T10:34:28.794Z</time></trkpt><trkpt lat="43.5864421" lon="11.4325555"><ele>281.5</ele><time>2026-03-22T10:34:29.794Z</time></trkpt><trkpt lat="43.586512" lon="11.4326944"><ele>279.0</ele><time>2026-03-22T10:34:30.794Z</time></trkpt><trkpt lat="43.5865978" lon="11.4328147"><ele>279.0</ele><time>2026-03-22T10:34:31.793Z</time></trkpt><trkpt lat="43.5867029" lon="11.4329142"><ele>279.0</ele><time>2026-03-22T10:34:32.794Z</time></trkpt><trkpt lat="43.5868443" lon="11.4330039"><ele>279.0</ele><time>2026-03-22T10:34:33.794Z</time></trkpt><trkpt lat="43.5869858" lon="11.4330699"><ele>279.0</ele><time>2026-03-22T10:34:34.794Z</time></trkpt><trkpt lat="43.5871109" lon="11.4331293"><ele>273.75</ele><time>2026-03-22T10:34:35.794Z</time></trkpt><trkpt lat="43.587236" lon="11.4331663"><ele>268.5</ele><time>2026-03-22T10:34:36.794Z</time></trkpt><trkpt lat="43.5873921" lon="11.4331742"><ele>263.25</ele><time>2026-03-22T10:34:37.794Z</time></trkpt><trkpt lat="43.5875521" lon="11.4331708"><ele>258.0</ele><time>2026-03-22T10:34:38.794Z</time></trkpt><trkpt lat="43.5877075" lon="11.4332015"><ele>256.75</ele><time>2026-03-22T10:34:39.794Z</time></trkpt><trkpt lat="43.5878459" lon="11.4332458"><ele>255.5</ele><time>2026-03-22T10:34:40.794Z</time></trkpt><trkpt lat="43.5879787" lon="11.4332928"><ele>254.25</ele><time>2026-03-22T10:34:41.794Z</time></trkpt><trkpt lat="43.5881128" lon="11.4333349"><ele>253.0</ele><time>2026-03-22T10:34:42.793Z</time></trkpt><trkpt lat="43.5882458" lon="11.4333603"><ele>253.0</ele><time>2026-03-22T10:34:43.793Z</time></trkpt><trkpt lat="43.5883636" lon="11.4333461"><ele>253.0</ele><time>2026-03-22T10:34:44.793Z</time></trkpt><trkpt lat="43.5884864" lon="11.4333284"><ele>253.0</ele><time>2026-03-22T10:34:45.794Z</time></trkpt><trkpt lat="43.5886153" lon="11.4333173"><ele>253.0</ele><time>2026-03-22T10:34:46.793Z</time></trkpt><trkpt lat="43.5887539" lon="11.4333147"><ele>251.25</ele><time>2026-03-22T10:34:47.794Z</time></trkpt><trkpt lat="43.5888844" lon="11.4333318"><ele>249.5</ele><time>2026-03-22T10:34:48.794Z</time></trkpt><trkpt lat="43.5890076" lon="11.4333949"><ele>247.75</ele><time>2026-03-22T10:34:49.793Z</time></trkpt><trkpt lat="43.5891135" lon="11.4334819"><ele>246.0</ele><time>2026-03-22T10:34:50.794Z</time></trkpt><trkpt lat="43.5891756" lon="11.4335768"><ele>246.0</ele><time>2026-03-22T10:34:51.794Z</time></trkpt><trkpt lat="43.589215" lon="11.4337004"><ele>246.00000000000003</ele><time>2026-03-22T10:34:52.794Z</time></trkpt><trkpt lat="43.5891798" lon="11.4338145"><ele>246.00000000000003</ele><time>2026-03-22T10:34:53.793Z</time></trkpt><trkpt lat="43.5891289" lon="11.4339163"><ele>246.0</ele><time>2026-03-22T10:34:54.793Z</time></trkpt><trkpt lat="43.5891074" lon="11.4340461"><ele>246.0</ele><time>2026-03-22T10:34:55.794Z</time></trkpt><trkpt lat="43.5891173" lon="11.4342076"><ele>245.5</ele><time>2026-03-22T10:34:56.794Z</time></trkpt><trkpt lat="43.5891457" lon="11.4343757"><ele>245.0</ele><time>2026-03-22T10:34:57.794Z</time></trkpt><trkpt lat="43.5891667" lon="11.4345432"><ele>244.5</ele><time>2026-03-22T10:34:58.794Z</time></trkpt><trkpt lat="43.5891876" lon="11.4347169"><ele>244.0</ele><time>2026-03-22T10:34:59.794Z</time></trkpt><trkpt lat="43.5892196" lon="11.4349004"><ele>244.0</ele><time>2026-03-22T10:35:00.794Z</time></trkpt><trkpt lat="43.5892622" lon="11.4350925"><ele>244.0</ele><time>2026-03-22T10:35:01.794Z</time></trkpt><trkpt lat="43.5893173" lon="11.4352766"><ele>244.0</ele><time>2026-03-22T10:35:02.794Z</time></trkpt><trkpt lat="43.5893692" lon="11.4354552"><ele>244.0</ele><time>2026-03-22T10:35:03.794Z</time></trkpt><trkpt lat="43.5894079" lon="11.4356479"><ele>241.66666666666666</ele><time>2026-03-22T10:35:04.794Z</time></trkpt><trkpt lat="43.5894238" lon="11.435858"><ele>239.33333333333331</ele><time>2026-03-22T10:35:05.794Z</time></trkpt><trkpt lat="43.5894223" lon="11.4360849"><ele>237.0</ele><time>2026-03-22T10:35:06.793Z</time></trkpt><trkpt lat="43.5894056" lon="11.4363085"><ele>235.25</ele><time>2026-03-22T10:35:07.793Z</time></trkpt><trkpt lat="43.5893893" lon="11.4365299"><ele>233.5</ele><time>2026-03-22T10:35:08.794Z</time></trkpt><trkpt lat="43.5893795" lon="11.4367379"><ele>231.75</ele><time>2026-03-22T10:35:09.793Z</time></trkpt><trkpt lat="43.5893815" lon="11.4369244"><ele>230.0</ele><time>2026-03-22T10:35:10.793Z</time></trkpt><trkpt lat="43.5893581" lon="11.4370995"><ele>226.66666666666669</ele><time>2026-03-22T10:35:11.794Z</time></trkpt><trkpt lat="43.5892989" lon="11.4372728"><ele>223.33333333333331</ele><time>2026-03-22T10:35:12.794Z</time></trkpt><trkpt lat="43.5891804" lon="11.4374471"><ele>220.0</ele><time>2026-03-22T10:35:13.793Z</time></trkpt><trkpt lat="43.5890366" lon="11.4376041"><ele>220.0</ele><time>2026-03-22T10:35:14.794Z</time></trkpt><trkpt lat="43.5889087" lon="11.4377558"><ele>220.0</ele><time>2026-03-22T10:35:15.794Z</time></trkpt><trkpt lat="43.5888004" lon="11.4378979"><ele>220.0</ele><time>2026-03-22T10:35:16.794Z</time></trkpt><trkpt lat="43.5887096" lon="11.4380221"><ele>220.0</ele><time>2026-03-22T10:35:17.794Z</time></trkpt><trkpt lat="43.5886618" lon="11.4381586"><ele>216.33333333333331</ele><time>2026-03-22T10:35:18.794Z</time></trkpt><trkpt lat="43.5886488" lon="11.4383297"><ele>212.66666666666669</ele><time>2026-03-22T10:35:19.793Z</time></trkpt><trkpt lat="43.5886618" lon="11.4385366"><ele>209.0</ele><time>2026-03-22T10:35:20.794Z</time></trkpt><trkpt lat="43.5886912" lon="11.4387752"><ele>204.66666666666669</ele><time>2026-03-22T10:35:21.794Z</time></trkpt><trkpt lat="43.588716" lon="11.4390091"><ele>200.33333333333331</ele><time>2026-03-22T10:35:22.794Z</time></trkpt><trkpt lat="43.5887383" lon="11.4392303"><ele>196.0</ele><time>2026-03-22T10:35:23.794Z</time></trkpt><trkpt lat="43.5887522" lon="11.4394419"><ele>194.66666666666666</ele><time>2026-03-22T10:35:24.793Z</time></trkpt><trkpt lat="43.5887665" lon="11.4396667"><ele>193.33333333333331</ele><time>2026-03-22T10:35:25.793Z</time></trkpt><trkpt lat="43.5887626" lon="11.4398819"><ele>192.0</ele><time>2026-03-22T10:35:26.794Z</time></trkpt><trkpt lat="43.5887419" lon="11.4400965"><ele>192.0</ele><time>2026-03-22T10:35:27.794Z</time></trkpt><trkpt lat="43.5887059" lon="11.4402974"><ele>192.0</ele><time>2026-03-22T10:35:28.794Z</time></trkpt><trkpt lat="43.5886857" lon="11.4404931"><ele>192.0</ele><time>2026-03-22T10:35:29.794Z</time></trkpt><trkpt lat="43.5886999" lon="11.4407059"><ele>192.0</ele><time>2026-03-22T10:35:30.794Z</time></trkpt><trkpt lat="43.5887629" lon="11.4409235"><ele>192.33333333333331</ele><time>2026-03-22T10:35:31.794Z</time></trkpt><trkpt lat="43.5888552" lon="11.4410899"><ele>192.66666666666666</ele><time>2026-03-22T10:35:32.793Z</time></trkpt><trkpt lat="43.5889774" lon="11.4412273"><ele>193.0</ele><time>2026-03-22T10:35:33.794Z</time></trkpt><trkpt lat="43.5891128" lon="11.4413381"><ele>193.0</ele><time>2026-03-22T10:35:34.794Z</time></trkpt><trkpt lat="43.5892711" lon="11.4414475"><ele>193.0</ele><time>2026-03-22T10:35:35.794Z</time></trkpt><trkpt lat="43.5894083" lon="11.44158"><ele>193.0</ele><time>2026-03-22T10:35:36.794Z</time></trkpt><trkpt lat="43.5895229" lon="11.4417427"><ele>190.0</ele><time>2026-03-22T10:35:37.794Z</time></trkpt><trkpt lat="43.5896288" lon="11.4419306"><ele>187.0</ele><time>2026-03-22T10:35:38.794Z</time></trkpt><trkpt lat="43.5897212" lon="11.4421265"><ele>184.0</ele><time>2026-03-22T10:35:39.793Z</time></trkpt><trkpt lat="43.5898191" lon="11.4422968"><ele>184.0</ele><time>2026-03-22T10:35:40.793Z</time></trkpt><trkpt lat="43.5899436" lon="11.4424371"><ele>184.0</ele><time>2026-03-22T10:35:41.794Z</time></trkpt><trkpt lat="43.590082" lon="11.4425561"><ele>184.0</ele><time>2026-03-22T10:35:42.793Z</time></trkpt><trkpt lat="43.5902477" lon="11.4426129"><ele>183.33333333333334</ele><time>2026-03-22T10:35:43.794Z</time></trkpt><trkpt lat="43.5904235" lon="11.4426375"><ele>182.66666666666666</ele><time>2026-03-22T10:35:44.794Z</time></trkpt><trkpt lat="43.5905968" lon="11.4426478"><ele>182.0</ele><time>2026-03-22T10:35:45.793Z</time></trkpt><trkpt lat="43.5907432" lon="11.4426819"><ele>182.0</ele><time>2026-03-22T10:35:46.794Z</time></trkpt><trkpt lat="43.5908849" lon="11.4427392"><ele>182.0</ele><time>2026-03-22T10:35:47.793Z</time></trkpt><trkpt lat="43.5910034" lon="11.4427799"><ele>182.0</ele><time>2026-03-22T10:35:48.794Z</time></trkpt><trkpt lat="43.5910971" lon="11.4428518"><ele>182.0</ele><time>2026-03-22T10:35:49.794Z</time></trkpt><trkpt lat="43.5911606" lon="11.4429482"><ele>183.5</ele><time>2026-03-22T10:35:50.794Z</time></trkpt><trkpt lat="43.5911896" lon="11.4431019"><ele>185.0</ele><time>2026-03-22T10:35:51.794Z</time></trkpt><trkpt lat="43.5911947" lon="11.4432723"><ele>186.5</ele><time>2026-03-22T10:35:52.794Z</time></trkpt><trkpt lat="43.5911864" lon="11.4434508"><ele>188.0</ele><time>2026-03-22T10:35:53.794Z</time></trkpt><trkpt lat="43.5912306" lon="11.4436417"><ele>185.0</ele><time>2026-03-22T10:35:54.793Z</time></trkpt><trkpt lat="43.5913052" lon="11.4438419"><ele>182.0</ele><time>2026-03-22T10:35:55.794Z</time></trkpt><trkpt lat="43.5914089" lon="11.444046"><ele>179.0</ele><time>2026-03-22T10:35:56.794Z</time></trkpt><trkpt lat="43.5915166" lon="11.4442556"><ele>179.0</ele><time>2026-03-22T10:35:57.794Z</time></trkpt><trkpt lat="43.5916201" lon="11.4444609"><ele>179.0</ele><time>2026-03-22T10:35:58.793Z</time></trkpt><trkpt lat="43.5917159" lon="11.4446525"><ele>179.0</ele><time>2026-03-22T10:35:59.794Z</time></trkpt><trkpt lat="43.5917787" lon="11.444868"><ele>178.0</ele><time>2026-03-22T10:36:00.794Z</time></trkpt><trkpt lat="43.5918078" lon="11.4450949"><ele>177.0</ele><time>2026-03-22T10:36:01.794Z</time></trkpt><trkpt lat="43.5918464" lon="11.4453584"><ele>176.0</ele><time>2026-03-22T10:36:02.793Z</time></trkpt><trkpt lat="43.5919057" lon="11.4456219"><ele>176.0</ele><time>2026-03-22T10:36:03.794Z</time></trkpt><trkpt lat="43.5919576" lon="11.445886"><ele>176.0</ele><time>2026-03-22T10:36:04.793Z</time></trkpt><trkpt lat="43.5920047" lon="11.4461521"><ele>176.0</ele><time>2026-03-22T10:36:05.794Z</time></trkpt><trkpt lat="43.5920418" lon="11.4464255"><ele>176.33333333333331</ele><time>2026-03-22T10:36:06.793Z</time></trkpt><trkpt lat="43.5920734" lon="11.4466881"><ele>176.66666666666666</ele><time>2026-03-22T10:36:07.794Z</time></trkpt><trkpt lat="43.592096" lon="11.4469445"><ele>177.0</ele><time>2026-03-22T10:36:08.794Z</time></trkpt><trkpt lat="43.5921116" lon="11.44721"><ele>177.0</ele><time>2026-03-22T10:36:09.794Z</time></trkpt><trkpt lat="43.5921118" lon="11.4474972"><ele>177.0</ele><time>2026-03-22T10:36:10.794Z</time></trkpt><trkpt lat="43.5920741" lon="11.4478154"><ele>177.0</ele><time>2026-03-22T10:36:11.794Z</time></trkpt><trkpt lat="43.5920218" lon="11.4481425"><ele>172.66666666666666</ele><time>2026-03-22T10:36:12.794Z</time></trkpt><trkpt lat="43.5919823" lon="11.4484448"><ele>168.33333333333331</ele><time>2026-03-22T10:36:13.794Z</time></trkpt><trkpt lat="43.5919419" lon="11.4487177"><ele>164.0</ele><time>2026-03-22T10:36:14.793Z</time></trkpt><trkpt lat="43.5918995" lon="11.4489667"><ele>163.66666666666666</ele><time>2026-03-22T10:36:15.794Z</time></trkpt><trkpt lat="43.5918549" lon="11.4492222"><ele>163.33333333333334</ele><time>2026-03-22T10:36:16.794Z</time></trkpt><trkpt lat="43.5918113" lon="11.4494628"><ele>163.0</ele><time>2026-03-22T10:36:17.794Z</time></trkpt><trkpt lat="43.5917751" lon="11.4496883"><ele>163.0</ele><time>2026-03-22T10:36:18.794Z</time></trkpt><trkpt lat="43.5917598" lon="11.449906"><ele>163.0</ele><time>2026-03-22T10:36:19.794Z</time></trkpt><trkpt lat="43.5917891" lon="11.4501217"><ele>163.0</ele><time>2026-03-22T10:36:20.794Z</time></trkpt><trkpt lat="43.5918666" lon="11.4503049"><ele>163.0</ele><time>2026-03-22T10:36:21.793Z</time></trkpt><trkpt lat="43.591978" lon="11.4504352"><ele>163.0</ele><time>2026-03-22T10:36:22.794Z</time></trkpt><trkpt lat="43.5921167" lon="11.450538"><ele>163.0</ele><time>2026-03-22T10:36:23.794Z</time></trkpt><trkpt lat="43.5922861" lon="11.4506186"><ele>167.33333333333334</ele><time>2026-03-22T10:36:24.793Z</time></trkpt><trkpt lat="43.5924542" lon="11.450703"><ele>171.66666666666666</ele><time>2026-03-22T10:36:25.794Z</time></trkpt><trkpt lat="43.5925807" lon="11.4508285"><ele>176.0</ele><time>2026-03-22T10:36:26.793Z</time></trkpt><trkpt lat="43.5926453" lon="11.4509923"><ele>176.0</ele><time>2026-03-22T10:36:27.794Z</time></trkpt><trkpt lat="43.5927181" lon="11.4511475"><ele>176.0</ele><time>2026-03-22T10:36:28.794Z</time></trkpt><trkpt lat="43.5928277" lon="11.4512238"><ele>176.0</ele><time>2026-03-22T10:36:29.794Z</time></trkpt><trkpt lat="43.5929877" lon="11.4512317"><ele>176.0</ele><time>2026-03-22T10:36:30.794Z</time></trkpt><trkpt lat="43.5931408" lon="11.4511798"><ele>180.25</ele><time>2026-03-22T10:36:31.794Z</time></trkpt><trkpt lat="43.5932822" lon="11.4511114"><ele>184.5</ele><time>2026-03-22T10:36:32.794Z</time></trkpt><trkpt lat="43.5933895" lon="11.4510857"><ele>188.75</ele><time>2026-03-22T10:36:33.794Z</time></trkpt><trkpt lat="43.5935135" lon="11.4511226"><ele>193.0</ele><time>2026-03-22T10:36:34.794Z</time></trkpt><trkpt lat="43.5936309" lon="11.4512662"><ele>193.66666666666666</ele><time>2026-03-22T10:36:35.793Z</time></trkpt><trkpt lat="43.5937534" lon="11.4514062"><ele>194.33333333333331</ele><time>2026-03-22T10:36:36.793Z</time></trkpt><trkpt lat="43.5938754" lon="11.4515491"><ele>195.0</ele><time>2026-03-22T10:36:37.793Z</time></trkpt><trkpt lat="43.5940125" lon="11.4517208"><ele>195.0</ele><time>2026-03-22T10:36:38.794Z</time></trkpt><trkpt lat="43.5941303" lon="11.4519413"><ele>195.0</ele><time>2026-03-22T10:36:39.794Z</time></trkpt><trkpt lat="43.5942153" lon="11.4521672"><ele>195.0</ele><time>2026-03-22T10:36:40.794Z</time></trkpt><trkpt lat="43.594277" lon="11.4524075"><ele>187.66666666666666</ele><time>2026-03-22T10:36:41.794Z</time></trkpt><trkpt lat="43.5942938" lon="11.452669"><ele>180.33333333333331</ele><time>2026-03-22T10:36:42.794Z</time></trkpt><trkpt lat="43.5943157" lon="11.4529118"><ele>173.0</ele><time>2026-03-22T10:36:43.793Z</time></trkpt><trkpt lat="43.5943263" lon="11.453142"><ele>172.0</ele><time>2026-03-22T10:36:44.794Z</time></trkpt><trkpt lat="43.5943438" lon="11.4533269"><ele>171.0</ele><time>2026-03-22T10:36:45.794Z</time></trkpt><trkpt lat="43.5943691" lon="11.4535069"><ele>170.0</ele><time>2026-03-22T10:36:46.794Z</time></trkpt><trkpt lat="43.5944291" lon="11.4536927"><ele>169.0</ele><time>2026-03-22T10:36:47.794Z</time></trkpt><trkpt lat="43.5945212" lon="11.4538848"><ele>169.0</ele><time>2026-03-22T10:36:48.794Z</time></trkpt><trkpt lat="43.594656" lon="11.4540821"><ele>169.0</ele><time>2026-03-22T10:36:49.794Z</time></trkpt><trkpt lat="43.5948038" lon="11.4543111"><ele>169.0</ele><time>2026-03-22T10:36:50.793Z</time></trkpt><trkpt lat="43.5949797" lon="11.4545534"><ele>162.0</ele><time>2026-03-22T10:36:51.794Z</time></trkpt><trkpt lat="43.5951507" lon="11.4548225"><ele>155.0</ele><time>2026-03-22T10:36:52.793Z</time></trkpt><trkpt lat="43.5953188" lon="11.4550903"><ele>154.5</ele><time>2026-03-22T10:36:53.794Z</time></trkpt><trkpt lat="43.5954785" lon="11.4553734"><ele>154.0</ele><time>2026-03-22T10:36:54.794Z</time></trkpt><trkpt lat="43.5956363" lon="11.455662"><ele>154.0</ele><time>2026-03-22T10:36:55.794Z</time></trkpt><trkpt lat="43.5957853" lon="11.4559677"><ele>154.0</ele><time>2026-03-22T10:36:56.794Z</time></trkpt><trkpt lat="43.5959217" lon="11.4562935"><ele>152.0</ele><time>2026-03-22T10:36:57.793Z</time></trkpt><trkpt lat="43.5960634" lon="11.4566471"><ele>150.0</ele><time>2026-03-22T10:36:58.794Z</time></trkpt><trkpt lat="43.5962041" lon="11.4570083"><ele>148.5</ele><time>2026-03-22T10:36:59.794Z</time></trkpt><trkpt lat="43.5963494" lon="11.4573816"><ele>147.0</ele><time>2026-03-22T10:37:00.794Z</time></trkpt><trkpt lat="43.5965023" lon="11.4577657"><ele>146.0</ele><time>2026-03-22T10:37:01.794Z</time></trkpt><trkpt lat="43.5966576" lon="11.4581571"><ele>145.0</ele><time>2026-03-22T10:37:02.794Z</time></trkpt><trkpt lat="43.5968224" lon="11.4585677"><ele>145.0</ele><time>2026-03-22T10:37:03.794Z</time></trkpt><trkpt lat="43.5969876" lon="11.4589759"><ele>145.0</ele><time>2026-03-22T10:37:04.794Z</time></trkpt><trkpt lat="43.5971534" lon="11.4593811"><ele>145.0</ele><time>2026-03-22T10:37:05.794Z</time></trkpt><trkpt lat="43.5973052" lon="11.4597627"><ele>145.0</ele><time>2026-03-22T10:37:06.794Z</time></trkpt><trkpt lat="43.597456" lon="11.4601175"><ele>144.0</ele><time>2026-03-22T10:37:07.794Z</time></trkpt><trkpt lat="43.5975969" lon="11.4604602"><ele>143.0</ele><time>2026-03-22T10:37:08.794Z</time></trkpt><trkpt lat="43.5977331" lon="11.4607922"><ele>143.0</ele><time>2026-03-22T10:37:09.794Z</time></trkpt><trkpt lat="43.5978709" lon="11.4611176"><ele>143.0</ele><time>2026-03-22T10:37:10.794Z</time></trkpt><trkpt lat="43.5980021" lon="11.461445"><ele>143.0</ele><time>2026-03-22T10:37:11.794Z</time></trkpt><trkpt lat="43.5981239" lon="11.4617551"><ele>143.0</ele><time>2026-03-22T10:37:12.794Z</time></trkpt><trkpt lat="43.5982331" lon="11.4620384"><ele>142.66666666666666</ele><time>2026-03-22T10:37:13.794Z</time></trkpt><trkpt lat="43.5983451" lon="11.4623082"><ele>142.33333333333334</ele><time>2026-03-22T10:37:14.794Z</time></trkpt><trkpt lat="43.5984535" lon="11.4625636"><ele>142.0</ele><time>2026-03-22T10:37:15.793Z</time></trkpt><trkpt lat="43.5985727" lon="11.4628023"><ele>142.0</ele><time>2026-03-22T10:37:16.794Z</time></trkpt><trkpt lat="43.5987229" lon="11.4630298"><ele>142.0</ele><time>2026-03-22T10:37:17.793Z</time></trkpt><trkpt lat="43.5988896" lon="11.4632329"><ele>142.0</ele><time>2026-03-22T10:37:18.794Z</time></trkpt><trkpt lat="43.5990639" lon="11.463374"><ele>142.0</ele><time>2026-03-22T10:37:19.794Z</time></trkpt><trkpt lat="43.5992353" lon="11.46353"><ele>142.0</ele><time>2026-03-22T10:37:20.793Z</time></trkpt><trkpt lat="43.5994217" lon="11.4636986"><ele>142.0</ele><time>2026-03-22T10:37:21.794Z</time></trkpt><trkpt lat="43.5996152" lon="11.4638721"><ele>142.0</ele><time>2026-03-22T10:37:22.794Z</time></trkpt><trkpt lat="43.5998042" lon="11.4640592"><ele>142.0</ele><time>2026-03-22T10:37:23.794Z</time></trkpt><trkpt lat="43.5999902" lon="11.4642571"><ele>142.0</ele><time>2026-03-22T10:37:24.793Z</time></trkpt><trkpt lat="43.6001642" lon="11.4644697"><ele>142.0</ele><time>2026-03-22T10:37:25.794Z</time></trkpt><trkpt lat="43.60032" lon="11.4647242"><ele>143.0</ele><time>2026-03-22T10:37:26.794Z</time></trkpt><trkpt lat="43.6004659" lon="11.465006"><ele>144.0</ele><time>2026-03-22T10:37:27.794Z</time></trkpt><trkpt lat="43.6006188" lon="11.4653127"><ele>141.5</ele><time>2026-03-22T10:37:28.794Z</time></trkpt><trkpt lat="43.6007667" lon="11.4656341"><ele>139.0</ele><time>2026-03-22T10:37:29.794Z</time></trkpt><trkpt lat="43.6009327" lon="11.4659752"><ele>139.0</ele><time>2026-03-22T10:37:30.794Z</time></trkpt><trkpt lat="43.6010955" lon="11.4663179"><ele>139.0</ele><time>2026-03-22T10:37:31.793Z</time></trkpt><trkpt lat="43.6012542" lon="11.4666383"><ele>139.0</ele><time>2026-03-22T10:37:32.793Z</time></trkpt><trkpt lat="43.601402" lon="11.4669399"><ele>139.0</ele><time>2026-03-22T10:37:33.794Z</time></trkpt><trkpt lat="43.6015499" lon="11.4672293"><ele>138.0</ele><time>2026-03-22T10:37:34.793Z</time></trkpt><trkpt lat="43.601707" lon="11.4675235"><ele>137.0</ele><time>2026-03-22T10:37:35.793Z</time></trkpt><trkpt lat="43.6018681" lon="11.4678385"><ele>136.0</ele><time>2026-03-22T10:37:36.794Z</time></trkpt><trkpt lat="43.6020239" lon="11.4681499"><ele>135.0</ele><time>2026-03-22T10:37:37.793Z</time></trkpt><trkpt lat="43.6021694" lon="11.468446"><ele>135.0</ele><time>2026-03-22T10:37:38.793Z</time></trkpt><trkpt lat="43.6023112" lon="11.4687179"><ele>135.0</ele><time>2026-03-22T10:37:39.793Z</time></trkpt><trkpt lat="43.6024409" lon="11.4689775"><ele>134.0</ele><time>2026-03-22T10:37:40.794Z</time></trkpt><trkpt lat="43.6025649" lon="11.4692349"><ele>133.0</ele><time>2026-03-22T10:37:41.794Z</time></trkpt><trkpt lat="43.6026952" lon="11.4694907"><ele>133.5</ele><time>2026-03-22T10:37:42.794Z</time></trkpt><trkpt lat="43.6028248" lon="11.46974"><ele>134.0</ele><time>2026-03-22T10:37:43.794Z</time></trkpt><trkpt lat="43.6029776" lon="11.4699896"><ele>134.0</ele><time>2026-03-22T10:37:44.794Z</time></trkpt><trkpt lat="43.6031446" lon="11.470224"><ele>134.0</ele><time>2026-03-22T10:37:45.794Z</time></trkpt><trkpt lat="43.6033187" lon="11.4704415"><ele>134.0</ele><time>2026-03-22T10:37:46.794Z</time></trkpt><trkpt lat="43.6034954" lon="11.4706361"><ele>134.0</ele><time>2026-03-22T10:37:47.793Z</time></trkpt><trkpt lat="43.6036655" lon="11.4708015"><ele>134.0</ele><time>2026-03-22T10:37:48.794Z</time></trkpt><trkpt lat="43.6038626" lon="11.4709482"><ele>135.0</ele><time>2026-03-22T10:37:49.794Z</time></trkpt><trkpt lat="43.6040645" lon="11.4710892"><ele>136.0</ele><time>2026-03-22T10:37:50.794Z</time></trkpt><trkpt lat="43.6042783" lon="11.4712309"><ele>136.0</ele><time>2026-03-22T10:37:51.794Z</time></trkpt><trkpt lat="43.6044899" lon="11.4713771"><ele>136.0</ele><time>2026-03-22T10:37:52.794Z</time></trkpt><trkpt lat="43.6047038" lon="11.4715257"><ele>136.0</ele><time>2026-03-22T10:37:53.794Z</time></trkpt><trkpt lat="43.604916" lon="11.4716764"><ele>136.0</ele><time>2026-03-22T10:37:54.794Z</time></trkpt><trkpt lat="43.6051242" lon="11.4718272"><ele>136.0</ele><time>2026-03-22T10:37:55.794Z</time></trkpt><trkpt lat="43.6053294" lon="11.4719735"><ele>136.0</ele><time>2026-03-22T10:37:56.794Z</time></trkpt><trkpt lat="43.6055313" lon="11.4721151"><ele>135.33333333333334</ele><time>2026-03-22T10:37:57.794Z</time></trkpt><trkpt lat="43.6057288" lon="11.4722448"><ele>134.66666666666666</ele><time>2026-03-22T10:37:58.794Z</time></trkpt><trkpt lat="43.6059167" lon="11.472379"><ele>134.0</ele><time>2026-03-22T10:37:59.794Z</time></trkpt><trkpt lat="43.6061038" lon="11.472512"><ele>134.0</ele><time>2026-03-22T10:38:00.794Z</time></trkpt><trkpt lat="43.6062916" lon="11.4726596"><ele>134.0</ele><time>2026-03-22T10:38:01.794Z</time></trkpt><trkpt lat="43.6064762" lon="11.4728214"><ele>134.0</ele><time>2026-03-22T10:38:02.794Z</time></trkpt><trkpt lat="43.6066527" lon="11.4730041"><ele>134.5</ele><time>2026-03-22T10:38:03.794Z</time></trkpt><trkpt lat="43.6068278" lon="11.4732204"><ele>135.0</ele><time>2026-03-22T10:38:04.794Z</time></trkpt><trkpt lat="43.6070126" lon="11.4734415"><ele>135.0</ele><time>2026-03-22T10:38:05.793Z</time></trkpt><trkpt lat="43.6072019" lon="11.4736801"><ele>135.0</ele><time>2026-03-22T10:38:06.794Z</time></trkpt><trkpt lat="43.6073905" lon="11.4739142"><ele>133.5</ele><time>2026-03-22T10:38:07.794Z</time></trkpt><trkpt lat="43.6075784" lon="11.4741531"><ele>132.0</ele><time>2026-03-22T10:38:08.794Z</time></trkpt><trkpt lat="43.6077683" lon="11.4743926"><ele>132.0</ele><time>2026-03-22T10:38:09.794Z</time></trkpt><trkpt lat="43.6079542" lon="11.4746237"><ele>132.0</ele><time>2026-03-22T10:38:10.794Z</time></trkpt><trkpt lat="43.6081333" lon="11.474844"><ele>132.0</ele><time>2026-03-22T10:38:11.794Z</time></trkpt><trkpt lat="43.6083054" lon="11.4750472"><ele>132.0</ele><time>2026-03-22T10:38:12.794Z</time></trkpt><trkpt lat="43.6084947" lon="11.4752396"><ele>132.5</ele><time>2026-03-22T10:38:13.794Z</time></trkpt><trkpt lat="43.6086931" lon="11.4754164"><ele>133.0</ele><time>2026-03-22T10:38:14.794Z</time></trkpt><trkpt lat="43.6089023" lon="11.4755639"><ele>133.0</ele><time>2026-03-22T10:38:15.794Z</time></trkpt><trkpt lat="43.6091134" lon="11.4757013"><ele>133.0</ele><time>2026-03-22T10:38:16.793Z</time></trkpt><trkpt lat="43.6093136" lon="11.4758195"><ele>133.33333333333334</ele><time>2026-03-22T10:38:17.793Z</time></trkpt><trkpt lat="43.6095004" lon="11.4759267"><ele>133.66666666666666</ele><time>2026-03-22T10:38:18.793Z</time></trkpt><trkpt lat="43.6096869" lon="11.4760404"><ele>134.0</ele><time>2026-03-22T10:38:19.794Z</time></trkpt><trkpt lat="43.6098837" lon="11.4761507"><ele>132.33333333333331</ele><time>2026-03-22T10:38:20.794Z</time></trkpt><trkpt lat="43.610086" lon="11.4762709"><ele>130.66666666666666</ele><time>2026-03-22T10:38:21.793Z</time></trkpt><trkpt lat="43.6102926" lon="11.4764026"><ele>129.0</ele><time>2026-03-22T10:38:22.794Z</time></trkpt><trkpt lat="43.6104988" lon="11.4765357"><ele>129.0</ele><time>2026-03-22T10:38:23.794Z</time></trkpt><trkpt lat="43.6106944" lon="11.4766616"><ele>129.0</ele><time>2026-03-22T10:38:24.793Z</time></trkpt><trkpt lat="43.6108767" lon="11.4767739"><ele>129.0</ele><time>2026-03-22T10:38:25.794Z</time></trkpt><trkpt lat="43.6110464" lon="11.4768787"><ele>128.33333333333334</ele><time>2026-03-22T10:38:26.794Z</time></trkpt><trkpt lat="43.6112079" lon="11.4769838"><ele>127.66666666666667</ele><time>2026-03-22T10:38:27.794Z</time></trkpt><trkpt lat="43.6113587" lon="11.477084"><ele>127.0</ele><time>2026-03-22T10:38:28.794Z</time></trkpt><trkpt lat="43.6115147" lon="11.477187"><ele>127.0</ele><time>2026-03-22T10:38:29.793Z</time></trkpt><trkpt lat="43.6116902" lon="11.4772897"><ele>127.0</ele><time>2026-03-22T10:38:30.794Z</time></trkpt><trkpt lat="43.6118763" lon="11.4773849"><ele>127.0</ele><time>2026-03-22T10:38:31.794Z</time></trkpt><trkpt lat="43.6120849" lon="11.4774547"><ele>127.5</ele><time>2026-03-22T10:38:32.794Z</time></trkpt><trkpt lat="43.6123129" lon="11.4774878"><ele>128.0</ele><time>2026-03-22T10:38:33.793Z</time></trkpt><trkpt lat="43.6125402" lon="11.4775187"><ele>128.0</ele><time>2026-03-22T10:38:34.793Z</time></trkpt><trkpt lat="43.6127727" lon="11.4775235"><ele>128.0</ele><time>2026-03-22T10:38:35.794Z</time></trkpt><trkpt lat="43.613" lon="11.4775389"><ele>128.33333333333331</ele><time>2026-03-22T10:38:36.793Z</time></trkpt><trkpt lat="43.6132085" lon="11.4775504"><ele>128.66666666666666</ele><time>2026-03-22T10:38:37.794Z</time></trkpt><trkpt lat="43.6134124" lon="11.4775649"><ele>129.0</ele><time>2026-03-22T10:38:38.794Z</time></trkpt><trkpt lat="43.6136066" lon="11.477564"><ele>128.33333333333334</ele><time>2026-03-22T10:38:39.794Z</time></trkpt><trkpt lat="43.6137887" lon="11.4775766"><ele>127.66666666666667</ele><time>2026-03-22T10:38:40.794Z</time></trkpt><trkpt lat="43.6139547" lon="11.4775709"><ele>127.0</ele><time>2026-03-22T10:38:41.793Z</time></trkpt><trkpt lat="43.6140943" lon="11.4775799"><ele>127.0</ele><time>2026-03-22T10:38:42.793Z</time></trkpt><trkpt lat="43.6142077" lon="11.4775994"><ele>126.99999999999999</ele><time>2026-03-22T10:38:43.794Z</time></trkpt><trkpt lat="43.6143035" lon="11.4776135"><ele>126.99999999999999</ele><time>2026-03-22T10:38:44.794Z</time></trkpt><trkpt lat="43.6143906" lon="11.4776819"><ele>127.0</ele><time>2026-03-22T10:38:45.793Z</time></trkpt><trkpt lat="43.6144467" lon="11.4777736"><ele>127.0</ele><time>2026-03-22T10:38:46.794Z</time></trkpt><trkpt lat="43.61449" lon="11.4778576"><ele>126.39999999999999</ele><time>2026-03-22T10:38:47.794Z</time></trkpt><trkpt lat="43.6145721" lon="11.4778952"><ele>125.79999999999998</ele><time>2026-03-22T10:38:48.794Z</time></trkpt><trkpt lat="43.6146569" lon="11.4778384"><ele>125.2</ele><time>2026-03-22T10:38:49.794Z</time></trkpt><trkpt lat="43.6147269" lon="11.4777474"><ele>124.6</ele><time>2026-03-22T10:38:50.794Z</time></trkpt><trkpt lat="43.6148105" lon="11.477573"><ele>124.0</ele><time>2026-03-22T10:38:51.794Z</time></trkpt><trkpt lat="43.6148855" lon="11.4773878"><ele>124.0</ele><time>2026-03-22T10:38:52.794Z</time></trkpt><trkpt lat="43.6149692" lon="11.4771803"><ele>124.0</ele><time>2026-03-22T10:38:53.794Z</time></trkpt><trkpt lat="43.6150632" lon="11.4769745"><ele>124.0</ele><time>2026-03-22T10:38:54.794Z</time></trkpt><trkpt lat="43.6151491" lon="11.4767473"><ele>124.0</ele><time>2026-03-22T10:38:55.794Z</time></trkpt><trkpt lat="43.6152394" lon="11.4765231"><ele>124.0</ele><time>2026-03-22T10:38:56.794Z</time></trkpt><trkpt lat="43.6153241" lon="11.4763274"><ele>124.0</ele><time>2026-03-22T10:38:57.794Z</time></trkpt><trkpt lat="43.615413" lon="11.4761387"><ele>124.0</ele><time>2026-03-22T10:38:58.794Z</time></trkpt><trkpt lat="43.6154918" lon="11.4759611"><ele>124.0</ele><time>2026-03-22T10:38:59.793Z</time></trkpt><trkpt lat="43.6155541" lon="11.4758044"><ele>124.0</ele><time>2026-03-22T10:39:00.794Z</time></trkpt><trkpt lat="43.6155966" lon="11.4756841"><ele>124.0</ele><time>2026-03-22T10:39:01.794Z</time></trkpt><trkpt lat="43.6156254" lon="11.4755703"><ele>124.0</ele><time>2026-03-22T10:39:02.794Z</time></trkpt><trkpt lat="43.6156691" lon="11.4754812"><ele>124.0</ele><time>2026-03-22T10:39:03.794Z</time></trkpt><trkpt lat="43.6157957" lon="11.4755472"><ele>124.0</ele><time>2026-03-22T10:39:05.794Z</time></trkpt><trkpt lat="43.6158631" lon="11.4756341"><ele>124.0</ele><time>2026-03-22T10:39:06.793Z</time></trkpt><trkpt lat="43.6159338" lon="11.4757497"><ele>124.0</ele><time>2026-03-22T10:39:07.794Z</time></trkpt><trkpt lat="43.6159941" lon="11.4758486"><ele>124.0</ele><time>2026-03-22T10:39:08.794Z</time></trkpt><trkpt lat="43.6160496" lon="11.4759357"><ele>124.0</ele><time>2026-03-22T10:39:09.794Z</time></trkpt><trkpt lat="43.6161011" lon="11.4760155"><ele>124.0</ele><time>2026-03-22T10:39:10.794Z</time></trkpt><trkpt lat="43.6161493" lon="11.4760862"><ele>124.0</ele><time>2026-03-22T10:39:11.793Z</time></trkpt><trkpt lat="43.6162353" lon="11.476209"><ele>124.0</ele><time>2026-03-22T10:39:13.794Z</time></trkpt><trkpt lat="43.6163245" lon="11.47631"><ele>124.0</ele><time>2026-03-22T10:39:15.793Z</time></trkpt><trkpt lat="43.6163721" lon="11.4763687"><ele>124.0</ele><time>2026-03-22T10:39:16.794Z</time></trkpt><trkpt lat="43.6164583" lon="11.476482"><ele>124.0</ele><time>2026-03-22T10:39:18.794Z</time></trkpt><trkpt lat="43.6165325" lon="11.4765693"><ele>124.0</ele><time>2026-03-22T10:39:20.794Z</time></trkpt><trkpt lat="43.6166032" lon="11.4766551"><ele>124.0</ele><time>2026-03-22T10:39:22.794Z</time></trkpt><trkpt lat="43.6166566" lon="11.4767365"><ele>124.0</ele><time>2026-03-22T10:39:24.794Z</time></trkpt><trkpt lat="43.6167498" lon="11.4768285"><ele>124.0</ele><time>2026-03-22T10:39:27.793Z</time></trkpt><trkpt lat="43.6168478" lon="11.4768643"><ele>124.0</ele><time>2026-03-22T10:39:29.794Z</time></trkpt><trkpt lat="43.6168946" lon="11.476798"><ele>124.0</ele><time>2026-03-22T10:39:30.794Z</time></trkpt><trkpt lat="43.6169527" lon="11.476646"><ele>124.0</ele><time>2026-03-22T10:39:31.794Z</time></trkpt><trkpt lat="43.6170092" lon="11.4764861"><ele>124.33333333333334</ele><time>2026-03-22T10:39:32.794Z</time></trkpt><trkpt lat="43.6171089" lon="11.476332"><ele>124.66666666666666</ele><time>2026-03-22T10:39:33.793Z</time></trkpt><trkpt lat="43.6172278" lon="11.4761743"><ele>125.0</ele><time>2026-03-22T10:39:34.794Z</time></trkpt><trkpt lat="43.6173628" lon="11.4760168"><ele>125.33333333333333</ele><time>2026-03-22T10:39:35.793Z</time></trkpt><trkpt lat="43.6174972" lon="11.4758469"><ele>125.66666666666666</ele><time>2026-03-22T10:39:36.793Z</time></trkpt><trkpt lat="43.6176212" lon="11.4756762"><ele>126.0</ele><time>2026-03-22T10:39:37.794Z</time></trkpt><trkpt lat="43.6177389" lon="11.4755148"><ele>125.75</ele><time>2026-03-22T10:39:38.793Z</time></trkpt><trkpt lat="43.6178482" lon="11.4753825"><ele>125.5</ele><time>2026-03-22T10:39:39.793Z</time></trkpt><trkpt lat="43.6179437" lon="11.4752748"><ele>125.25</ele><time>2026-03-22T10:39:40.794Z</time></trkpt><trkpt lat="43.6180288" lon="11.4751833"><ele>125.0</ele><time>2026-03-22T10:39:41.794Z</time></trkpt><trkpt lat="43.6180907" lon="11.4751262"><ele>124.99999999999999</ele><time>2026-03-22T10:39:42.794Z</time></trkpt><trkpt lat="43.6181564" lon="11.475089"><ele>125.0</ele><time>2026-03-22T10:39:43.793Z</time></trkpt><trkpt lat="43.6182322" lon="11.4750744"><ele>125.0</ele><time>2026-03-22T10:39:44.794Z</time></trkpt><trkpt lat="43.6183015" lon="11.475115"><ele>125.0</ele><time>2026-03-22T10:39:45.794Z</time></trkpt><trkpt lat="43.6183653" lon="11.4752221"><ele>124.99999999999999</ele><time>2026-03-22T10:39:46.793Z</time></trkpt><trkpt lat="43.6184419" lon="11.4753571"><ele>125.0</ele><time>2026-03-22T10:39:47.794Z</time></trkpt><trkpt lat="43.6185412" lon="11.4755207"><ele>125.0</ele><time>2026-03-22T10:39:48.794Z</time></trkpt><trkpt lat="43.6186461" lon="11.4757195"><ele>125.0</ele><time>2026-03-22T10:39:49.794Z</time></trkpt><trkpt lat="43.6187536" lon="11.4759262"><ele>125.0</ele><time>2026-03-22T10:39:50.794Z</time></trkpt><trkpt lat="43.6188791" lon="11.4761406"><ele>124.33333333333333</ele><time>2026-03-22T10:39:51.794Z</time></trkpt><trkpt lat="43.6190295" lon="11.4763534"><ele>123.66666666666666</ele><time>2026-03-22T10:39:52.794Z</time></trkpt><trkpt lat="43.6191806" lon="11.4765933"><ele>123.0</ele><time>2026-03-22T10:39:53.793Z</time></trkpt><trkpt lat="43.6193115" lon="11.4768041"><ele>123.0</ele><time>2026-03-22T10:39:54.793Z</time></trkpt><trkpt lat="43.6194297" lon="11.4769989"><ele>123.0</ele><time>2026-03-22T10:39:55.793Z</time></trkpt><trkpt lat="43.6195318" lon="11.4771802"><ele>123.0</ele><time>2026-03-22T10:39:56.794Z</time></trkpt><trkpt lat="43.619625" lon="11.4773502"><ele>123.0</ele><time>2026-03-22T10:39:57.793Z</time></trkpt><trkpt lat="43.6197067" lon="11.4774941"><ele>123.0</ele><time>2026-03-22T10:39:58.794Z</time></trkpt><trkpt lat="43.6197794" lon="11.4776227"><ele>123.0</ele><time>2026-03-22T10:39:59.794Z</time></trkpt><trkpt lat="43.6198498" lon="11.4777412"><ele>123.0</ele><time>2026-03-22T10:40:00.793Z</time></trkpt><trkpt lat="43.6199077" lon="11.4778465"><ele>123.0</ele><time>2026-03-22T10:40:01.794Z</time></trkpt><trkpt lat="43.6199678" lon="11.4779399"><ele>123.00000000000001</ele><time>2026-03-22T10:40:02.794Z</time></trkpt><trkpt lat="43.6200245" lon="11.4780421"><ele>123.00000000000001</ele><time>2026-03-22T10:40:03.793Z</time></trkpt><trkpt lat="43.6200966" lon="11.4781662"><ele>123.0</ele><time>2026-03-22T10:40:04.793Z</time></trkpt><trkpt lat="43.6201836" lon="11.4782966"><ele>123.0</ele><time>2026-03-22T10:40:05.794Z</time></trkpt><trkpt lat="43.6202886" lon="11.4784469"><ele>123.0</ele><time>2026-03-22T10:40:06.794Z</time></trkpt><trkpt lat="43.6203908" lon="11.4786236"><ele>123.0</ele><time>2026-03-22T10:40:07.793Z</time></trkpt><trkpt lat="43.6204886" lon="11.4788034"><ele>123.0</ele><time>2026-03-22T10:40:08.794Z</time></trkpt><trkpt lat="43.6205792" lon="11.4789733"><ele>122.75</ele><time>2026-03-22T10:40:09.794Z</time></trkpt><trkpt lat="43.620666" lon="11.4791259"><ele>122.5</ele><time>2026-03-22T10:40:10.794Z</time></trkpt><trkpt lat="43.6207448" lon="11.4792621"><ele>122.25</ele><time>2026-03-22T10:40:11.794Z</time></trkpt><trkpt lat="43.6208359" lon="11.4793868"><ele>122.0</ele><time>2026-03-22T10:40:12.794Z</time></trkpt><trkpt lat="43.6209463" lon="11.4794881"><ele>122.0</ele><time>2026-03-22T10:40:13.794Z</time></trkpt><trkpt lat="43.6210696" lon="11.4795559"><ele>122.0</ele><time>2026-03-22T10:40:14.794Z</time></trkpt><trkpt lat="43.6211844" lon="11.4795872"><ele>122.0</ele><time>2026-03-22T10:40:15.793Z</time></trkpt><trkpt lat="43.6212869" lon="11.4795803"><ele>122.0</ele><time>2026-03-22T10:40:16.793Z</time></trkpt><trkpt lat="43.6213931" lon="11.479546"><ele>122.75</ele><time>2026-03-22T10:40:17.794Z</time></trkpt><trkpt lat="43.6214982" lon="11.4794617"><ele>123.5</ele><time>2026-03-22T10:40:18.793Z</time></trkpt><trkpt lat="43.6216095" lon="11.4793556"><ele>124.25</ele><time>2026-03-22T10:40:19.794Z</time></trkpt><trkpt lat="43.6217393" lon="11.4792267"><ele>125.0</ele><time>2026-03-22T10:40:20.794Z</time></trkpt><trkpt lat="43.6218541" lon="11.479124"><ele>125.0</ele><time>2026-03-22T10:40:21.794Z</time></trkpt><trkpt lat="43.621962" lon="11.479027"><ele>125.0</ele><time>2026-03-22T10:40:22.794Z</time></trkpt><trkpt lat="43.6220512" lon="11.4789418"><ele>125.0</ele><time>2026-03-22T10:40:23.793Z</time></trkpt><trkpt lat="43.6221228" lon="11.4788786"><ele>125.0</ele><time>2026-03-22T10:40:24.794Z</time></trkpt><trkpt lat="43.6221891" lon="11.4788224"><ele>125.0</ele><time>2026-03-22T10:40:25.794Z</time></trkpt><trkpt lat="43.6223084" lon="11.4787814"><ele>124.49999999999999</ele><time>2026-03-22T10:40:27.794Z</time></trkpt><trkpt lat="43.6223992" lon="11.4788624"><ele>124.0</ele><time>2026-03-22T10:40:29.794Z</time></trkpt><trkpt lat="43.622483" lon="11.4789877"><ele>123.5</ele><time>2026-03-22T10:40:31.794Z</time></trkpt><trkpt lat="43.6225234" lon="11.4790735"><ele>123.0</ele><time>2026-03-22T10:40:32.794Z</time></trkpt><trkpt lat="43.6225594" lon="11.4791526"><ele>122.49999999999999</ele><time>2026-03-22T10:40:33.794Z</time></trkpt><trkpt lat="43.6226028" lon="11.4792295"><ele>122.0</ele><time>2026-03-22T10:40:34.794Z</time></trkpt><trkpt lat="43.6226481" lon="11.4793072"><ele>121.99999999999999</ele><time>2026-03-22T10:40:35.793Z</time></trkpt><trkpt lat="43.6226939" lon="11.4793847"><ele>122.0</ele><time>2026-03-22T10:40:36.794Z</time></trkpt><trkpt lat="43.6227467" lon="11.4794704"><ele>122.0</ele><time>2026-03-22T10:40:37.793Z</time></trkpt><trkpt lat="43.6228077" lon="11.479567"><ele>122.0</ele><time>2026-03-22T10:40:38.794Z</time></trkpt><trkpt lat="43.622862" lon="11.4796636"><ele>121.99999999999999</ele><time>2026-03-22T10:40:39.794Z</time></trkpt><trkpt lat="43.6229213" lon="11.4797616"><ele>122.0</ele><time>2026-03-22T10:40:40.793Z</time></trkpt><trkpt lat="43.6229867" lon="11.4798608"><ele>121.66666666666666</ele><time>2026-03-22T10:40:41.793Z</time></trkpt><trkpt lat="43.6230525" lon="11.4799609"><ele>121.33333333333333</ele><time>2026-03-22T10:40:42.793Z</time></trkpt><trkpt lat="43.6231118" lon="11.4800614"><ele>121.0</ele><time>2026-03-22T10:40:43.794Z</time></trkpt><trkpt lat="43.6231714" lon="11.4801524"><ele>120.66666666666666</ele><time>2026-03-22T10:40:44.794Z</time></trkpt><trkpt lat="43.6232282" lon="11.4802377"><ele>120.33333333333333</ele><time>2026-03-22T10:40:45.793Z</time></trkpt><trkpt lat="43.6232828" lon="11.4803258"><ele>120.0</ele><time>2026-03-22T10:40:46.794Z</time></trkpt><trkpt lat="43.6233385" lon="11.4804189"><ele>120.6</ele><time>2026-03-22T10:40:47.794Z</time></trkpt><trkpt lat="43.6234018" lon="11.480518"><ele>121.2</ele><time>2026-03-22T10:40:48.794Z</time></trkpt><trkpt lat="43.6234631" lon="11.4806203"><ele>121.80000000000001</ele><time>2026-03-22T10:40:49.794Z</time></trkpt><trkpt lat="43.6235225" lon="11.4807198"><ele>122.4</ele><time>2026-03-22T10:40:50.794Z</time></trkpt><trkpt lat="43.6235814" lon="11.4808172"><ele>123.0</ele><time>2026-03-22T10:40:51.793Z</time></trkpt><trkpt lat="43.623633" lon="11.4809115"><ele>123.5</ele><time>2026-03-22T10:40:52.794Z</time></trkpt><trkpt lat="43.6236834" lon="11.480997"><ele>124.0</ele><time>2026-03-22T10:40:53.794Z</time></trkpt><trkpt lat="43.623733" lon="11.4810749"><ele>124.5</ele><time>2026-03-22T10:40:54.794Z</time></trkpt><trkpt lat="43.6237902" lon="11.4811574"><ele>125.0</ele><time>2026-03-22T10:40:55.794Z</time></trkpt><trkpt lat="43.6238358" lon="11.4812292"><ele>125.5</ele><time>2026-03-22T10:40:56.794Z</time></trkpt><trkpt lat="43.6238818" lon="11.481354"><ele>126.0</ele><time>2026-03-22T10:40:58.793Z</time></trkpt><trkpt lat="43.6239339" lon="11.4814378"><ele>126.33333333333333</ele><time>2026-03-22T10:41:00.793Z</time></trkpt><trkpt lat="43.6239841" lon="11.4814991"><ele>126.66666666666666</ele><time>2026-03-22T10:41:03.793Z</time></trkpt><trkpt lat="43.6240147" lon="11.4815836"><ele>127.0</ele><time>2026-03-22T10:41:06.794Z</time></trkpt><trkpt lat="43.6239749" lon="11.4817451"><ele>127.33333333333333</ele><time>2026-03-22T10:41:12.793Z</time></trkpt><trkpt lat="43.623976" lon="11.4818413"><ele>127.66666666666666</ele><time>2026-03-22T10:41:13.794Z</time></trkpt><trkpt lat="43.6240267" lon="11.4819368"><ele>128.0</ele><time>2026-03-22T10:41:14.794Z</time></trkpt><trkpt lat="43.6241005" lon="11.4819688"><ele>128.0</ele><time>2026-03-22T10:41:15.794Z</time></trkpt><trkpt lat="43.6241735" lon="11.4819475"><ele>128.0</ele><time>2026-03-22T10:41:16.794Z</time></trkpt><trkpt lat="43.6242401" lon="11.4818555"><ele>128.0</ele><time>2026-03-22T10:41:17.793Z</time></trkpt><trkpt lat="43.6243227" lon="11.4816913"><ele>128.0</ele><time>2026-03-22T10:41:18.793Z</time></trkpt><trkpt lat="43.6244176" lon="11.4815228"><ele>126.66666666666666</ele><time>2026-03-22T10:41:19.794Z</time></trkpt><trkpt lat="43.6245305" lon="11.4813549"><ele>125.33333333333334</ele><time>2026-03-22T10:41:20.793Z</time></trkpt><trkpt lat="43.6246533" lon="11.4811778"><ele>124.0</ele><time>2026-03-22T10:41:21.794Z</time></trkpt><trkpt lat="43.6247827" lon="11.4809871"><ele>124.0</ele><time>2026-03-22T10:41:22.794Z</time></trkpt><trkpt lat="43.6249306" lon="11.4807929"><ele>124.0</ele><time>2026-03-22T10:41:23.794Z</time></trkpt><trkpt lat="43.6250922" lon="11.4806257"><ele>124.0</ele><time>2026-03-22T10:41:24.794Z</time></trkpt><trkpt lat="43.6252787" lon="11.4804836"><ele>124.66666666666667</ele><time>2026-03-22T10:41:25.793Z</time></trkpt><trkpt lat="43.6254832" lon="11.4803732"><ele>125.33333333333334</ele><time>2026-03-22T10:41:26.794Z</time></trkpt><trkpt lat="43.6256665" lon="11.4802676"><ele>126.0</ele><time>2026-03-22T10:41:27.793Z</time></trkpt><trkpt lat="43.6258467" lon="11.4801336"><ele>126.0</ele><time>2026-03-22T10:41:28.794Z</time></trkpt><trkpt lat="43.6260077" lon="11.4799794"><ele>126.0</ele><time>2026-03-22T10:41:29.794Z</time></trkpt><trkpt lat="43.6261515" lon="11.479821"><ele>126.0</ele><time>2026-03-22T10:41:30.794Z</time></trkpt><trkpt lat="43.6262873" lon="11.4796626"><ele>125.66666666666666</ele><time>2026-03-22T10:41:31.793Z</time></trkpt><trkpt lat="43.6264133" lon="11.4795154"><ele>125.33333333333333</ele><time>2026-03-22T10:41:32.794Z</time></trkpt><trkpt lat="43.6265291" lon="11.479377"><ele>125.0</ele><time>2026-03-22T10:41:33.794Z</time></trkpt><trkpt lat="43.6266454" lon="11.479239"><ele>125.0</ele><time>2026-03-22T10:41:34.794Z</time></trkpt><trkpt lat="43.6267659" lon="11.4791083"><ele>125.0</ele><time>2026-03-22T10:41:35.794Z</time></trkpt><trkpt lat="43.6268832" lon="11.4789755"><ele>125.0</ele><time>2026-03-22T10:41:36.794Z</time></trkpt><trkpt lat="43.6270083" lon="11.4788451"><ele>124.75</ele><time>2026-03-22T10:41:37.794Z</time></trkpt><trkpt lat="43.6271272" lon="11.478727"><ele>124.5</ele><time>2026-03-22T10:41:38.794Z</time></trkpt><trkpt lat="43.6272543" lon="11.4786342"><ele>124.25</ele><time>2026-03-22T10:41:39.794Z</time></trkpt><trkpt lat="43.6273755" lon="11.4785593"><ele>124.0</ele><time>2026-03-22T10:41:40.793Z</time></trkpt><trkpt lat="43.627489" lon="11.4784974"><ele>124.0</ele><time>2026-03-22T10:41:41.794Z</time></trkpt><trkpt lat="43.6275928" lon="11.4784364"><ele>124.0</ele><time>2026-03-22T10:41:42.794Z</time></trkpt><trkpt lat="43.6276975" lon="11.4783905"><ele>124.0</ele><time>2026-03-22T10:41:43.794Z</time></trkpt><trkpt lat="43.6277884" lon="11.478385"><ele>124.0</ele><time>2026-03-22T10:41:44.794Z</time></trkpt><trkpt lat="43.6278736" lon="11.4784061"><ele>124.0</ele><time>2026-03-22T10:41:45.794Z</time></trkpt><trkpt lat="43.6279374" lon="11.4784623"><ele>123.50000000000001</ele><time>2026-03-22T10:41:46.794Z</time></trkpt><trkpt lat="43.6280008" lon="11.4785291"><ele>123.0</ele><time>2026-03-22T10:41:47.794Z</time></trkpt><trkpt lat="43.6280614" lon="11.4785822"><ele>122.5</ele><time>2026-03-22T10:41:48.794Z</time></trkpt><trkpt lat="43.6281261" lon="11.4785843"><ele>122.0</ele><time>2026-03-22T10:41:49.794Z</time></trkpt><trkpt lat="43.6281992" lon="11.478527"><ele>121.50000000000001</ele><time>2026-03-22T10:41:50.794Z</time></trkpt><trkpt lat="43.6282671" lon="11.478433"><ele>121.0</ele><time>2026-03-22T10:41:51.793Z</time></trkpt><trkpt lat="43.6283285" lon="11.4783156"><ele>121.0</ele><time>2026-03-22T10:41:52.793Z</time></trkpt><trkpt lat="43.6283941" lon="11.4781729"><ele>121.0</ele><time>2026-03-22T10:41:53.794Z</time></trkpt><trkpt lat="43.6284657" lon="11.4780377"><ele>121.0</ele><time>2026-03-22T10:41:54.794Z</time></trkpt><trkpt lat="43.6285503" lon="11.4778832"><ele>121.0</ele><time>2026-03-22T10:41:55.794Z</time></trkpt><trkpt lat="43.6286413" lon="11.4776874"><ele>123.0</ele><time>2026-03-22T10:41:56.794Z</time></trkpt><trkpt lat="43.6287503" lon="11.4774901"><ele>125.0</ele><time>2026-03-22T10:41:57.794Z</time></trkpt><trkpt lat="43.6288638" lon="11.4773068"><ele>127.0</ele><time>2026-03-22T10:41:58.794Z</time></trkpt><trkpt lat="43.6289851" lon="11.4771303"><ele>126.0</ele><time>2026-03-22T10:41:59.794Z</time></trkpt><trkpt lat="43.6291179" lon="11.4769692"><ele>125.0</ele><time>2026-03-22T10:42:00.794Z</time></trkpt><trkpt lat="43.6292698" lon="11.4768162"><ele>124.0</ele><time>2026-03-22T10:42:01.794Z</time></trkpt><trkpt lat="43.6294502" lon="11.4766757"><ele>125.0</ele><time>2026-03-22T10:42:02.794Z</time></trkpt><trkpt lat="43.629656" lon="11.4765649"><ele>126.0</ele><time>2026-03-22T10:42:03.794Z</time></trkpt><trkpt lat="43.6298688" lon="11.4764772"><ele>127.0</ele><time>2026-03-22T10:42:04.794Z</time></trkpt><trkpt lat="43.6300625" lon="11.4763923"><ele>127.0</ele><time>2026-03-22T10:42:05.794Z</time></trkpt><trkpt lat="43.6302471" lon="11.4763142"><ele>127.0</ele><time>2026-03-22T10:42:06.794Z</time></trkpt><trkpt lat="43.6304222" lon="11.4762394"><ele>127.0</ele><time>2026-03-22T10:42:07.793Z</time></trkpt><trkpt lat="43.6305745" lon="11.4761511"><ele>126.0</ele><time>2026-03-22T10:42:08.794Z</time></trkpt><trkpt lat="43.6307341" lon="11.4760426"><ele>125.0</ele><time>2026-03-22T10:42:09.794Z</time></trkpt><trkpt lat="43.6309047" lon="11.4759143"><ele>124.0</ele><time>2026-03-22T10:42:10.794Z</time></trkpt><trkpt lat="43.6310922" lon="11.4757721"><ele>124.33333333333334</ele><time>2026-03-22T10:42:11.793Z</time></trkpt><trkpt lat="43.6312635" lon="11.4756216"><ele>124.66666666666666</ele><time>2026-03-22T10:42:12.794Z</time></trkpt><trkpt lat="43.6314363" lon="11.4754426"><ele>125.0</ele><time>2026-03-22T10:42:13.794Z</time></trkpt><trkpt lat="43.6316012" lon="11.4752652"><ele>125.33333333333333</ele><time>2026-03-22T10:42:14.794Z</time></trkpt><trkpt lat="43.6317648" lon="11.4750649"><ele>125.66666666666666</ele><time>2026-03-22T10:42:15.793Z</time></trkpt><trkpt lat="43.631921" lon="11.4748516"><ele>126.0</ele><time>2026-03-22T10:42:16.793Z</time></trkpt><trkpt lat="43.6320648" lon="11.4746289"><ele>125.0</ele><time>2026-03-22T10:42:17.794Z</time></trkpt><trkpt lat="43.632215" lon="11.4744036"><ele>124.0</ele><time>2026-03-22T10:42:18.794Z</time></trkpt><trkpt lat="43.6323596" lon="11.4741929"><ele>123.0</ele><time>2026-03-22T10:42:19.793Z</time></trkpt><trkpt lat="43.6324915" lon="11.4739881"><ele>123.0</ele><time>2026-03-22T10:42:20.794Z</time></trkpt><trkpt lat="43.6326179" lon="11.4737997"><ele>123.0</ele><time>2026-03-22T10:42:21.794Z</time></trkpt><trkpt lat="43.6327349" lon="11.4736205"><ele>123.0</ele><time>2026-03-22T10:42:22.794Z</time></trkpt><trkpt lat="43.6328412" lon="11.4734558"><ele>123.0</ele><time>2026-03-22T10:42:23.793Z</time></trkpt><trkpt lat="43.6329472" lon="11.4732992"><ele>123.0</ele><time>2026-03-22T10:42:24.794Z</time></trkpt><trkpt lat="43.6330478" lon="11.4731609"><ele>123.0</ele><time>2026-03-22T10:42:25.794Z</time></trkpt><trkpt lat="43.6331234" lon="11.4730435"><ele>123.0</ele><time>2026-03-22T10:42:26.794Z</time></trkpt><trkpt lat="43.6331793" lon="11.4729336"><ele>123.0</ele><time>2026-03-22T10:42:27.794Z</time></trkpt><trkpt lat="43.6331698" lon="11.4727828"><ele>123.0</ele><time>2026-03-22T10:42:29.793Z</time></trkpt><trkpt lat="43.6331235" lon="11.4726754"><ele>123.0</ele><time>2026-03-22T10:42:31.794Z</time></trkpt></trkseg></trk></gpx>